<?xml version="1.0" encoding="UTF-8" standalone="no" ?>
<gpx xmlns="http://www.topografix.com/GPX/1/1" xmlns:xsi="http://www.w3.org/2001/XMLSchema-instance" xsi:schemaLocation="http://www.topografix.com/GPX/1/1 http://www.topografix.com/GPX/1/1/gpx.xsd" version="1.1" creator="VisuGPX - https://www.visugpx.com">
  <metadata>
    <name>Le Fau/Mandailles</name>
    <desc><![CDATA[Petit déjeuné à l\'auberge, et direction La Bastide, je suis vite dans le vif du sujet, la montée est régulière vers le Roc d\'Hozières(1503m), gagner ensuite le col de Redondet, vue sur le Puy Mary, direction le Puy Chavaroche. La descente vers Cabrespine demande un peu d\'attention, passage le long d\'une barre rocheuse. Poursuivre en direction de St Julien de Jordanne. A l\'entrée du village, prendre une ruelle qui monte à gauche, balisage vert cela évite la rte avant d\'arriver à Mandailles.]]></desc>
  </metadata>
  <trk>
    <name><![CDATA[Le Fau /Mandailles 07-JUIN-15 07:01:11 PM]]></name>
    <trkseg>
      <trkpt lat="45.10167" lon="2.58348">
        <ele>994.62</ele>
        <time>2015-06-06T14:07:09Z</time>
      </trkpt>
      <trkpt lat="45.10167" lon="2.58346">
        <ele>994.62</ele>
        <time>2015-06-06T14:07:35Z</time>
      </trkpt>
      <trkpt lat="45.1017" lon="2.58347">
        <ele>995.1</ele>
        <time>2015-06-06T14:08:06Z</time>
      </trkpt>
      <trkpt lat="45.1017" lon="2.58346">
        <ele>995.58</ele>
        <time>2015-06-06T14:08:32Z</time>
      </trkpt>
      <trkpt lat="45.1017" lon="2.58346">
        <ele>995.58</ele>
        <time>2015-06-06T14:08:46Z</time>
      </trkpt>
      <trkpt lat="45.10169" lon="2.5835">
        <ele>996.06</ele>
        <time>2015-06-06T14:15:01Z</time>
      </trkpt>
      <trkpt lat="45.10166" lon="2.58348">
        <ele>998.95</ele>
        <time>2015-06-06T14:15:31Z</time>
      </trkpt>
      <trkpt lat="45.10168" lon="2.58348">
        <ele>998.95</ele>
        <time>2015-06-06T14:16:03Z</time>
      </trkpt>
      <trkpt lat="45.10164" lon="2.58353">
        <ele>1001.83</ele>
        <time>2015-06-06T14:16:37Z</time>
      </trkpt>
      <trkpt lat="45.10165" lon="2.58352">
        <ele>1001.35</ele>
        <time>2015-06-06T14:17:11Z</time>
      </trkpt>
      <trkpt lat="45.10165" lon="2.58351">
        <ele>1000.39</ele>
        <time>2015-06-06T14:17:45Z</time>
      </trkpt>
      <trkpt lat="45.10165" lon="2.5835">
        <ele>1001.35</ele>
        <time>2015-06-06T14:18:19Z</time>
      </trkpt>
      <trkpt lat="45.10165" lon="2.58349">
        <ele>1001.35</ele>
        <time>2015-06-06T14:18:53Z</time>
      </trkpt>
      <trkpt lat="45.10165" lon="2.58349">
        <ele>1001.83</ele>
        <time>2015-06-06T14:19:29Z</time>
      </trkpt>
      <trkpt lat="45.10165" lon="2.58348">
        <ele>1001.83</ele>
        <time>2015-06-06T14:20:03Z</time>
      </trkpt>
      <trkpt lat="45.10165" lon="2.58347">
        <ele>1002.79</ele>
        <time>2015-06-06T14:20:41Z</time>
      </trkpt>
      <trkpt lat="45.10165" lon="2.58348">
        <ele>1002.31</ele>
        <time>2015-06-06T14:21:19Z</time>
      </trkpt>
      <trkpt lat="45.10165" lon="2.58348">
        <ele>1001.83</ele>
        <time>2015-06-06T14:21:55Z</time>
      </trkpt>
      <trkpt lat="45.10165" lon="2.58349">
        <ele>1001.83</ele>
        <time>2015-06-06T14:22:36Z</time>
      </trkpt>
      <trkpt lat="45.10165" lon="2.58349">
        <ele>1001.35</ele>
        <time>2015-06-06T14:23:10Z</time>
      </trkpt>
      <trkpt lat="45.10164" lon="2.58349">
        <ele>1000.87</ele>
        <time>2015-06-06T14:23:52Z</time>
      </trkpt>
      <trkpt lat="45.10163" lon="2.5835">
        <ele>1000.87</ele>
        <time>2015-06-06T14:24:36Z</time>
      </trkpt>
      <trkpt lat="45.10163" lon="2.5835">
        <ele>1000.87</ele>
        <time>2015-06-06T14:25:12Z</time>
      </trkpt>
      <trkpt lat="45.10163" lon="2.5835">
        <ele>1000.87</ele>
        <time>2015-06-06T14:25:53Z</time>
      </trkpt>
      <trkpt lat="45.10164" lon="2.5835">
        <ele>1000.87</ele>
        <time>2015-06-06T14:26:27Z</time>
      </trkpt>
      <trkpt lat="45.10164" lon="2.5835">
        <ele>1001.83</ele>
        <time>2015-06-06T14:27:03Z</time>
      </trkpt>
      <trkpt lat="45.10164" lon="2.58349">
        <ele>1003.27</ele>
        <time>2015-06-06T14:27:43Z</time>
      </trkpt>
      <trkpt lat="45.10165" lon="2.58348">
        <ele>1004.23</ele>
        <time>2015-06-06T14:28:14Z</time>
      </trkpt>
      <trkpt lat="45.10164" lon="2.58348">
        <ele>1005.2</ele>
        <time>2015-06-06T14:28:47Z</time>
      </trkpt>
      <trkpt lat="45.10164" lon="2.58347">
        <ele>1005.68</ele>
        <time>2015-06-06T14:29:23Z</time>
      </trkpt>
      <trkpt lat="45.10164" lon="2.58346">
        <ele>1005.68</ele>
        <time>2015-06-06T14:29:58Z</time>
      </trkpt>
      <trkpt lat="45.10164" lon="2.58345">
        <ele>1005.68</ele>
        <time>2015-06-06T14:30:31Z</time>
      </trkpt>
      <trkpt lat="45.10165" lon="2.58345">
        <ele>1006.16</ele>
        <time>2015-06-06T14:31:06Z</time>
      </trkpt>
      <trkpt lat="45.10164" lon="2.58346">
        <ele>1006.16</ele>
        <time>2015-06-06T14:31:39Z</time>
      </trkpt>
      <trkpt lat="45.10165" lon="2.58346">
        <ele>1006.16</ele>
        <time>2015-06-06T14:32:12Z</time>
      </trkpt>
      <trkpt lat="45.10165" lon="2.58347">
        <ele>1006.16</ele>
        <time>2015-06-06T14:32:45Z</time>
      </trkpt>
      <trkpt lat="45.10166" lon="2.58347">
        <ele>1006.16</ele>
        <time>2015-06-06T14:33:21Z</time>
      </trkpt>
      <trkpt lat="45.10167" lon="2.58347">
        <ele>1005.2</ele>
        <time>2015-06-06T14:33:52Z</time>
      </trkpt>
      <trkpt lat="45.10167" lon="2.58347">
        <ele>1005.2</ele>
        <time>2015-06-06T14:34:26Z</time>
      </trkpt>
      <trkpt lat="45.10166" lon="2.58347">
        <ele>1004.72</ele>
        <time>2015-06-06T14:35:01Z</time>
      </trkpt>
      <trkpt lat="45.10166" lon="2.58347">
        <ele>1004.72</ele>
        <time>2015-06-06T14:35:31Z</time>
      </trkpt>
      <trkpt lat="45.10166" lon="2.58347">
        <ele>1004.72</ele>
        <time>2015-06-06T14:36:05Z</time>
      </trkpt>
      <trkpt lat="45.10167" lon="2.58347">
        <ele>1005.2</ele>
        <time>2015-06-06T14:36:38Z</time>
      </trkpt>
      <trkpt lat="45.10167" lon="2.58346">
        <ele>1005.2</ele>
        <time>2015-06-06T14:37:12Z</time>
      </trkpt>
      <trkpt lat="45.10167" lon="2.58345">
        <ele>1005.2</ele>
        <time>2015-06-06T14:37:51Z</time>
      </trkpt>
      <trkpt lat="45.10167" lon="2.58345">
        <ele>1004.72</ele>
        <time>2015-06-06T14:38:26Z</time>
      </trkpt>
      <trkpt lat="45.10167" lon="2.58345">
        <ele>1004.72</ele>
        <time>2015-06-06T14:39:04Z</time>
      </trkpt>
      <trkpt lat="45.10168" lon="2.58344">
        <ele>1004.72</ele>
        <time>2015-06-06T14:39:43Z</time>
      </trkpt>
      <trkpt lat="45.10168" lon="2.58344">
        <ele>1003.27</ele>
        <time>2015-06-06T14:40:19Z</time>
      </trkpt>
      <trkpt lat="45.10168" lon="2.58345">
        <ele>1001.35</ele>
        <time>2015-06-06T14:40:54Z</time>
      </trkpt>
      <trkpt lat="45.10168" lon="2.58344">
        <ele>1000.87</ele>
        <time>2015-06-06T14:41:26Z</time>
      </trkpt>
      <trkpt lat="45.10169" lon="2.58344">
        <ele>999.91</ele>
        <time>2015-06-06T14:42:05Z</time>
      </trkpt>
      <trkpt lat="45.10169" lon="2.58345">
        <ele>999.43</ele>
        <time>2015-06-06T14:42:43Z</time>
      </trkpt>
      <trkpt lat="45.10169" lon="2.58345">
        <ele>998.95</ele>
        <time>2015-06-06T14:43:21Z</time>
      </trkpt>
      <trkpt lat="45.10169" lon="2.58345">
        <ele>998.47</ele>
        <time>2015-06-06T14:43:52Z</time>
      </trkpt>
      <trkpt lat="45.10169" lon="2.58345">
        <ele>998.47</ele>
        <time>2015-06-06T14:44:26Z</time>
      </trkpt>
      <trkpt lat="45.10169" lon="2.58346">
        <ele>997.99</ele>
        <time>2015-06-06T14:44:55Z</time>
      </trkpt>
      <trkpt lat="45.10169" lon="2.58347">
        <ele>997.51</ele>
        <time>2015-06-06T14:45:25Z</time>
      </trkpt>
      <trkpt lat="45.1017" lon="2.58347">
        <ele>997.02</ele>
        <time>2015-06-06T14:45:58Z</time>
      </trkpt>
      <trkpt lat="45.1017" lon="2.58349">
        <ele>996.54</ele>
        <time>2015-06-06T14:46:36Z</time>
      </trkpt>
      <trkpt lat="45.1017" lon="2.58349">
        <ele>996.54</ele>
        <time>2015-06-06T14:47:16Z</time>
      </trkpt>
      <trkpt lat="45.1017" lon="2.58349">
        <ele>996.54</ele>
        <time>2015-06-06T14:47:50Z</time>
      </trkpt>
      <trkpt lat="45.10171" lon="2.58349">
        <ele>997.02</ele>
        <time>2015-06-06T14:48:31Z</time>
      </trkpt>
      <trkpt lat="45.1017" lon="2.5835">
        <ele>997.02</ele>
        <time>2015-06-06T14:49:07Z</time>
      </trkpt>
      <trkpt lat="45.1017" lon="2.5835">
        <ele>996.54</ele>
        <time>2015-06-06T14:49:39Z</time>
      </trkpt>
      <trkpt lat="45.1017" lon="2.5835">
        <ele>997.02</ele>
        <time>2015-06-06T14:50:14Z</time>
      </trkpt>
      <trkpt lat="45.1017" lon="2.5835">
        <ele>997.99</ele>
        <time>2015-06-06T14:50:51Z</time>
      </trkpt>
      <trkpt lat="45.1017" lon="2.58349">
        <ele>998.95</ele>
        <time>2015-06-06T14:51:25Z</time>
      </trkpt>
      <trkpt lat="45.1017" lon="2.58348">
        <ele>999.91</ele>
        <time>2015-06-06T14:52:02Z</time>
      </trkpt>
      <trkpt lat="45.10171" lon="2.58348">
        <ele>1000.39</ele>
        <time>2015-06-06T14:52:39Z</time>
      </trkpt>
      <trkpt lat="45.10171" lon="2.58349">
        <ele>1000.87</ele>
        <time>2015-06-06T14:53:17Z</time>
      </trkpt>
      <trkpt lat="45.10171" lon="2.58349">
        <ele>1001.35</ele>
        <time>2015-06-06T14:53:54Z</time>
      </trkpt>
      <trkpt lat="45.1017" lon="2.58349">
        <ele>1001.83</ele>
        <time>2015-06-06T14:54:30Z</time>
      </trkpt>
      <trkpt lat="45.1017" lon="2.58349">
        <ele>1001.35</ele>
        <time>2015-06-06T14:55:06Z</time>
      </trkpt>
      <trkpt lat="45.1017" lon="2.58349">
        <ele>1001.35</ele>
        <time>2015-06-06T14:55:37Z</time>
      </trkpt>
      <trkpt lat="45.1017" lon="2.58349">
        <ele>1001.35</ele>
        <time>2015-06-06T14:56:12Z</time>
      </trkpt>
      <trkpt lat="45.10171" lon="2.58348">
        <ele>1001.35</ele>
        <time>2015-06-06T14:56:46Z</time>
      </trkpt>
      <trkpt lat="45.1017" lon="2.58348">
        <ele>1000.87</ele>
        <time>2015-06-06T14:57:19Z</time>
      </trkpt>
      <trkpt lat="45.1017" lon="2.58347">
        <ele>1000.87</ele>
        <time>2015-06-06T14:57:34Z</time>
      </trkpt>
      <trkpt lat="45.10171" lon="2.58347">
        <ele>1001.35</ele>
        <time>2015-06-06T14:58:02Z</time>
      </trkpt>
      <trkpt lat="45.10171" lon="2.58346">
        <ele>1001.83</ele>
        <time>2015-06-06T14:58:33Z</time>
      </trkpt>
      <trkpt lat="45.10171" lon="2.58346">
        <ele>1001.83</ele>
        <time>2015-06-06T14:59:03Z</time>
      </trkpt>
      <trkpt lat="45.10171" lon="2.58345">
        <ele>1002.31</ele>
        <time>2015-06-06T14:59:37Z</time>
      </trkpt>
      <trkpt lat="45.10171" lon="2.58345">
        <ele>1002.79</ele>
        <time>2015-06-06T15:00:07Z</time>
      </trkpt>
      <trkpt lat="45.1017" lon="2.58345">
        <ele>1003.75</ele>
        <time>2015-06-06T15:00:36Z</time>
      </trkpt>
      <trkpt lat="45.1017" lon="2.58345">
        <ele>1004.23</ele>
        <time>2015-06-06T15:01:01Z</time>
      </trkpt>
      <trkpt lat="45.10171" lon="2.58345">
        <ele>1004.72</ele>
        <time>2015-06-06T15:01:27Z</time>
      </trkpt>
      <trkpt lat="45.10171" lon="2.58346">
        <ele>1005.2</ele>
        <time>2015-06-06T15:01:57Z</time>
      </trkpt>
      <trkpt lat="45.10171" lon="2.58346">
        <ele>1005.2</ele>
        <time>2015-06-06T15:02:27Z</time>
      </trkpt>
      <trkpt lat="45.10169" lon="2.58347">
        <ele>1004.72</ele>
        <time>2015-06-06T15:02:46Z</time>
      </trkpt>
      <trkpt lat="45.10171" lon="2.58346">
        <ele>1004.23</ele>
        <time>2015-06-06T15:03:06Z</time>
      </trkpt>
      <trkpt lat="45.1017" lon="2.58348">
        <ele>1002.31</ele>
        <time>2015-06-06T15:03:28Z</time>
      </trkpt>
      <trkpt lat="45.1017" lon="2.58348">
        <ele>998.95</ele>
        <time>2015-06-06T15:03:59Z</time>
      </trkpt>
      <trkpt lat="45.10171" lon="2.58348">
        <ele>997.51</ele>
        <time>2015-06-06T15:04:28Z</time>
      </trkpt>
      <trkpt lat="45.10172" lon="2.58349">
        <ele>996.54</ele>
        <time>2015-06-06T15:05:00Z</time>
      </trkpt>
      <trkpt lat="45.10172" lon="2.5835">
        <ele>996.54</ele>
        <time>2015-06-06T15:05:29Z</time>
      </trkpt>
      <trkpt lat="45.10169" lon="2.58351">
        <ele>997.02</ele>
        <time>2015-06-06T15:05:54Z</time>
      </trkpt>
      <trkpt lat="45.10171" lon="2.5835">
        <ele>996.54</ele>
        <time>2015-06-06T15:06:27Z</time>
      </trkpt>
      <trkpt lat="45.10148" lon="2.58338">
        <ele>1000.39</ele>
        <time>2015-06-06T15:08:13Z</time>
      </trkpt>
      <trkpt lat="45.10148" lon="2.58337">
        <ele>999.43</ele>
        <time>2015-06-06T15:08:14Z</time>
      </trkpt>
      <trkpt lat="45.10152" lon="2.58351">
        <ele>990.78</ele>
        <time>2015-06-07T04:25:43Z</time>
      </trkpt>
      <trkpt lat="45.10158" lon="2.58349">
        <ele>994.14</ele>
        <time>2015-06-07T04:25:58Z</time>
      </trkpt>
      <trkpt lat="45.10178" lon="2.58425">
        <ele>1005.68</ele>
        <time>2015-06-07T06:00:09Z</time>
      </trkpt>
      <trkpt lat="45.10175" lon="2.58426">
        <ele>1004.23</ele>
        <time>2015-06-07T06:00:17Z</time>
      </trkpt>
      <trkpt lat="45.10177" lon="2.58433">
        <ele>1004.72</ele>
        <time>2015-06-07T06:00:25Z</time>
      </trkpt>
      <trkpt lat="45.10178" lon="2.58447">
        <ele>1004.23</ele>
        <time>2015-06-07T06:00:34Z</time>
      </trkpt>
      <trkpt lat="45.10178" lon="2.58454">
        <ele>1004.72</ele>
        <time>2015-06-07T06:00:38Z</time>
      </trkpt>
      <trkpt lat="45.10177" lon="2.58467">
        <ele>1002.79</ele>
        <time>2015-06-07T06:00:46Z</time>
      </trkpt>
      <trkpt lat="45.10179" lon="2.58491">
        <ele>1001.83</ele>
        <time>2015-06-07T06:01:00Z</time>
      </trkpt>
      <trkpt lat="45.10183" lon="2.58516">
        <ele>1001.35</ele>
        <time>2015-06-07T06:01:14Z</time>
      </trkpt>
      <trkpt lat="45.10183" lon="2.58527">
        <ele>1001.35</ele>
        <time>2015-06-07T06:01:20Z</time>
      </trkpt>
      <trkpt lat="45.10183" lon="2.58536">
        <ele>1001.35</ele>
        <time>2015-06-07T06:01:24Z</time>
      </trkpt>
      <trkpt lat="45.10182" lon="2.58541">
        <ele>1001.35</ele>
        <time>2015-06-07T06:01:27Z</time>
      </trkpt>
      <trkpt lat="45.10183" lon="2.58549">
        <ele>1000.39</ele>
        <time>2015-06-07T06:01:32Z</time>
      </trkpt>
      <trkpt lat="45.10184" lon="2.5857">
        <ele>996.06</ele>
        <time>2015-06-07T06:01:45Z</time>
      </trkpt>
      <trkpt lat="45.10185" lon="2.58592">
        <ele>995.1</ele>
        <time>2015-06-07T06:01:58Z</time>
      </trkpt>
      <trkpt lat="45.10188" lon="2.58616">
        <ele>992.7</ele>
        <time>2015-06-07T06:02:13Z</time>
      </trkpt>
      <trkpt lat="45.10192" lon="2.58639">
        <ele>992.22</ele>
        <time>2015-06-07T06:02:28Z</time>
      </trkpt>
      <trkpt lat="45.10193" lon="2.58651">
        <ele>991.74</ele>
        <time>2015-06-07T06:02:35Z</time>
      </trkpt>
      <trkpt lat="45.10192" lon="2.58672">
        <ele>988.85</ele>
        <time>2015-06-07T06:02:51Z</time>
      </trkpt>
      <trkpt lat="45.10193" lon="2.58696">
        <ele>988.37</ele>
        <time>2015-06-07T06:03:06Z</time>
      </trkpt>
      <trkpt lat="45.10197" lon="2.58717">
        <ele>986.45</ele>
        <time>2015-06-07T06:03:21Z</time>
      </trkpt>
      <trkpt lat="45.10198" lon="2.58721">
        <ele>985.49</ele>
        <time>2015-06-07T06:03:24Z</time>
      </trkpt>
      <trkpt lat="45.10204" lon="2.58744">
        <ele>984.05</ele>
        <time>2015-06-07T06:03:39Z</time>
      </trkpt>
      <trkpt lat="45.10205" lon="2.58747">
        <ele>984.05</ele>
        <time>2015-06-07T06:03:41Z</time>
      </trkpt>
      <trkpt lat="45.10208" lon="2.58756">
        <ele>983.57</ele>
        <time>2015-06-07T06:03:46Z</time>
      </trkpt>
      <trkpt lat="45.10212" lon="2.58766">
        <ele>981.16</ele>
        <time>2015-06-07T06:03:53Z</time>
      </trkpt>
      <trkpt lat="45.10217" lon="2.58776">
        <ele>975.88</ele>
        <time>2015-06-07T06:04:00Z</time>
      </trkpt>
      <trkpt lat="45.10218" lon="2.5878">
        <ele>975.88</ele>
        <time>2015-06-07T06:04:03Z</time>
      </trkpt>
      <trkpt lat="45.1023" lon="2.58804">
        <ele>979.24</ele>
        <time>2015-06-07T06:04:19Z</time>
      </trkpt>
      <trkpt lat="45.10242" lon="2.58829">
        <ele>976.84</ele>
        <time>2015-06-07T06:04:37Z</time>
      </trkpt>
      <trkpt lat="45.10251" lon="2.58856">
        <ele>975.39</ele>
        <time>2015-06-07T06:04:54Z</time>
      </trkpt>
      <trkpt lat="45.10251" lon="2.58858">
        <ele>974.43</ele>
        <time>2015-06-07T06:04:56Z</time>
      </trkpt>
      <trkpt lat="45.10254" lon="2.58865">
        <ele>973.47</ele>
        <time>2015-06-07T06:05:01Z</time>
      </trkpt>
      <trkpt lat="45.10262" lon="2.58889">
        <ele>970.59</ele>
        <time>2015-06-07T06:05:16Z</time>
      </trkpt>
      <trkpt lat="45.10269" lon="2.58906">
        <ele>969.63</ele>
        <time>2015-06-07T06:05:28Z</time>
      </trkpt>
      <trkpt lat="45.10279" lon="2.58925">
        <ele>964.34</ele>
        <time>2015-06-07T06:05:42Z</time>
      </trkpt>
      <trkpt lat="45.10289" lon="2.58947">
        <ele>962.42</ele>
        <time>2015-06-07T06:05:59Z</time>
      </trkpt>
      <trkpt lat="45.10303" lon="2.58969">
        <ele>959.53</ele>
        <time>2015-06-07T06:06:15Z</time>
      </trkpt>
      <trkpt lat="45.10311" lon="2.58986">
        <ele>958.57</ele>
        <time>2015-06-07T06:06:29Z</time>
      </trkpt>
      <trkpt lat="45.10318" lon="2.58998">
        <ele>956.65</ele>
        <time>2015-06-07T06:06:38Z</time>
      </trkpt>
      <trkpt lat="45.10325" lon="2.59018">
        <ele>954.25</ele>
        <time>2015-06-07T06:06:52Z</time>
      </trkpt>
      <trkpt lat="45.10332" lon="2.59041">
        <ele>952.32</ele>
        <time>2015-06-07T06:07:08Z</time>
      </trkpt>
      <trkpt lat="45.10336" lon="2.59066">
        <ele>950.88</ele>
        <time>2015-06-07T06:07:24Z</time>
      </trkpt>
      <trkpt lat="45.10339" lon="2.59079">
        <ele>950.4</ele>
        <time>2015-06-07T06:07:32Z</time>
      </trkpt>
      <trkpt lat="45.1034" lon="2.59085">
        <ele>949.92</ele>
        <time>2015-06-07T06:07:36Z</time>
      </trkpt>
      <trkpt lat="45.10334" lon="2.59107">
        <ele>948.96</ele>
        <time>2015-06-07T06:07:49Z</time>
      </trkpt>
      <trkpt lat="45.10327" lon="2.59119">
        <ele>951.36</ele>
        <time>2015-06-07T06:08:00Z</time>
      </trkpt>
      <trkpt lat="45.10323" lon="2.59124">
        <ele>953.77</ele>
        <time>2015-06-07T06:08:04Z</time>
      </trkpt>
      <trkpt lat="45.10311" lon="2.59136">
        <ele>954.73</ele>
        <time>2015-06-07T06:08:16Z</time>
      </trkpt>
      <trkpt lat="45.103" lon="2.59147">
        <ele>954.73</ele>
        <time>2015-06-07T06:08:26Z</time>
      </trkpt>
      <trkpt lat="45.10294" lon="2.59151">
        <ele>954.73</ele>
        <time>2015-06-07T06:08:32Z</time>
      </trkpt>
      <trkpt lat="45.10282" lon="2.59159">
        <ele>954.73</ele>
        <time>2015-06-07T06:08:43Z</time>
      </trkpt>
      <trkpt lat="45.10276" lon="2.5917">
        <ele>951.84</ele>
        <time>2015-06-07T06:08:50Z</time>
      </trkpt>
      <trkpt lat="45.10267" lon="2.59172">
        <ele>947.52</ele>
        <time>2015-06-07T06:08:59Z</time>
      </trkpt>
      <trkpt lat="45.10264" lon="2.59175">
        <ele>947.52</ele>
        <time>2015-06-07T06:09:02Z</time>
      </trkpt>
      <trkpt lat="45.10249" lon="2.59196">
        <ele>946.56</ele>
        <time>2015-06-07T06:09:16Z</time>
      </trkpt>
      <trkpt lat="45.10247" lon="2.59199">
        <ele>946.56</ele>
        <time>2015-06-07T06:09:18Z</time>
      </trkpt>
      <trkpt lat="45.10239" lon="2.59206">
        <ele>946.56</ele>
        <time>2015-06-07T06:09:26Z</time>
      </trkpt>
      <trkpt lat="45.10232" lon="2.59217">
        <ele>945.59</ele>
        <time>2015-06-07T06:09:38Z</time>
      </trkpt>
      <trkpt lat="45.10227" lon="2.59228">
        <ele>943.67</ele>
        <time>2015-06-07T06:09:46Z</time>
      </trkpt>
      <trkpt lat="45.10224" lon="2.59238">
        <ele>943.67</ele>
        <time>2015-06-07T06:09:52Z</time>
      </trkpt>
      <trkpt lat="45.10214" lon="2.59252">
        <ele>947.52</ele>
        <time>2015-06-07T06:10:04Z</time>
      </trkpt>
      <trkpt lat="45.10214" lon="2.59259">
        <ele>949.92</ele>
        <time>2015-06-07T06:10:08Z</time>
      </trkpt>
      <trkpt lat="45.10217" lon="2.59281">
        <ele>952.8</ele>
        <time>2015-06-07T06:10:20Z</time>
      </trkpt>
      <trkpt lat="45.10218" lon="2.59293">
        <ele>951.36</ele>
        <time>2015-06-07T06:10:27Z</time>
      </trkpt>
      <trkpt lat="45.10221" lon="2.59311">
        <ele>947.52</ele>
        <time>2015-06-07T06:10:40Z</time>
      </trkpt>
      <trkpt lat="45.10229" lon="2.59327">
        <ele>945.59</ele>
        <time>2015-06-07T06:10:51Z</time>
      </trkpt>
      <trkpt lat="45.10235" lon="2.59345">
        <ele>943.19</ele>
        <time>2015-06-07T06:11:04Z</time>
      </trkpt>
      <trkpt lat="45.10244" lon="2.59354">
        <ele>943.19</ele>
        <time>2015-06-07T06:11:15Z</time>
      </trkpt>
      <trkpt lat="45.10255" lon="2.59363">
        <ele>943.19</ele>
        <time>2015-06-07T06:11:24Z</time>
      </trkpt>
      <trkpt lat="45.1026" lon="2.59367">
        <ele>942.71</ele>
        <time>2015-06-07T06:11:28Z</time>
      </trkpt>
      <trkpt lat="45.10263" lon="2.59369">
        <ele>942.71</ele>
        <time>2015-06-07T06:11:31Z</time>
      </trkpt>
      <trkpt lat="45.10274" lon="2.59386">
        <ele>943.67</ele>
        <time>2015-06-07T06:11:45Z</time>
      </trkpt>
      <trkpt lat="45.10282" lon="2.59408">
        <ele>941.75</ele>
        <time>2015-06-07T06:11:59Z</time>
      </trkpt>
      <trkpt lat="45.10287" lon="2.59427">
        <ele>942.71</ele>
        <time>2015-06-07T06:12:11Z</time>
      </trkpt>
      <trkpt lat="45.10286" lon="2.59443">
        <ele>945.11</ele>
        <time>2015-06-07T06:12:21Z</time>
      </trkpt>
      <trkpt lat="45.10289" lon="2.59449">
        <ele>945.59</ele>
        <time>2015-06-07T06:12:31Z</time>
      </trkpt>
      <trkpt lat="45.10289" lon="2.59449">
        <ele>945.11</ele>
        <time>2015-06-07T06:12:36Z</time>
      </trkpt>
      <trkpt lat="45.10292" lon="2.59452">
        <ele>943.19</ele>
        <time>2015-06-07T06:12:40Z</time>
      </trkpt>
      <trkpt lat="45.10295" lon="2.59459">
        <ele>941.75</ele>
        <time>2015-06-07T06:12:48Z</time>
      </trkpt>
      <trkpt lat="45.103" lon="2.59476">
        <ele>939.83</ele>
        <time>2015-06-07T06:13:00Z</time>
      </trkpt>
      <trkpt lat="45.10302" lon="2.5949">
        <ele>940.79</ele>
        <time>2015-06-07T06:13:10Z</time>
      </trkpt>
      <trkpt lat="45.10311" lon="2.59502">
        <ele>942.71</ele>
        <time>2015-06-07T06:13:22Z</time>
      </trkpt>
      <trkpt lat="45.1032" lon="2.59514">
        <ele>945.11</ele>
        <time>2015-06-07T06:13:34Z</time>
      </trkpt>
      <trkpt lat="45.10329" lon="2.59525">
        <ele>947.04</ele>
        <time>2015-06-07T06:13:47Z</time>
      </trkpt>
      <trkpt lat="45.10338" lon="2.59538">
        <ele>948.96</ele>
        <time>2015-06-07T06:14:00Z</time>
      </trkpt>
      <trkpt lat="45.10346" lon="2.59548">
        <ele>947.52</ele>
        <time>2015-06-07T06:14:09Z</time>
      </trkpt>
      <trkpt lat="45.10358" lon="2.59555">
        <ele>948</ele>
        <time>2015-06-07T06:14:22Z</time>
      </trkpt>
      <trkpt lat="45.10371" lon="2.5956">
        <ele>949.92</ele>
        <time>2015-06-07T06:14:34Z</time>
      </trkpt>
      <trkpt lat="45.10382" lon="2.59567">
        <ele>950.4</ele>
        <time>2015-06-07T06:14:47Z</time>
      </trkpt>
      <trkpt lat="45.10394" lon="2.59574">
        <ele>953.28</ele>
        <time>2015-06-07T06:14:59Z</time>
      </trkpt>
      <trkpt lat="45.104" lon="2.59582">
        <ele>952.32</ele>
        <time>2015-06-07T06:15:09Z</time>
      </trkpt>
      <trkpt lat="45.10401" lon="2.59584">
        <ele>952.32</ele>
        <time>2015-06-07T06:15:11Z</time>
      </trkpt>
      <trkpt lat="45.1041" lon="2.59587">
        <ele>953.28</ele>
        <time>2015-06-07T06:15:18Z</time>
      </trkpt>
      <trkpt lat="45.10419" lon="2.59591">
        <ele>953.77</ele>
        <time>2015-06-07T06:15:26Z</time>
      </trkpt>
      <trkpt lat="45.1042" lon="2.59596">
        <ele>952.8</ele>
        <time>2015-06-07T06:15:30Z</time>
      </trkpt>
      <trkpt lat="45.1043" lon="2.59607">
        <ele>952.32</ele>
        <time>2015-06-07T06:15:42Z</time>
      </trkpt>
      <trkpt lat="45.1044" lon="2.59622">
        <ele>951.84</ele>
        <time>2015-06-07T06:15:54Z</time>
      </trkpt>
      <trkpt lat="45.10447" lon="2.59638">
        <ele>952.8</ele>
        <time>2015-06-07T06:16:06Z</time>
      </trkpt>
      <trkpt lat="45.10448" lon="2.59643">
        <ele>954.25</ele>
        <time>2015-06-07T06:16:09Z</time>
      </trkpt>
      <trkpt lat="45.10445" lon="2.59661">
        <ele>954.25</ele>
        <time>2015-06-07T06:16:20Z</time>
      </trkpt>
      <trkpt lat="45.10442" lon="2.59673">
        <ele>954.73</ele>
        <time>2015-06-07T06:16:29Z</time>
      </trkpt>
      <trkpt lat="45.10442" lon="2.59679">
        <ele>955.69</ele>
        <time>2015-06-07T06:16:33Z</time>
      </trkpt>
      <trkpt lat="45.10441" lon="2.59682">
        <ele>956.17</ele>
        <time>2015-06-07T06:16:35Z</time>
      </trkpt>
      <trkpt lat="45.10443" lon="2.59702">
        <ele>956.65</ele>
        <time>2015-06-07T06:16:49Z</time>
      </trkpt>
      <trkpt lat="45.10443" lon="2.59706">
        <ele>956.65</ele>
        <time>2015-06-07T06:16:52Z</time>
      </trkpt>
      <trkpt lat="45.10448" lon="2.59723">
        <ele>957.13</ele>
        <time>2015-06-07T06:17:06Z</time>
      </trkpt>
      <trkpt lat="45.10452" lon="2.59741">
        <ele>960.98</ele>
        <time>2015-06-07T06:17:22Z</time>
      </trkpt>
      <trkpt lat="45.10454" lon="2.59751">
        <ele>960.98</ele>
        <time>2015-06-07T06:17:31Z</time>
      </trkpt>
      <trkpt lat="45.10455" lon="2.59753">
        <ele>960.98</ele>
        <time>2015-06-07T06:17:33Z</time>
      </trkpt>
      <trkpt lat="45.10459" lon="2.59769">
        <ele>963.86</ele>
        <time>2015-06-07T06:17:47Z</time>
      </trkpt>
      <trkpt lat="45.10462" lon="2.59784">
        <ele>963.38</ele>
        <time>2015-06-07T06:18:01Z</time>
      </trkpt>
      <trkpt lat="45.10466" lon="2.59802">
        <ele>964.34</ele>
        <time>2015-06-07T06:18:15Z</time>
      </trkpt>
      <trkpt lat="45.1047" lon="2.59818">
        <ele>967.22</ele>
        <time>2015-06-07T06:18:29Z</time>
      </trkpt>
      <trkpt lat="45.10478" lon="2.59839">
        <ele>968.18</ele>
        <time>2015-06-07T06:18:46Z</time>
      </trkpt>
      <trkpt lat="45.10485" lon="2.59855">
        <ele>971.55</ele>
        <time>2015-06-07T06:19:02Z</time>
      </trkpt>
      <trkpt lat="45.10491" lon="2.59868">
        <ele>971.55</ele>
        <time>2015-06-07T06:19:14Z</time>
      </trkpt>
      <trkpt lat="45.10498" lon="2.59882">
        <ele>972.99</ele>
        <time>2015-06-07T06:19:26Z</time>
      </trkpt>
      <trkpt lat="45.10504" lon="2.59895">
        <ele>975.39</ele>
        <time>2015-06-07T06:19:38Z</time>
      </trkpt>
      <trkpt lat="45.10508" lon="2.5991">
        <ele>975.39</ele>
        <time>2015-06-07T06:19:50Z</time>
      </trkpt>
      <trkpt lat="45.10516" lon="2.59924">
        <ele>975.88</ele>
        <time>2015-06-07T06:20:03Z</time>
      </trkpt>
      <trkpt lat="45.10524" lon="2.59936">
        <ele>977.8</ele>
        <time>2015-06-07T06:20:15Z</time>
      </trkpt>
      <trkpt lat="45.10525" lon="2.59938">
        <ele>978.28</ele>
        <time>2015-06-07T06:20:16Z</time>
      </trkpt>
      <trkpt lat="45.1053" lon="2.59946">
        <ele>978.28</ele>
        <time>2015-06-07T06:20:22Z</time>
      </trkpt>
      <trkpt lat="45.10539" lon="2.59959">
        <ele>979.24</ele>
        <time>2015-06-07T06:20:35Z</time>
      </trkpt>
      <trkpt lat="45.10549" lon="2.59974">
        <ele>980.2</ele>
        <time>2015-06-07T06:20:49Z</time>
      </trkpt>
      <trkpt lat="45.10551" lon="2.59979">
        <ele>981.16</ele>
        <time>2015-06-07T06:20:53Z</time>
      </trkpt>
      <trkpt lat="45.10561" lon="2.59991">
        <ele>983.57</ele>
        <time>2015-06-07T06:21:08Z</time>
      </trkpt>
      <trkpt lat="45.10566" lon="2.59998">
        <ele>984.53</ele>
        <time>2015-06-07T06:21:24Z</time>
      </trkpt>
      <trkpt lat="45.10573" lon="2.60009">
        <ele>985.97</ele>
        <time>2015-06-07T06:21:36Z</time>
      </trkpt>
      <trkpt lat="45.10577" lon="2.60013">
        <ele>986.45</ele>
        <time>2015-06-07T06:21:41Z</time>
      </trkpt>
      <trkpt lat="45.10585" lon="2.60024">
        <ele>986.45</ele>
        <time>2015-06-07T06:21:54Z</time>
      </trkpt>
      <trkpt lat="45.10592" lon="2.60036">
        <ele>989.81</ele>
        <time>2015-06-07T06:22:09Z</time>
      </trkpt>
      <trkpt lat="45.106" lon="2.60049">
        <ele>990.78</ele>
        <time>2015-06-07T06:22:22Z</time>
      </trkpt>
      <trkpt lat="45.10609" lon="2.60063">
        <ele>993.66</ele>
        <time>2015-06-07T06:22:35Z</time>
      </trkpt>
      <trkpt lat="45.10616" lon="2.60076">
        <ele>995.1</ele>
        <time>2015-06-07T06:22:49Z</time>
      </trkpt>
      <trkpt lat="45.10623" lon="2.60089">
        <ele>995.58</ele>
        <time>2015-06-07T06:23:01Z</time>
      </trkpt>
      <trkpt lat="45.10629" lon="2.60102">
        <ele>996.54</ele>
        <time>2015-06-07T06:23:15Z</time>
      </trkpt>
      <trkpt lat="45.10636" lon="2.60117">
        <ele>997.51</ele>
        <time>2015-06-07T06:23:30Z</time>
      </trkpt>
      <trkpt lat="45.10645" lon="2.60133">
        <ele>997.51</ele>
        <time>2015-06-07T06:23:48Z</time>
      </trkpt>
      <trkpt lat="45.10652" lon="2.60144">
        <ele>996.06</ele>
        <time>2015-06-07T06:24:02Z</time>
      </trkpt>
      <trkpt lat="45.10663" lon="2.60149">
        <ele>995.58</ele>
        <time>2015-06-07T06:24:15Z</time>
      </trkpt>
      <trkpt lat="45.10671" lon="2.60153">
        <ele>996.06</ele>
        <time>2015-06-07T06:24:29Z</time>
      </trkpt>
      <trkpt lat="45.10682" lon="2.60159">
        <ele>1000.87</ele>
        <time>2015-06-07T06:24:41Z</time>
      </trkpt>
      <trkpt lat="45.10692" lon="2.60161">
        <ele>1004.23</ele>
        <time>2015-06-07T06:24:54Z</time>
      </trkpt>
      <trkpt lat="45.10704" lon="2.60164">
        <ele>1003.75</ele>
        <time>2015-06-07T06:25:06Z</time>
      </trkpt>
      <trkpt lat="45.10715" lon="2.60164">
        <ele>1002.31</ele>
        <time>2015-06-07T06:25:19Z</time>
      </trkpt>
      <trkpt lat="45.10724" lon="2.60169">
        <ele>1000.39</ele>
        <time>2015-06-07T06:25:34Z</time>
      </trkpt>
      <trkpt lat="45.10728" lon="2.6017">
        <ele>1001.83</ele>
        <time>2015-06-07T06:25:38Z</time>
      </trkpt>
      <trkpt lat="45.10739" lon="2.60172">
        <ele>1004.23</ele>
        <time>2015-06-07T06:25:51Z</time>
      </trkpt>
      <trkpt lat="45.10742" lon="2.60176">
        <ele>1005.2</ele>
        <time>2015-06-07T06:25:55Z</time>
      </trkpt>
      <trkpt lat="45.10751" lon="2.60185">
        <ele>1005.68</ele>
        <time>2015-06-07T06:26:07Z</time>
      </trkpt>
      <trkpt lat="45.1076" lon="2.60194">
        <ele>1007.6</ele>
        <time>2015-06-07T06:26:20Z</time>
      </trkpt>
      <trkpt lat="45.10768" lon="2.60201">
        <ele>1010.96</ele>
        <time>2015-06-07T06:26:32Z</time>
      </trkpt>
      <trkpt lat="45.10776" lon="2.60211">
        <ele>1015.29</ele>
        <time>2015-06-07T06:26:45Z</time>
      </trkpt>
      <trkpt lat="45.10786" lon="2.60218">
        <ele>1020.58</ele>
        <time>2015-06-07T06:27:00Z</time>
      </trkpt>
      <trkpt lat="45.10793" lon="2.60227">
        <ele>1025.38</ele>
        <time>2015-06-07T06:27:14Z</time>
      </trkpt>
      <trkpt lat="45.10803" lon="2.60239">
        <ele>1029.23</ele>
        <time>2015-06-07T06:27:29Z</time>
      </trkpt>
      <trkpt lat="45.10813" lon="2.60247">
        <ele>1031.15</ele>
        <time>2015-06-07T06:27:43Z</time>
      </trkpt>
      <trkpt lat="45.10819" lon="2.60252">
        <ele>1031.15</ele>
        <time>2015-06-07T06:27:54Z</time>
      </trkpt>
      <trkpt lat="45.10827" lon="2.60261">
        <ele>1032.59</ele>
        <time>2015-06-07T06:28:09Z</time>
      </trkpt>
      <trkpt lat="45.10832" lon="2.60264">
        <ele>1035</ele>
        <time>2015-06-07T06:28:19Z</time>
      </trkpt>
      <trkpt lat="45.10844" lon="2.60272">
        <ele>1035.48</ele>
        <time>2015-06-07T06:28:31Z</time>
      </trkpt>
      <trkpt lat="45.10852" lon="2.60276">
        <ele>1035.48</ele>
        <time>2015-06-07T06:28:44Z</time>
      </trkpt>
      <trkpt lat="45.10858" lon="2.60281">
        <ele>1035.48</ele>
        <time>2015-06-07T06:28:55Z</time>
      </trkpt>
      <trkpt lat="45.1087" lon="2.60286">
        <ele>1036.44</ele>
        <time>2015-06-07T06:29:10Z</time>
      </trkpt>
      <trkpt lat="45.1088" lon="2.60298">
        <ele>1039.32</ele>
        <time>2015-06-07T06:29:25Z</time>
      </trkpt>
      <trkpt lat="45.1089" lon="2.60307">
        <ele>1039.32</ele>
        <time>2015-06-07T06:29:38Z</time>
      </trkpt>
      <trkpt lat="45.10898" lon="2.6032">
        <ele>1041.25</ele>
        <time>2015-06-07T06:29:53Z</time>
      </trkpt>
      <trkpt lat="45.10907" lon="2.60334">
        <ele>1039.8</ele>
        <time>2015-06-07T06:30:07Z</time>
      </trkpt>
      <trkpt lat="45.10914" lon="2.60343">
        <ele>1038.36</ele>
        <time>2015-06-07T06:30:14Z</time>
      </trkpt>
      <trkpt lat="45.10922" lon="2.60351">
        <ele>1037.4</ele>
        <time>2015-06-07T06:30:25Z</time>
      </trkpt>
      <trkpt lat="45.10931" lon="2.6036">
        <ele>1037.88</ele>
        <time>2015-06-07T06:30:36Z</time>
      </trkpt>
      <trkpt lat="45.10937" lon="2.60371">
        <ele>1040.76</ele>
        <time>2015-06-07T06:30:47Z</time>
      </trkpt>
      <trkpt lat="45.10945" lon="2.6038">
        <ele>1047.01</ele>
        <time>2015-06-07T06:30:59Z</time>
      </trkpt>
      <trkpt lat="45.10953" lon="2.60388">
        <ele>1047.49</ele>
        <time>2015-06-07T06:31:10Z</time>
      </trkpt>
      <trkpt lat="45.10955" lon="2.60388">
        <ele>1047.01</ele>
        <time>2015-06-07T06:31:12Z</time>
      </trkpt>
      <trkpt lat="45.10961" lon="2.60396">
        <ele>1045.57</ele>
        <time>2015-06-07T06:31:23Z</time>
      </trkpt>
      <trkpt lat="45.10972" lon="2.60407">
        <ele>1047.97</ele>
        <time>2015-06-07T06:31:37Z</time>
      </trkpt>
      <trkpt lat="45.10979" lon="2.60411">
        <ele>1047.97</ele>
        <time>2015-06-07T06:31:45Z</time>
      </trkpt>
      <trkpt lat="45.10988" lon="2.60426">
        <ele>1048.45</ele>
        <time>2015-06-07T06:32:00Z</time>
      </trkpt>
      <trkpt lat="45.10997" lon="2.60436">
        <ele>1050.38</ele>
        <time>2015-06-07T06:32:12Z</time>
      </trkpt>
      <trkpt lat="45.11005" lon="2.60446">
        <ele>1050.38</ele>
        <time>2015-06-07T06:32:24Z</time>
      </trkpt>
      <trkpt lat="45.11006" lon="2.6045">
        <ele>1049.9</ele>
        <time>2015-06-07T06:32:28Z</time>
      </trkpt>
      <trkpt lat="45.11005" lon="2.60455">
        <ele>1049.9</ele>
        <time>2015-06-07T06:32:31Z</time>
      </trkpt>
      <trkpt lat="45.11003" lon="2.60464">
        <ele>1048.45</ele>
        <time>2015-06-07T06:32:39Z</time>
      </trkpt>
      <trkpt lat="45.11007" lon="2.60474">
        <ele>1049.42</ele>
        <time>2015-06-07T06:32:48Z</time>
      </trkpt>
      <trkpt lat="45.11013" lon="2.60486">
        <ele>1052.78</ele>
        <time>2015-06-07T06:33:01Z</time>
      </trkpt>
      <trkpt lat="45.11016" lon="2.6049">
        <ele>1054.22</ele>
        <time>2015-06-07T06:33:04Z</time>
      </trkpt>
      <trkpt lat="45.11018" lon="2.60494">
        <ele>1056.63</ele>
        <time>2015-06-07T06:33:09Z</time>
      </trkpt>
      <trkpt lat="45.11026" lon="2.60499">
        <ele>1059.51</ele>
        <time>2015-06-07T06:33:15Z</time>
      </trkpt>
      <trkpt lat="45.11032" lon="2.60505">
        <ele>1062.87</ele>
        <time>2015-06-07T06:33:26Z</time>
      </trkpt>
      <trkpt lat="45.11033" lon="2.60508">
        <ele>1063.84</ele>
        <time>2015-06-07T06:33:30Z</time>
      </trkpt>
      <trkpt lat="45.1104" lon="2.60517">
        <ele>1068.64</ele>
        <time>2015-06-07T06:33:42Z</time>
      </trkpt>
      <trkpt lat="45.11054" lon="2.60526">
        <ele>1070.08</ele>
        <time>2015-06-07T06:33:54Z</time>
      </trkpt>
      <trkpt lat="45.11061" lon="2.60537">
        <ele>1070.57</ele>
        <time>2015-06-07T06:34:08Z</time>
      </trkpt>
      <trkpt lat="45.11066" lon="2.60545">
        <ele>1072.01</ele>
        <time>2015-06-07T06:34:19Z</time>
      </trkpt>
      <trkpt lat="45.11065" lon="2.6055">
        <ele>1071.53</ele>
        <time>2015-06-07T06:34:22Z</time>
      </trkpt>
      <trkpt lat="45.11067" lon="2.60569">
        <ele>1067.2</ele>
        <time>2015-06-07T06:34:36Z</time>
      </trkpt>
      <trkpt lat="45.11068" lon="2.6057">
        <ele>1067.68</ele>
        <time>2015-06-07T06:34:43Z</time>
      </trkpt>
      <trkpt lat="45.11071" lon="2.60574">
        <ele>1068.64</ele>
        <time>2015-06-07T06:34:47Z</time>
      </trkpt>
      <trkpt lat="45.11076" lon="2.60588">
        <ele>1070.08</ele>
        <time>2015-06-07T06:35:00Z</time>
      </trkpt>
      <trkpt lat="45.1108" lon="2.60602">
        <ele>1072.97</ele>
        <time>2015-06-07T06:35:13Z</time>
      </trkpt>
      <trkpt lat="45.11081" lon="2.60613">
        <ele>1074.41</ele>
        <time>2015-06-07T06:35:24Z</time>
      </trkpt>
      <trkpt lat="45.11083" lon="2.60618">
        <ele>1075.85</ele>
        <time>2015-06-07T06:35:29Z</time>
      </trkpt>
      <trkpt lat="45.11082" lon="2.60632">
        <ele>1077.78</ele>
        <time>2015-06-07T06:35:41Z</time>
      </trkpt>
      <trkpt lat="45.11084" lon="2.60644">
        <ele>1080.18</ele>
        <time>2015-06-07T06:35:52Z</time>
      </trkpt>
      <trkpt lat="45.11085" lon="2.60648">
        <ele>1080.66</ele>
        <time>2015-06-07T06:35:55Z</time>
      </trkpt>
      <trkpt lat="45.1109" lon="2.60659">
        <ele>1082.58</ele>
        <time>2015-06-07T06:36:08Z</time>
      </trkpt>
      <trkpt lat="45.11094" lon="2.6067">
        <ele>1085.95</ele>
        <time>2015-06-07T06:36:18Z</time>
      </trkpt>
      <trkpt lat="45.11095" lon="2.60678">
        <ele>1087.87</ele>
        <time>2015-06-07T06:36:24Z</time>
      </trkpt>
      <trkpt lat="45.11101" lon="2.60691">
        <ele>1088.83</ele>
        <time>2015-06-07T06:36:36Z</time>
      </trkpt>
      <trkpt lat="45.11104" lon="2.60702">
        <ele>1089.31</ele>
        <time>2015-06-07T06:36:47Z</time>
      </trkpt>
      <trkpt lat="45.11106" lon="2.60718">
        <ele>1087.87</ele>
        <time>2015-06-07T06:36:59Z</time>
      </trkpt>
      <trkpt lat="45.11109" lon="2.60736">
        <ele>1085.47</ele>
        <time>2015-06-07T06:37:13Z</time>
      </trkpt>
      <trkpt lat="45.11113" lon="2.6075">
        <ele>1087.87</ele>
        <time>2015-06-07T06:37:24Z</time>
      </trkpt>
      <trkpt lat="45.11115" lon="2.60753">
        <ele>1088.35</ele>
        <time>2015-06-07T06:37:27Z</time>
      </trkpt>
      <trkpt lat="45.1112" lon="2.60763">
        <ele>1090.27</ele>
        <time>2015-06-07T06:37:38Z</time>
      </trkpt>
      <trkpt lat="45.11117" lon="2.60772">
        <ele>1092.68</ele>
        <time>2015-06-07T06:37:45Z</time>
      </trkpt>
      <trkpt lat="45.11122" lon="2.60788">
        <ele>1093.16</ele>
        <time>2015-06-07T06:37:58Z</time>
      </trkpt>
      <trkpt lat="45.11125" lon="2.60794">
        <ele>1093.64</ele>
        <time>2015-06-07T06:38:04Z</time>
      </trkpt>
      <trkpt lat="45.11124" lon="2.60805">
        <ele>1090.75</ele>
        <time>2015-06-07T06:38:15Z</time>
      </trkpt>
      <trkpt lat="45.11126" lon="2.60816">
        <ele>1091.71</ele>
        <time>2015-06-07T06:38:26Z</time>
      </trkpt>
      <trkpt lat="45.1113" lon="2.60827">
        <ele>1093.16</ele>
        <time>2015-06-07T06:38:35Z</time>
      </trkpt>
      <trkpt lat="45.11132" lon="2.60846">
        <ele>1092.68</ele>
        <time>2015-06-07T06:38:50Z</time>
      </trkpt>
      <trkpt lat="45.11136" lon="2.60861">
        <ele>1093.64</ele>
        <time>2015-06-07T06:39:01Z</time>
      </trkpt>
      <trkpt lat="45.1114" lon="2.60867">
        <ele>1094.12</ele>
        <time>2015-06-07T06:39:05Z</time>
      </trkpt>
      <trkpt lat="45.11143" lon="2.60872">
        <ele>1095.56</ele>
        <time>2015-06-07T06:39:12Z</time>
      </trkpt>
      <trkpt lat="45.11147" lon="2.60877">
        <ele>1097.48</ele>
        <time>2015-06-07T06:39:18Z</time>
      </trkpt>
      <trkpt lat="45.11153" lon="2.60892">
        <ele>1097.96</ele>
        <time>2015-06-07T06:39:31Z</time>
      </trkpt>
      <trkpt lat="45.11153" lon="2.60894">
        <ele>1098.44</ele>
        <time>2015-06-07T06:39:32Z</time>
      </trkpt>
      <trkpt lat="45.11154" lon="2.60909">
        <ele>1101.33</ele>
        <time>2015-06-07T06:39:46Z</time>
      </trkpt>
      <trkpt lat="45.11158" lon="2.60923">
        <ele>1103.73</ele>
        <time>2015-06-07T06:39:59Z</time>
      </trkpt>
      <trkpt lat="45.11157" lon="2.60939">
        <ele>1104.21</ele>
        <time>2015-06-07T06:40:11Z</time>
      </trkpt>
      <trkpt lat="45.11158" lon="2.60943">
        <ele>1104.21</ele>
        <time>2015-06-07T06:40:15Z</time>
      </trkpt>
      <trkpt lat="45.11159" lon="2.60949">
        <ele>1104.21</ele>
        <time>2015-06-07T06:40:20Z</time>
      </trkpt>
      <trkpt lat="45.11166" lon="2.60963">
        <ele>1101.33</ele>
        <time>2015-06-07T06:40:33Z</time>
      </trkpt>
      <trkpt lat="45.11168" lon="2.6098">
        <ele>1101.81</ele>
        <time>2015-06-07T06:40:47Z</time>
      </trkpt>
      <trkpt lat="45.1117" lon="2.6099">
        <ele>1103.25</ele>
        <time>2015-06-07T06:40:58Z</time>
      </trkpt>
      <trkpt lat="45.11173" lon="2.61006">
        <ele>1105.65</ele>
        <time>2015-06-07T06:41:11Z</time>
      </trkpt>
      <trkpt lat="45.11176" lon="2.6102">
        <ele>1106.13</ele>
        <time>2015-06-07T06:41:24Z</time>
      </trkpt>
      <trkpt lat="45.1118" lon="2.61032">
        <ele>1107.58</ele>
        <time>2015-06-07T06:41:35Z</time>
      </trkpt>
      <trkpt lat="45.11182" lon="2.61046">
        <ele>1109.5</ele>
        <time>2015-06-07T06:41:47Z</time>
      </trkpt>
      <trkpt lat="45.11183" lon="2.61058">
        <ele>1111.42</ele>
        <time>2015-06-07T06:41:58Z</time>
      </trkpt>
      <trkpt lat="45.11185" lon="2.61064">
        <ele>1112.86</ele>
        <time>2015-06-07T06:42:03Z</time>
      </trkpt>
      <trkpt lat="45.11186" lon="2.61086">
        <ele>1111.42</ele>
        <time>2015-06-07T06:42:18Z</time>
      </trkpt>
      <trkpt lat="45.11186" lon="2.61097">
        <ele>1110.46</ele>
        <time>2015-06-07T06:42:29Z</time>
      </trkpt>
      <trkpt lat="45.11186" lon="2.61099">
        <ele>1110.46</ele>
        <time>2015-06-07T06:42:31Z</time>
      </trkpt>
      <trkpt lat="45.11188" lon="2.61102">
        <ele>1110.94</ele>
        <time>2015-06-07T06:42:33Z</time>
      </trkpt>
      <trkpt lat="45.11189" lon="2.61112">
        <ele>1111.42</ele>
        <time>2015-06-07T06:42:44Z</time>
      </trkpt>
      <trkpt lat="45.11191" lon="2.61121">
        <ele>1111.9</ele>
        <time>2015-06-07T06:42:51Z</time>
      </trkpt>
      <trkpt lat="45.11193" lon="2.61139">
        <ele>1112.38</ele>
        <time>2015-06-07T06:43:04Z</time>
      </trkpt>
      <trkpt lat="45.11194" lon="2.61155">
        <ele>1116.23</ele>
        <time>2015-06-07T06:43:16Z</time>
      </trkpt>
      <trkpt lat="45.11196" lon="2.61168">
        <ele>1117.19</ele>
        <time>2015-06-07T06:43:28Z</time>
      </trkpt>
      <trkpt lat="45.11197" lon="2.61181">
        <ele>1116.71</ele>
        <time>2015-06-07T06:43:39Z</time>
      </trkpt>
      <trkpt lat="45.11198" lon="2.61192">
        <ele>1118.15</ele>
        <time>2015-06-07T06:43:48Z</time>
      </trkpt>
      <trkpt lat="45.11197" lon="2.61201">
        <ele>1117.19</ele>
        <time>2015-06-07T06:43:57Z</time>
      </trkpt>
      <trkpt lat="45.11196" lon="2.61206">
        <ele>1117.19</ele>
        <time>2015-06-07T06:44:01Z</time>
      </trkpt>
      <trkpt lat="45.11198" lon="2.61213">
        <ele>1116.71</ele>
        <time>2015-06-07T06:44:06Z</time>
      </trkpt>
      <trkpt lat="45.11197" lon="2.61222">
        <ele>1118.63</ele>
        <time>2015-06-07T06:44:17Z</time>
      </trkpt>
      <trkpt lat="45.11197" lon="2.6123">
        <ele>1120.07</ele>
        <time>2015-06-07T06:44:26Z</time>
      </trkpt>
      <trkpt lat="45.11201" lon="2.61239">
        <ele>1122</ele>
        <time>2015-06-07T06:44:34Z</time>
      </trkpt>
      <trkpt lat="45.11204" lon="2.61243">
        <ele>1121.52</ele>
        <time>2015-06-07T06:44:39Z</time>
      </trkpt>
      <trkpt lat="45.11208" lon="2.61251">
        <ele>1121.03</ele>
        <time>2015-06-07T06:44:46Z</time>
      </trkpt>
      <trkpt lat="45.11215" lon="2.61264">
        <ele>1124.4</ele>
        <time>2015-06-07T06:45:00Z</time>
      </trkpt>
      <trkpt lat="45.11222" lon="2.61274">
        <ele>1126.32</ele>
        <time>2015-06-07T06:45:12Z</time>
      </trkpt>
      <trkpt lat="45.11232" lon="2.61286">
        <ele>1130.65</ele>
        <time>2015-06-07T06:45:26Z</time>
      </trkpt>
      <trkpt lat="45.11239" lon="2.61294">
        <ele>1132.57</ele>
        <time>2015-06-07T06:45:39Z</time>
      </trkpt>
      <trkpt lat="45.11246" lon="2.61306">
        <ele>1132.57</ele>
        <time>2015-06-07T06:45:52Z</time>
      </trkpt>
      <trkpt lat="45.11253" lon="2.61318">
        <ele>1135.45</ele>
        <time>2015-06-07T06:46:05Z</time>
      </trkpt>
      <trkpt lat="45.11262" lon="2.61328">
        <ele>1134.49</ele>
        <time>2015-06-07T06:46:19Z</time>
      </trkpt>
      <trkpt lat="45.11269" lon="2.61339">
        <ele>1134.97</ele>
        <time>2015-06-07T06:46:29Z</time>
      </trkpt>
      <trkpt lat="45.1127" lon="2.61341">
        <ele>1135.45</ele>
        <time>2015-06-07T06:46:31Z</time>
      </trkpt>
      <trkpt lat="45.1127" lon="2.6135">
        <ele>1137.86</ele>
        <time>2015-06-07T06:46:41Z</time>
      </trkpt>
      <trkpt lat="45.11271" lon="2.61358">
        <ele>1137.86</ele>
        <time>2015-06-07T06:46:50Z</time>
      </trkpt>
      <trkpt lat="45.1128" lon="2.61369">
        <ele>1139.78</ele>
        <time>2015-06-07T06:47:03Z</time>
      </trkpt>
      <trkpt lat="45.11287" lon="2.61386">
        <ele>1142.18</ele>
        <time>2015-06-07T06:47:18Z</time>
      </trkpt>
      <trkpt lat="45.11288" lon="2.61402">
        <ele>1143.14</ele>
        <time>2015-06-07T06:47:31Z</time>
      </trkpt>
      <trkpt lat="45.11289" lon="2.61416">
        <ele>1145.07</ele>
        <time>2015-06-07T06:47:43Z</time>
      </trkpt>
      <trkpt lat="45.11292" lon="2.61432">
        <ele>1146.99</ele>
        <time>2015-06-07T06:47:55Z</time>
      </trkpt>
      <trkpt lat="45.11292" lon="2.61433">
        <ele>1146.99</ele>
        <time>2015-06-07T06:47:56Z</time>
      </trkpt>
      <trkpt lat="45.11291" lon="2.61445">
        <ele>1146.03</ele>
        <time>2015-06-07T06:48:08Z</time>
      </trkpt>
      <trkpt lat="45.1129" lon="2.61452">
        <ele>1148.91</ele>
        <time>2015-06-07T06:48:17Z</time>
      </trkpt>
      <trkpt lat="45.11292" lon="2.61468">
        <ele>1150.84</ele>
        <time>2015-06-07T06:48:30Z</time>
      </trkpt>
      <trkpt lat="45.11293" lon="2.6147">
        <ele>1150.84</ele>
        <time>2015-06-07T06:48:31Z</time>
      </trkpt>
      <trkpt lat="45.11297" lon="2.61481">
        <ele>1152.76</ele>
        <time>2015-06-07T06:48:40Z</time>
      </trkpt>
      <trkpt lat="45.11305" lon="2.61494">
        <ele>1153.72</ele>
        <time>2015-06-07T06:48:53Z</time>
      </trkpt>
      <trkpt lat="45.11304" lon="2.61505">
        <ele>1156.12</ele>
        <time>2015-06-07T06:49:03Z</time>
      </trkpt>
      <trkpt lat="45.11311" lon="2.61518">
        <ele>1155.16</ele>
        <time>2015-06-07T06:49:15Z</time>
      </trkpt>
      <trkpt lat="45.1131" lon="2.6153">
        <ele>1155.64</ele>
        <time>2015-06-07T06:49:26Z</time>
      </trkpt>
      <trkpt lat="45.11309" lon="2.61543">
        <ele>1159.01</ele>
        <time>2015-06-07T06:49:38Z</time>
      </trkpt>
      <trkpt lat="45.11309" lon="2.61555">
        <ele>1158.53</ele>
        <time>2015-06-07T06:49:46Z</time>
      </trkpt>
      <trkpt lat="45.11311" lon="2.61562">
        <ele>1158.05</ele>
        <time>2015-06-07T06:49:51Z</time>
      </trkpt>
      <trkpt lat="45.11317" lon="2.61574">
        <ele>1161.41</ele>
        <time>2015-06-07T06:50:04Z</time>
      </trkpt>
      <trkpt lat="45.11326" lon="2.6158">
        <ele>1163.81</ele>
        <time>2015-06-07T06:50:14Z</time>
      </trkpt>
      <trkpt lat="45.11334" lon="2.61587">
        <ele>1164.77</ele>
        <time>2015-06-07T06:50:27Z</time>
      </trkpt>
      <trkpt lat="45.1133" lon="2.61588">
        <ele>1165.74</ele>
        <time>2015-06-07T06:50:45Z</time>
      </trkpt>
      <trkpt lat="45.11329" lon="2.61589">
        <ele>1164.77</ele>
        <time>2015-06-07T06:51:06Z</time>
      </trkpt>
      <trkpt lat="45.11332" lon="2.61597">
        <ele>1165.26</ele>
        <time>2015-06-07T06:51:14Z</time>
      </trkpt>
      <trkpt lat="45.11333" lon="2.616">
        <ele>1165.74</ele>
        <time>2015-06-07T06:51:17Z</time>
      </trkpt>
      <trkpt lat="45.11341" lon="2.61609">
        <ele>1162.85</ele>
        <time>2015-06-07T06:51:28Z</time>
      </trkpt>
      <trkpt lat="45.11346" lon="2.61617">
        <ele>1160.93</ele>
        <time>2015-06-07T06:51:39Z</time>
      </trkpt>
      <trkpt lat="45.11348" lon="2.61617">
        <ele>1161.41</ele>
        <time>2015-06-07T06:51:49Z</time>
      </trkpt>
      <trkpt lat="45.11347" lon="2.61616">
        <ele>1161.41</ele>
        <time>2015-06-07T06:52:07Z</time>
      </trkpt>
      <trkpt lat="45.11346" lon="2.61617">
        <ele>1162.37</ele>
        <time>2015-06-07T06:52:30Z</time>
      </trkpt>
      <trkpt lat="45.11346" lon="2.61617">
        <ele>1162.37</ele>
        <time>2015-06-07T06:53:02Z</time>
      </trkpt>
      <trkpt lat="45.11346" lon="2.61618">
        <ele>1162.85</ele>
        <time>2015-06-07T06:53:40Z</time>
      </trkpt>
      <trkpt lat="45.11347" lon="2.61618">
        <ele>1162.37</ele>
        <time>2015-06-07T06:54:21Z</time>
      </trkpt>
      <trkpt lat="45.11346" lon="2.61618">
        <ele>1162.37</ele>
        <time>2015-06-07T06:54:59Z</time>
      </trkpt>
      <trkpt lat="45.11346" lon="2.61619">
        <ele>1162.37</ele>
        <time>2015-06-07T06:55:37Z</time>
      </trkpt>
      <trkpt lat="45.11346" lon="2.6162">
        <ele>1164.29</ele>
        <time>2015-06-07T06:56:14Z</time>
      </trkpt>
      <trkpt lat="45.11346" lon="2.6162">
        <ele>1165.74</ele>
        <time>2015-06-07T06:56:55Z</time>
      </trkpt>
      <trkpt lat="45.11346" lon="2.61619">
        <ele>1165.74</ele>
        <time>2015-06-07T06:57:26Z</time>
      </trkpt>
      <trkpt lat="45.11346" lon="2.61619">
        <ele>1165.74</ele>
        <time>2015-06-07T06:58:05Z</time>
      </trkpt>
      <trkpt lat="45.11346" lon="2.61619">
        <ele>1166.22</ele>
        <time>2015-06-07T06:58:43Z</time>
      </trkpt>
      <trkpt lat="45.11346" lon="2.6162">
        <ele>1166.22</ele>
        <time>2015-06-07T06:59:22Z</time>
      </trkpt>
      <trkpt lat="45.11346" lon="2.6162">
        <ele>1166.22</ele>
        <time>2015-06-07T06:59:51Z</time>
      </trkpt>
      <trkpt lat="45.11346" lon="2.6162">
        <ele>1166.22</ele>
        <time>2015-06-07T07:00:22Z</time>
      </trkpt>
      <trkpt lat="45.11346" lon="2.61619">
        <ele>1166.22</ele>
        <time>2015-06-07T07:00:51Z</time>
      </trkpt>
      <trkpt lat="45.11345" lon="2.61619">
        <ele>1166.22</ele>
        <time>2015-06-07T07:01:20Z</time>
      </trkpt>
      <trkpt lat="45.11345" lon="2.61619">
        <ele>1166.22</ele>
        <time>2015-06-07T07:01:51Z</time>
      </trkpt>
      <trkpt lat="45.11344" lon="2.61619">
        <ele>1166.22</ele>
        <time>2015-06-07T07:02:09Z</time>
      </trkpt>
      <trkpt lat="45.11344" lon="2.61619">
        <ele>1165.74</ele>
        <time>2015-06-07T07:02:31Z</time>
      </trkpt>
      <trkpt lat="45.11345" lon="2.61618">
        <ele>1162.85</ele>
        <time>2015-06-07T07:02:55Z</time>
      </trkpt>
      <trkpt lat="45.11347" lon="2.61616">
        <ele>1163.33</ele>
        <time>2015-06-07T07:03:21Z</time>
      </trkpt>
      <trkpt lat="45.11346" lon="2.61616">
        <ele>1162.85</ele>
        <time>2015-06-07T07:03:43Z</time>
      </trkpt>
      <trkpt lat="45.11345" lon="2.61614">
        <ele>1161.41</ele>
        <time>2015-06-07T07:04:09Z</time>
      </trkpt>
      <trkpt lat="45.11344" lon="2.61615">
        <ele>1161.41</ele>
        <time>2015-06-07T07:04:28Z</time>
      </trkpt>
      <trkpt lat="45.11338" lon="2.61622">
        <ele>1161.41</ele>
        <time>2015-06-07T07:04:34Z</time>
      </trkpt>
      <trkpt lat="45.11339" lon="2.61631">
        <ele>1161.89</ele>
        <time>2015-06-07T07:04:40Z</time>
      </trkpt>
      <trkpt lat="45.11343" lon="2.61647">
        <ele>1160.93</ele>
        <time>2015-06-07T07:04:51Z</time>
      </trkpt>
      <trkpt lat="45.11343" lon="2.61666">
        <ele>1159.01</ele>
        <time>2015-06-07T07:05:05Z</time>
      </trkpt>
      <trkpt lat="45.11344" lon="2.61676">
        <ele>1159.01</ele>
        <time>2015-06-07T07:05:14Z</time>
      </trkpt>
      <trkpt lat="45.11341" lon="2.6169">
        <ele>1160.93</ele>
        <time>2015-06-07T07:05:26Z</time>
      </trkpt>
      <trkpt lat="45.11339" lon="2.61706">
        <ele>1162.37</ele>
        <time>2015-06-07T07:05:40Z</time>
      </trkpt>
      <trkpt lat="45.11336" lon="2.61721">
        <ele>1163.33</ele>
        <time>2015-06-07T07:05:52Z</time>
      </trkpt>
      <trkpt lat="45.11337" lon="2.61739">
        <ele>1165.74</ele>
        <time>2015-06-07T07:06:05Z</time>
      </trkpt>
      <trkpt lat="45.11334" lon="2.61755">
        <ele>1165.74</ele>
        <time>2015-06-07T07:06:19Z</time>
      </trkpt>
      <trkpt lat="45.11337" lon="2.61773">
        <ele>1169.58</ele>
        <time>2015-06-07T07:06:32Z</time>
      </trkpt>
      <trkpt lat="45.11335" lon="2.61787">
        <ele>1168.62</ele>
        <time>2015-06-07T07:06:45Z</time>
      </trkpt>
      <trkpt lat="45.1133" lon="2.61805">
        <ele>1169.58</ele>
        <time>2015-06-07T07:06:57Z</time>
      </trkpt>
      <trkpt lat="45.11326" lon="2.61822">
        <ele>1170.54</ele>
        <time>2015-06-07T07:07:10Z</time>
      </trkpt>
      <trkpt lat="45.11329" lon="2.61834">
        <ele>1171.98</ele>
        <time>2015-06-07T07:07:23Z</time>
      </trkpt>
      <trkpt lat="45.1133" lon="2.61837">
        <ele>1171.5</ele>
        <time>2015-06-07T07:07:25Z</time>
      </trkpt>
      <trkpt lat="45.1133" lon="2.61841">
        <ele>1170.54</ele>
        <time>2015-06-07T07:07:29Z</time>
      </trkpt>
      <trkpt lat="45.11335" lon="2.61857">
        <ele>1169.58</ele>
        <time>2015-06-07T07:07:43Z</time>
      </trkpt>
      <trkpt lat="45.11337" lon="2.61868">
        <ele>1169.1</ele>
        <time>2015-06-07T07:07:52Z</time>
      </trkpt>
      <trkpt lat="45.1134" lon="2.61877">
        <ele>1167.18</ele>
        <time>2015-06-07T07:08:01Z</time>
      </trkpt>
      <trkpt lat="45.1134" lon="2.61892">
        <ele>1171.02</ele>
        <time>2015-06-07T07:08:13Z</time>
      </trkpt>
      <trkpt lat="45.1134" lon="2.61902">
        <ele>1171.5</ele>
        <time>2015-06-07T07:08:22Z</time>
      </trkpt>
      <trkpt lat="45.1134" lon="2.61917">
        <ele>1172.95</ele>
        <time>2015-06-07T07:08:36Z</time>
      </trkpt>
      <trkpt lat="45.11341" lon="2.6193">
        <ele>1172.95</ele>
        <time>2015-06-07T07:08:45Z</time>
      </trkpt>
      <trkpt lat="45.11337" lon="2.61946">
        <ele>1174.39</ele>
        <time>2015-06-07T07:08:59Z</time>
      </trkpt>
      <trkpt lat="45.11333" lon="2.61962">
        <ele>1176.31</ele>
        <time>2015-06-07T07:09:12Z</time>
      </trkpt>
      <trkpt lat="45.11331" lon="2.61976">
        <ele>1181.12</ele>
        <time>2015-06-07T07:09:24Z</time>
      </trkpt>
      <trkpt lat="45.11327" lon="2.61988">
        <ele>1184.48</ele>
        <time>2015-06-07T07:09:35Z</time>
      </trkpt>
      <trkpt lat="45.11325" lon="2.61995">
        <ele>1184.48</ele>
        <time>2015-06-07T07:09:42Z</time>
      </trkpt>
      <trkpt lat="45.11323" lon="2.62007">
        <ele>1187.37</ele>
        <time>2015-06-07T07:09:53Z</time>
      </trkpt>
      <trkpt lat="45.1132" lon="2.62024">
        <ele>1192.65</ele>
        <time>2015-06-07T07:10:06Z</time>
      </trkpt>
      <trkpt lat="45.11314" lon="2.62037">
        <ele>1197.46</ele>
        <time>2015-06-07T07:10:18Z</time>
      </trkpt>
      <trkpt lat="45.11307" lon="2.62049">
        <ele>1201.79</ele>
        <time>2015-06-07T07:10:32Z</time>
      </trkpt>
      <trkpt lat="45.11301" lon="2.62065">
        <ele>1206.59</ele>
        <time>2015-06-07T07:10:44Z</time>
      </trkpt>
      <trkpt lat="45.113" lon="2.62067">
        <ele>1206.59</ele>
        <time>2015-06-07T07:10:46Z</time>
      </trkpt>
      <trkpt lat="45.11296" lon="2.62082">
        <ele>1205.15</ele>
        <time>2015-06-07T07:10:59Z</time>
      </trkpt>
      <trkpt lat="45.113" lon="2.62095">
        <ele>1206.59</ele>
        <time>2015-06-07T07:11:12Z</time>
      </trkpt>
      <trkpt lat="45.11303" lon="2.62113">
        <ele>1209.96</ele>
        <time>2015-06-07T07:11:27Z</time>
      </trkpt>
      <trkpt lat="45.11305" lon="2.62129">
        <ele>1210.92</ele>
        <time>2015-06-07T07:11:39Z</time>
      </trkpt>
      <trkpt lat="45.11306" lon="2.62131">
        <ele>1210.44</ele>
        <time>2015-06-07T07:11:40Z</time>
      </trkpt>
      <trkpt lat="45.11306" lon="2.62139">
        <ele>1209.96</ele>
        <time>2015-06-07T07:11:45Z</time>
      </trkpt>
      <trkpt lat="45.11305" lon="2.6215">
        <ele>1209.96</ele>
        <time>2015-06-07T07:11:55Z</time>
      </trkpt>
      <trkpt lat="45.11303" lon="2.62155">
        <ele>1209.48</ele>
        <time>2015-06-07T07:11:59Z</time>
      </trkpt>
      <trkpt lat="45.11302" lon="2.62164">
        <ele>1209.48</ele>
        <time>2015-06-07T07:12:07Z</time>
      </trkpt>
      <trkpt lat="45.113" lon="2.62179">
        <ele>1211.4</ele>
        <time>2015-06-07T07:12:20Z</time>
      </trkpt>
      <trkpt lat="45.11299" lon="2.62195">
        <ele>1212.84</ele>
        <time>2015-06-07T07:12:32Z</time>
      </trkpt>
      <trkpt lat="45.11304" lon="2.62212">
        <ele>1215.72</ele>
        <time>2015-06-07T07:12:45Z</time>
      </trkpt>
      <trkpt lat="45.11305" lon="2.62216">
        <ele>1215.72</ele>
        <time>2015-06-07T07:12:49Z</time>
      </trkpt>
      <trkpt lat="45.11311" lon="2.6223">
        <ele>1215.72</ele>
        <time>2015-06-07T07:13:02Z</time>
      </trkpt>
      <trkpt lat="45.11312" lon="2.62232">
        <ele>1215.24</ele>
        <time>2015-06-07T07:13:05Z</time>
      </trkpt>
      <trkpt lat="45.11313" lon="2.62237">
        <ele>1216.21</ele>
        <time>2015-06-07T07:13:08Z</time>
      </trkpt>
      <trkpt lat="45.11314" lon="2.62245">
        <ele>1216.69</ele>
        <time>2015-06-07T07:13:15Z</time>
      </trkpt>
      <trkpt lat="45.11315" lon="2.62256">
        <ele>1221.49</ele>
        <time>2015-06-07T07:13:28Z</time>
      </trkpt>
      <trkpt lat="45.11316" lon="2.6227">
        <ele>1222.93</ele>
        <time>2015-06-07T07:13:36Z</time>
      </trkpt>
      <trkpt lat="45.11318" lon="2.62291">
        <ele>1224.86</ele>
        <time>2015-06-07T07:13:49Z</time>
      </trkpt>
      <trkpt lat="45.11318" lon="2.62305">
        <ele>1226.3</ele>
        <time>2015-06-07T07:14:00Z</time>
      </trkpt>
      <trkpt lat="45.11318" lon="2.62308">
        <ele>1226.3</ele>
        <time>2015-06-07T07:14:02Z</time>
      </trkpt>
      <trkpt lat="45.11318" lon="2.6232">
        <ele>1227.26</ele>
        <time>2015-06-07T07:14:11Z</time>
      </trkpt>
      <trkpt lat="45.11323" lon="2.62329">
        <ele>1227.26</ele>
        <time>2015-06-07T07:14:18Z</time>
      </trkpt>
      <trkpt lat="45.11325" lon="2.62334">
        <ele>1226.78</ele>
        <time>2015-06-07T07:14:22Z</time>
      </trkpt>
      <trkpt lat="45.11327" lon="2.62335">
        <ele>1226.78</ele>
        <time>2015-06-07T07:14:24Z</time>
      </trkpt>
      <trkpt lat="45.1133" lon="2.62347">
        <ele>1223.9</ele>
        <time>2015-06-07T07:14:35Z</time>
      </trkpt>
      <trkpt lat="45.11334" lon="2.62358">
        <ele>1223.42</ele>
        <time>2015-06-07T07:14:46Z</time>
      </trkpt>
      <trkpt lat="45.11337" lon="2.62361">
        <ele>1223.9</ele>
        <time>2015-06-07T07:14:49Z</time>
      </trkpt>
      <trkpt lat="45.1134" lon="2.62367">
        <ele>1224.38</ele>
        <time>2015-06-07T07:14:54Z</time>
      </trkpt>
      <trkpt lat="45.11344" lon="2.62377">
        <ele>1225.34</ele>
        <time>2015-06-07T07:15:05Z</time>
      </trkpt>
      <trkpt lat="45.11349" lon="2.62389">
        <ele>1227.26</ele>
        <time>2015-06-07T07:15:15Z</time>
      </trkpt>
      <trkpt lat="45.11354" lon="2.62404">
        <ele>1228.7</ele>
        <time>2015-06-07T07:15:26Z</time>
      </trkpt>
      <trkpt lat="45.11354" lon="2.62405">
        <ele>1229.18</ele>
        <time>2015-06-07T07:15:27Z</time>
      </trkpt>
      <trkpt lat="45.11362" lon="2.62416">
        <ele>1233.03</ele>
        <time>2015-06-07T07:15:40Z</time>
      </trkpt>
      <trkpt lat="45.11369" lon="2.6243">
        <ele>1233.51</ele>
        <time>2015-06-07T07:15:51Z</time>
      </trkpt>
      <trkpt lat="45.11373" lon="2.62439">
        <ele>1233.99</ele>
        <time>2015-06-07T07:16:01Z</time>
      </trkpt>
      <trkpt lat="45.11377" lon="2.62444">
        <ele>1233.99</ele>
        <time>2015-06-07T07:16:08Z</time>
      </trkpt>
      <trkpt lat="45.11378" lon="2.62445">
        <ele>1233.51</ele>
        <time>2015-06-07T07:16:10Z</time>
      </trkpt>
      <trkpt lat="45.11382" lon="2.62461">
        <ele>1231.11</ele>
        <time>2015-06-07T07:16:23Z</time>
      </trkpt>
      <trkpt lat="45.11381" lon="2.62476">
        <ele>1230.62</ele>
        <time>2015-06-07T07:16:35Z</time>
      </trkpt>
      <trkpt lat="45.11385" lon="2.62485">
        <ele>1229.18</ele>
        <time>2015-06-07T07:16:45Z</time>
      </trkpt>
      <trkpt lat="45.11387" lon="2.62493">
        <ele>1227.26</ele>
        <time>2015-06-07T07:16:56Z</time>
      </trkpt>
      <trkpt lat="45.11392" lon="2.62506">
        <ele>1222.93</ele>
        <time>2015-06-07T07:17:09Z</time>
      </trkpt>
      <trkpt lat="45.11398" lon="2.62513">
        <ele>1224.86</ele>
        <time>2015-06-07T07:17:19Z</time>
      </trkpt>
      <trkpt lat="45.11403" lon="2.62518">
        <ele>1224.86</ele>
        <time>2015-06-07T07:17:24Z</time>
      </trkpt>
      <trkpt lat="45.11412" lon="2.62528">
        <ele>1224.86</ele>
        <time>2015-06-07T07:17:37Z</time>
      </trkpt>
      <trkpt lat="45.11419" lon="2.62536">
        <ele>1226.78</ele>
        <time>2015-06-07T07:17:45Z</time>
      </trkpt>
      <trkpt lat="45.11424" lon="2.62545">
        <ele>1228.7</ele>
        <time>2015-06-07T07:18:00Z</time>
      </trkpt>
      <trkpt lat="45.11425" lon="2.62551">
        <ele>1228.22</ele>
        <time>2015-06-07T07:18:04Z</time>
      </trkpt>
      <trkpt lat="45.11426" lon="2.62555">
        <ele>1227.74</ele>
        <time>2015-06-07T07:18:08Z</time>
      </trkpt>
      <trkpt lat="45.11429" lon="2.62567">
        <ele>1227.26</ele>
        <time>2015-06-07T07:18:23Z</time>
      </trkpt>
      <trkpt lat="45.11434" lon="2.62585">
        <ele>1226.3</ele>
        <time>2015-06-07T07:18:35Z</time>
      </trkpt>
      <trkpt lat="45.11435" lon="2.62591">
        <ele>1225.82</ele>
        <time>2015-06-07T07:18:39Z</time>
      </trkpt>
      <trkpt lat="45.11436" lon="2.62596">
        <ele>1225.82</ele>
        <time>2015-06-07T07:18:43Z</time>
      </trkpt>
      <trkpt lat="45.11439" lon="2.62607">
        <ele>1229.18</ele>
        <time>2015-06-07T07:18:54Z</time>
      </trkpt>
      <trkpt lat="45.1144" lon="2.62608">
        <ele>1230.14</ele>
        <time>2015-06-07T07:18:55Z</time>
      </trkpt>
      <trkpt lat="45.1145" lon="2.62619">
        <ele>1230.62</ele>
        <time>2015-06-07T07:19:10Z</time>
      </trkpt>
      <trkpt lat="45.11457" lon="2.62624">
        <ele>1233.99</ele>
        <time>2015-06-07T07:19:21Z</time>
      </trkpt>
      <trkpt lat="45.1147" lon="2.62629">
        <ele>1239.28</ele>
        <time>2015-06-07T07:19:31Z</time>
      </trkpt>
      <trkpt lat="45.11479" lon="2.62637">
        <ele>1241.2</ele>
        <time>2015-06-07T07:19:42Z</time>
      </trkpt>
      <trkpt lat="45.11485" lon="2.62646">
        <ele>1244.08</ele>
        <time>2015-06-07T07:19:54Z</time>
      </trkpt>
      <trkpt lat="45.11487" lon="2.62655">
        <ele>1246.97</ele>
        <time>2015-06-07T07:20:01Z</time>
      </trkpt>
      <trkpt lat="45.1149" lon="2.6266">
        <ele>1248.89</ele>
        <time>2015-06-07T07:20:05Z</time>
      </trkpt>
      <trkpt lat="45.11488" lon="2.62668">
        <ele>1248.89</ele>
        <time>2015-06-07T07:20:20Z</time>
      </trkpt>
      <trkpt lat="45.11487" lon="2.62671">
        <ele>1252.25</ele>
        <time>2015-06-07T07:20:33Z</time>
      </trkpt>
      <trkpt lat="45.11476" lon="2.62673">
        <ele>1254.18</ele>
        <time>2015-06-07T07:20:47Z</time>
      </trkpt>
      <trkpt lat="45.11476" lon="2.62673">
        <ele>1254.66</ele>
        <time>2015-06-07T07:21:01Z</time>
      </trkpt>
      <trkpt lat="45.11475" lon="2.62672">
        <ele>1255.62</ele>
        <time>2015-06-07T07:21:14Z</time>
      </trkpt>
      <trkpt lat="45.11477" lon="2.62671">
        <ele>1254.66</ele>
        <time>2015-06-07T07:21:17Z</time>
      </trkpt>
      <trkpt lat="45.11488" lon="2.62666">
        <ele>1252.74</ele>
        <time>2015-06-07T07:21:30Z</time>
      </trkpt>
      <trkpt lat="45.11488" lon="2.62665">
        <ele>1252.74</ele>
        <time>2015-06-07T07:21:31Z</time>
      </trkpt>
      <trkpt lat="45.1149" lon="2.62666">
        <ele>1252.74</ele>
        <time>2015-06-07T07:21:33Z</time>
      </trkpt>
      <trkpt lat="45.11494" lon="2.62666">
        <ele>1253.22</ele>
        <time>2015-06-07T07:21:36Z</time>
      </trkpt>
      <trkpt lat="45.11499" lon="2.62667">
        <ele>1252.74</ele>
        <time>2015-06-07T07:21:41Z</time>
      </trkpt>
      <trkpt lat="45.11512" lon="2.62673">
        <ele>1253.7</ele>
        <time>2015-06-07T07:21:54Z</time>
      </trkpt>
      <trkpt lat="45.11522" lon="2.62675">
        <ele>1251.29</ele>
        <time>2015-06-07T07:22:05Z</time>
      </trkpt>
      <trkpt lat="45.11532" lon="2.62673">
        <ele>1249.85</ele>
        <time>2015-06-07T07:22:17Z</time>
      </trkpt>
      <trkpt lat="45.11537" lon="2.62664">
        <ele>1247.93</ele>
        <time>2015-06-07T07:22:29Z</time>
      </trkpt>
      <trkpt lat="45.11538" lon="2.62663">
        <ele>1247.93</ele>
        <time>2015-06-07T07:22:45Z</time>
      </trkpt>
      <trkpt lat="45.11538" lon="2.62662">
        <ele>1250.33</ele>
        <time>2015-06-07T07:22:59Z</time>
      </trkpt>
      <trkpt lat="45.11538" lon="2.62663">
        <ele>1249.37</ele>
        <time>2015-06-07T07:23:19Z</time>
      </trkpt>
      <trkpt lat="45.1154" lon="2.62663">
        <ele>1247.93</ele>
        <time>2015-06-07T07:23:38Z</time>
      </trkpt>
      <trkpt lat="45.11541" lon="2.62663">
        <ele>1246.97</ele>
        <time>2015-06-07T07:24:04Z</time>
      </trkpt>
      <trkpt lat="45.1154" lon="2.62665">
        <ele>1245.53</ele>
        <time>2015-06-07T07:24:30Z</time>
      </trkpt>
      <trkpt lat="45.11539" lon="2.62666">
        <ele>1245.04</ele>
        <time>2015-06-07T07:24:51Z</time>
      </trkpt>
      <trkpt lat="45.1154" lon="2.62666">
        <ele>1245.04</ele>
        <time>2015-06-07T07:25:09Z</time>
      </trkpt>
      <trkpt lat="45.11542" lon="2.62663">
        <ele>1244.08</ele>
        <time>2015-06-07T07:25:19Z</time>
      </trkpt>
      <trkpt lat="45.11543" lon="2.62655">
        <ele>1244.08</ele>
        <time>2015-06-07T07:25:26Z</time>
      </trkpt>
      <trkpt lat="45.11548" lon="2.62647">
        <ele>1241.68</ele>
        <time>2015-06-07T07:25:34Z</time>
      </trkpt>
      <trkpt lat="45.11554" lon="2.62637">
        <ele>1242.64</ele>
        <time>2015-06-07T07:25:45Z</time>
      </trkpt>
      <trkpt lat="45.11558" lon="2.62636">
        <ele>1246.49</ele>
        <time>2015-06-07T07:25:54Z</time>
      </trkpt>
      <trkpt lat="45.11566" lon="2.62629">
        <ele>1251.29</ele>
        <time>2015-06-07T07:26:03Z</time>
      </trkpt>
      <trkpt lat="45.11577" lon="2.62626">
        <ele>1252.25</ele>
        <time>2015-06-07T07:26:16Z</time>
      </trkpt>
      <trkpt lat="45.11583" lon="2.62622">
        <ele>1252.25</ele>
        <time>2015-06-07T07:26:23Z</time>
      </trkpt>
      <trkpt lat="45.11593" lon="2.62616">
        <ele>1251.77</ele>
        <time>2015-06-07T07:26:35Z</time>
      </trkpt>
      <trkpt lat="45.11594" lon="2.62615">
        <ele>1251.29</ele>
        <time>2015-06-07T07:26:36Z</time>
      </trkpt>
      <trkpt lat="45.11604" lon="2.62612">
        <ele>1252.25</ele>
        <time>2015-06-07T07:26:48Z</time>
      </trkpt>
      <trkpt lat="45.11609" lon="2.62607">
        <ele>1251.29</ele>
        <time>2015-06-07T07:26:59Z</time>
      </trkpt>
      <trkpt lat="45.11616" lon="2.62601">
        <ele>1249.85</ele>
        <time>2015-06-07T07:27:11Z</time>
      </trkpt>
      <trkpt lat="45.11624" lon="2.62597">
        <ele>1249.85</ele>
        <time>2015-06-07T07:27:22Z</time>
      </trkpt>
      <trkpt lat="45.11625" lon="2.62597">
        <ele>1250.33</ele>
        <time>2015-06-07T07:27:23Z</time>
      </trkpt>
      <trkpt lat="45.11633" lon="2.62594">
        <ele>1251.77</ele>
        <time>2015-06-07T07:27:30Z</time>
      </trkpt>
      <trkpt lat="45.11636" lon="2.62592">
        <ele>1253.22</ele>
        <time>2015-06-07T07:27:34Z</time>
      </trkpt>
      <trkpt lat="45.11638" lon="2.62589">
        <ele>1253.7</ele>
        <time>2015-06-07T07:27:38Z</time>
      </trkpt>
      <trkpt lat="45.11648" lon="2.62585">
        <ele>1253.22</ele>
        <time>2015-06-07T07:27:48Z</time>
      </trkpt>
      <trkpt lat="45.11654" lon="2.62585">
        <ele>1251.29</ele>
        <time>2015-06-07T07:27:56Z</time>
      </trkpt>
      <trkpt lat="45.1166" lon="2.6258">
        <ele>1252.25</ele>
        <time>2015-06-07T07:28:08Z</time>
      </trkpt>
      <trkpt lat="45.11661" lon="2.62578">
        <ele>1253.7</ele>
        <time>2015-06-07T07:28:10Z</time>
      </trkpt>
      <trkpt lat="45.11665" lon="2.62575">
        <ele>1254.66</ele>
        <time>2015-06-07T07:28:14Z</time>
      </trkpt>
      <trkpt lat="45.11677" lon="2.62569">
        <ele>1257.06</ele>
        <time>2015-06-07T07:28:26Z</time>
      </trkpt>
      <trkpt lat="45.11682" lon="2.62567">
        <ele>1257.06</ele>
        <time>2015-06-07T07:28:38Z</time>
      </trkpt>
      <trkpt lat="45.11697" lon="2.62564">
        <ele>1258.5</ele>
        <time>2015-06-07T07:28:50Z</time>
      </trkpt>
      <trkpt lat="45.11709" lon="2.62559">
        <ele>1258.5</ele>
        <time>2015-06-07T07:29:00Z</time>
      </trkpt>
      <trkpt lat="45.11711" lon="2.62559">
        <ele>1258.5</ele>
        <time>2015-06-07T07:29:03Z</time>
      </trkpt>
      <trkpt lat="45.11716" lon="2.62555">
        <ele>1255.62</ele>
        <time>2015-06-07T07:29:15Z</time>
      </trkpt>
      <trkpt lat="45.11719" lon="2.62556">
        <ele>1254.66</ele>
        <time>2015-06-07T07:29:28Z</time>
      </trkpt>
      <trkpt lat="45.11717" lon="2.62556">
        <ele>1254.66</ele>
        <time>2015-06-07T07:29:44Z</time>
      </trkpt>
      <trkpt lat="45.11722" lon="2.62556">
        <ele>1256.58</ele>
        <time>2015-06-07T07:30:01Z</time>
      </trkpt>
      <trkpt lat="45.1172" lon="2.62559">
        <ele>1259.94</ele>
        <time>2015-06-07T07:30:22Z</time>
      </trkpt>
      <trkpt lat="45.11712" lon="2.6256">
        <ele>1260.43</ele>
        <time>2015-06-07T07:30:36Z</time>
      </trkpt>
      <trkpt lat="45.11706" lon="2.62563">
        <ele>1259.94</ele>
        <time>2015-06-07T07:30:45Z</time>
      </trkpt>
      <trkpt lat="45.11697" lon="2.62567">
        <ele>1259.46</ele>
        <time>2015-06-07T07:30:58Z</time>
      </trkpt>
      <trkpt lat="45.11686" lon="2.62568">
        <ele>1259.94</ele>
        <time>2015-06-07T07:31:10Z</time>
      </trkpt>
      <trkpt lat="45.11685" lon="2.62569">
        <ele>1259.94</ele>
        <time>2015-06-07T07:31:11Z</time>
      </trkpt>
      <trkpt lat="45.11673" lon="2.62577">
        <ele>1257.54</ele>
        <time>2015-06-07T07:31:26Z</time>
      </trkpt>
      <trkpt lat="45.11671" lon="2.62577">
        <ele>1258.02</ele>
        <time>2015-06-07T07:31:28Z</time>
      </trkpt>
      <trkpt lat="45.11659" lon="2.62584">
        <ele>1254.18</ele>
        <time>2015-06-07T07:31:40Z</time>
      </trkpt>
      <trkpt lat="45.11648" lon="2.6259">
        <ele>1249.85</ele>
        <time>2015-06-07T07:31:54Z</time>
      </trkpt>
      <trkpt lat="45.11641" lon="2.62595">
        <ele>1246.49</ele>
        <time>2015-06-07T07:32:02Z</time>
      </trkpt>
      <trkpt lat="45.11634" lon="2.62598">
        <ele>1242.64</ele>
        <time>2015-06-07T07:32:09Z</time>
      </trkpt>
      <trkpt lat="45.11626" lon="2.62605">
        <ele>1233.99</ele>
        <time>2015-06-07T07:32:21Z</time>
      </trkpt>
      <trkpt lat="45.11617" lon="2.62612">
        <ele>1231.59</ele>
        <time>2015-06-07T07:32:32Z</time>
      </trkpt>
      <trkpt lat="45.1161" lon="2.62618">
        <ele>1232.07</ele>
        <time>2015-06-07T07:32:43Z</time>
      </trkpt>
      <trkpt lat="45.11601" lon="2.62622">
        <ele>1233.51</ele>
        <time>2015-06-07T07:32:55Z</time>
      </trkpt>
      <trkpt lat="45.11595" lon="2.62627">
        <ele>1235.91</ele>
        <time>2015-06-07T07:33:08Z</time>
      </trkpt>
      <trkpt lat="45.11587" lon="2.62633">
        <ele>1233.99</ele>
        <time>2015-06-07T07:33:18Z</time>
      </trkpt>
      <trkpt lat="45.11577" lon="2.62641">
        <ele>1235.43</ele>
        <time>2015-06-07T07:33:30Z</time>
      </trkpt>
      <trkpt lat="45.11567" lon="2.62647">
        <ele>1231.11</ele>
        <time>2015-06-07T07:33:42Z</time>
      </trkpt>
      <trkpt lat="45.11565" lon="2.62646">
        <ele>1231.11</ele>
        <time>2015-06-07T07:33:44Z</time>
      </trkpt>
      <trkpt lat="45.11555" lon="2.62648">
        <ele>1230.62</ele>
        <time>2015-06-07T07:33:56Z</time>
      </trkpt>
      <trkpt lat="45.11548" lon="2.62655">
        <ele>1228.22</ele>
        <time>2015-06-07T07:34:09Z</time>
      </trkpt>
      <trkpt lat="45.11549" lon="2.62658">
        <ele>1228.7</ele>
        <time>2015-06-07T07:34:19Z</time>
      </trkpt>
      <trkpt lat="45.11547" lon="2.62665">
        <ele>1230.14</ele>
        <time>2015-06-07T07:34:29Z</time>
      </trkpt>
      <trkpt lat="45.11543" lon="2.62679">
        <ele>1228.7</ele>
        <time>2015-06-07T07:34:43Z</time>
      </trkpt>
      <trkpt lat="45.11532" lon="2.62685">
        <ele>1230.14</ele>
        <time>2015-06-07T07:34:55Z</time>
      </trkpt>
      <trkpt lat="45.11529" lon="2.62684">
        <ele>1230.14</ele>
        <time>2015-06-07T07:35:06Z</time>
      </trkpt>
      <trkpt lat="45.11528" lon="2.62685">
        <ele>1229.66</ele>
        <time>2015-06-07T07:35:29Z</time>
      </trkpt>
      <trkpt lat="45.11528" lon="2.62685">
        <ele>1230.62</ele>
        <time>2015-06-07T07:35:55Z</time>
      </trkpt>
      <trkpt lat="45.11537" lon="2.62678">
        <ele>1237.83</ele>
        <time>2015-06-07T07:36:11Z</time>
      </trkpt>
      <trkpt lat="45.11542" lon="2.62669">
        <ele>1239.76</ele>
        <time>2015-06-07T07:36:23Z</time>
      </trkpt>
      <trkpt lat="45.11543" lon="2.62666">
        <ele>1239.76</ele>
        <time>2015-06-07T07:36:28Z</time>
      </trkpt>
      <trkpt lat="45.11545" lon="2.62656">
        <ele>1237.83</ele>
        <time>2015-06-07T07:36:38Z</time>
      </trkpt>
      <trkpt lat="45.11546" lon="2.62643">
        <ele>1240.24</ele>
        <time>2015-06-07T07:36:49Z</time>
      </trkpt>
      <trkpt lat="45.11548" lon="2.62636">
        <ele>1238.8</ele>
        <time>2015-06-07T07:37:00Z</time>
      </trkpt>
      <trkpt lat="45.11548" lon="2.62638">
        <ele>1239.28</ele>
        <time>2015-06-07T07:37:12Z</time>
      </trkpt>
      <trkpt lat="45.11551" lon="2.6264">
        <ele>1238.32</ele>
        <time>2015-06-07T07:37:27Z</time>
      </trkpt>
      <trkpt lat="45.11553" lon="2.6264">
        <ele>1238.8</ele>
        <time>2015-06-07T07:37:36Z</time>
      </trkpt>
      <trkpt lat="45.11554" lon="2.62639">
        <ele>1240.24</ele>
        <time>2015-06-07T07:37:47Z</time>
      </trkpt>
      <trkpt lat="45.11551" lon="2.6264">
        <ele>1241.68</ele>
        <time>2015-06-07T07:38:09Z</time>
      </trkpt>
      <trkpt lat="45.11551" lon="2.6264">
        <ele>1243.12</ele>
        <time>2015-06-07T07:38:35Z</time>
      </trkpt>
      <trkpt lat="45.11551" lon="2.62641">
        <ele>1243.12</ele>
        <time>2015-06-07T07:38:51Z</time>
      </trkpt>
      <trkpt lat="45.11549" lon="2.62642">
        <ele>1245.04</ele>
        <time>2015-06-07T07:39:02Z</time>
      </trkpt>
      <trkpt lat="45.11549" lon="2.62642">
        <ele>1245.53</ele>
        <time>2015-06-07T07:39:05Z</time>
      </trkpt>
      <trkpt lat="45.11548" lon="2.62642">
        <ele>1245.53</ele>
        <time>2015-06-07T07:39:16Z</time>
      </trkpt>
      <trkpt lat="45.11545" lon="2.62636">
        <ele>1247.45</ele>
        <time>2015-06-07T07:39:30Z</time>
      </trkpt>
      <trkpt lat="45.11545" lon="2.62637">
        <ele>1246.49</ele>
        <time>2015-06-07T07:39:55Z</time>
      </trkpt>
      <trkpt lat="45.11546" lon="2.62638">
        <ele>1248.41</ele>
        <time>2015-06-07T07:40:08Z</time>
      </trkpt>
      <trkpt lat="45.11553" lon="2.6264">
        <ele>1247.45</ele>
        <time>2015-06-07T07:40:19Z</time>
      </trkpt>
      <trkpt lat="45.11555" lon="2.6264">
        <ele>1247.93</ele>
        <time>2015-06-07T07:40:22Z</time>
      </trkpt>
      <trkpt lat="45.11563" lon="2.62641">
        <ele>1246.01</ele>
        <time>2015-06-07T07:40:35Z</time>
      </trkpt>
      <trkpt lat="45.1157" lon="2.6264">
        <ele>1246.49</ele>
        <time>2015-06-07T07:40:45Z</time>
      </trkpt>
      <trkpt lat="45.11572" lon="2.6264">
        <ele>1246.49</ele>
        <time>2015-06-07T07:40:56Z</time>
      </trkpt>
      <trkpt lat="45.11579" lon="2.62633">
        <ele>1249.85</ele>
        <time>2015-06-07T07:41:11Z</time>
      </trkpt>
      <trkpt lat="45.1158" lon="2.62634">
        <ele>1249.85</ele>
        <time>2015-06-07T07:41:29Z</time>
      </trkpt>
      <trkpt lat="45.11574" lon="2.62637">
        <ele>1251.77</ele>
        <time>2015-06-07T07:41:43Z</time>
      </trkpt>
      <trkpt lat="45.11567" lon="2.62638">
        <ele>1250.81</ele>
        <time>2015-06-07T07:41:58Z</time>
      </trkpt>
      <trkpt lat="45.11557" lon="2.62637">
        <ele>1247.93</ele>
        <time>2015-06-07T07:42:11Z</time>
      </trkpt>
      <trkpt lat="45.11559" lon="2.62638">
        <ele>1247.93</ele>
        <time>2015-06-07T07:42:24Z</time>
      </trkpt>
      <trkpt lat="45.1156" lon="2.62641">
        <ele>1244.56</ele>
        <time>2015-06-07T07:42:51Z</time>
      </trkpt>
      <trkpt lat="45.11563" lon="2.62642">
        <ele>1243.6</ele>
        <time>2015-06-07T07:43:03Z</time>
      </trkpt>
      <trkpt lat="45.11568" lon="2.62639">
        <ele>1244.08</ele>
        <time>2015-06-07T07:43:12Z</time>
      </trkpt>
      <trkpt lat="45.11569" lon="2.62638">
        <ele>1244.56</ele>
        <time>2015-06-07T07:43:13Z</time>
      </trkpt>
      <trkpt lat="45.1157" lon="2.62636">
        <ele>1244.56</ele>
        <time>2015-06-07T07:43:15Z</time>
      </trkpt>
      <trkpt lat="45.11574" lon="2.62633">
        <ele>1244.56</ele>
        <time>2015-06-07T07:43:19Z</time>
      </trkpt>
      <trkpt lat="45.11583" lon="2.62625">
        <ele>1246.49</ele>
        <time>2015-06-07T07:43:32Z</time>
      </trkpt>
      <trkpt lat="45.11588" lon="2.62621">
        <ele>1248.41</ele>
        <time>2015-06-07T07:43:40Z</time>
      </trkpt>
      <trkpt lat="45.11598" lon="2.62615">
        <ele>1256.1</ele>
        <time>2015-06-07T07:43:52Z</time>
      </trkpt>
      <trkpt lat="45.11602" lon="2.62614">
        <ele>1257.54</ele>
        <time>2015-06-07T07:43:55Z</time>
      </trkpt>
      <trkpt lat="45.11605" lon="2.6261">
        <ele>1258.98</ele>
        <time>2015-06-07T07:43:58Z</time>
      </trkpt>
      <trkpt lat="45.11612" lon="2.62605">
        <ele>1263.79</ele>
        <time>2015-06-07T07:44:08Z</time>
      </trkpt>
      <trkpt lat="45.11619" lon="2.62594">
        <ele>1264.75</ele>
        <time>2015-06-07T07:44:21Z</time>
      </trkpt>
      <trkpt lat="45.11631" lon="2.62591">
        <ele>1268.12</ele>
        <time>2015-06-07T07:44:33Z</time>
      </trkpt>
      <trkpt lat="45.11636" lon="2.62585">
        <ele>1268.6</ele>
        <time>2015-06-07T07:44:40Z</time>
      </trkpt>
      <trkpt lat="45.1164" lon="2.62584">
        <ele>1267.16</ele>
        <time>2015-06-07T07:44:47Z</time>
      </trkpt>
      <trkpt lat="45.11648" lon="2.62577">
        <ele>1269.08</ele>
        <time>2015-06-07T07:44:56Z</time>
      </trkpt>
      <trkpt lat="45.11657" lon="2.62574">
        <ele>1267.64</ele>
        <time>2015-06-07T07:45:07Z</time>
      </trkpt>
      <trkpt lat="45.11658" lon="2.62573">
        <ele>1267.64</ele>
        <time>2015-06-07T07:45:08Z</time>
      </trkpt>
      <trkpt lat="45.11661" lon="2.62572">
        <ele>1268.12</ele>
        <time>2015-06-07T07:45:10Z</time>
      </trkpt>
      <trkpt lat="45.11672" lon="2.62567">
        <ele>1269.56</ele>
        <time>2015-06-07T07:45:22Z</time>
      </trkpt>
      <trkpt lat="45.11678" lon="2.62565">
        <ele>1269.08</ele>
        <time>2015-06-07T07:45:34Z</time>
      </trkpt>
      <trkpt lat="45.11687" lon="2.62562">
        <ele>1269.56</ele>
        <time>2015-06-07T07:45:45Z</time>
      </trkpt>
      <trkpt lat="45.11694" lon="2.62559">
        <ele>1268.6</ele>
        <time>2015-06-07T07:45:55Z</time>
      </trkpt>
      <trkpt lat="45.11695" lon="2.62559">
        <ele>1268.6</ele>
        <time>2015-06-07T07:45:56Z</time>
      </trkpt>
      <trkpt lat="45.11705" lon="2.62555">
        <ele>1267.16</ele>
        <time>2015-06-07T07:46:04Z</time>
      </trkpt>
      <trkpt lat="45.11712" lon="2.62552">
        <ele>1267.16</ele>
        <time>2015-06-07T07:46:15Z</time>
      </trkpt>
      <trkpt lat="45.11718" lon="2.62554">
        <ele>1266.19</ele>
        <time>2015-06-07T07:46:25Z</time>
      </trkpt>
      <trkpt lat="45.1172" lon="2.62563">
        <ele>1266.19</ele>
        <time>2015-06-07T07:46:38Z</time>
      </trkpt>
      <trkpt lat="45.1172" lon="2.6257">
        <ele>1266.19</ele>
        <time>2015-06-07T07:46:53Z</time>
      </trkpt>
      <trkpt lat="45.11719" lon="2.62572">
        <ele>1265.71</ele>
        <time>2015-06-07T07:46:56Z</time>
      </trkpt>
      <trkpt lat="45.11715" lon="2.62586">
        <ele>1264.27</ele>
        <time>2015-06-07T07:47:07Z</time>
      </trkpt>
      <trkpt lat="45.11709" lon="2.62598">
        <ele>1261.87</ele>
        <time>2015-06-07T07:47:19Z</time>
      </trkpt>
      <trkpt lat="45.11705" lon="2.62604">
        <ele>1260.91</ele>
        <time>2015-06-07T07:47:30Z</time>
      </trkpt>
      <trkpt lat="45.117" lon="2.62613">
        <ele>1260.91</ele>
        <time>2015-06-07T07:47:40Z</time>
      </trkpt>
      <trkpt lat="45.11692" lon="2.62622">
        <ele>1261.87</ele>
        <time>2015-06-07T07:47:51Z</time>
      </trkpt>
      <trkpt lat="45.11689" lon="2.62626">
        <ele>1262.35</ele>
        <time>2015-06-07T07:47:55Z</time>
      </trkpt>
      <trkpt lat="45.11683" lon="2.62637">
        <ele>1263.79</ele>
        <time>2015-06-07T07:48:06Z</time>
      </trkpt>
      <trkpt lat="45.11679" lon="2.62649">
        <ele>1268.12</ele>
        <time>2015-06-07T07:48:17Z</time>
      </trkpt>
      <trkpt lat="45.11673" lon="2.62657">
        <ele>1275.81</ele>
        <time>2015-06-07T07:48:27Z</time>
      </trkpt>
      <trkpt lat="45.11668" lon="2.62667">
        <ele>1281.57</ele>
        <time>2015-06-07T07:48:38Z</time>
      </trkpt>
      <trkpt lat="45.11663" lon="2.62678">
        <ele>1281.09</ele>
        <time>2015-06-07T07:48:48Z</time>
      </trkpt>
      <trkpt lat="45.11663" lon="2.62678">
        <ele>1281.09</ele>
        <time>2015-06-07T07:48:49Z</time>
      </trkpt>
      <trkpt lat="45.11659" lon="2.62687">
        <ele>1280.13</ele>
        <time>2015-06-07T07:48:58Z</time>
      </trkpt>
      <trkpt lat="45.11651" lon="2.62699">
        <ele>1282.06</ele>
        <time>2015-06-07T07:49:10Z</time>
      </trkpt>
      <trkpt lat="45.11648" lon="2.62703">
        <ele>1283.02</ele>
        <time>2015-06-07T07:49:15Z</time>
      </trkpt>
      <trkpt lat="45.11641" lon="2.62711">
        <ele>1284.46</ele>
        <time>2015-06-07T07:49:26Z</time>
      </trkpt>
      <trkpt lat="45.11634" lon="2.62721">
        <ele>1284.94</ele>
        <time>2015-06-07T07:49:40Z</time>
      </trkpt>
      <trkpt lat="45.11627" lon="2.62738">
        <ele>1284.46</ele>
        <time>2015-06-07T07:49:53Z</time>
      </trkpt>
      <trkpt lat="45.11622" lon="2.62749">
        <ele>1283.02</ele>
        <time>2015-06-07T07:50:04Z</time>
      </trkpt>
      <trkpt lat="45.11621" lon="2.62754">
        <ele>1283.5</ele>
        <time>2015-06-07T07:50:18Z</time>
      </trkpt>
      <trkpt lat="45.11619" lon="2.6276">
        <ele>1283.98</ele>
        <time>2015-06-07T07:50:24Z</time>
      </trkpt>
      <trkpt lat="45.11612" lon="2.62782">
        <ele>1290.23</ele>
        <time>2015-06-07T07:50:40Z</time>
      </trkpt>
      <trkpt lat="45.1161" lon="2.62799">
        <ele>1292.63</ele>
        <time>2015-06-07T07:50:52Z</time>
      </trkpt>
      <trkpt lat="45.1161" lon="2.62799">
        <ele>1293.59</ele>
        <time>2015-06-07T07:51:03Z</time>
      </trkpt>
      <trkpt lat="45.11612" lon="2.62803">
        <ele>1294.55</ele>
        <time>2015-06-07T07:51:08Z</time>
      </trkpt>
      <trkpt lat="45.11611" lon="2.62807">
        <ele>1295.99</ele>
        <time>2015-06-07T07:51:20Z</time>
      </trkpt>
      <trkpt lat="45.11613" lon="2.62806">
        <ele>1295.99</ele>
        <time>2015-06-07T07:51:38Z</time>
      </trkpt>
      <trkpt lat="45.11614" lon="2.62808">
        <ele>1295.51</ele>
        <time>2015-06-07T07:51:41Z</time>
      </trkpt>
      <trkpt lat="45.11616" lon="2.62814">
        <ele>1295.03</ele>
        <time>2015-06-07T07:51:45Z</time>
      </trkpt>
      <trkpt lat="45.11621" lon="2.62824">
        <ele>1291.67</ele>
        <time>2015-06-07T07:51:57Z</time>
      </trkpt>
      <trkpt lat="45.11613" lon="2.62824">
        <ele>1290.23</ele>
        <time>2015-06-07T07:52:11Z</time>
      </trkpt>
      <trkpt lat="45.11608" lon="2.62831">
        <ele>1288.78</ele>
        <time>2015-06-07T07:52:23Z</time>
      </trkpt>
      <trkpt lat="45.116" lon="2.62834">
        <ele>1287.34</ele>
        <time>2015-06-07T07:52:35Z</time>
      </trkpt>
      <trkpt lat="45.11592" lon="2.62829">
        <ele>1283.98</ele>
        <time>2015-06-07T07:52:49Z</time>
      </trkpt>
      <trkpt lat="45.11587" lon="2.62827">
        <ele>1282.06</ele>
        <time>2015-06-07T07:53:01Z</time>
      </trkpt>
      <trkpt lat="45.11586" lon="2.62829">
        <ele>1282.06</ele>
        <time>2015-06-07T07:53:15Z</time>
      </trkpt>
      <trkpt lat="45.11586" lon="2.62836">
        <ele>1283.02</ele>
        <time>2015-06-07T07:53:30Z</time>
      </trkpt>
      <trkpt lat="45.11586" lon="2.62835">
        <ele>1282.06</ele>
        <time>2015-06-07T07:53:47Z</time>
      </trkpt>
      <trkpt lat="45.11588" lon="2.62831">
        <ele>1281.57</ele>
        <time>2015-06-07T07:54:02Z</time>
      </trkpt>
      <trkpt lat="45.11591" lon="2.62827">
        <ele>1283.02</ele>
        <time>2015-06-07T07:54:18Z</time>
      </trkpt>
      <trkpt lat="45.11593" lon="2.62825">
        <ele>1283.5</ele>
        <time>2015-06-07T07:54:37Z</time>
      </trkpt>
      <trkpt lat="45.11598" lon="2.62826">
        <ele>1287.82</ele>
        <time>2015-06-07T07:54:48Z</time>
      </trkpt>
      <trkpt lat="45.11604" lon="2.62822">
        <ele>1290.23</ele>
        <time>2015-06-07T07:55:00Z</time>
      </trkpt>
      <trkpt lat="45.11608" lon="2.62823">
        <ele>1292.15</ele>
        <time>2015-06-07T07:55:11Z</time>
      </trkpt>
      <trkpt lat="45.11614" lon="2.62818">
        <ele>1292.63</ele>
        <time>2015-06-07T07:55:25Z</time>
      </trkpt>
      <trkpt lat="45.11612" lon="2.62814">
        <ele>1293.11</ele>
        <time>2015-06-07T07:55:42Z</time>
      </trkpt>
      <trkpt lat="45.11611" lon="2.62808">
        <ele>1291.67</ele>
        <time>2015-06-07T07:55:48Z</time>
      </trkpt>
      <trkpt lat="45.11611" lon="2.62787">
        <ele>1290.23</ele>
        <time>2015-06-07T07:56:02Z</time>
      </trkpt>
      <trkpt lat="45.11612" lon="2.62777">
        <ele>1289.27</ele>
        <time>2015-06-07T07:56:10Z</time>
      </trkpt>
      <trkpt lat="45.11616" lon="2.62776">
        <ele>1287.34</ele>
        <time>2015-06-07T07:56:15Z</time>
      </trkpt>
      <trkpt lat="45.11621" lon="2.62759">
        <ele>1282.06</ele>
        <time>2015-06-07T07:56:28Z</time>
      </trkpt>
      <trkpt lat="45.11624" lon="2.62747">
        <ele>1280.13</ele>
        <time>2015-06-07T07:56:38Z</time>
      </trkpt>
      <trkpt lat="45.11622" lon="2.62748">
        <ele>1280.61</ele>
        <time>2015-06-07T07:56:52Z</time>
      </trkpt>
      <trkpt lat="45.11624" lon="2.62746">
        <ele>1279.65</ele>
        <time>2015-06-07T07:56:57Z</time>
      </trkpt>
      <trkpt lat="45.11628" lon="2.62736">
        <ele>1277.73</ele>
        <time>2015-06-07T07:57:08Z</time>
      </trkpt>
      <trkpt lat="45.11632" lon="2.62725">
        <ele>1276.29</ele>
        <time>2015-06-07T07:57:20Z</time>
      </trkpt>
      <trkpt lat="45.11638" lon="2.62716">
        <ele>1276.29</ele>
        <time>2015-06-07T07:57:32Z</time>
      </trkpt>
      <trkpt lat="45.11646" lon="2.62704">
        <ele>1277.25</ele>
        <time>2015-06-07T07:57:42Z</time>
      </trkpt>
      <trkpt lat="45.11651" lon="2.62696">
        <ele>1279.17</ele>
        <time>2015-06-07T07:57:49Z</time>
      </trkpt>
      <trkpt lat="45.11654" lon="2.62694">
        <ele>1280.13</ele>
        <time>2015-06-07T07:57:52Z</time>
      </trkpt>
      <trkpt lat="45.11655" lon="2.62692">
        <ele>1279.65</ele>
        <time>2015-06-07T07:57:54Z</time>
      </trkpt>
      <trkpt lat="45.11661" lon="2.62677">
        <ele>1278.21</ele>
        <time>2015-06-07T07:58:06Z</time>
      </trkpt>
      <trkpt lat="45.11667" lon="2.62667">
        <ele>1276.29</ele>
        <time>2015-06-07T07:58:15Z</time>
      </trkpt>
      <trkpt lat="45.11673" lon="2.62658">
        <ele>1275.33</ele>
        <time>2015-06-07T07:58:24Z</time>
      </trkpt>
      <trkpt lat="45.11678" lon="2.62647">
        <ele>1274.36</ele>
        <time>2015-06-07T07:58:33Z</time>
      </trkpt>
      <trkpt lat="45.11681" lon="2.62638">
        <ele>1272.92</ele>
        <time>2015-06-07T07:58:41Z</time>
      </trkpt>
      <trkpt lat="45.1169" lon="2.62628">
        <ele>1273.88</ele>
        <time>2015-06-07T07:58:54Z</time>
      </trkpt>
      <trkpt lat="45.11698" lon="2.62612">
        <ele>1274.85</ele>
        <time>2015-06-07T07:59:07Z</time>
      </trkpt>
      <trkpt lat="45.11704" lon="2.62593">
        <ele>1273.88</ele>
        <time>2015-06-07T07:59:20Z</time>
      </trkpt>
      <trkpt lat="45.11707" lon="2.62589">
        <ele>1274.36</ele>
        <time>2015-06-07T07:59:31Z</time>
      </trkpt>
      <trkpt lat="45.11713" lon="2.62578">
        <ele>1274.36</ele>
        <time>2015-06-07T07:59:44Z</time>
      </trkpt>
      <trkpt lat="45.11714" lon="2.62576">
        <ele>1273.4</ele>
        <time>2015-06-07T07:59:46Z</time>
      </trkpt>
      <trkpt lat="45.11719" lon="2.62569">
        <ele>1271</ele>
        <time>2015-06-07T07:59:58Z</time>
      </trkpt>
      <trkpt lat="45.11722" lon="2.6256">
        <ele>1270.04</ele>
        <time>2015-06-07T08:00:09Z</time>
      </trkpt>
      <trkpt lat="45.1172" lon="2.62557">
        <ele>1270.52</ele>
        <time>2015-06-07T08:00:17Z</time>
      </trkpt>
      <trkpt lat="45.11714" lon="2.62557">
        <ele>1269.56</ele>
        <time>2015-06-07T08:00:28Z</time>
      </trkpt>
      <trkpt lat="45.11711" lon="2.6256">
        <ele>1268.6</ele>
        <time>2015-06-07T08:00:32Z</time>
      </trkpt>
      <trkpt lat="45.11704" lon="2.62564">
        <ele>1268.12</ele>
        <time>2015-06-07T08:00:41Z</time>
      </trkpt>
      <trkpt lat="45.11699" lon="2.62565">
        <ele>1269.08</ele>
        <time>2015-06-07T08:00:45Z</time>
      </trkpt>
      <trkpt lat="45.11687" lon="2.62568">
        <ele>1264.75</ele>
        <time>2015-06-07T08:00:57Z</time>
      </trkpt>
      <trkpt lat="45.11681" lon="2.62571">
        <ele>1263.31</ele>
        <time>2015-06-07T08:01:09Z</time>
      </trkpt>
      <trkpt lat="45.11671" lon="2.62578">
        <ele>1260.43</ele>
        <time>2015-06-07T08:01:17Z</time>
      </trkpt>
      <trkpt lat="45.11662" lon="2.62582">
        <ele>1256.1</ele>
        <time>2015-06-07T08:01:27Z</time>
      </trkpt>
      <trkpt lat="45.11648" lon="2.62591">
        <ele>1251.29</ele>
        <time>2015-06-07T08:01:40Z</time>
      </trkpt>
      <trkpt lat="45.11644" lon="2.62592">
        <ele>1251.77</ele>
        <time>2015-06-07T08:01:44Z</time>
      </trkpt>
      <trkpt lat="45.11634" lon="2.62596">
        <ele>1249.85</ele>
        <time>2015-06-07T08:01:56Z</time>
      </trkpt>
      <trkpt lat="45.11622" lon="2.62609">
        <ele>1248.41</ele>
        <time>2015-06-07T08:02:09Z</time>
      </trkpt>
      <trkpt lat="45.1161" lon="2.62615">
        <ele>1249.85</ele>
        <time>2015-06-07T08:02:19Z</time>
      </trkpt>
      <trkpt lat="45.116" lon="2.62622">
        <ele>1251.29</ele>
        <time>2015-06-07T08:02:30Z</time>
      </trkpt>
      <trkpt lat="45.11591" lon="2.62625">
        <ele>1252.74</ele>
        <time>2015-06-07T08:02:37Z</time>
      </trkpt>
      <trkpt lat="45.11583" lon="2.62629">
        <ele>1253.7</ele>
        <time>2015-06-07T08:02:49Z</time>
      </trkpt>
      <trkpt lat="45.11582" lon="2.62631">
        <ele>1253.22</ele>
        <time>2015-06-07T08:02:50Z</time>
      </trkpt>
      <trkpt lat="45.11567" lon="2.62642">
        <ele>1250.81</ele>
        <time>2015-06-07T08:03:04Z</time>
      </trkpt>
      <trkpt lat="45.11557" lon="2.62645">
        <ele>1246.49</ele>
        <time>2015-06-07T08:03:15Z</time>
      </trkpt>
      <trkpt lat="45.11554" lon="2.62643">
        <ele>1246.01</ele>
        <time>2015-06-07T08:03:18Z</time>
      </trkpt>
      <trkpt lat="45.11551" lon="2.62642">
        <ele>1246.01</ele>
        <time>2015-06-07T08:03:21Z</time>
      </trkpt>
      <trkpt lat="45.11544" lon="2.62648">
        <ele>1244.08</ele>
        <time>2015-06-07T08:03:29Z</time>
      </trkpt>
      <trkpt lat="45.11545" lon="2.62662">
        <ele>1241.68</ele>
        <time>2015-06-07T08:03:43Z</time>
      </trkpt>
      <trkpt lat="45.11539" lon="2.62676">
        <ele>1243.12</ele>
        <time>2015-06-07T08:03:56Z</time>
      </trkpt>
      <trkpt lat="45.11532" lon="2.6268">
        <ele>1242.64</ele>
        <time>2015-06-07T08:04:03Z</time>
      </trkpt>
      <trkpt lat="45.11521" lon="2.62681">
        <ele>1242.16</ele>
        <time>2015-06-07T08:04:14Z</time>
      </trkpt>
      <trkpt lat="45.1152" lon="2.62682">
        <ele>1242.16</ele>
        <time>2015-06-07T08:04:15Z</time>
      </trkpt>
      <trkpt lat="45.11516" lon="2.62681">
        <ele>1242.64</ele>
        <time>2015-06-07T08:04:18Z</time>
      </trkpt>
      <trkpt lat="45.11513" lon="2.6268">
        <ele>1243.12</ele>
        <time>2015-06-07T08:04:20Z</time>
      </trkpt>
      <trkpt lat="45.11506" lon="2.62681">
        <ele>1245.04</ele>
        <time>2015-06-07T08:04:24Z</time>
      </trkpt>
      <trkpt lat="45.11496" lon="2.62675">
        <ele>1245.53</ele>
        <time>2015-06-07T08:04:34Z</time>
      </trkpt>
      <trkpt lat="45.11491" lon="2.62674">
        <ele>1245.53</ele>
        <time>2015-06-07T08:04:39Z</time>
      </trkpt>
      <trkpt lat="45.11484" lon="2.62677">
        <ele>1244.56</ele>
        <time>2015-06-07T08:04:47Z</time>
      </trkpt>
      <trkpt lat="45.11472" lon="2.6268">
        <ele>1245.04</ele>
        <time>2015-06-07T08:04:58Z</time>
      </trkpt>
      <trkpt lat="45.11468" lon="2.62679">
        <ele>1245.53</ele>
        <time>2015-06-07T08:05:10Z</time>
      </trkpt>
      <trkpt lat="45.11468" lon="2.62684">
        <ele>1246.49</ele>
        <time>2015-06-07T08:05:20Z</time>
      </trkpt>
      <trkpt lat="45.11463" lon="2.62683">
        <ele>1249.85</ele>
        <time>2015-06-07T08:05:30Z</time>
      </trkpt>
      <trkpt lat="45.11456" lon="2.62679">
        <ele>1248.89</ele>
        <time>2015-06-07T08:05:38Z</time>
      </trkpt>
      <trkpt lat="45.11451" lon="2.62679">
        <ele>1247.93</ele>
        <time>2015-06-07T08:05:50Z</time>
      </trkpt>
      <trkpt lat="45.11453" lon="2.62678">
        <ele>1247.93</ele>
        <time>2015-06-07T08:05:53Z</time>
      </trkpt>
      <trkpt lat="45.11457" lon="2.62677">
        <ele>1247.45</ele>
        <time>2015-06-07T08:05:58Z</time>
      </trkpt>
      <trkpt lat="45.11464" lon="2.62682">
        <ele>1247.93</ele>
        <time>2015-06-07T08:06:08Z</time>
      </trkpt>
      <trkpt lat="45.11469" lon="2.62687">
        <ele>1248.89</ele>
        <time>2015-06-07T08:06:22Z</time>
      </trkpt>
      <trkpt lat="45.11475" lon="2.62691">
        <ele>1250.33</ele>
        <time>2015-06-07T08:06:35Z</time>
      </trkpt>
      <trkpt lat="45.11477" lon="2.62692">
        <ele>1250.33</ele>
        <time>2015-06-07T08:06:36Z</time>
      </trkpt>
      <trkpt lat="45.11488" lon="2.627">
        <ele>1250.81</ele>
        <time>2015-06-07T08:06:49Z</time>
      </trkpt>
      <trkpt lat="45.11495" lon="2.62715">
        <ele>1251.77</ele>
        <time>2015-06-07T08:07:04Z</time>
      </trkpt>
      <trkpt lat="45.11504" lon="2.62725">
        <ele>1250.81</ele>
        <time>2015-06-07T08:07:22Z</time>
      </trkpt>
      <trkpt lat="45.11511" lon="2.62725">
        <ele>1251.29</ele>
        <time>2015-06-07T08:07:41Z</time>
      </trkpt>
      <trkpt lat="45.11517" lon="2.62733">
        <ele>1252.25</ele>
        <time>2015-06-07T08:07:54Z</time>
      </trkpt>
      <trkpt lat="45.11524" lon="2.62742">
        <ele>1257.06</ele>
        <time>2015-06-07T08:08:08Z</time>
      </trkpt>
      <trkpt lat="45.11523" lon="2.62753">
        <ele>1260.91</ele>
        <time>2015-06-07T08:08:22Z</time>
      </trkpt>
      <trkpt lat="45.11518" lon="2.62759">
        <ele>1265.23</ele>
        <time>2015-06-07T08:08:38Z</time>
      </trkpt>
      <trkpt lat="45.11522" lon="2.6276">
        <ele>1267.64</ele>
        <time>2015-06-07T08:08:51Z</time>
      </trkpt>
      <trkpt lat="45.11534" lon="2.62767">
        <ele>1267.64</ele>
        <time>2015-06-07T08:09:07Z</time>
      </trkpt>
      <trkpt lat="45.11544" lon="2.62773">
        <ele>1270.52</ele>
        <time>2015-06-07T08:09:22Z</time>
      </trkpt>
      <trkpt lat="45.11547" lon="2.62777">
        <ele>1270.52</ele>
        <time>2015-06-07T08:09:40Z</time>
      </trkpt>
      <trkpt lat="45.11547" lon="2.62777">
        <ele>1270.52</ele>
        <time>2015-06-07T08:09:58Z</time>
      </trkpt>
      <trkpt lat="45.11546" lon="2.62776">
        <ele>1269.56</ele>
        <time>2015-06-07T08:10:29Z</time>
      </trkpt>
      <trkpt lat="45.11547" lon="2.62776">
        <ele>1271</ele>
        <time>2015-06-07T08:10:57Z</time>
      </trkpt>
      <trkpt lat="45.11548" lon="2.62776">
        <ele>1271.48</ele>
        <time>2015-06-07T08:11:25Z</time>
      </trkpt>
      <trkpt lat="45.11547" lon="2.62775">
        <ele>1271</ele>
        <time>2015-06-07T08:11:50Z</time>
      </trkpt>
      <trkpt lat="45.11552" lon="2.62787">
        <ele>1270.52</ele>
        <time>2015-06-07T08:12:04Z</time>
      </trkpt>
      <trkpt lat="45.11554" lon="2.62795">
        <ele>1270.04</ele>
        <time>2015-06-07T08:12:17Z</time>
      </trkpt>
      <trkpt lat="45.11557" lon="2.62799">
        <ele>1270.52</ele>
        <time>2015-06-07T08:12:24Z</time>
      </trkpt>
      <trkpt lat="45.11566" lon="2.62812">
        <ele>1272.92</ele>
        <time>2015-06-07T08:12:39Z</time>
      </trkpt>
      <trkpt lat="45.11565" lon="2.62821">
        <ele>1270.52</ele>
        <time>2015-06-07T08:12:52Z</time>
      </trkpt>
      <trkpt lat="45.11566" lon="2.62823">
        <ele>1270.52</ele>
        <time>2015-06-07T08:13:08Z</time>
      </trkpt>
      <trkpt lat="45.11565" lon="2.62825">
        <ele>1270.52</ele>
        <time>2015-06-07T08:13:30Z</time>
      </trkpt>
      <trkpt lat="45.11564" lon="2.62827">
        <ele>1271.48</ele>
        <time>2015-06-07T08:13:48Z</time>
      </trkpt>
      <trkpt lat="45.11564" lon="2.62829">
        <ele>1273.4</ele>
        <time>2015-06-07T08:14:06Z</time>
      </trkpt>
      <trkpt lat="45.11563" lon="2.6283">
        <ele>1274.85</ele>
        <time>2015-06-07T08:14:12Z</time>
      </trkpt>
      <trkpt lat="45.11561" lon="2.62832">
        <ele>1279.65</ele>
        <time>2015-06-07T08:14:27Z</time>
      </trkpt>
      <trkpt lat="45.11563" lon="2.62834">
        <ele>1280.13</ele>
        <time>2015-06-07T08:14:34Z</time>
      </trkpt>
      <trkpt lat="45.11564" lon="2.62839">
        <ele>1280.13</ele>
        <time>2015-06-07T08:14:47Z</time>
      </trkpt>
      <trkpt lat="45.11567" lon="2.62843">
        <ele>1281.09</ele>
        <time>2015-06-07T08:15:00Z</time>
      </trkpt>
      <trkpt lat="45.11569" lon="2.62847">
        <ele>1281.57</ele>
        <time>2015-06-07T08:15:16Z</time>
      </trkpt>
      <trkpt lat="45.11567" lon="2.62841">
        <ele>1283.98</ele>
        <time>2015-06-07T08:15:29Z</time>
      </trkpt>
      <trkpt lat="45.11568" lon="2.62836">
        <ele>1283.5</ele>
        <time>2015-06-07T08:15:44Z</time>
      </trkpt>
      <trkpt lat="45.11567" lon="2.62832">
        <ele>1285.42</ele>
        <time>2015-06-07T08:15:59Z</time>
      </trkpt>
      <trkpt lat="45.11565" lon="2.62825">
        <ele>1286.86</ele>
        <time>2015-06-07T08:16:13Z</time>
      </trkpt>
      <trkpt lat="45.11565" lon="2.62822">
        <ele>1286.38</ele>
        <time>2015-06-07T08:16:27Z</time>
      </trkpt>
      <trkpt lat="45.11563" lon="2.62821">
        <ele>1285.9</ele>
        <time>2015-06-07T08:16:44Z</time>
      </trkpt>
      <trkpt lat="45.11561" lon="2.62822">
        <ele>1286.38</ele>
        <time>2015-06-07T08:16:57Z</time>
      </trkpt>
      <trkpt lat="45.1156" lon="2.62823">
        <ele>1287.34</ele>
        <time>2015-06-07T08:17:10Z</time>
      </trkpt>
      <trkpt lat="45.11561" lon="2.62823">
        <ele>1287.34</ele>
        <time>2015-06-07T08:17:26Z</time>
      </trkpt>
      <trkpt lat="45.11562" lon="2.62827">
        <ele>1288.78</ele>
        <time>2015-06-07T08:17:44Z</time>
      </trkpt>
      <trkpt lat="45.11566" lon="2.62829">
        <ele>1288.78</ele>
        <time>2015-06-07T08:17:56Z</time>
      </trkpt>
      <trkpt lat="45.11566" lon="2.62834">
        <ele>1289.27</ele>
        <time>2015-06-07T08:18:08Z</time>
      </trkpt>
      <trkpt lat="45.1157" lon="2.6284">
        <ele>1289.75</ele>
        <time>2015-06-07T08:18:19Z</time>
      </trkpt>
      <trkpt lat="45.11572" lon="2.62845">
        <ele>1289.27</ele>
        <time>2015-06-07T08:18:31Z</time>
      </trkpt>
      <trkpt lat="45.11572" lon="2.62846">
        <ele>1287.82</ele>
        <time>2015-06-07T08:18:44Z</time>
      </trkpt>
      <trkpt lat="45.11572" lon="2.62849">
        <ele>1286.38</ele>
        <time>2015-06-07T08:19:00Z</time>
      </trkpt>
      <trkpt lat="45.11575" lon="2.62851">
        <ele>1285.9</ele>
        <time>2015-06-07T08:19:10Z</time>
      </trkpt>
      <trkpt lat="45.11579" lon="2.6285">
        <ele>1285.9</ele>
        <time>2015-06-07T08:19:17Z</time>
      </trkpt>
      <trkpt lat="45.11583" lon="2.62846">
        <ele>1285.9</ele>
        <time>2015-06-07T08:19:22Z</time>
      </trkpt>
      <trkpt lat="45.11587" lon="2.62844">
        <ele>1287.34</ele>
        <time>2015-06-07T08:19:31Z</time>
      </trkpt>
      <trkpt lat="45.11589" lon="2.62845">
        <ele>1287.82</ele>
        <time>2015-06-07T08:19:44Z</time>
      </trkpt>
      <trkpt lat="45.11591" lon="2.62845">
        <ele>1288.3</ele>
        <time>2015-06-07T08:19:57Z</time>
      </trkpt>
      <trkpt lat="45.11593" lon="2.62847">
        <ele>1290.71</ele>
        <time>2015-06-07T08:20:09Z</time>
      </trkpt>
      <trkpt lat="45.11591" lon="2.62847">
        <ele>1290.23</ele>
        <time>2015-06-07T08:20:25Z</time>
      </trkpt>
      <trkpt lat="45.11595" lon="2.6285">
        <ele>1291.19</ele>
        <time>2015-06-07T08:20:35Z</time>
      </trkpt>
      <trkpt lat="45.11598" lon="2.6285">
        <ele>1292.63</ele>
        <time>2015-06-07T08:20:46Z</time>
      </trkpt>
      <trkpt lat="45.11602" lon="2.62849">
        <ele>1293.59</ele>
        <time>2015-06-07T08:20:58Z</time>
      </trkpt>
      <trkpt lat="45.11604" lon="2.62849">
        <ele>1294.07</ele>
        <time>2015-06-07T08:21:15Z</time>
      </trkpt>
      <trkpt lat="45.11597" lon="2.62855">
        <ele>1293.59</ele>
        <time>2015-06-07T08:21:28Z</time>
      </trkpt>
      <trkpt lat="45.11595" lon="2.6286">
        <ele>1293.11</ele>
        <time>2015-06-07T08:21:42Z</time>
      </trkpt>
      <trkpt lat="45.11591" lon="2.62867">
        <ele>1291.67</ele>
        <time>2015-06-07T08:21:55Z</time>
      </trkpt>
      <trkpt lat="45.11588" lon="2.62876">
        <ele>1290.71</ele>
        <time>2015-06-07T08:22:06Z</time>
      </trkpt>
      <trkpt lat="45.11585" lon="2.62882">
        <ele>1292.63</ele>
        <time>2015-06-07T08:22:19Z</time>
      </trkpt>
      <trkpt lat="45.11581" lon="2.62888">
        <ele>1289.75</ele>
        <time>2015-06-07T08:22:31Z</time>
      </trkpt>
      <trkpt lat="45.11582" lon="2.62891">
        <ele>1288.78</ele>
        <time>2015-06-07T08:22:45Z</time>
      </trkpt>
      <trkpt lat="45.11584" lon="2.62896">
        <ele>1288.3</ele>
        <time>2015-06-07T08:22:58Z</time>
      </trkpt>
      <trkpt lat="45.11584" lon="2.62899">
        <ele>1288.78</ele>
        <time>2015-06-07T08:23:11Z</time>
      </trkpt>
      <trkpt lat="45.11585" lon="2.62899">
        <ele>1287.82</ele>
        <time>2015-06-07T08:23:23Z</time>
      </trkpt>
      <trkpt lat="45.11588" lon="2.62902">
        <ele>1288.3</ele>
        <time>2015-06-07T08:23:37Z</time>
      </trkpt>
      <trkpt lat="45.11594" lon="2.62919">
        <ele>1291.19</ele>
        <time>2015-06-07T08:23:49Z</time>
      </trkpt>
      <trkpt lat="45.11596" lon="2.62924">
        <ele>1292.63</ele>
        <time>2015-06-07T08:23:54Z</time>
      </trkpt>
      <trkpt lat="45.116" lon="2.62933">
        <ele>1292.63</ele>
        <time>2015-06-07T08:24:06Z</time>
      </trkpt>
      <trkpt lat="45.11605" lon="2.6294">
        <ele>1293.59</ele>
        <time>2015-06-07T08:24:18Z</time>
      </trkpt>
      <trkpt lat="45.11607" lon="2.62949">
        <ele>1294.07</ele>
        <time>2015-06-07T08:24:28Z</time>
      </trkpt>
      <trkpt lat="45.11609" lon="2.62964">
        <ele>1295.51</ele>
        <time>2015-06-07T08:24:40Z</time>
      </trkpt>
      <trkpt lat="45.11613" lon="2.62977">
        <ele>1297.44</ele>
        <time>2015-06-07T08:24:52Z</time>
      </trkpt>
      <trkpt lat="45.11613" lon="2.62986">
        <ele>1298.4</ele>
        <time>2015-06-07T08:25:01Z</time>
      </trkpt>
      <trkpt lat="45.11614" lon="2.63003">
        <ele>1300.8</ele>
        <time>2015-06-07T08:25:14Z</time>
      </trkpt>
      <trkpt lat="45.11613" lon="2.63009">
        <ele>1302.72</ele>
        <time>2015-06-07T08:25:21Z</time>
      </trkpt>
      <trkpt lat="45.11613" lon="2.63016">
        <ele>1302.72</ele>
        <time>2015-06-07T08:25:25Z</time>
      </trkpt>
      <trkpt lat="45.1161" lon="2.6302">
        <ele>1302.24</ele>
        <time>2015-06-07T08:25:28Z</time>
      </trkpt>
      <trkpt lat="45.1161" lon="2.63022">
        <ele>1302.24</ele>
        <time>2015-06-07T08:25:30Z</time>
      </trkpt>
      <trkpt lat="45.11604" lon="2.63037">
        <ele>1300.32</ele>
        <time>2015-06-07T08:25:44Z</time>
      </trkpt>
      <trkpt lat="45.116" lon="2.63047">
        <ele>1298.4</ele>
        <time>2015-06-07T08:25:56Z</time>
      </trkpt>
      <trkpt lat="45.11596" lon="2.63054">
        <ele>1298.88</ele>
        <time>2015-06-07T08:26:04Z</time>
      </trkpt>
      <trkpt lat="45.11597" lon="2.63059">
        <ele>1299.36</ele>
        <time>2015-06-07T08:26:08Z</time>
      </trkpt>
      <trkpt lat="45.11594" lon="2.6307">
        <ele>1298.88</ele>
        <time>2015-06-07T08:26:19Z</time>
      </trkpt>
      <trkpt lat="45.11594" lon="2.63072">
        <ele>1298.4</ele>
        <time>2015-06-07T08:26:21Z</time>
      </trkpt>
      <trkpt lat="45.11595" lon="2.63086">
        <ele>1297.44</ele>
        <time>2015-06-07T08:26:33Z</time>
      </trkpt>
      <trkpt lat="45.11597" lon="2.63099">
        <ele>1298.4</ele>
        <time>2015-06-07T08:26:45Z</time>
      </trkpt>
      <trkpt lat="45.11599" lon="2.631">
        <ele>1298.88</ele>
        <time>2015-06-07T08:26:48Z</time>
      </trkpt>
      <trkpt lat="45.11608" lon="2.63103">
        <ele>1301.76</ele>
        <time>2015-06-07T08:26:59Z</time>
      </trkpt>
      <trkpt lat="45.11611" lon="2.63102">
        <ele>1304.65</ele>
        <time>2015-06-07T08:27:13Z</time>
      </trkpt>
      <trkpt lat="45.11616" lon="2.63111">
        <ele>1307.53</ele>
        <time>2015-06-07T08:27:24Z</time>
      </trkpt>
      <trkpt lat="45.11617" lon="2.63127">
        <ele>1308.97</ele>
        <time>2015-06-07T08:27:39Z</time>
      </trkpt>
      <trkpt lat="45.1162" lon="2.63133">
        <ele>1311.86</ele>
        <time>2015-06-07T08:27:46Z</time>
      </trkpt>
      <trkpt lat="45.11626" lon="2.63138">
        <ele>1313.78</ele>
        <time>2015-06-07T08:27:59Z</time>
      </trkpt>
      <trkpt lat="45.11628" lon="2.63143">
        <ele>1314.74</ele>
        <time>2015-06-07T08:28:08Z</time>
      </trkpt>
      <trkpt lat="45.11635" lon="2.63153">
        <ele>1319.07</ele>
        <time>2015-06-07T08:28:20Z</time>
      </trkpt>
      <trkpt lat="45.11642" lon="2.63162">
        <ele>1320.51</ele>
        <time>2015-06-07T08:28:33Z</time>
      </trkpt>
      <trkpt lat="45.11649" lon="2.63168">
        <ele>1320.03</ele>
        <time>2015-06-07T08:28:44Z</time>
      </trkpt>
      <trkpt lat="45.11659" lon="2.63172">
        <ele>1322.43</ele>
        <time>2015-06-07T08:28:57Z</time>
      </trkpt>
      <trkpt lat="45.11662" lon="2.63176">
        <ele>1321.95</ele>
        <time>2015-06-07T08:29:12Z</time>
      </trkpt>
      <trkpt lat="45.1167" lon="2.63185">
        <ele>1325.31</ele>
        <time>2015-06-07T08:29:27Z</time>
      </trkpt>
      <trkpt lat="45.11672" lon="2.63187">
        <ele>1326.28</ele>
        <time>2015-06-07T08:29:30Z</time>
      </trkpt>
      <trkpt lat="45.11676" lon="2.63192">
        <ele>1326.76</ele>
        <time>2015-06-07T08:29:39Z</time>
      </trkpt>
      <trkpt lat="45.11681" lon="2.63201">
        <ele>1327.24</ele>
        <time>2015-06-07T08:29:52Z</time>
      </trkpt>
      <trkpt lat="45.11685" lon="2.63209">
        <ele>1328.68</ele>
        <time>2015-06-07T08:30:05Z</time>
      </trkpt>
      <trkpt lat="45.11684" lon="2.63217">
        <ele>1330.12</ele>
        <time>2015-06-07T08:30:15Z</time>
      </trkpt>
      <trkpt lat="45.11684" lon="2.63224">
        <ele>1330.12</ele>
        <time>2015-06-07T08:30:32Z</time>
      </trkpt>
      <trkpt lat="45.11684" lon="2.63227">
        <ele>1330.6</ele>
        <time>2015-06-07T08:30:42Z</time>
      </trkpt>
      <trkpt lat="45.1168" lon="2.63233">
        <ele>1330.6</ele>
        <time>2015-06-07T08:30:54Z</time>
      </trkpt>
      <trkpt lat="45.11681" lon="2.63241">
        <ele>1332.04</ele>
        <time>2015-06-07T08:31:05Z</time>
      </trkpt>
      <trkpt lat="45.11682" lon="2.63243">
        <ele>1333.01</ele>
        <time>2015-06-07T08:31:20Z</time>
      </trkpt>
      <trkpt lat="45.11682" lon="2.63246">
        <ele>1333.01</ele>
        <time>2015-06-07T08:31:35Z</time>
      </trkpt>
      <trkpt lat="45.11682" lon="2.63251">
        <ele>1333.01</ele>
        <time>2015-06-07T08:31:51Z</time>
      </trkpt>
      <trkpt lat="45.11683" lon="2.63253">
        <ele>1334.45</ele>
        <time>2015-06-07T08:32:03Z</time>
      </trkpt>
      <trkpt lat="45.11686" lon="2.63261">
        <ele>1335.89</ele>
        <time>2015-06-07T08:32:15Z</time>
      </trkpt>
      <trkpt lat="45.11687" lon="2.63267">
        <ele>1338.29</ele>
        <time>2015-06-07T08:32:26Z</time>
      </trkpt>
      <trkpt lat="45.11691" lon="2.63271">
        <ele>1338.77</ele>
        <time>2015-06-07T08:32:36Z</time>
      </trkpt>
      <trkpt lat="45.11692" lon="2.63281">
        <ele>1341.18</ele>
        <time>2015-06-07T08:32:48Z</time>
      </trkpt>
      <trkpt lat="45.11694" lon="2.63289">
        <ele>1344.06</ele>
        <time>2015-06-07T08:33:02Z</time>
      </trkpt>
      <trkpt lat="45.11695" lon="2.63299">
        <ele>1345.02</ele>
        <time>2015-06-07T08:33:16Z</time>
      </trkpt>
      <trkpt lat="45.11695" lon="2.63302">
        <ele>1346.94</ele>
        <time>2015-06-07T08:33:31Z</time>
      </trkpt>
      <trkpt lat="45.11695" lon="2.63303">
        <ele>1347.43</ele>
        <time>2015-06-07T08:33:32Z</time>
      </trkpt>
      <trkpt lat="45.11696" lon="2.63312">
        <ele>1349.35</ele>
        <time>2015-06-07T08:33:45Z</time>
      </trkpt>
      <trkpt lat="45.11695" lon="2.63321">
        <ele>1349.83</ele>
        <time>2015-06-07T08:34:00Z</time>
      </trkpt>
      <trkpt lat="45.11696" lon="2.6333">
        <ele>1352.23</ele>
        <time>2015-06-07T08:34:11Z</time>
      </trkpt>
      <trkpt lat="45.11698" lon="2.63341">
        <ele>1351.75</ele>
        <time>2015-06-07T08:34:25Z</time>
      </trkpt>
      <trkpt lat="45.11699" lon="2.63351">
        <ele>1352.23</ele>
        <time>2015-06-07T08:34:37Z</time>
      </trkpt>
      <trkpt lat="45.11699" lon="2.63358">
        <ele>1353.67</ele>
        <time>2015-06-07T08:34:49Z</time>
      </trkpt>
      <trkpt lat="45.117" lon="2.63368">
        <ele>1354.15</ele>
        <time>2015-06-07T08:35:01Z</time>
      </trkpt>
      <trkpt lat="45.117" lon="2.63377">
        <ele>1356.56</ele>
        <time>2015-06-07T08:35:14Z</time>
      </trkpt>
      <trkpt lat="45.117" lon="2.63385">
        <ele>1358.48</ele>
        <time>2015-06-07T08:35:29Z</time>
      </trkpt>
      <trkpt lat="45.11701" lon="2.6339">
        <ele>1359.44</ele>
        <time>2015-06-07T08:35:45Z</time>
      </trkpt>
      <trkpt lat="45.117" lon="2.63401">
        <ele>1363.29</ele>
        <time>2015-06-07T08:35:59Z</time>
      </trkpt>
      <trkpt lat="45.117" lon="2.63408">
        <ele>1362.81</ele>
        <time>2015-06-07T08:36:12Z</time>
      </trkpt>
      <trkpt lat="45.11698" lon="2.63419">
        <ele>1367.61</ele>
        <time>2015-06-07T08:36:25Z</time>
      </trkpt>
      <trkpt lat="45.11698" lon="2.63427">
        <ele>1368.57</ele>
        <time>2015-06-07T08:36:36Z</time>
      </trkpt>
      <trkpt lat="45.11698" lon="2.63438">
        <ele>1369.54</ele>
        <time>2015-06-07T08:36:51Z</time>
      </trkpt>
      <trkpt lat="45.11698" lon="2.63447">
        <ele>1373.86</ele>
        <time>2015-06-07T08:37:01Z</time>
      </trkpt>
      <trkpt lat="45.11694" lon="2.63458">
        <ele>1374.34</ele>
        <time>2015-06-07T08:37:15Z</time>
      </trkpt>
      <trkpt lat="45.11689" lon="2.6347">
        <ele>1374.82</ele>
        <time>2015-06-07T08:37:29Z</time>
      </trkpt>
      <trkpt lat="45.11684" lon="2.63481">
        <ele>1375.3</ele>
        <time>2015-06-07T08:37:41Z</time>
      </trkpt>
      <trkpt lat="45.1168" lon="2.63495">
        <ele>1373.86</ele>
        <time>2015-06-07T08:37:54Z</time>
      </trkpt>
      <trkpt lat="45.11679" lon="2.635">
        <ele>1375.78</ele>
        <time>2015-06-07T08:38:00Z</time>
      </trkpt>
      <trkpt lat="45.11678" lon="2.63512">
        <ele>1378.19</ele>
        <time>2015-06-07T08:38:13Z</time>
      </trkpt>
      <trkpt lat="45.11674" lon="2.63523">
        <ele>1378.19</ele>
        <time>2015-06-07T08:38:25Z</time>
      </trkpt>
      <trkpt lat="45.11673" lon="2.63527">
        <ele>1378.67</ele>
        <time>2015-06-07T08:38:33Z</time>
      </trkpt>
      <trkpt lat="45.11672" lon="2.63531">
        <ele>1377.71</ele>
        <time>2015-06-07T08:38:40Z</time>
      </trkpt>
      <trkpt lat="45.11672" lon="2.63539">
        <ele>1377.71</ele>
        <time>2015-06-07T08:38:47Z</time>
      </trkpt>
      <trkpt lat="45.11672" lon="2.63549">
        <ele>1378.67</ele>
        <time>2015-06-07T08:38:58Z</time>
      </trkpt>
      <trkpt lat="45.11669" lon="2.63556">
        <ele>1381.07</ele>
        <time>2015-06-07T08:39:06Z</time>
      </trkpt>
      <trkpt lat="45.11666" lon="2.63565">
        <ele>1382.51</ele>
        <time>2015-06-07T08:39:17Z</time>
      </trkpt>
      <trkpt lat="45.11665" lon="2.6357">
        <ele>1382.51</ele>
        <time>2015-06-07T08:39:22Z</time>
      </trkpt>
      <trkpt lat="45.11664" lon="2.63576">
        <ele>1382.03</ele>
        <time>2015-06-07T08:39:26Z</time>
      </trkpt>
      <trkpt lat="45.11661" lon="2.63583">
        <ele>1381.07</ele>
        <time>2015-06-07T08:39:33Z</time>
      </trkpt>
      <trkpt lat="45.11659" lon="2.63598">
        <ele>1382.51</ele>
        <time>2015-06-07T08:39:45Z</time>
      </trkpt>
      <trkpt lat="45.11659" lon="2.63609">
        <ele>1383.96</ele>
        <time>2015-06-07T08:39:58Z</time>
      </trkpt>
      <trkpt lat="45.11659" lon="2.63614">
        <ele>1386.36</ele>
        <time>2015-06-07T08:40:09Z</time>
      </trkpt>
      <trkpt lat="45.11654" lon="2.63624">
        <ele>1386.84</ele>
        <time>2015-06-07T08:40:23Z</time>
      </trkpt>
      <trkpt lat="45.11652" lon="2.63635">
        <ele>1388.28</ele>
        <time>2015-06-07T08:40:36Z</time>
      </trkpt>
      <trkpt lat="45.11652" lon="2.6364">
        <ele>1390.2</ele>
        <time>2015-06-07T08:40:42Z</time>
      </trkpt>
      <trkpt lat="45.11651" lon="2.63652">
        <ele>1391.17</ele>
        <time>2015-06-07T08:40:55Z</time>
      </trkpt>
      <trkpt lat="45.11655" lon="2.63663">
        <ele>1394.53</ele>
        <time>2015-06-07T08:41:08Z</time>
      </trkpt>
      <trkpt lat="45.11655" lon="2.63664">
        <ele>1395.01</ele>
        <time>2015-06-07T08:41:27Z</time>
      </trkpt>
      <trkpt lat="45.11654" lon="2.63663">
        <ele>1394.53</ele>
        <time>2015-06-07T08:41:52Z</time>
      </trkpt>
      <trkpt lat="45.11655" lon="2.63666">
        <ele>1395.49</ele>
        <time>2015-06-07T08:42:10Z</time>
      </trkpt>
      <trkpt lat="45.11655" lon="2.63675">
        <ele>1397.41</ele>
        <time>2015-06-07T08:42:23Z</time>
      </trkpt>
      <trkpt lat="45.11655" lon="2.63679">
        <ele>1397.89</ele>
        <time>2015-06-07T08:42:39Z</time>
      </trkpt>
      <trkpt lat="45.11654" lon="2.63683">
        <ele>1398.86</ele>
        <time>2015-06-07T08:42:50Z</time>
      </trkpt>
      <trkpt lat="45.11653" lon="2.63683">
        <ele>1398.37</ele>
        <time>2015-06-07T08:43:04Z</time>
      </trkpt>
      <trkpt lat="45.1165" lon="2.63695">
        <ele>1399.34</ele>
        <time>2015-06-07T08:43:17Z</time>
      </trkpt>
      <trkpt lat="45.1165" lon="2.63696">
        <ele>1399.34</ele>
        <time>2015-06-07T08:43:18Z</time>
      </trkpt>
      <trkpt lat="45.11647" lon="2.63711">
        <ele>1402.7</ele>
        <time>2015-06-07T08:43:33Z</time>
      </trkpt>
      <trkpt lat="45.11644" lon="2.6372">
        <ele>1403.18</ele>
        <time>2015-06-07T08:43:43Z</time>
      </trkpt>
      <trkpt lat="45.11639" lon="2.63733">
        <ele>1406.07</ele>
        <time>2015-06-07T08:43:59Z</time>
      </trkpt>
      <trkpt lat="45.11638" lon="2.63744">
        <ele>1406.55</ele>
        <time>2015-06-07T08:44:12Z</time>
      </trkpt>
      <trkpt lat="45.11638" lon="2.63745">
        <ele>1406.55</ele>
        <time>2015-06-07T08:44:30Z</time>
      </trkpt>
      <trkpt lat="45.11639" lon="2.63746">
        <ele>1406.55</ele>
        <time>2015-06-07T08:44:49Z</time>
      </trkpt>
      <trkpt lat="45.11638" lon="2.63752">
        <ele>1407.03</ele>
        <time>2015-06-07T08:45:06Z</time>
      </trkpt>
      <trkpt lat="45.11636" lon="2.63755">
        <ele>1407.51</ele>
        <time>2015-06-07T08:45:12Z</time>
      </trkpt>
      <trkpt lat="45.11636" lon="2.63765">
        <ele>1406.55</ele>
        <time>2015-06-07T08:45:25Z</time>
      </trkpt>
      <trkpt lat="45.11632" lon="2.63776">
        <ele>1408.47</ele>
        <time>2015-06-07T08:45:38Z</time>
      </trkpt>
      <trkpt lat="45.11631" lon="2.63782">
        <ele>1408.47</ele>
        <time>2015-06-07T08:45:51Z</time>
      </trkpt>
      <trkpt lat="45.11628" lon="2.63785">
        <ele>1409.91</ele>
        <time>2015-06-07T08:46:07Z</time>
      </trkpt>
      <trkpt lat="45.11624" lon="2.63794">
        <ele>1410.39</ele>
        <time>2015-06-07T08:46:22Z</time>
      </trkpt>
      <trkpt lat="45.11621" lon="2.63802">
        <ele>1411.35</ele>
        <time>2015-06-07T08:46:34Z</time>
      </trkpt>
      <trkpt lat="45.11618" lon="2.63815">
        <ele>1411.83</ele>
        <time>2015-06-07T08:46:49Z</time>
      </trkpt>
      <trkpt lat="45.11613" lon="2.63823">
        <ele>1412.31</ele>
        <time>2015-06-07T08:47:03Z</time>
      </trkpt>
      <trkpt lat="45.11611" lon="2.63828">
        <ele>1414.72</ele>
        <time>2015-06-07T08:47:16Z</time>
      </trkpt>
      <trkpt lat="45.11609" lon="2.63837">
        <ele>1416.16</ele>
        <time>2015-06-07T08:47:28Z</time>
      </trkpt>
      <trkpt lat="45.11604" lon="2.6384">
        <ele>1419.04</ele>
        <time>2015-06-07T08:47:43Z</time>
      </trkpt>
      <trkpt lat="45.116" lon="2.63847">
        <ele>1422.89</ele>
        <time>2015-06-07T08:47:59Z</time>
      </trkpt>
      <trkpt lat="45.11596" lon="2.63855">
        <ele>1426.25</ele>
        <time>2015-06-07T08:48:13Z</time>
      </trkpt>
      <trkpt lat="45.11594" lon="2.63861">
        <ele>1428.18</ele>
        <time>2015-06-07T08:48:26Z</time>
      </trkpt>
      <trkpt lat="45.11592" lon="2.63862">
        <ele>1428.66</ele>
        <time>2015-06-07T08:48:42Z</time>
      </trkpt>
      <trkpt lat="45.11589" lon="2.63867">
        <ele>1429.14</ele>
        <time>2015-06-07T08:48:57Z</time>
      </trkpt>
      <trkpt lat="45.11584" lon="2.63871">
        <ele>1432.5</ele>
        <time>2015-06-07T08:49:09Z</time>
      </trkpt>
      <trkpt lat="45.1158" lon="2.63876">
        <ele>1435.39</ele>
        <time>2015-06-07T08:49:23Z</time>
      </trkpt>
      <trkpt lat="45.11579" lon="2.63881">
        <ele>1436.83</ele>
        <time>2015-06-07T08:49:37Z</time>
      </trkpt>
      <trkpt lat="45.11577" lon="2.63883">
        <ele>1437.79</ele>
        <time>2015-06-07T08:49:54Z</time>
      </trkpt>
      <trkpt lat="45.11573" lon="2.6389">
        <ele>1440.19</ele>
        <time>2015-06-07T08:50:10Z</time>
      </trkpt>
      <trkpt lat="45.11568" lon="2.63897">
        <ele>1443.08</ele>
        <time>2015-06-07T08:50:27Z</time>
      </trkpt>
      <trkpt lat="45.11564" lon="2.63904">
        <ele>1445.96</ele>
        <time>2015-06-07T08:50:42Z</time>
      </trkpt>
      <trkpt lat="45.11561" lon="2.63909">
        <ele>1450.29</ele>
        <time>2015-06-07T08:50:56Z</time>
      </trkpt>
      <trkpt lat="45.11557" lon="2.63913">
        <ele>1452.69</ele>
        <time>2015-06-07T08:51:09Z</time>
      </trkpt>
      <trkpt lat="45.11555" lon="2.63916">
        <ele>1455.09</ele>
        <time>2015-06-07T08:51:25Z</time>
      </trkpt>
      <trkpt lat="45.11552" lon="2.63922">
        <ele>1456.53</ele>
        <time>2015-06-07T08:51:38Z</time>
      </trkpt>
      <trkpt lat="45.11548" lon="2.63928">
        <ele>1459.42</ele>
        <time>2015-06-07T08:51:53Z</time>
      </trkpt>
      <trkpt lat="45.11548" lon="2.63929">
        <ele>1459.9</ele>
        <time>2015-06-07T08:52:14Z</time>
      </trkpt>
      <trkpt lat="45.11548" lon="2.63928">
        <ele>1461.34</ele>
        <time>2015-06-07T08:52:40Z</time>
      </trkpt>
      <trkpt lat="45.11548" lon="2.63928">
        <ele>1462.3</ele>
        <time>2015-06-07T08:53:02Z</time>
      </trkpt>
      <trkpt lat="45.11547" lon="2.63929">
        <ele>1462.3</ele>
        <time>2015-06-07T08:53:23Z</time>
      </trkpt>
      <trkpt lat="45.11547" lon="2.63929">
        <ele>1462.3</ele>
        <time>2015-06-07T08:53:53Z</time>
      </trkpt>
      <trkpt lat="45.11549" lon="2.63928">
        <ele>1462.3</ele>
        <time>2015-06-07T08:54:14Z</time>
      </trkpt>
      <trkpt lat="45.11549" lon="2.63929">
        <ele>1462.78</ele>
        <time>2015-06-07T08:54:30Z</time>
      </trkpt>
      <trkpt lat="45.11548" lon="2.63933">
        <ele>1463.74</ele>
        <time>2015-06-07T08:54:42Z</time>
      </trkpt>
      <trkpt lat="45.11548" lon="2.63938">
        <ele>1464.23</ele>
        <time>2015-06-07T08:54:54Z</time>
      </trkpt>
      <trkpt lat="45.11547" lon="2.63941">
        <ele>1465.67</ele>
        <time>2015-06-07T08:55:07Z</time>
      </trkpt>
      <trkpt lat="45.11546" lon="2.63945">
        <ele>1466.15</ele>
        <time>2015-06-07T08:55:20Z</time>
      </trkpt>
      <trkpt lat="45.11545" lon="2.63949">
        <ele>1466.63</ele>
        <time>2015-06-07T08:55:33Z</time>
      </trkpt>
      <trkpt lat="45.11545" lon="2.63955">
        <ele>1468.55</ele>
        <time>2015-06-07T08:55:45Z</time>
      </trkpt>
      <trkpt lat="45.11545" lon="2.6396">
        <ele>1470.95</ele>
        <time>2015-06-07T08:55:59Z</time>
      </trkpt>
      <trkpt lat="45.11545" lon="2.63961">
        <ele>1472.88</ele>
        <time>2015-06-07T08:56:13Z</time>
      </trkpt>
      <trkpt lat="45.11539" lon="2.63965">
        <ele>1474.8</ele>
        <time>2015-06-07T08:56:28Z</time>
      </trkpt>
      <trkpt lat="45.11538" lon="2.6397">
        <ele>1478.16</ele>
        <time>2015-06-07T08:56:42Z</time>
      </trkpt>
      <trkpt lat="45.11538" lon="2.63975">
        <ele>1479.61</ele>
        <time>2015-06-07T08:56:55Z</time>
      </trkpt>
      <trkpt lat="45.11539" lon="2.63982">
        <ele>1482.97</ele>
        <time>2015-06-07T08:57:08Z</time>
      </trkpt>
      <trkpt lat="45.11541" lon="2.63988">
        <ele>1484.41</ele>
        <time>2015-06-07T08:57:21Z</time>
      </trkpt>
      <trkpt lat="45.11539" lon="2.63992">
        <ele>1484.89</ele>
        <time>2015-06-07T08:57:34Z</time>
      </trkpt>
      <trkpt lat="45.1154" lon="2.63997">
        <ele>1487.3</ele>
        <time>2015-06-07T08:57:48Z</time>
      </trkpt>
      <trkpt lat="45.11535" lon="2.63999">
        <ele>1488.26</ele>
        <time>2015-06-07T08:58:03Z</time>
      </trkpt>
      <trkpt lat="45.1153" lon="2.64003">
        <ele>1489.7</ele>
        <time>2015-06-07T08:58:16Z</time>
      </trkpt>
      <trkpt lat="45.11531" lon="2.64008">
        <ele>1491.14</ele>
        <time>2015-06-07T08:58:30Z</time>
      </trkpt>
      <trkpt lat="45.11535" lon="2.64015">
        <ele>1494.03</ele>
        <time>2015-06-07T08:58:43Z</time>
      </trkpt>
      <trkpt lat="45.11539" lon="2.64022">
        <ele>1494.99</ele>
        <time>2015-06-07T08:58:57Z</time>
      </trkpt>
      <trkpt lat="45.11535" lon="2.64026">
        <ele>1494.99</ele>
        <time>2015-06-07T08:59:14Z</time>
      </trkpt>
      <trkpt lat="45.1153" lon="2.64031">
        <ele>1495.95</ele>
        <time>2015-06-07T08:59:27Z</time>
      </trkpt>
      <trkpt lat="45.11526" lon="2.64036">
        <ele>1496.91</ele>
        <time>2015-06-07T08:59:40Z</time>
      </trkpt>
      <trkpt lat="45.11528" lon="2.64037">
        <ele>1501.24</ele>
        <time>2015-06-07T08:59:54Z</time>
      </trkpt>
      <trkpt lat="45.11532" lon="2.64039">
        <ele>1501.72</ele>
        <time>2015-06-07T09:00:08Z</time>
      </trkpt>
      <trkpt lat="45.11533" lon="2.64041">
        <ele>1502.68</ele>
        <time>2015-06-07T09:00:27Z</time>
      </trkpt>
      <trkpt lat="45.11533" lon="2.64044">
        <ele>1503.64</ele>
        <time>2015-06-07T09:00:41Z</time>
      </trkpt>
      <trkpt lat="45.11532" lon="2.6405">
        <ele>1505.56</ele>
        <time>2015-06-07T09:00:53Z</time>
      </trkpt>
      <trkpt lat="45.1153" lon="2.64054">
        <ele>1506.52</ele>
        <time>2015-06-07T09:01:06Z</time>
      </trkpt>
      <trkpt lat="45.11528" lon="2.64057">
        <ele>1507.48</ele>
        <time>2015-06-07T09:01:19Z</time>
      </trkpt>
      <trkpt lat="45.11527" lon="2.64059">
        <ele>1508.93</ele>
        <time>2015-06-07T09:01:36Z</time>
      </trkpt>
      <trkpt lat="45.11527" lon="2.6406">
        <ele>1508.93</ele>
        <time>2015-06-07T09:01:55Z</time>
      </trkpt>
      <trkpt lat="45.11527" lon="2.6406">
        <ele>1508.93</ele>
        <time>2015-06-07T09:02:11Z</time>
      </trkpt>
      <trkpt lat="45.11521" lon="2.64064">
        <ele>1509.41</ele>
        <time>2015-06-07T09:02:25Z</time>
      </trkpt>
      <trkpt lat="45.1152" lon="2.64066">
        <ele>1509.89</ele>
        <time>2015-06-07T09:02:37Z</time>
      </trkpt>
      <trkpt lat="45.11518" lon="2.64068">
        <ele>1509.89</ele>
        <time>2015-06-07T09:02:51Z</time>
      </trkpt>
      <trkpt lat="45.11515" lon="2.64071">
        <ele>1511.33</ele>
        <time>2015-06-07T09:03:08Z</time>
      </trkpt>
      <trkpt lat="45.11506" lon="2.6407">
        <ele>1513.25</ele>
        <time>2015-06-07T09:03:21Z</time>
      </trkpt>
      <trkpt lat="45.11499" lon="2.64074">
        <ele>1515.66</ele>
        <time>2015-06-07T09:03:33Z</time>
      </trkpt>
      <trkpt lat="45.11493" lon="2.64078">
        <ele>1516.62</ele>
        <time>2015-06-07T09:03:45Z</time>
      </trkpt>
      <trkpt lat="45.11491" lon="2.64079">
        <ele>1517.58</ele>
        <time>2015-06-07T09:03:57Z</time>
      </trkpt>
      <trkpt lat="45.11491" lon="2.64079">
        <ele>1517.58</ele>
        <time>2015-06-07T09:04:14Z</time>
      </trkpt>
      <trkpt lat="45.11491" lon="2.6408">
        <ele>1518.54</ele>
        <time>2015-06-07T09:04:32Z</time>
      </trkpt>
      <trkpt lat="45.11484" lon="2.64082">
        <ele>1518.54</ele>
        <time>2015-06-07T09:04:45Z</time>
      </trkpt>
      <trkpt lat="45.11479" lon="2.6408">
        <ele>1518.06</ele>
        <time>2015-06-07T09:04:59Z</time>
      </trkpt>
      <trkpt lat="45.11471" lon="2.6408">
        <ele>1518.54</ele>
        <time>2015-06-07T09:05:12Z</time>
      </trkpt>
      <trkpt lat="45.11461" lon="2.64081">
        <ele>1519.02</ele>
        <time>2015-06-07T09:05:27Z</time>
      </trkpt>
      <trkpt lat="45.11454" lon="2.64079">
        <ele>1519.02</ele>
        <time>2015-06-07T09:05:38Z</time>
      </trkpt>
      <trkpt lat="45.11451" lon="2.64073">
        <ele>1519.5</ele>
        <time>2015-06-07T09:05:49Z</time>
      </trkpt>
      <trkpt lat="45.11443" lon="2.64066">
        <ele>1518.54</ele>
        <time>2015-06-07T09:06:00Z</time>
      </trkpt>
      <trkpt lat="45.11441" lon="2.64065">
        <ele>1518.06</ele>
        <time>2015-06-07T09:06:03Z</time>
      </trkpt>
      <trkpt lat="45.11432" lon="2.64058">
        <ele>1519.98</ele>
        <time>2015-06-07T09:06:15Z</time>
      </trkpt>
      <trkpt lat="45.11421" lon="2.64053">
        <ele>1519.5</ele>
        <time>2015-06-07T09:06:28Z</time>
      </trkpt>
      <trkpt lat="45.11413" lon="2.64052">
        <ele>1519.98</ele>
        <time>2015-06-07T09:06:37Z</time>
      </trkpt>
      <trkpt lat="45.11404" lon="2.64042">
        <ele>1519.5</ele>
        <time>2015-06-07T09:06:50Z</time>
      </trkpt>
      <trkpt lat="45.11401" lon="2.64037">
        <ele>1519.5</ele>
        <time>2015-06-07T09:06:57Z</time>
      </trkpt>
      <trkpt lat="45.11388" lon="2.64032">
        <ele>1519.02</ele>
        <time>2015-06-07T09:07:11Z</time>
      </trkpt>
      <trkpt lat="45.11373" lon="2.64024">
        <ele>1521.9</ele>
        <time>2015-06-07T09:07:26Z</time>
      </trkpt>
      <trkpt lat="45.11365" lon="2.64024">
        <ele>1521.9</ele>
        <time>2015-06-07T09:07:37Z</time>
      </trkpt>
      <trkpt lat="45.11363" lon="2.64023">
        <ele>1521.9</ele>
        <time>2015-06-07T09:07:40Z</time>
      </trkpt>
      <trkpt lat="45.11359" lon="2.64021">
        <ele>1521.9</ele>
        <time>2015-06-07T09:07:44Z</time>
      </trkpt>
      <trkpt lat="45.11355" lon="2.64019">
        <ele>1521.9</ele>
        <time>2015-06-07T09:07:48Z</time>
      </trkpt>
      <trkpt lat="45.11347" lon="2.64012">
        <ele>1520.94</ele>
        <time>2015-06-07T09:08:01Z</time>
      </trkpt>
      <trkpt lat="45.11339" lon="2.64009">
        <ele>1520.94</ele>
        <time>2015-06-07T09:08:13Z</time>
      </trkpt>
      <trkpt lat="45.11331" lon="2.64002">
        <ele>1519.5</ele>
        <time>2015-06-07T09:08:27Z</time>
      </trkpt>
      <trkpt lat="45.1133" lon="2.63996">
        <ele>1518.54</ele>
        <time>2015-06-07T09:08:41Z</time>
      </trkpt>
      <trkpt lat="45.11325" lon="2.63988">
        <ele>1517.1</ele>
        <time>2015-06-07T09:08:53Z</time>
      </trkpt>
      <trkpt lat="45.11321" lon="2.63977">
        <ele>1516.62</ele>
        <time>2015-06-07T09:09:04Z</time>
      </trkpt>
      <trkpt lat="45.11314" lon="2.63969">
        <ele>1516.14</ele>
        <time>2015-06-07T09:09:19Z</time>
      </trkpt>
      <trkpt lat="45.11309" lon="2.63961">
        <ele>1516.62</ele>
        <time>2015-06-07T09:09:33Z</time>
      </trkpt>
      <trkpt lat="45.113" lon="2.63959">
        <ele>1518.54</ele>
        <time>2015-06-07T09:09:49Z</time>
      </trkpt>
      <trkpt lat="45.11297" lon="2.63951">
        <ele>1519.5</ele>
        <time>2015-06-07T09:09:57Z</time>
      </trkpt>
      <trkpt lat="45.11292" lon="2.63945">
        <ele>1519.98</ele>
        <time>2015-06-07T09:10:12Z</time>
      </trkpt>
      <trkpt lat="45.11289" lon="2.6394">
        <ele>1519.5</ele>
        <time>2015-06-07T09:10:24Z</time>
      </trkpt>
      <trkpt lat="45.11286" lon="2.63934">
        <ele>1519.98</ele>
        <time>2015-06-07T09:10:31Z</time>
      </trkpt>
      <trkpt lat="45.11279" lon="2.63926">
        <ele>1519.5</ele>
        <time>2015-06-07T09:10:42Z</time>
      </trkpt>
      <trkpt lat="45.11277" lon="2.63923">
        <ele>1519.5</ele>
        <time>2015-06-07T09:10:46Z</time>
      </trkpt>
      <trkpt lat="45.11273" lon="2.63919">
        <ele>1519.02</ele>
        <time>2015-06-07T09:10:51Z</time>
      </trkpt>
      <trkpt lat="45.11272" lon="2.63918">
        <ele>1519.02</ele>
        <time>2015-06-07T09:10:53Z</time>
      </trkpt>
      <trkpt lat="45.11263" lon="2.63905">
        <ele>1519.98</ele>
        <time>2015-06-07T09:11:06Z</time>
      </trkpt>
      <trkpt lat="45.11255" lon="2.63896">
        <ele>1520.94</ele>
        <time>2015-06-07T09:11:20Z</time>
      </trkpt>
      <trkpt lat="45.11247" lon="2.63889">
        <ele>1521.42</ele>
        <time>2015-06-07T09:11:31Z</time>
      </trkpt>
      <trkpt lat="45.11239" lon="2.63886">
        <ele>1522.39</ele>
        <time>2015-06-07T09:11:44Z</time>
      </trkpt>
      <trkpt lat="45.11232" lon="2.63884">
        <ele>1524.31</ele>
        <time>2015-06-07T09:12:01Z</time>
      </trkpt>
      <trkpt lat="45.11229" lon="2.6388">
        <ele>1525.75</ele>
        <time>2015-06-07T09:12:12Z</time>
      </trkpt>
      <trkpt lat="45.11219" lon="2.63875">
        <ele>1525.27</ele>
        <time>2015-06-07T09:12:27Z</time>
      </trkpt>
      <trkpt lat="45.11208" lon="2.63869">
        <ele>1525.75</ele>
        <time>2015-06-07T09:12:42Z</time>
      </trkpt>
      <trkpt lat="45.11201" lon="2.63859">
        <ele>1525.75</ele>
        <time>2015-06-07T09:12:56Z</time>
      </trkpt>
      <trkpt lat="45.11198" lon="2.63858">
        <ele>1526.23</ele>
        <time>2015-06-07T09:13:02Z</time>
      </trkpt>
      <trkpt lat="45.11194" lon="2.63855">
        <ele>1527.67</ele>
        <time>2015-06-07T09:13:17Z</time>
      </trkpt>
      <trkpt lat="45.11186" lon="2.63857">
        <ele>1527.67</ele>
        <time>2015-06-07T09:13:33Z</time>
      </trkpt>
      <trkpt lat="45.11179" lon="2.63854">
        <ele>1529.11</ele>
        <time>2015-06-07T09:13:44Z</time>
      </trkpt>
      <trkpt lat="45.11176" lon="2.63854">
        <ele>1530.08</ele>
        <time>2015-06-07T09:13:47Z</time>
      </trkpt>
      <trkpt lat="45.11169" lon="2.6385">
        <ele>1531.52</ele>
        <time>2015-06-07T09:14:00Z</time>
      </trkpt>
      <trkpt lat="45.11166" lon="2.63848">
        <ele>1532</ele>
        <time>2015-06-07T09:14:04Z</time>
      </trkpt>
      <trkpt lat="45.11156" lon="2.63839">
        <ele>1532</ele>
        <time>2015-06-07T09:14:18Z</time>
      </trkpt>
      <trkpt lat="45.11148" lon="2.63837">
        <ele>1531.52</ele>
        <time>2015-06-07T09:14:31Z</time>
      </trkpt>
      <trkpt lat="45.11148" lon="2.63837">
        <ele>1531.04</ele>
        <time>2015-06-07T09:14:47Z</time>
      </trkpt>
      <trkpt lat="45.11148" lon="2.63837">
        <ele>1531.04</ele>
        <time>2015-06-07T09:14:50Z</time>
      </trkpt>
      <trkpt lat="45.11141" lon="2.63838">
        <ele>1531.04</ele>
        <time>2015-06-07T09:15:02Z</time>
      </trkpt>
      <trkpt lat="45.11134" lon="2.63839">
        <ele>1532</ele>
        <time>2015-06-07T09:15:15Z</time>
      </trkpt>
      <trkpt lat="45.1113" lon="2.63835">
        <ele>1533.92</ele>
        <time>2015-06-07T09:15:34Z</time>
      </trkpt>
      <trkpt lat="45.11125" lon="2.6383">
        <ele>1534.88</ele>
        <time>2015-06-07T09:15:47Z</time>
      </trkpt>
      <trkpt lat="45.11119" lon="2.63827">
        <ele>1535.84</ele>
        <time>2015-06-07T09:16:01Z</time>
      </trkpt>
      <trkpt lat="45.11114" lon="2.63824">
        <ele>1538.73</ele>
        <time>2015-06-07T09:16:17Z</time>
      </trkpt>
      <trkpt lat="45.11107" lon="2.6382">
        <ele>1539.69</ele>
        <time>2015-06-07T09:16:33Z</time>
      </trkpt>
      <trkpt lat="45.11097" lon="2.63818">
        <ele>1542.57</ele>
        <time>2015-06-07T09:16:47Z</time>
      </trkpt>
      <trkpt lat="45.11089" lon="2.63815">
        <ele>1543.05</ele>
        <time>2015-06-07T09:17:00Z</time>
      </trkpt>
      <trkpt lat="45.11082" lon="2.63811">
        <ele>1545.46</ele>
        <time>2015-06-07T09:17:12Z</time>
      </trkpt>
      <trkpt lat="45.11078" lon="2.63809">
        <ele>1545.94</ele>
        <time>2015-06-07T09:17:26Z</time>
      </trkpt>
      <trkpt lat="45.11073" lon="2.63803">
        <ele>1547.38</ele>
        <time>2015-06-07T09:17:37Z</time>
      </trkpt>
      <trkpt lat="45.11068" lon="2.63795">
        <ele>1550.26</ele>
        <time>2015-06-07T09:17:52Z</time>
      </trkpt>
      <trkpt lat="45.11061" lon="2.63787">
        <ele>1549.3</ele>
        <time>2015-06-07T09:18:06Z</time>
      </trkpt>
      <trkpt lat="45.11053" lon="2.63778">
        <ele>1550.26</ele>
        <time>2015-06-07T09:18:22Z</time>
      </trkpt>
      <trkpt lat="45.11048" lon="2.63773">
        <ele>1552.19</ele>
        <time>2015-06-07T09:18:36Z</time>
      </trkpt>
      <trkpt lat="45.11043" lon="2.63766">
        <ele>1554.59</ele>
        <time>2015-06-07T09:18:52Z</time>
      </trkpt>
      <trkpt lat="45.11038" lon="2.63762">
        <ele>1556.03</ele>
        <time>2015-06-07T09:19:05Z</time>
      </trkpt>
      <trkpt lat="45.11033" lon="2.6376">
        <ele>1557.47</ele>
        <time>2015-06-07T09:19:22Z</time>
      </trkpt>
      <trkpt lat="45.11028" lon="2.63759">
        <ele>1558.43</ele>
        <time>2015-06-07T09:19:36Z</time>
      </trkpt>
      <trkpt lat="45.11025" lon="2.63758">
        <ele>1559.88</ele>
        <time>2015-06-07T09:19:49Z</time>
      </trkpt>
      <trkpt lat="45.1102" lon="2.63758">
        <ele>1563.24</ele>
        <time>2015-06-07T09:20:04Z</time>
      </trkpt>
      <trkpt lat="45.11012" lon="2.63765">
        <ele>1567.57</ele>
        <time>2015-06-07T09:20:20Z</time>
      </trkpt>
      <trkpt lat="45.11007" lon="2.63769">
        <ele>1569.49</ele>
        <time>2015-06-07T09:20:37Z</time>
      </trkpt>
      <trkpt lat="45.11003" lon="2.63775">
        <ele>1569.49</ele>
        <time>2015-06-07T09:20:53Z</time>
      </trkpt>
      <trkpt lat="45.11001" lon="2.63779">
        <ele>1569.97</ele>
        <time>2015-06-07T09:21:06Z</time>
      </trkpt>
      <trkpt lat="45.10999" lon="2.63786">
        <ele>1570.93</ele>
        <time>2015-06-07T09:21:18Z</time>
      </trkpt>
      <trkpt lat="45.10993" lon="2.63795">
        <ele>1572.85</ele>
        <time>2015-06-07T09:21:33Z</time>
      </trkpt>
      <trkpt lat="45.10992" lon="2.63798">
        <ele>1573.33</ele>
        <time>2015-06-07T09:21:43Z</time>
      </trkpt>
      <trkpt lat="45.10988" lon="2.63812">
        <ele>1573.33</ele>
        <time>2015-06-07T09:21:57Z</time>
      </trkpt>
      <trkpt lat="45.1099" lon="2.63826">
        <ele>1574.3</ele>
        <time>2015-06-07T09:22:10Z</time>
      </trkpt>
      <trkpt lat="45.1099" lon="2.63835">
        <ele>1575.74</ele>
        <time>2015-06-07T09:22:23Z</time>
      </trkpt>
      <trkpt lat="45.10989" lon="2.63838">
        <ele>1576.7</ele>
        <time>2015-06-07T09:22:39Z</time>
      </trkpt>
      <trkpt lat="45.10989" lon="2.63838">
        <ele>1577.66</ele>
        <time>2015-06-07T09:23:03Z</time>
      </trkpt>
      <trkpt lat="45.10989" lon="2.63838">
        <ele>1577.18</ele>
        <time>2015-06-07T09:23:22Z</time>
      </trkpt>
      <trkpt lat="45.10989" lon="2.63839">
        <ele>1577.66</ele>
        <time>2015-06-07T09:23:44Z</time>
      </trkpt>
      <trkpt lat="45.10989" lon="2.63838">
        <ele>1577.18</ele>
        <time>2015-06-07T09:24:07Z</time>
      </trkpt>
      <trkpt lat="45.10989" lon="2.63839">
        <ele>1577.18</ele>
        <time>2015-06-07T09:24:25Z</time>
      </trkpt>
      <trkpt lat="45.10989" lon="2.63838">
        <ele>1577.18</ele>
        <time>2015-06-07T09:24:41Z</time>
      </trkpt>
      <trkpt lat="45.10989" lon="2.63838">
        <ele>1576.7</ele>
        <time>2015-06-07T09:25:02Z</time>
      </trkpt>
      <trkpt lat="45.10989" lon="2.63839">
        <ele>1576.7</ele>
        <time>2015-06-07T09:25:23Z</time>
      </trkpt>
      <trkpt lat="45.10989" lon="2.63839">
        <ele>1577.18</ele>
        <time>2015-06-07T09:25:45Z</time>
      </trkpt>
      <trkpt lat="45.10989" lon="2.63846">
        <ele>1577.18</ele>
        <time>2015-06-07T09:25:57Z</time>
      </trkpt>
      <trkpt lat="45.10986" lon="2.6386">
        <ele>1578.14</ele>
        <time>2015-06-07T09:26:10Z</time>
      </trkpt>
      <trkpt lat="45.10987" lon="2.6387">
        <ele>1575.74</ele>
        <time>2015-06-07T09:26:24Z</time>
      </trkpt>
      <trkpt lat="45.10984" lon="2.63882">
        <ele>1571.89</ele>
        <time>2015-06-07T09:26:38Z</time>
      </trkpt>
      <trkpt lat="45.10983" lon="2.63897">
        <ele>1570.45</ele>
        <time>2015-06-07T09:26:50Z</time>
      </trkpt>
      <trkpt lat="45.10982" lon="2.63911">
        <ele>1569.01</ele>
        <time>2015-06-07T09:27:00Z</time>
      </trkpt>
      <trkpt lat="45.10981" lon="2.63916">
        <ele>1568.53</ele>
        <time>2015-06-07T09:27:03Z</time>
      </trkpt>
      <trkpt lat="45.10981" lon="2.63921">
        <ele>1567.57</ele>
        <time>2015-06-07T09:27:06Z</time>
      </trkpt>
      <trkpt lat="45.10973" lon="2.63937">
        <ele>1566.12</ele>
        <time>2015-06-07T09:27:18Z</time>
      </trkpt>
      <trkpt lat="45.1097" lon="2.63942">
        <ele>1565.64</ele>
        <time>2015-06-07T09:27:22Z</time>
      </trkpt>
      <trkpt lat="45.10969" lon="2.63945">
        <ele>1565.64</ele>
        <time>2015-06-07T09:27:24Z</time>
      </trkpt>
      <trkpt lat="45.10967" lon="2.63953">
        <ele>1565.64</ele>
        <time>2015-06-07T09:27:31Z</time>
      </trkpt>
      <trkpt lat="45.10965" lon="2.63954">
        <ele>1565.64</ele>
        <time>2015-06-07T09:27:33Z</time>
      </trkpt>
      <trkpt lat="45.10963" lon="2.63968">
        <ele>1567.57</ele>
        <time>2015-06-07T09:27:44Z</time>
      </trkpt>
      <trkpt lat="45.10961" lon="2.6398">
        <ele>1567.09</ele>
        <time>2015-06-07T09:27:58Z</time>
      </trkpt>
      <trkpt lat="45.1096" lon="2.63988">
        <ele>1566.12</ele>
        <time>2015-06-07T09:28:06Z</time>
      </trkpt>
      <trkpt lat="45.10956" lon="2.64009">
        <ele>1563.24</ele>
        <time>2015-06-07T09:28:20Z</time>
      </trkpt>
      <trkpt lat="45.10953" lon="2.64017">
        <ele>1562.76</ele>
        <time>2015-06-07T09:28:26Z</time>
      </trkpt>
      <trkpt lat="45.1095" lon="2.64032">
        <ele>1560.84</ele>
        <time>2015-06-07T09:28:41Z</time>
      </trkpt>
      <trkpt lat="45.10949" lon="2.64042">
        <ele>1558.43</ele>
        <time>2015-06-07T09:28:51Z</time>
      </trkpt>
      <trkpt lat="45.10947" lon="2.64049">
        <ele>1557.47</ele>
        <time>2015-06-07T09:28:58Z</time>
      </trkpt>
      <trkpt lat="45.10946" lon="2.64054">
        <ele>1556.51</ele>
        <time>2015-06-07T09:29:02Z</time>
      </trkpt>
      <trkpt lat="45.10946" lon="2.64058">
        <ele>1556.03</ele>
        <time>2015-06-07T09:29:05Z</time>
      </trkpt>
      <trkpt lat="45.10942" lon="2.64065">
        <ele>1556.03</ele>
        <time>2015-06-07T09:29:12Z</time>
      </trkpt>
      <trkpt lat="45.10941" lon="2.64079">
        <ele>1553.63</ele>
        <time>2015-06-07T09:29:22Z</time>
      </trkpt>
      <trkpt lat="45.10938" lon="2.64096">
        <ele>1551.71</ele>
        <time>2015-06-07T09:29:36Z</time>
      </trkpt>
      <trkpt lat="45.10935" lon="2.64111">
        <ele>1552.67</ele>
        <time>2015-06-07T09:29:49Z</time>
      </trkpt>
      <trkpt lat="45.10931" lon="2.64125">
        <ele>1551.22</ele>
        <time>2015-06-07T09:30:02Z</time>
      </trkpt>
      <trkpt lat="45.10927" lon="2.64142">
        <ele>1551.71</ele>
        <time>2015-06-07T09:30:15Z</time>
      </trkpt>
      <trkpt lat="45.10923" lon="2.64157">
        <ele>1551.71</ele>
        <time>2015-06-07T09:30:29Z</time>
      </trkpt>
      <trkpt lat="45.10921" lon="2.64171">
        <ele>1551.22</ele>
        <time>2015-06-07T09:30:42Z</time>
      </trkpt>
      <trkpt lat="45.10919" lon="2.64178">
        <ele>1552.19</ele>
        <time>2015-06-07T09:30:49Z</time>
      </trkpt>
      <trkpt lat="45.10919" lon="2.64189">
        <ele>1553.15</ele>
        <time>2015-06-07T09:31:01Z</time>
      </trkpt>
      <trkpt lat="45.10918" lon="2.64192">
        <ele>1553.15</ele>
        <time>2015-06-07T09:31:04Z</time>
      </trkpt>
      <trkpt lat="45.10916" lon="2.64204">
        <ele>1553.63</ele>
        <time>2015-06-07T09:31:15Z</time>
      </trkpt>
      <trkpt lat="45.10915" lon="2.64217">
        <ele>1554.11</ele>
        <time>2015-06-07T09:31:28Z</time>
      </trkpt>
      <trkpt lat="45.10914" lon="2.64222">
        <ele>1553.15</ele>
        <time>2015-06-07T09:31:33Z</time>
      </trkpt>
      <trkpt lat="45.10913" lon="2.64228">
        <ele>1553.15</ele>
        <time>2015-06-07T09:31:37Z</time>
      </trkpt>
      <trkpt lat="45.10912" lon="2.64243">
        <ele>1552.19</ele>
        <time>2015-06-07T09:31:48Z</time>
      </trkpt>
      <trkpt lat="45.10912" lon="2.64246">
        <ele>1552.67</ele>
        <time>2015-06-07T09:31:50Z</time>
      </trkpt>
      <trkpt lat="45.10912" lon="2.64249">
        <ele>1553.15</ele>
        <time>2015-06-07T09:31:53Z</time>
      </trkpt>
      <trkpt lat="45.10915" lon="2.64266">
        <ele>1552.67</ele>
        <time>2015-06-07T09:32:06Z</time>
      </trkpt>
      <trkpt lat="45.10918" lon="2.64279">
        <ele>1552.19</ele>
        <time>2015-06-07T09:32:18Z</time>
      </trkpt>
      <trkpt lat="45.10922" lon="2.6429">
        <ele>1552.67</ele>
        <time>2015-06-07T09:32:31Z</time>
      </trkpt>
      <trkpt lat="45.10923" lon="2.643">
        <ele>1551.71</ele>
        <time>2015-06-07T09:32:41Z</time>
      </trkpt>
      <trkpt lat="45.10918" lon="2.64307">
        <ele>1550.74</ele>
        <time>2015-06-07T09:32:48Z</time>
      </trkpt>
      <trkpt lat="45.10914" lon="2.64312">
        <ele>1550.74</ele>
        <time>2015-06-07T09:32:53Z</time>
      </trkpt>
      <trkpt lat="45.10906" lon="2.6433">
        <ele>1548.82</ele>
        <time>2015-06-07T09:33:07Z</time>
      </trkpt>
      <trkpt lat="45.10906" lon="2.64332">
        <ele>1548.34</ele>
        <time>2015-06-07T09:33:09Z</time>
      </trkpt>
      <trkpt lat="45.10905" lon="2.64335">
        <ele>1548.34</ele>
        <time>2015-06-07T09:33:11Z</time>
      </trkpt>
      <trkpt lat="45.10898" lon="2.64352">
        <ele>1548.34</ele>
        <time>2015-06-07T09:33:23Z</time>
      </trkpt>
      <trkpt lat="45.10893" lon="2.64363">
        <ele>1548.34</ele>
        <time>2015-06-07T09:33:33Z</time>
      </trkpt>
      <trkpt lat="45.10891" lon="2.64368">
        <ele>1547.86</ele>
        <time>2015-06-07T09:33:37Z</time>
      </trkpt>
      <trkpt lat="45.10889" lon="2.6437">
        <ele>1547.86</ele>
        <time>2015-06-07T09:33:39Z</time>
      </trkpt>
      <trkpt lat="45.10884" lon="2.6438">
        <ele>1547.86</ele>
        <time>2015-06-07T09:33:48Z</time>
      </trkpt>
      <trkpt lat="45.10878" lon="2.64396">
        <ele>1550.74</ele>
        <time>2015-06-07T09:34:01Z</time>
      </trkpt>
      <trkpt lat="45.10872" lon="2.64412">
        <ele>1549.3</ele>
        <time>2015-06-07T09:34:15Z</time>
      </trkpt>
      <trkpt lat="45.1087" lon="2.64416">
        <ele>1549.3</ele>
        <time>2015-06-07T09:34:18Z</time>
      </trkpt>
      <trkpt lat="45.10863" lon="2.64433">
        <ele>1549.78</ele>
        <time>2015-06-07T09:34:31Z</time>
      </trkpt>
      <trkpt lat="45.10859" lon="2.64445">
        <ele>1550.26</ele>
        <time>2015-06-07T09:34:41Z</time>
      </trkpt>
      <trkpt lat="45.10858" lon="2.64456">
        <ele>1551.71</ele>
        <time>2015-06-07T09:34:52Z</time>
      </trkpt>
      <trkpt lat="45.1085" lon="2.64471">
        <ele>1552.67</ele>
        <time>2015-06-07T09:35:04Z</time>
      </trkpt>
      <trkpt lat="45.10846" lon="2.64484">
        <ele>1552.19</ele>
        <time>2015-06-07T09:35:15Z</time>
      </trkpt>
      <trkpt lat="45.10842" lon="2.64499">
        <ele>1551.71</ele>
        <time>2015-06-07T09:35:27Z</time>
      </trkpt>
      <trkpt lat="45.10837" lon="2.64511">
        <ele>1552.19</ele>
        <time>2015-06-07T09:35:39Z</time>
      </trkpt>
      <trkpt lat="45.10836" lon="2.64518">
        <ele>1554.59</ele>
        <time>2015-06-07T09:35:47Z</time>
      </trkpt>
      <trkpt lat="45.10833" lon="2.64529">
        <ele>1556.03</ele>
        <time>2015-06-07T09:36:04Z</time>
      </trkpt>
      <trkpt lat="45.10832" lon="2.64536">
        <ele>1556.51</ele>
        <time>2015-06-07T09:36:12Z</time>
      </trkpt>
      <trkpt lat="45.10833" lon="2.64547">
        <ele>1557.47</ele>
        <time>2015-06-07T09:36:26Z</time>
      </trkpt>
      <trkpt lat="45.10835" lon="2.64555">
        <ele>1559.4</ele>
        <time>2015-06-07T09:36:43Z</time>
      </trkpt>
      <trkpt lat="45.1084" lon="2.64561">
        <ele>1560.36</ele>
        <time>2015-06-07T09:37:00Z</time>
      </trkpt>
      <trkpt lat="45.10839" lon="2.64565">
        <ele>1560.84</ele>
        <time>2015-06-07T09:37:08Z</time>
      </trkpt>
      <trkpt lat="45.10835" lon="2.6457">
        <ele>1560.36</ele>
        <time>2015-06-07T09:37:22Z</time>
      </trkpt>
      <trkpt lat="45.10834" lon="2.6457">
        <ele>1559.4</ele>
        <time>2015-06-07T09:37:36Z</time>
      </trkpt>
      <trkpt lat="45.10834" lon="2.64571">
        <ele>1559.4</ele>
        <time>2015-06-07T09:37:52Z</time>
      </trkpt>
      <trkpt lat="45.10834" lon="2.6457">
        <ele>1559.88</ele>
        <time>2015-06-07T09:38:18Z</time>
      </trkpt>
      <trkpt lat="45.10834" lon="2.64569">
        <ele>1559.88</ele>
        <time>2015-06-07T09:38:53Z</time>
      </trkpt>
      <trkpt lat="45.10834" lon="2.64568">
        <ele>1560.36</ele>
        <time>2015-06-07T09:39:26Z</time>
      </trkpt>
      <trkpt lat="45.10834" lon="2.64569">
        <ele>1559.88</ele>
        <time>2015-06-07T09:39:54Z</time>
      </trkpt>
      <trkpt lat="45.10834" lon="2.64569">
        <ele>1559.4</ele>
        <time>2015-06-07T09:40:21Z</time>
      </trkpt>
      <trkpt lat="45.10835" lon="2.64569">
        <ele>1558.92</ele>
        <time>2015-06-07T09:40:53Z</time>
      </trkpt>
      <trkpt lat="45.10834" lon="2.64569">
        <ele>1558.92</ele>
        <time>2015-06-07T09:41:30Z</time>
      </trkpt>
      <trkpt lat="45.10834" lon="2.6457">
        <ele>1558.92</ele>
        <time>2015-06-07T09:42:03Z</time>
      </trkpt>
      <trkpt lat="45.10835" lon="2.6457">
        <ele>1558.92</ele>
        <time>2015-06-07T09:42:36Z</time>
      </trkpt>
      <trkpt lat="45.10835" lon="2.6457">
        <ele>1558.92</ele>
        <time>2015-06-07T09:43:09Z</time>
      </trkpt>
      <trkpt lat="45.10835" lon="2.64569">
        <ele>1558.92</ele>
        <time>2015-06-07T09:43:40Z</time>
      </trkpt>
      <trkpt lat="45.10835" lon="2.64569">
        <ele>1558.92</ele>
        <time>2015-06-07T09:44:13Z</time>
      </trkpt>
      <trkpt lat="45.10834" lon="2.64569">
        <ele>1559.4</ele>
        <time>2015-06-07T09:44:28Z</time>
      </trkpt>
      <trkpt lat="45.10834" lon="2.6457">
        <ele>1561.32</ele>
        <time>2015-06-07T09:44:59Z</time>
      </trkpt>
      <trkpt lat="45.10834" lon="2.6457">
        <ele>1560.84</ele>
        <time>2015-06-07T09:45:21Z</time>
      </trkpt>
      <trkpt lat="45.10834" lon="2.64569">
        <ele>1560.84</ele>
        <time>2015-06-07T09:45:52Z</time>
      </trkpt>
      <trkpt lat="45.10835" lon="2.6457">
        <ele>1560.84</ele>
        <time>2015-06-07T09:46:20Z</time>
      </trkpt>
      <trkpt lat="45.10835" lon="2.6457">
        <ele>1560.36</ele>
        <time>2015-06-07T09:46:49Z</time>
      </trkpt>
      <trkpt lat="45.10834" lon="2.6457">
        <ele>1560.36</ele>
        <time>2015-06-07T09:47:27Z</time>
      </trkpt>
      <trkpt lat="45.10834" lon="2.6457">
        <ele>1560.36</ele>
        <time>2015-06-07T09:48:03Z</time>
      </trkpt>
      <trkpt lat="45.10834" lon="2.64571">
        <ele>1559.88</ele>
        <time>2015-06-07T09:48:38Z</time>
      </trkpt>
      <trkpt lat="45.10834" lon="2.64571">
        <ele>1559.88</ele>
        <time>2015-06-07T09:49:12Z</time>
      </trkpt>
      <trkpt lat="45.10834" lon="2.64571">
        <ele>1559.4</ele>
        <time>2015-06-07T09:49:50Z</time>
      </trkpt>
      <trkpt lat="45.10834" lon="2.64572">
        <ele>1559.4</ele>
        <time>2015-06-07T09:50:24Z</time>
      </trkpt>
      <trkpt lat="45.10834" lon="2.64571">
        <ele>1558.92</ele>
        <time>2015-06-07T09:50:59Z</time>
      </trkpt>
      <trkpt lat="45.10834" lon="2.64571">
        <ele>1558.92</ele>
        <time>2015-06-07T09:51:34Z</time>
      </trkpt>
      <trkpt lat="45.10834" lon="2.64571">
        <ele>1558.92</ele>
        <time>2015-06-07T09:52:02Z</time>
      </trkpt>
      <trkpt lat="45.10834" lon="2.64572">
        <ele>1558.92</ele>
        <time>2015-06-07T09:52:35Z</time>
      </trkpt>
      <trkpt lat="45.10835" lon="2.64571">
        <ele>1559.4</ele>
        <time>2015-06-07T09:53:11Z</time>
      </trkpt>
      <trkpt lat="45.10835" lon="2.64571">
        <ele>1559.4</ele>
        <time>2015-06-07T09:53:42Z</time>
      </trkpt>
      <trkpt lat="45.10835" lon="2.64571">
        <ele>1559.4</ele>
        <time>2015-06-07T09:54:14Z</time>
      </trkpt>
      <trkpt lat="45.10835" lon="2.64571">
        <ele>1559.4</ele>
        <time>2015-06-07T09:54:49Z</time>
      </trkpt>
      <trkpt lat="45.10835" lon="2.64571">
        <ele>1559.4</ele>
        <time>2015-06-07T09:55:17Z</time>
      </trkpt>
      <trkpt lat="45.10835" lon="2.6457">
        <ele>1558.92</ele>
        <time>2015-06-07T09:55:49Z</time>
      </trkpt>
      <trkpt lat="45.10835" lon="2.6457">
        <ele>1558.92</ele>
        <time>2015-06-07T09:56:20Z</time>
      </trkpt>
      <trkpt lat="45.10835" lon="2.6457">
        <ele>1559.4</ele>
        <time>2015-06-07T09:56:52Z</time>
      </trkpt>
      <trkpt lat="45.10835" lon="2.64569">
        <ele>1559.4</ele>
        <time>2015-06-07T09:57:24Z</time>
      </trkpt>
      <trkpt lat="45.10835" lon="2.64569">
        <ele>1559.88</ele>
        <time>2015-06-07T09:57:48Z</time>
      </trkpt>
      <trkpt lat="45.10835" lon="2.64571">
        <ele>1560.36</ele>
        <time>2015-06-07T09:57:59Z</time>
      </trkpt>
      <trkpt lat="45.10836" lon="2.64571">
        <ele>1560.84</ele>
        <time>2015-06-07T09:58:25Z</time>
      </trkpt>
      <trkpt lat="45.10836" lon="2.64571">
        <ele>1561.32</ele>
        <time>2015-06-07T09:58:34Z</time>
      </trkpt>
      <trkpt lat="45.10835" lon="2.64571">
        <ele>1561.8</ele>
        <time>2015-06-07T09:58:49Z</time>
      </trkpt>
      <trkpt lat="45.10835" lon="2.64571">
        <ele>1561.8</ele>
        <time>2015-06-07T09:59:11Z</time>
      </trkpt>
      <trkpt lat="45.10835" lon="2.64571">
        <ele>1561.32</ele>
        <time>2015-06-07T09:59:27Z</time>
      </trkpt>
      <trkpt lat="45.10834" lon="2.64571">
        <ele>1562.28</ele>
        <time>2015-06-07T09:59:48Z</time>
      </trkpt>
      <trkpt lat="45.10837" lon="2.64574">
        <ele>1562.76</ele>
        <time>2015-06-07T09:59:54Z</time>
      </trkpt>
      <trkpt lat="45.10838" lon="2.6458">
        <ele>1562.76</ele>
        <time>2015-06-07T09:59:59Z</time>
      </trkpt>
      <trkpt lat="45.10836" lon="2.6459">
        <ele>1562.76</ele>
        <time>2015-06-07T10:00:06Z</time>
      </trkpt>
      <trkpt lat="45.10831" lon="2.64603">
        <ele>1562.76</ele>
        <time>2015-06-07T10:00:21Z</time>
      </trkpt>
      <trkpt lat="45.10826" lon="2.64617">
        <ele>1560.84</ele>
        <time>2015-06-07T10:00:34Z</time>
      </trkpt>
      <trkpt lat="45.1082" lon="2.64623">
        <ele>1559.88</ele>
        <time>2015-06-07T10:00:43Z</time>
      </trkpt>
      <trkpt lat="45.10815" lon="2.64632">
        <ele>1559.4</ele>
        <time>2015-06-07T10:00:55Z</time>
      </trkpt>
      <trkpt lat="45.10813" lon="2.64638">
        <ele>1559.4</ele>
        <time>2015-06-07T10:01:01Z</time>
      </trkpt>
      <trkpt lat="45.10799" lon="2.64647">
        <ele>1557.95</ele>
        <time>2015-06-07T10:01:15Z</time>
      </trkpt>
      <trkpt lat="45.10788" lon="2.64657">
        <ele>1557.47</ele>
        <time>2015-06-07T10:01:28Z</time>
      </trkpt>
      <trkpt lat="45.10779" lon="2.64664">
        <ele>1556.51</ele>
        <time>2015-06-07T10:01:39Z</time>
      </trkpt>
      <trkpt lat="45.10768" lon="2.64676">
        <ele>1557.95</ele>
        <time>2015-06-07T10:01:52Z</time>
      </trkpt>
      <trkpt lat="45.10762" lon="2.64692">
        <ele>1558.43</ele>
        <time>2015-06-07T10:02:05Z</time>
      </trkpt>
      <trkpt lat="45.10755" lon="2.64703">
        <ele>1560.84</ele>
        <time>2015-06-07T10:02:18Z</time>
      </trkpt>
      <trkpt lat="45.10745" lon="2.64718">
        <ele>1562.76</ele>
        <time>2015-06-07T10:02:32Z</time>
      </trkpt>
      <trkpt lat="45.10736" lon="2.64728">
        <ele>1561.8</ele>
        <time>2015-06-07T10:02:44Z</time>
      </trkpt>
      <trkpt lat="45.10726" lon="2.6474">
        <ele>1562.76</ele>
        <time>2015-06-07T10:02:58Z</time>
      </trkpt>
      <trkpt lat="45.10719" lon="2.64751">
        <ele>1563.72</ele>
        <time>2015-06-07T10:03:11Z</time>
      </trkpt>
      <trkpt lat="45.10709" lon="2.64765">
        <ele>1566.12</ele>
        <time>2015-06-07T10:03:26Z</time>
      </trkpt>
      <trkpt lat="45.10703" lon="2.64776">
        <ele>1567.57</ele>
        <time>2015-06-07T10:03:40Z</time>
      </trkpt>
      <trkpt lat="45.10694" lon="2.64788">
        <ele>1568.05</ele>
        <time>2015-06-07T10:03:57Z</time>
      </trkpt>
      <trkpt lat="45.10693" lon="2.64792">
        <ele>1569.01</ele>
        <time>2015-06-07T10:04:01Z</time>
      </trkpt>
      <trkpt lat="45.1069" lon="2.64801">
        <ele>1571.89</ele>
        <time>2015-06-07T10:04:13Z</time>
      </trkpt>
      <trkpt lat="45.10688" lon="2.64806">
        <ele>1573.33</ele>
        <time>2015-06-07T10:04:20Z</time>
      </trkpt>
      <trkpt lat="45.10682" lon="2.64819">
        <ele>1573.82</ele>
        <time>2015-06-07T10:04:36Z</time>
      </trkpt>
      <trkpt lat="45.1068" lon="2.64828">
        <ele>1576.7</ele>
        <time>2015-06-07T10:04:50Z</time>
      </trkpt>
      <trkpt lat="45.10674" lon="2.64838">
        <ele>1575.74</ele>
        <time>2015-06-07T10:05:04Z</time>
      </trkpt>
      <trkpt lat="45.10673" lon="2.64852">
        <ele>1578.62</ele>
        <time>2015-06-07T10:05:21Z</time>
      </trkpt>
      <trkpt lat="45.10667" lon="2.64864">
        <ele>1578.14</ele>
        <time>2015-06-07T10:05:37Z</time>
      </trkpt>
      <trkpt lat="45.1066" lon="2.64879">
        <ele>1580.06</ele>
        <time>2015-06-07T10:05:54Z</time>
      </trkpt>
      <trkpt lat="45.10656" lon="2.6489">
        <ele>1579.58</ele>
        <time>2015-06-07T10:06:09Z</time>
      </trkpt>
      <trkpt lat="45.10653" lon="2.64899">
        <ele>1580.54</ele>
        <time>2015-06-07T10:06:19Z</time>
      </trkpt>
      <trkpt lat="45.10646" lon="2.64911">
        <ele>1583.91</ele>
        <time>2015-06-07T10:06:35Z</time>
      </trkpt>
      <trkpt lat="45.10641" lon="2.64924">
        <ele>1585.83</ele>
        <time>2015-06-07T10:06:52Z</time>
      </trkpt>
      <trkpt lat="45.10638" lon="2.64931">
        <ele>1588.24</ele>
        <time>2015-06-07T10:07:07Z</time>
      </trkpt>
      <trkpt lat="45.10634" lon="2.64941">
        <ele>1591.6</ele>
        <time>2015-06-07T10:07:23Z</time>
      </trkpt>
      <trkpt lat="45.10629" lon="2.64954">
        <ele>1595.45</ele>
        <time>2015-06-07T10:07:39Z</time>
      </trkpt>
      <trkpt lat="45.10623" lon="2.64967">
        <ele>1595.45</ele>
        <time>2015-06-07T10:07:55Z</time>
      </trkpt>
      <trkpt lat="45.10618" lon="2.6498">
        <ele>1598.81</ele>
        <time>2015-06-07T10:08:07Z</time>
      </trkpt>
      <trkpt lat="45.10617" lon="2.64982">
        <ele>1598.81</ele>
        <time>2015-06-07T10:08:10Z</time>
      </trkpt>
      <trkpt lat="45.1061" lon="2.64994">
        <ele>1599.77</ele>
        <time>2015-06-07T10:08:24Z</time>
      </trkpt>
      <trkpt lat="45.10601" lon="2.65006">
        <ele>1600.73</ele>
        <time>2015-06-07T10:08:39Z</time>
      </trkpt>
      <trkpt lat="45.10593" lon="2.65016">
        <ele>1599.29</ele>
        <time>2015-06-07T10:08:51Z</time>
      </trkpt>
      <trkpt lat="45.10582" lon="2.65028">
        <ele>1599.29</ele>
        <time>2015-06-07T10:09:04Z</time>
      </trkpt>
      <trkpt lat="45.10575" lon="2.65037">
        <ele>1601.21</ele>
        <time>2015-06-07T10:09:16Z</time>
      </trkpt>
      <trkpt lat="45.10567" lon="2.65045">
        <ele>1601.21</ele>
        <time>2015-06-07T10:09:27Z</time>
      </trkpt>
      <trkpt lat="45.10564" lon="2.65049">
        <ele>1601.21</ele>
        <time>2015-06-07T10:09:31Z</time>
      </trkpt>
      <trkpt lat="45.10555" lon="2.6506">
        <ele>1603.14</ele>
        <time>2015-06-07T10:09:44Z</time>
      </trkpt>
      <trkpt lat="45.10545" lon="2.65063">
        <ele>1602.66</ele>
        <time>2015-06-07T10:09:57Z</time>
      </trkpt>
      <trkpt lat="45.10542" lon="2.65064">
        <ele>1602.66</ele>
        <time>2015-06-07T10:10:00Z</time>
      </trkpt>
      <trkpt lat="45.10536" lon="2.65069">
        <ele>1605.06</ele>
        <time>2015-06-07T10:10:13Z</time>
      </trkpt>
      <trkpt lat="45.10527" lon="2.65075">
        <ele>1606.02</ele>
        <time>2015-06-07T10:10:26Z</time>
      </trkpt>
      <trkpt lat="45.1052" lon="2.65083">
        <ele>1606.02</ele>
        <time>2015-06-07T10:10:39Z</time>
      </trkpt>
      <trkpt lat="45.10516" lon="2.65093">
        <ele>1606.98</ele>
        <time>2015-06-07T10:10:49Z</time>
      </trkpt>
      <trkpt lat="45.10514" lon="2.65099">
        <ele>1606.02</ele>
        <time>2015-06-07T10:10:54Z</time>
      </trkpt>
      <trkpt lat="45.10513" lon="2.65103">
        <ele>1606.5</ele>
        <time>2015-06-07T10:10:58Z</time>
      </trkpt>
      <trkpt lat="45.10505" lon="2.65116">
        <ele>1606.98</ele>
        <time>2015-06-07T10:11:11Z</time>
      </trkpt>
      <trkpt lat="45.105" lon="2.65123">
        <ele>1606.02</ele>
        <time>2015-06-07T10:11:24Z</time>
      </trkpt>
      <trkpt lat="45.10493" lon="2.65126">
        <ele>1604.58</ele>
        <time>2015-06-07T10:11:34Z</time>
      </trkpt>
      <trkpt lat="45.1048" lon="2.65138">
        <ele>1601.21</ele>
        <time>2015-06-07T10:11:50Z</time>
      </trkpt>
      <trkpt lat="45.10471" lon="2.65149">
        <ele>1600.25</ele>
        <time>2015-06-07T10:12:01Z</time>
      </trkpt>
      <trkpt lat="45.10461" lon="2.65165">
        <ele>1597.85</ele>
        <time>2015-06-07T10:12:15Z</time>
      </trkpt>
      <trkpt lat="45.10453" lon="2.65181">
        <ele>1598.33</ele>
        <time>2015-06-07T10:12:28Z</time>
      </trkpt>
      <trkpt lat="45.10444" lon="2.65193">
        <ele>1599.29</ele>
        <time>2015-06-07T10:12:41Z</time>
      </trkpt>
      <trkpt lat="45.10438" lon="2.65209">
        <ele>1602.66</ele>
        <time>2015-06-07T10:12:56Z</time>
      </trkpt>
      <trkpt lat="45.10431" lon="2.65222">
        <ele>1604.1</ele>
        <time>2015-06-07T10:13:10Z</time>
      </trkpt>
      <trkpt lat="45.10425" lon="2.65236">
        <ele>1605.06</ele>
        <time>2015-06-07T10:13:25Z</time>
      </trkpt>
      <trkpt lat="45.10417" lon="2.65248">
        <ele>1605.54</ele>
        <time>2015-06-07T10:13:40Z</time>
      </trkpt>
      <trkpt lat="45.1041" lon="2.65256">
        <ele>1608.9</ele>
        <time>2015-06-07T10:13:54Z</time>
      </trkpt>
      <trkpt lat="45.10403" lon="2.65263">
        <ele>1613.71</ele>
        <time>2015-06-07T10:14:09Z</time>
      </trkpt>
      <trkpt lat="45.10397" lon="2.6527">
        <ele>1617.07</ele>
        <time>2015-06-07T10:14:24Z</time>
      </trkpt>
      <trkpt lat="45.10392" lon="2.65274">
        <ele>1618.04</ele>
        <time>2015-06-07T10:14:41Z</time>
      </trkpt>
      <trkpt lat="45.10392" lon="2.65273">
        <ele>1618.04</ele>
        <time>2015-06-07T10:15:01Z</time>
      </trkpt>
      <trkpt lat="45.10392" lon="2.65274">
        <ele>1617.07</ele>
        <time>2015-06-07T10:15:26Z</time>
      </trkpt>
      <trkpt lat="45.10392" lon="2.65274">
        <ele>1617.07</ele>
        <time>2015-06-07T10:15:53Z</time>
      </trkpt>
      <trkpt lat="45.10392" lon="2.65275">
        <ele>1617.07</ele>
        <time>2015-06-07T10:16:19Z</time>
      </trkpt>
      <trkpt lat="45.10386" lon="2.65279">
        <ele>1617.56</ele>
        <time>2015-06-07T10:16:31Z</time>
      </trkpt>
      <trkpt lat="45.10378" lon="2.65289">
        <ele>1619</ele>
        <time>2015-06-07T10:16:45Z</time>
      </trkpt>
      <trkpt lat="45.10369" lon="2.65294">
        <ele>1621.4</ele>
        <time>2015-06-07T10:16:59Z</time>
      </trkpt>
      <trkpt lat="45.10364" lon="2.65298">
        <ele>1622.36</ele>
        <time>2015-06-07T10:17:06Z</time>
      </trkpt>
      <trkpt lat="45.10359" lon="2.65306">
        <ele>1621.88</ele>
        <time>2015-06-07T10:17:17Z</time>
      </trkpt>
      <trkpt lat="45.10352" lon="2.65313">
        <ele>1621.88</ele>
        <time>2015-06-07T10:17:29Z</time>
      </trkpt>
      <trkpt lat="45.10349" lon="2.65316">
        <ele>1623.32</ele>
        <time>2015-06-07T10:17:34Z</time>
      </trkpt>
      <trkpt lat="45.10338" lon="2.65323">
        <ele>1623.32</ele>
        <time>2015-06-07T10:17:48Z</time>
      </trkpt>
      <trkpt lat="45.10335" lon="2.65326">
        <ele>1624.28</ele>
        <time>2015-06-07T10:18:03Z</time>
      </trkpt>
      <trkpt lat="45.10326" lon="2.65334">
        <ele>1624.77</ele>
        <time>2015-06-07T10:18:17Z</time>
      </trkpt>
      <trkpt lat="45.10323" lon="2.65337">
        <ele>1624.77</ele>
        <time>2015-06-07T10:18:25Z</time>
      </trkpt>
      <trkpt lat="45.10312" lon="2.65341">
        <ele>1624.28</ele>
        <time>2015-06-07T10:18:38Z</time>
      </trkpt>
      <trkpt lat="45.10309" lon="2.65344">
        <ele>1624.28</ele>
        <time>2015-06-07T10:18:43Z</time>
      </trkpt>
      <trkpt lat="45.10298" lon="2.65351">
        <ele>1622.84</ele>
        <time>2015-06-07T10:18:58Z</time>
      </trkpt>
      <trkpt lat="45.10292" lon="2.65354">
        <ele>1626.21</ele>
        <time>2015-06-07T10:19:10Z</time>
      </trkpt>
      <trkpt lat="45.10285" lon="2.65361">
        <ele>1629.09</ele>
        <time>2015-06-07T10:19:24Z</time>
      </trkpt>
      <trkpt lat="45.10283" lon="2.65363">
        <ele>1631.49</ele>
        <time>2015-06-07T10:19:38Z</time>
      </trkpt>
      <trkpt lat="45.10275" lon="2.65365">
        <ele>1633.42</ele>
        <time>2015-06-07T10:19:50Z</time>
      </trkpt>
      <trkpt lat="45.10268" lon="2.6537">
        <ele>1634.86</ele>
        <time>2015-06-07T10:20:03Z</time>
      </trkpt>
      <trkpt lat="45.1026" lon="2.65375">
        <ele>1637.26</ele>
        <time>2015-06-07T10:20:15Z</time>
      </trkpt>
      <trkpt lat="45.10251" lon="2.6538">
        <ele>1637.74</ele>
        <time>2015-06-07T10:20:29Z</time>
      </trkpt>
      <trkpt lat="45.10244" lon="2.65384">
        <ele>1638.7</ele>
        <time>2015-06-07T10:20:41Z</time>
      </trkpt>
      <trkpt lat="45.10241" lon="2.65387">
        <ele>1639.19</ele>
        <time>2015-06-07T10:20:57Z</time>
      </trkpt>
      <trkpt lat="45.10241" lon="2.65387">
        <ele>1641.11</ele>
        <time>2015-06-07T10:21:15Z</time>
      </trkpt>
      <trkpt lat="45.10242" lon="2.65387">
        <ele>1641.11</ele>
        <time>2015-06-07T10:21:43Z</time>
      </trkpt>
      <trkpt lat="45.10242" lon="2.65387">
        <ele>1641.11</ele>
        <time>2015-06-07T10:21:50Z</time>
      </trkpt>
      <trkpt lat="45.10243" lon="2.65388">
        <ele>1641.11</ele>
        <time>2015-06-07T10:22:04Z</time>
      </trkpt>
      <trkpt lat="45.10243" lon="2.65387">
        <ele>1641.11</ele>
        <time>2015-06-07T10:22:35Z</time>
      </trkpt>
      <trkpt lat="45.10243" lon="2.65387">
        <ele>1640.63</ele>
        <time>2015-06-07T10:22:51Z</time>
      </trkpt>
      <trkpt lat="45.10243" lon="2.65387">
        <ele>1640.15</ele>
        <time>2015-06-07T10:23:09Z</time>
      </trkpt>
      <trkpt lat="45.10242" lon="2.65387">
        <ele>1640.63</ele>
        <time>2015-06-07T10:23:22Z</time>
      </trkpt>
      <trkpt lat="45.10237" lon="2.65385">
        <ele>1640.15</ele>
        <time>2015-06-07T10:23:29Z</time>
      </trkpt>
      <trkpt lat="45.10227" lon="2.65385">
        <ele>1640.15</ele>
        <time>2015-06-07T10:23:41Z</time>
      </trkpt>
      <trkpt lat="45.10218" lon="2.65383">
        <ele>1642.07</ele>
        <time>2015-06-07T10:23:54Z</time>
      </trkpt>
      <trkpt lat="45.10218" lon="2.65382">
        <ele>1642.55</ele>
        <time>2015-06-07T10:24:22Z</time>
      </trkpt>
      <trkpt lat="45.10219" lon="2.65382">
        <ele>1643.99</ele>
        <time>2015-06-07T10:24:47Z</time>
      </trkpt>
      <trkpt lat="45.10217" lon="2.65382">
        <ele>1644.47</ele>
        <time>2015-06-07T10:25:11Z</time>
      </trkpt>
      <trkpt lat="45.10212" lon="2.6538">
        <ele>1645.43</ele>
        <time>2015-06-07T10:25:17Z</time>
      </trkpt>
      <trkpt lat="45.10204" lon="2.65375">
        <ele>1646.4</ele>
        <time>2015-06-07T10:25:26Z</time>
      </trkpt>
      <trkpt lat="45.10195" lon="2.65365">
        <ele>1647.84</ele>
        <time>2015-06-07T10:25:39Z</time>
      </trkpt>
      <trkpt lat="45.10192" lon="2.65363">
        <ele>1647.84</ele>
        <time>2015-06-07T10:25:43Z</time>
      </trkpt>
      <trkpt lat="45.10184" lon="2.65354">
        <ele>1646.88</ele>
        <time>2015-06-07T10:25:56Z</time>
      </trkpt>
      <trkpt lat="45.10178" lon="2.65344">
        <ele>1648.32</ele>
        <time>2015-06-07T10:26:08Z</time>
      </trkpt>
      <trkpt lat="45.10172" lon="2.65335">
        <ele>1649.28</ele>
        <time>2015-06-07T10:26:20Z</time>
      </trkpt>
      <trkpt lat="45.10167" lon="2.6533">
        <ele>1650.72</ele>
        <time>2015-06-07T10:26:32Z</time>
      </trkpt>
      <trkpt lat="45.10159" lon="2.6532">
        <ele>1654.57</ele>
        <time>2015-06-07T10:26:45Z</time>
      </trkpt>
      <trkpt lat="45.10157" lon="2.65318">
        <ele>1656.97</ele>
        <time>2015-06-07T10:26:50Z</time>
      </trkpt>
      <trkpt lat="45.10151" lon="2.65316">
        <ele>1656.01</ele>
        <time>2015-06-07T10:27:04Z</time>
      </trkpt>
      <trkpt lat="45.10149" lon="2.65313">
        <ele>1656.01</ele>
        <time>2015-06-07T10:27:07Z</time>
      </trkpt>
      <trkpt lat="45.10142" lon="2.6531">
        <ele>1656.01</ele>
        <time>2015-06-07T10:27:15Z</time>
      </trkpt>
      <trkpt lat="45.1013" lon="2.65301">
        <ele>1656.97</ele>
        <time>2015-06-07T10:27:28Z</time>
      </trkpt>
      <trkpt lat="45.10122" lon="2.65299">
        <ele>1656.01</ele>
        <time>2015-06-07T10:27:36Z</time>
      </trkpt>
      <trkpt lat="45.10117" lon="2.65297">
        <ele>1655.53</ele>
        <time>2015-06-07T10:27:42Z</time>
      </trkpt>
      <trkpt lat="45.10108" lon="2.65291">
        <ele>1658.89</ele>
        <time>2015-06-07T10:27:55Z</time>
      </trkpt>
      <trkpt lat="45.10103" lon="2.65287">
        <ele>1659.85</ele>
        <time>2015-06-07T10:28:02Z</time>
      </trkpt>
      <trkpt lat="45.10093" lon="2.65282">
        <ele>1656.97</ele>
        <time>2015-06-07T10:28:16Z</time>
      </trkpt>
      <trkpt lat="45.1009" lon="2.6528">
        <ele>1656.49</ele>
        <time>2015-06-07T10:28:19Z</time>
      </trkpt>
      <trkpt lat="45.10079" lon="2.65274">
        <ele>1660.33</ele>
        <time>2015-06-07T10:28:34Z</time>
      </trkpt>
      <trkpt lat="45.10073" lon="2.65269">
        <ele>1661.78</ele>
        <time>2015-06-07T10:28:43Z</time>
      </trkpt>
      <trkpt lat="45.1007" lon="2.65266">
        <ele>1661.78</ele>
        <time>2015-06-07T10:28:48Z</time>
      </trkpt>
      <trkpt lat="45.10064" lon="2.65252">
        <ele>1663.22</ele>
        <time>2015-06-07T10:29:01Z</time>
      </trkpt>
      <trkpt lat="45.10056" lon="2.65245">
        <ele>1663.22</ele>
        <time>2015-06-07T10:29:13Z</time>
      </trkpt>
      <trkpt lat="45.10056" lon="2.65245">
        <ele>1662.26</ele>
        <time>2015-06-07T10:29:30Z</time>
      </trkpt>
      <trkpt lat="45.10052" lon="2.6524">
        <ele>1663.22</ele>
        <time>2015-06-07T10:29:46Z</time>
      </trkpt>
      <trkpt lat="45.10043" lon="2.65228">
        <ele>1664.66</ele>
        <time>2015-06-07T10:29:57Z</time>
      </trkpt>
      <trkpt lat="45.10037" lon="2.65223">
        <ele>1664.18</ele>
        <time>2015-06-07T10:30:03Z</time>
      </trkpt>
      <trkpt lat="45.10035" lon="2.6522">
        <ele>1665.14</ele>
        <time>2015-06-07T10:30:06Z</time>
      </trkpt>
      <trkpt lat="45.10029" lon="2.65217">
        <ele>1666.1</ele>
        <time>2015-06-07T10:30:12Z</time>
      </trkpt>
      <trkpt lat="45.10024" lon="2.65209">
        <ele>1666.58</ele>
        <time>2015-06-07T10:30:18Z</time>
      </trkpt>
      <trkpt lat="45.10018" lon="2.65194">
        <ele>1666.58</ele>
        <time>2015-06-07T10:30:29Z</time>
      </trkpt>
      <trkpt lat="45.10017" lon="2.65191">
        <ele>1666.58</ele>
        <time>2015-06-07T10:30:31Z</time>
      </trkpt>
      <trkpt lat="45.10011" lon="2.6518">
        <ele>1667.54</ele>
        <time>2015-06-07T10:30:41Z</time>
      </trkpt>
      <trkpt lat="45.1001" lon="2.65177">
        <ele>1667.54</ele>
        <time>2015-06-07T10:30:43Z</time>
      </trkpt>
      <trkpt lat="45.10004" lon="2.65162">
        <ele>1669.47</ele>
        <time>2015-06-07T10:30:56Z</time>
      </trkpt>
      <trkpt lat="45.10002" lon="2.65158">
        <ele>1668.99</ele>
        <time>2015-06-07T10:31:00Z</time>
      </trkpt>
      <trkpt lat="45.09997" lon="2.65143">
        <ele>1669.47</ele>
        <time>2015-06-07T10:31:12Z</time>
      </trkpt>
      <trkpt lat="45.09993" lon="2.65125">
        <ele>1671.87</ele>
        <time>2015-06-07T10:31:23Z</time>
      </trkpt>
      <trkpt lat="45.09985" lon="2.6511">
        <ele>1671.87</ele>
        <time>2015-06-07T10:31:37Z</time>
      </trkpt>
      <trkpt lat="45.09977" lon="2.65099">
        <ele>1671.39</ele>
        <time>2015-06-07T10:31:50Z</time>
      </trkpt>
      <trkpt lat="45.09969" lon="2.65085">
        <ele>1672.83</ele>
        <time>2015-06-07T10:32:02Z</time>
      </trkpt>
      <trkpt lat="45.09969" lon="2.65084">
        <ele>1672.83</ele>
        <time>2015-06-07T10:32:03Z</time>
      </trkpt>
      <trkpt lat="45.09964" lon="2.65078">
        <ele>1672.83</ele>
        <time>2015-06-07T10:32:13Z</time>
      </trkpt>
      <trkpt lat="45.09956" lon="2.65066">
        <ele>1673.31</ele>
        <time>2015-06-07T10:32:25Z</time>
      </trkpt>
      <trkpt lat="45.09953" lon="2.65056">
        <ele>1674.75</ele>
        <time>2015-06-07T10:32:32Z</time>
      </trkpt>
      <trkpt lat="45.09948" lon="2.65048">
        <ele>1675.23</ele>
        <time>2015-06-07T10:32:41Z</time>
      </trkpt>
      <trkpt lat="45.09947" lon="2.65046">
        <ele>1674.75</ele>
        <time>2015-06-07T10:32:43Z</time>
      </trkpt>
      <trkpt lat="45.09945" lon="2.65042">
        <ele>1674.27</ele>
        <time>2015-06-07T10:32:47Z</time>
      </trkpt>
      <trkpt lat="45.09942" lon="2.65024">
        <ele>1672.83</ele>
        <time>2015-06-07T10:32:59Z</time>
      </trkpt>
      <trkpt lat="45.09942" lon="2.65022">
        <ele>1672.83</ele>
        <time>2015-06-07T10:33:00Z</time>
      </trkpt>
      <trkpt lat="45.09938" lon="2.65015">
        <ele>1674.27</ele>
        <time>2015-06-07T10:33:06Z</time>
      </trkpt>
      <trkpt lat="45.09936" lon="2.65">
        <ele>1673.79</ele>
        <time>2015-06-07T10:33:17Z</time>
      </trkpt>
      <trkpt lat="45.09936" lon="2.64998">
        <ele>1675.72</ele>
        <time>2015-06-07T10:33:32Z</time>
      </trkpt>
      <trkpt lat="45.09934" lon="2.64981">
        <ele>1675.72</ele>
        <time>2015-06-07T10:33:43Z</time>
      </trkpt>
      <trkpt lat="45.09933" lon="2.64977">
        <ele>1676.2</ele>
        <time>2015-06-07T10:33:45Z</time>
      </trkpt>
      <trkpt lat="45.09928" lon="2.64965">
        <ele>1677.64</ele>
        <time>2015-06-07T10:33:57Z</time>
      </trkpt>
      <trkpt lat="45.09925" lon="2.64956">
        <ele>1677.16</ele>
        <time>2015-06-07T10:34:05Z</time>
      </trkpt>
      <trkpt lat="45.09918" lon="2.64944">
        <ele>1679.08</ele>
        <time>2015-06-07T10:34:18Z</time>
      </trkpt>
      <trkpt lat="45.09915" lon="2.64939">
        <ele>1678.6</ele>
        <time>2015-06-07T10:34:23Z</time>
      </trkpt>
      <trkpt lat="45.09911" lon="2.64925">
        <ele>1677.16</ele>
        <time>2015-06-07T10:34:34Z</time>
      </trkpt>
      <trkpt lat="45.09906" lon="2.64915">
        <ele>1676.2</ele>
        <time>2015-06-07T10:34:43Z</time>
      </trkpt>
      <trkpt lat="45.09903" lon="2.64909">
        <ele>1675.72</ele>
        <time>2015-06-07T10:34:50Z</time>
      </trkpt>
      <trkpt lat="45.099" lon="2.64895">
        <ele>1674.75</ele>
        <time>2015-06-07T10:35:01Z</time>
      </trkpt>
      <trkpt lat="45.09897" lon="2.64887">
        <ele>1675.72</ele>
        <time>2015-06-07T10:35:08Z</time>
      </trkpt>
      <trkpt lat="45.0989" lon="2.64871">
        <ele>1674.27</ele>
        <time>2015-06-07T10:35:20Z</time>
      </trkpt>
      <trkpt lat="45.09886" lon="2.64863">
        <ele>1674.75</ele>
        <time>2015-06-07T10:35:26Z</time>
      </trkpt>
      <trkpt lat="45.09882" lon="2.6485">
        <ele>1673.79</ele>
        <time>2015-06-07T10:35:37Z</time>
      </trkpt>
      <trkpt lat="45.09873" lon="2.64837">
        <ele>1675.72</ele>
        <time>2015-06-07T10:35:50Z</time>
      </trkpt>
      <trkpt lat="45.09866" lon="2.64828">
        <ele>1677.64</ele>
        <time>2015-06-07T10:36:00Z</time>
      </trkpt>
      <trkpt lat="45.09863" lon="2.64822">
        <ele>1678.6</ele>
        <time>2015-06-07T10:36:05Z</time>
      </trkpt>
      <trkpt lat="45.09852" lon="2.64808">
        <ele>1678.6</ele>
        <time>2015-06-07T10:36:19Z</time>
      </trkpt>
      <trkpt lat="45.09847" lon="2.64803">
        <ele>1679.08</ele>
        <time>2015-06-07T10:36:33Z</time>
      </trkpt>
      <trkpt lat="45.09844" lon="2.64795">
        <ele>1679.08</ele>
        <time>2015-06-07T10:36:41Z</time>
      </trkpt>
      <trkpt lat="45.09843" lon="2.64788">
        <ele>1680.04</ele>
        <time>2015-06-07T10:36:48Z</time>
      </trkpt>
      <trkpt lat="45.09835" lon="2.64774">
        <ele>1680.04</ele>
        <time>2015-06-07T10:37:01Z</time>
      </trkpt>
      <trkpt lat="45.09835" lon="2.6477">
        <ele>1679.56</ele>
        <time>2015-06-07T10:37:04Z</time>
      </trkpt>
      <trkpt lat="45.09832" lon="2.64755">
        <ele>1679.08</ele>
        <time>2015-06-07T10:37:16Z</time>
      </trkpt>
      <trkpt lat="45.09827" lon="2.64743">
        <ele>1679.56</ele>
        <time>2015-06-07T10:37:29Z</time>
      </trkpt>
      <trkpt lat="45.09826" lon="2.64732">
        <ele>1678.6</ele>
        <time>2015-06-07T10:37:39Z</time>
      </trkpt>
      <trkpt lat="45.09819" lon="2.64723">
        <ele>1679.56</ele>
        <time>2015-06-07T10:37:52Z</time>
      </trkpt>
      <trkpt lat="45.09814" lon="2.64716">
        <ele>1681.96</ele>
        <time>2015-06-07T10:38:06Z</time>
      </trkpt>
      <trkpt lat="45.0981" lon="2.64705">
        <ele>1682.44</ele>
        <time>2015-06-07T10:38:18Z</time>
      </trkpt>
      <trkpt lat="45.09804" lon="2.64693">
        <ele>1682.93</ele>
        <time>2015-06-07T10:38:31Z</time>
      </trkpt>
      <trkpt lat="45.098" lon="2.6468">
        <ele>1684.37</ele>
        <time>2015-06-07T10:38:43Z</time>
      </trkpt>
      <trkpt lat="45.09795" lon="2.64671">
        <ele>1685.81</ele>
        <time>2015-06-07T10:38:53Z</time>
      </trkpt>
      <trkpt lat="45.09793" lon="2.64663">
        <ele>1686.77</ele>
        <time>2015-06-07T10:39:01Z</time>
      </trkpt>
      <trkpt lat="45.09786" lon="2.64649">
        <ele>1686.77</ele>
        <time>2015-06-07T10:39:15Z</time>
      </trkpt>
      <trkpt lat="45.09786" lon="2.64648">
        <ele>1686.77</ele>
        <time>2015-06-07T10:39:16Z</time>
      </trkpt>
      <trkpt lat="45.09785" lon="2.64642">
        <ele>1687.25</ele>
        <time>2015-06-07T10:39:21Z</time>
      </trkpt>
      <trkpt lat="45.09783" lon="2.64639">
        <ele>1688.21</ele>
        <time>2015-06-07T10:39:25Z</time>
      </trkpt>
      <trkpt lat="45.09781" lon="2.64631">
        <ele>1689.17</ele>
        <time>2015-06-07T10:39:31Z</time>
      </trkpt>
      <trkpt lat="45.09778" lon="2.64616">
        <ele>1687.73</ele>
        <time>2015-06-07T10:39:44Z</time>
      </trkpt>
      <trkpt lat="45.09774" lon="2.64607">
        <ele>1687.73</ele>
        <time>2015-06-07T10:39:56Z</time>
      </trkpt>
      <trkpt lat="45.09768" lon="2.64596">
        <ele>1689.17</ele>
        <time>2015-06-07T10:40:09Z</time>
      </trkpt>
      <trkpt lat="45.09762" lon="2.64587">
        <ele>1690.62</ele>
        <time>2015-06-07T10:40:23Z</time>
      </trkpt>
      <trkpt lat="45.09758" lon="2.6458">
        <ele>1694.46</ele>
        <time>2015-06-07T10:40:40Z</time>
      </trkpt>
      <trkpt lat="45.09756" lon="2.64574">
        <ele>1697.34</ele>
        <time>2015-06-07T10:40:54Z</time>
      </trkpt>
      <trkpt lat="45.09755" lon="2.64576">
        <ele>1698.31</ele>
        <time>2015-06-07T10:41:08Z</time>
      </trkpt>
      <trkpt lat="45.09754" lon="2.64575">
        <ele>1699.27</ele>
        <time>2015-06-07T10:41:24Z</time>
      </trkpt>
      <trkpt lat="45.09753" lon="2.64576">
        <ele>1699.75</ele>
        <time>2015-06-07T10:41:39Z</time>
      </trkpt>
      <trkpt lat="45.09753" lon="2.64577">
        <ele>1701.19</ele>
        <time>2015-06-07T10:41:51Z</time>
      </trkpt>
      <trkpt lat="45.09751" lon="2.64586">
        <ele>1702.15</ele>
        <time>2015-06-07T10:42:06Z</time>
      </trkpt>
      <trkpt lat="45.09748" lon="2.64586">
        <ele>1704.55</ele>
        <time>2015-06-07T10:42:17Z</time>
      </trkpt>
      <trkpt lat="45.09744" lon="2.64583">
        <ele>1705.04</ele>
        <time>2015-06-07T10:42:24Z</time>
      </trkpt>
      <trkpt lat="45.0974" lon="2.6458">
        <ele>1705.04</ele>
        <time>2015-06-07T10:42:37Z</time>
      </trkpt>
      <trkpt lat="45.0973" lon="2.64578">
        <ele>1706.48</ele>
        <time>2015-06-07T10:42:48Z</time>
      </trkpt>
      <trkpt lat="45.09725" lon="2.64573">
        <ele>1708.88</ele>
        <time>2015-06-07T10:43:00Z</time>
      </trkpt>
      <trkpt lat="45.09721" lon="2.64568">
        <ele>1709.84</ele>
        <time>2015-06-07T10:43:12Z</time>
      </trkpt>
      <trkpt lat="45.09715" lon="2.64561">
        <ele>1710.8</ele>
        <time>2015-06-07T10:43:23Z</time>
      </trkpt>
      <trkpt lat="45.0971" lon="2.64557">
        <ele>1712.25</ele>
        <time>2015-06-07T10:43:30Z</time>
      </trkpt>
      <trkpt lat="45.09703" lon="2.64549">
        <ele>1714.65</ele>
        <time>2015-06-07T10:43:42Z</time>
      </trkpt>
      <trkpt lat="45.09696" lon="2.64544">
        <ele>1716.09</ele>
        <time>2015-06-07T10:43:56Z</time>
      </trkpt>
      <trkpt lat="45.09692" lon="2.64539">
        <ele>1718.49</ele>
        <time>2015-06-07T10:44:11Z</time>
      </trkpt>
      <trkpt lat="45.09688" lon="2.64535">
        <ele>1719.94</ele>
        <time>2015-06-07T10:44:24Z</time>
      </trkpt>
      <trkpt lat="45.09687" lon="2.64532">
        <ele>1721.38</ele>
        <time>2015-06-07T10:44:39Z</time>
      </trkpt>
      <trkpt lat="45.09681" lon="2.64525">
        <ele>1722.82</ele>
        <time>2015-06-07T10:44:53Z</time>
      </trkpt>
      <trkpt lat="45.09678" lon="2.64522">
        <ele>1723.78</ele>
        <time>2015-06-07T10:45:06Z</time>
      </trkpt>
      <trkpt lat="45.09676" lon="2.6452">
        <ele>1725.22</ele>
        <time>2015-06-07T10:45:22Z</time>
      </trkpt>
      <trkpt lat="45.09668" lon="2.64516">
        <ele>1727.15</ele>
        <time>2015-06-07T10:45:35Z</time>
      </trkpt>
      <trkpt lat="45.09666" lon="2.64515">
        <ele>1728.11</ele>
        <time>2015-06-07T10:45:49Z</time>
      </trkpt>
      <trkpt lat="45.09664" lon="2.64514">
        <ele>1730.03</ele>
        <time>2015-06-07T10:46:03Z</time>
      </trkpt>
      <trkpt lat="45.09661" lon="2.64511">
        <ele>1731.47</ele>
        <time>2015-06-07T10:46:16Z</time>
      </trkpt>
      <trkpt lat="45.09659" lon="2.64506">
        <ele>1731.47</ele>
        <time>2015-06-07T10:46:27Z</time>
      </trkpt>
      <trkpt lat="45.09652" lon="2.64497">
        <ele>1734.36</ele>
        <time>2015-06-07T10:46:41Z</time>
      </trkpt>
      <trkpt lat="45.09643" lon="2.64484">
        <ele>1739.16</ele>
        <time>2015-06-07T10:46:55Z</time>
      </trkpt>
      <trkpt lat="45.09636" lon="2.64478">
        <ele>1741.57</ele>
        <time>2015-06-07T10:47:02Z</time>
      </trkpt>
      <trkpt lat="45.09632" lon="2.64474">
        <ele>1743.49</ele>
        <time>2015-06-07T10:47:15Z</time>
      </trkpt>
      <trkpt lat="45.09632" lon="2.64473">
        <ele>1743.49</ele>
        <time>2015-06-07T10:47:37Z</time>
      </trkpt>
      <trkpt lat="45.09631" lon="2.64477">
        <ele>1744.93</ele>
        <time>2015-06-07T10:47:51Z</time>
      </trkpt>
      <trkpt lat="45.0963" lon="2.64478">
        <ele>1745.41</ele>
        <time>2015-06-07T10:48:06Z</time>
      </trkpt>
      <trkpt lat="45.0963" lon="2.64478">
        <ele>1745.41</ele>
        <time>2015-06-07T10:48:36Z</time>
      </trkpt>
      <trkpt lat="45.0963" lon="2.64479">
        <ele>1744.93</ele>
        <time>2015-06-07T10:49:02Z</time>
      </trkpt>
      <trkpt lat="45.0963" lon="2.64479">
        <ele>1744.93</ele>
        <time>2015-06-07T10:49:28Z</time>
      </trkpt>
      <trkpt lat="45.0963" lon="2.64479">
        <ele>1744.45</ele>
        <time>2015-06-07T10:49:46Z</time>
      </trkpt>
      <trkpt lat="45.09629" lon="2.64478">
        <ele>1743.97</ele>
        <time>2015-06-07T10:50:07Z</time>
      </trkpt>
      <trkpt lat="45.09628" lon="2.64477">
        <ele>1743.97</ele>
        <time>2015-06-07T10:50:23Z</time>
      </trkpt>
      <trkpt lat="45.09629" lon="2.64476">
        <ele>1743.49</ele>
        <time>2015-06-07T10:50:47Z</time>
      </trkpt>
      <trkpt lat="45.09629" lon="2.64477">
        <ele>1743.01</ele>
        <time>2015-06-07T10:51:09Z</time>
      </trkpt>
      <trkpt lat="45.09629" lon="2.64478">
        <ele>1742.53</ele>
        <time>2015-06-07T10:51:28Z</time>
      </trkpt>
      <trkpt lat="45.09629" lon="2.64478">
        <ele>1742.05</ele>
        <time>2015-06-07T10:51:48Z</time>
      </trkpt>
      <trkpt lat="45.09629" lon="2.64478">
        <ele>1742.05</ele>
        <time>2015-06-07T10:52:11Z</time>
      </trkpt>
      <trkpt lat="45.09629" lon="2.64477">
        <ele>1742.53</ele>
        <time>2015-06-07T10:52:33Z</time>
      </trkpt>
      <trkpt lat="45.09628" lon="2.64477">
        <ele>1742.53</ele>
        <time>2015-06-07T10:52:58Z</time>
      </trkpt>
      <trkpt lat="45.09628" lon="2.64477">
        <ele>1742.53</ele>
        <time>2015-06-07T10:53:20Z</time>
      </trkpt>
      <trkpt lat="45.09628" lon="2.64476">
        <ele>1742.53</ele>
        <time>2015-06-07T10:53:41Z</time>
      </trkpt>
      <trkpt lat="45.09628" lon="2.64476">
        <ele>1742.05</ele>
        <time>2015-06-07T10:54:04Z</time>
      </trkpt>
      <trkpt lat="45.09628" lon="2.64475">
        <ele>1741.08</ele>
        <time>2015-06-07T10:54:24Z</time>
      </trkpt>
      <trkpt lat="45.09628" lon="2.64475">
        <ele>1741.08</ele>
        <time>2015-06-07T10:54:44Z</time>
      </trkpt>
      <trkpt lat="45.09628" lon="2.64475">
        <ele>1741.08</ele>
        <time>2015-06-07T10:55:15Z</time>
      </trkpt>
      <trkpt lat="45.09627" lon="2.64474">
        <ele>1740.6</ele>
        <time>2015-06-07T10:55:36Z</time>
      </trkpt>
      <trkpt lat="45.09628" lon="2.64474">
        <ele>1741.08</ele>
        <time>2015-06-07T10:55:56Z</time>
      </trkpt>
      <trkpt lat="45.09625" lon="2.64472">
        <ele>1741.57</ele>
        <time>2015-06-07T10:56:09Z</time>
      </trkpt>
      <trkpt lat="45.09622" lon="2.64471">
        <ele>1741.57</ele>
        <time>2015-06-07T10:56:12Z</time>
      </trkpt>
      <trkpt lat="45.09605" lon="2.64471">
        <ele>1739.64</ele>
        <time>2015-06-07T10:56:26Z</time>
      </trkpt>
      <trkpt lat="45.09588" lon="2.64472">
        <ele>1739.16</ele>
        <time>2015-06-07T10:56:40Z</time>
      </trkpt>
      <trkpt lat="45.09587" lon="2.64471">
        <ele>1739.16</ele>
        <time>2015-06-07T10:56:41Z</time>
      </trkpt>
      <trkpt lat="45.09581" lon="2.64472">
        <ele>1739.64</ele>
        <time>2015-06-07T10:56:46Z</time>
      </trkpt>
      <trkpt lat="45.09577" lon="2.64468">
        <ele>1739.16</ele>
        <time>2015-06-07T10:56:53Z</time>
      </trkpt>
      <trkpt lat="45.09569" lon="2.64466">
        <ele>1738.68</ele>
        <time>2015-06-07T10:57:00Z</time>
      </trkpt>
      <trkpt lat="45.0955" lon="2.64458">
        <ele>1735.8</ele>
        <time>2015-06-07T10:57:17Z</time>
      </trkpt>
      <trkpt lat="45.09546" lon="2.64456">
        <ele>1735.32</ele>
        <time>2015-06-07T10:57:20Z</time>
      </trkpt>
      <trkpt lat="45.09541" lon="2.64454">
        <ele>1734.36</ele>
        <time>2015-06-07T10:57:24Z</time>
      </trkpt>
      <trkpt lat="45.09536" lon="2.64451">
        <ele>1733.39</ele>
        <time>2015-06-07T10:57:28Z</time>
      </trkpt>
      <trkpt lat="45.0953" lon="2.64448">
        <ele>1731.95</ele>
        <time>2015-06-07T10:57:33Z</time>
      </trkpt>
      <trkpt lat="45.09513" lon="2.64437">
        <ele>1731.95</ele>
        <time>2015-06-07T10:57:48Z</time>
      </trkpt>
      <trkpt lat="45.09501" lon="2.64429">
        <ele>1728.11</ele>
        <time>2015-06-07T10:58:01Z</time>
      </trkpt>
      <trkpt lat="45.09487" lon="2.64413">
        <ele>1725.7</ele>
        <time>2015-06-07T10:58:16Z</time>
      </trkpt>
      <trkpt lat="45.09478" lon="2.64403">
        <ele>1722.34</ele>
        <time>2015-06-07T10:58:29Z</time>
      </trkpt>
      <trkpt lat="45.09469" lon="2.64389">
        <ele>1718.97</ele>
        <time>2015-06-07T10:58:40Z</time>
      </trkpt>
      <trkpt lat="45.0946" lon="2.64371">
        <ele>1715.61</ele>
        <time>2015-06-07T10:58:53Z</time>
      </trkpt>
      <trkpt lat="45.09457" lon="2.64366">
        <ele>1713.69</ele>
        <time>2015-06-07T10:58:57Z</time>
      </trkpt>
      <trkpt lat="45.09447" lon="2.64359">
        <ele>1710.32</ele>
        <time>2015-06-07T10:59:07Z</time>
      </trkpt>
      <trkpt lat="45.09432" lon="2.64353">
        <ele>1707.44</ele>
        <time>2015-06-07T10:59:22Z</time>
      </trkpt>
      <trkpt lat="45.09413" lon="2.64346">
        <ele>1706.48</ele>
        <time>2015-06-07T10:59:37Z</time>
      </trkpt>
      <trkpt lat="45.09396" lon="2.64338">
        <ele>1706</ele>
        <time>2015-06-07T10:59:51Z</time>
      </trkpt>
      <trkpt lat="45.09387" lon="2.64333">
        <ele>1707.44</ele>
        <time>2015-06-07T11:00:00Z</time>
      </trkpt>
      <trkpt lat="45.09378" lon="2.64335">
        <ele>1707.44</ele>
        <time>2015-06-07T11:00:07Z</time>
      </trkpt>
      <trkpt lat="45.09363" lon="2.64325">
        <ele>1706.48</ele>
        <time>2015-06-07T11:00:21Z</time>
      </trkpt>
      <trkpt lat="45.0935" lon="2.64312">
        <ele>1706.96</ele>
        <time>2015-06-07T11:00:35Z</time>
      </trkpt>
      <trkpt lat="45.09335" lon="2.64304">
        <ele>1706.48</ele>
        <time>2015-06-07T11:00:48Z</time>
      </trkpt>
      <trkpt lat="45.09319" lon="2.64298">
        <ele>1705.04</ele>
        <time>2015-06-07T11:01:02Z</time>
      </trkpt>
      <trkpt lat="45.09302" lon="2.64292">
        <ele>1705.04</ele>
        <time>2015-06-07T11:01:14Z</time>
      </trkpt>
      <trkpt lat="45.09289" lon="2.64282">
        <ele>1703.59</ele>
        <time>2015-06-07T11:01:27Z</time>
      </trkpt>
      <trkpt lat="45.09285" lon="2.64279">
        <ele>1703.11</ele>
        <time>2015-06-07T11:01:38Z</time>
      </trkpt>
      <trkpt lat="45.09282" lon="2.64277">
        <ele>1702.15</ele>
        <time>2015-06-07T11:01:50Z</time>
      </trkpt>
      <trkpt lat="45.09273" lon="2.64271">
        <ele>1701.19</ele>
        <time>2015-06-07T11:01:58Z</time>
      </trkpt>
      <trkpt lat="45.09253" lon="2.64264">
        <ele>1699.27</ele>
        <time>2015-06-07T11:02:14Z</time>
      </trkpt>
      <trkpt lat="45.09237" lon="2.64263">
        <ele>1698.31</ele>
        <time>2015-06-07T11:02:27Z</time>
      </trkpt>
      <trkpt lat="45.09221" lon="2.64263">
        <ele>1696.86</ele>
        <time>2015-06-07T11:02:40Z</time>
      </trkpt>
      <trkpt lat="45.09212" lon="2.64261">
        <ele>1695.42</ele>
        <time>2015-06-07T11:02:52Z</time>
      </trkpt>
      <trkpt lat="45.09209" lon="2.64262">
        <ele>1694.46</ele>
        <time>2015-06-07T11:03:07Z</time>
      </trkpt>
      <trkpt lat="45.09209" lon="2.64262">
        <ele>1694.46</ele>
        <time>2015-06-07T11:03:25Z</time>
      </trkpt>
      <trkpt lat="45.09208" lon="2.64262">
        <ele>1694.46</ele>
        <time>2015-06-07T11:03:32Z</time>
      </trkpt>
      <trkpt lat="45.09203" lon="2.64261">
        <ele>1693.98</ele>
        <time>2015-06-07T11:03:49Z</time>
      </trkpt>
      <trkpt lat="45.09199" lon="2.64263">
        <ele>1694.46</ele>
        <time>2015-06-07T11:04:05Z</time>
      </trkpt>
      <trkpt lat="45.09194" lon="2.64262">
        <ele>1694.94</ele>
        <time>2015-06-07T11:04:19Z</time>
      </trkpt>
      <trkpt lat="45.09191" lon="2.64264">
        <ele>1694.94</ele>
        <time>2015-06-07T11:04:23Z</time>
      </trkpt>
      <trkpt lat="45.09187" lon="2.64266">
        <ele>1693.98</ele>
        <time>2015-06-07T11:04:27Z</time>
      </trkpt>
      <trkpt lat="45.09183" lon="2.64268">
        <ele>1692.54</ele>
        <time>2015-06-07T11:04:30Z</time>
      </trkpt>
      <trkpt lat="45.09179" lon="2.64269">
        <ele>1690.62</ele>
        <time>2015-06-07T11:04:34Z</time>
      </trkpt>
      <trkpt lat="45.09164" lon="2.64271">
        <ele>1685.33</ele>
        <time>2015-06-07T11:04:46Z</time>
      </trkpt>
      <trkpt lat="45.09155" lon="2.64271">
        <ele>1681.96</ele>
        <time>2015-06-07T11:04:56Z</time>
      </trkpt>
      <trkpt lat="45.09145" lon="2.64276">
        <ele>1677.16</ele>
        <time>2015-06-07T11:05:11Z</time>
      </trkpt>
      <trkpt lat="45.09143" lon="2.64277">
        <ele>1676.68</ele>
        <time>2015-06-07T11:05:13Z</time>
      </trkpt>
      <trkpt lat="45.09135" lon="2.64284">
        <ele>1673.79</ele>
        <time>2015-06-07T11:05:24Z</time>
      </trkpt>
      <trkpt lat="45.09126" lon="2.64288">
        <ele>1669.95</ele>
        <time>2015-06-07T11:05:38Z</time>
      </trkpt>
      <trkpt lat="45.09116" lon="2.64292">
        <ele>1667.06</ele>
        <time>2015-06-07T11:05:49Z</time>
      </trkpt>
      <trkpt lat="45.09108" lon="2.643">
        <ele>1663.22</ele>
        <time>2015-06-07T11:06:01Z</time>
      </trkpt>
      <trkpt lat="45.09106" lon="2.64304">
        <ele>1662.74</ele>
        <time>2015-06-07T11:06:06Z</time>
      </trkpt>
      <trkpt lat="45.09095" lon="2.64312">
        <ele>1657.93</ele>
        <time>2015-06-07T11:06:18Z</time>
      </trkpt>
      <trkpt lat="45.09094" lon="2.64314">
        <ele>1656.97</ele>
        <time>2015-06-07T11:06:20Z</time>
      </trkpt>
      <trkpt lat="45.09091" lon="2.64321">
        <ele>1654.57</ele>
        <time>2015-06-07T11:06:26Z</time>
      </trkpt>
      <trkpt lat="45.09082" lon="2.64328">
        <ele>1652.16</ele>
        <time>2015-06-07T11:06:40Z</time>
      </trkpt>
      <trkpt lat="45.09071" lon="2.64336">
        <ele>1648.8</ele>
        <time>2015-06-07T11:06:53Z</time>
      </trkpt>
      <trkpt lat="45.09062" lon="2.64339">
        <ele>1645.91</ele>
        <time>2015-06-07T11:07:04Z</time>
      </trkpt>
      <trkpt lat="45.09048" lon="2.64348">
        <ele>1643.03</ele>
        <time>2015-06-07T11:07:16Z</time>
      </trkpt>
      <trkpt lat="45.09045" lon="2.64353">
        <ele>1640.63</ele>
        <time>2015-06-07T11:07:27Z</time>
      </trkpt>
      <trkpt lat="45.09039" lon="2.64359">
        <ele>1638.22</ele>
        <time>2015-06-07T11:07:37Z</time>
      </trkpt>
      <trkpt lat="45.0903" lon="2.64371">
        <ele>1636.3</ele>
        <time>2015-06-07T11:07:50Z</time>
      </trkpt>
      <trkpt lat="45.09019" lon="2.6438">
        <ele>1633.9</ele>
        <time>2015-06-07T11:08:02Z</time>
      </trkpt>
      <trkpt lat="45.09006" lon="2.64391">
        <ele>1630.53</ele>
        <time>2015-06-07T11:08:15Z</time>
      </trkpt>
      <trkpt lat="45.08996" lon="2.64397">
        <ele>1627.17</ele>
        <time>2015-06-07T11:08:25Z</time>
      </trkpt>
      <trkpt lat="45.08984" lon="2.64403">
        <ele>1624.28</ele>
        <time>2015-06-07T11:08:35Z</time>
      </trkpt>
      <trkpt lat="45.08972" lon="2.64405">
        <ele>1623.8</ele>
        <time>2015-06-07T11:08:46Z</time>
      </trkpt>
      <trkpt lat="45.08958" lon="2.64408">
        <ele>1626.21</ele>
        <time>2015-06-07T11:08:57Z</time>
      </trkpt>
      <trkpt lat="45.08944" lon="2.6441">
        <ele>1625.73</ele>
        <time>2015-06-07T11:09:08Z</time>
      </trkpt>
      <trkpt lat="45.08938" lon="2.64411">
        <ele>1624.77</ele>
        <time>2015-06-07T11:09:13Z</time>
      </trkpt>
      <trkpt lat="45.08927" lon="2.64412">
        <ele>1622.36</ele>
        <time>2015-06-07T11:09:26Z</time>
      </trkpt>
      <trkpt lat="45.08918" lon="2.64412">
        <ele>1619.48</ele>
        <time>2015-06-07T11:09:37Z</time>
      </trkpt>
      <trkpt lat="45.08914" lon="2.64411">
        <ele>1618.04</ele>
        <time>2015-06-07T11:09:49Z</time>
      </trkpt>
      <trkpt lat="45.08913" lon="2.64412">
        <ele>1617.56</ele>
        <time>2015-06-07T11:10:06Z</time>
      </trkpt>
      <trkpt lat="45.08913" lon="2.64412">
        <ele>1617.07</ele>
        <time>2015-06-07T11:10:24Z</time>
      </trkpt>
      <trkpt lat="45.08912" lon="2.64412">
        <ele>1617.07</ele>
        <time>2015-06-07T11:10:38Z</time>
      </trkpt>
      <trkpt lat="45.08911" lon="2.64411">
        <ele>1616.59</ele>
        <time>2015-06-07T11:10:49Z</time>
      </trkpt>
      <trkpt lat="45.08911" lon="2.64411">
        <ele>1616.59</ele>
        <time>2015-06-07T11:10:52Z</time>
      </trkpt>
      <trkpt lat="45.08905" lon="2.64409">
        <ele>1615.15</ele>
        <time>2015-06-07T11:11:03Z</time>
      </trkpt>
      <trkpt lat="45.08902" lon="2.64408">
        <ele>1613.23</ele>
        <time>2015-06-07T11:11:10Z</time>
      </trkpt>
      <trkpt lat="45.08893" lon="2.64405">
        <ele>1611.31</ele>
        <time>2015-06-07T11:11:24Z</time>
      </trkpt>
      <trkpt lat="45.08889" lon="2.644">
        <ele>1609.38</ele>
        <time>2015-06-07T11:11:36Z</time>
      </trkpt>
      <trkpt lat="45.08888" lon="2.64393">
        <ele>1607.94</ele>
        <time>2015-06-07T11:11:42Z</time>
      </trkpt>
      <trkpt lat="45.08885" lon="2.6438">
        <ele>1605.54</ele>
        <time>2015-06-07T11:11:54Z</time>
      </trkpt>
      <trkpt lat="45.08882" lon="2.64374">
        <ele>1604.1</ele>
        <time>2015-06-07T11:12:05Z</time>
      </trkpt>
      <trkpt lat="45.08882" lon="2.64368">
        <ele>1602.17</ele>
        <time>2015-06-07T11:12:17Z</time>
      </trkpt>
      <trkpt lat="45.0888" lon="2.64364">
        <ele>1600.25</ele>
        <time>2015-06-07T11:12:29Z</time>
      </trkpt>
      <trkpt lat="45.08876" lon="2.64363">
        <ele>1600.25</ele>
        <time>2015-06-07T11:12:35Z</time>
      </trkpt>
      <trkpt lat="45.08868" lon="2.64368">
        <ele>1598.81</ele>
        <time>2015-06-07T11:12:47Z</time>
      </trkpt>
      <trkpt lat="45.08863" lon="2.64371">
        <ele>1596.89</ele>
        <time>2015-06-07T11:12:58Z</time>
      </trkpt>
      <trkpt lat="45.08856" lon="2.64376">
        <ele>1592.56</ele>
        <time>2015-06-07T11:13:10Z</time>
      </trkpt>
      <trkpt lat="45.08851" lon="2.64378">
        <ele>1588.72</ele>
        <time>2015-06-07T11:13:21Z</time>
      </trkpt>
      <trkpt lat="45.08851" lon="2.64379">
        <ele>1587.27</ele>
        <time>2015-06-07T11:13:38Z</time>
      </trkpt>
      <trkpt lat="45.08851" lon="2.64379">
        <ele>1586.31</ele>
        <time>2015-06-07T11:13:50Z</time>
      </trkpt>
      <trkpt lat="45.08846" lon="2.6438">
        <ele>1584.39</ele>
        <time>2015-06-07T11:13:58Z</time>
      </trkpt>
      <trkpt lat="45.08834" lon="2.64384">
        <ele>1581.51</ele>
        <time>2015-06-07T11:14:11Z</time>
      </trkpt>
      <trkpt lat="45.08827" lon="2.64384">
        <ele>1578.62</ele>
        <time>2015-06-07T11:14:23Z</time>
      </trkpt>
      <trkpt lat="45.08817" lon="2.64386">
        <ele>1574.78</ele>
        <time>2015-06-07T11:14:36Z</time>
      </trkpt>
      <trkpt lat="45.08816" lon="2.64387">
        <ele>1573.82</ele>
        <time>2015-06-07T11:14:50Z</time>
      </trkpt>
      <trkpt lat="45.08809" lon="2.64387">
        <ele>1570.45</ele>
        <time>2015-06-07T11:15:01Z</time>
      </trkpt>
      <trkpt lat="45.08799" lon="2.64389">
        <ele>1564.68</ele>
        <time>2015-06-07T11:15:14Z</time>
      </trkpt>
      <trkpt lat="45.08795" lon="2.64392">
        <ele>1563.72</ele>
        <time>2015-06-07T11:15:27Z</time>
      </trkpt>
      <trkpt lat="45.08794" lon="2.64392">
        <ele>1563.72</ele>
        <time>2015-06-07T11:15:31Z</time>
      </trkpt>
      <trkpt lat="45.08794" lon="2.64392">
        <ele>1563.72</ele>
        <time>2015-06-07T11:15:41Z</time>
      </trkpt>
      <trkpt lat="45.08794" lon="2.64392">
        <ele>1563.24</ele>
        <time>2015-06-07T11:16:17Z</time>
      </trkpt>
      <trkpt lat="45.08794" lon="2.64392">
        <ele>1563.24</ele>
        <time>2015-06-07T11:16:46Z</time>
      </trkpt>
      <trkpt lat="45.08794" lon="2.64392">
        <ele>1564.2</ele>
        <time>2015-06-07T11:17:13Z</time>
      </trkpt>
      <trkpt lat="45.08794" lon="2.64392">
        <ele>1564.68</ele>
        <time>2015-06-07T11:17:42Z</time>
      </trkpt>
      <trkpt lat="45.08794" lon="2.64392">
        <ele>1564.68</ele>
        <time>2015-06-07T11:18:09Z</time>
      </trkpt>
      <trkpt lat="45.08794" lon="2.64392">
        <ele>1564.68</ele>
        <time>2015-06-07T11:18:37Z</time>
      </trkpt>
      <trkpt lat="45.08793" lon="2.64393">
        <ele>1565.16</ele>
        <time>2015-06-07T11:18:57Z</time>
      </trkpt>
      <trkpt lat="45.08793" lon="2.64392">
        <ele>1565.16</ele>
        <time>2015-06-07T11:19:09Z</time>
      </trkpt>
      <trkpt lat="45.08793" lon="2.64392">
        <ele>1564.68</ele>
        <time>2015-06-07T11:19:22Z</time>
      </trkpt>
      <trkpt lat="45.08793" lon="2.64392">
        <ele>1564.2</ele>
        <time>2015-06-07T11:19:40Z</time>
      </trkpt>
      <trkpt lat="45.08793" lon="2.64393">
        <ele>1564.2</ele>
        <time>2015-06-07T11:19:55Z</time>
      </trkpt>
      <trkpt lat="45.08793" lon="2.64393">
        <ele>1564.2</ele>
        <time>2015-06-07T11:20:13Z</time>
      </trkpt>
      <trkpt lat="45.08793" lon="2.64393">
        <ele>1563.72</ele>
        <time>2015-06-07T11:20:32Z</time>
      </trkpt>
      <trkpt lat="45.08793" lon="2.64393">
        <ele>1564.2</ele>
        <time>2015-06-07T11:20:49Z</time>
      </trkpt>
      <trkpt lat="45.08793" lon="2.64393">
        <ele>1563.72</ele>
        <time>2015-06-07T11:21:08Z</time>
      </trkpt>
      <trkpt lat="45.08793" lon="2.64392">
        <ele>1563.72</ele>
        <time>2015-06-07T11:21:29Z</time>
      </trkpt>
      <trkpt lat="45.08793" lon="2.64392">
        <ele>1563.72</ele>
        <time>2015-06-07T11:21:56Z</time>
      </trkpt>
      <trkpt lat="45.08788" lon="2.64397">
        <ele>1562.28</ele>
        <time>2015-06-07T11:22:08Z</time>
      </trkpt>
      <trkpt lat="45.08781" lon="2.644">
        <ele>1561.8</ele>
        <time>2015-06-07T11:22:15Z</time>
      </trkpt>
      <trkpt lat="45.0877" lon="2.644">
        <ele>1558.92</ele>
        <time>2015-06-07T11:22:29Z</time>
      </trkpt>
      <trkpt lat="45.08761" lon="2.64402">
        <ele>1556.51</ele>
        <time>2015-06-07T11:22:37Z</time>
      </trkpt>
      <trkpt lat="45.0875" lon="2.64408">
        <ele>1553.63</ele>
        <time>2015-06-07T11:22:48Z</time>
      </trkpt>
      <trkpt lat="45.08736" lon="2.64416">
        <ele>1551.71</ele>
        <time>2015-06-07T11:23:02Z</time>
      </trkpt>
      <trkpt lat="45.08722" lon="2.64422">
        <ele>1550.74</ele>
        <time>2015-06-07T11:23:14Z</time>
      </trkpt>
      <trkpt lat="45.08719" lon="2.64423">
        <ele>1550.26</ele>
        <time>2015-06-07T11:23:17Z</time>
      </trkpt>
      <trkpt lat="45.08704" lon="2.64433">
        <ele>1547.86</ele>
        <time>2015-06-07T11:23:31Z</time>
      </trkpt>
      <trkpt lat="45.08689" lon="2.6444">
        <ele>1545.94</ele>
        <time>2015-06-07T11:23:43Z</time>
      </trkpt>
      <trkpt lat="45.08674" lon="2.64449">
        <ele>1543.05</ele>
        <time>2015-06-07T11:23:55Z</time>
      </trkpt>
      <trkpt lat="45.08658" lon="2.64453">
        <ele>1542.09</ele>
        <time>2015-06-07T11:24:08Z</time>
      </trkpt>
      <trkpt lat="45.08653" lon="2.64454">
        <ele>1542.09</ele>
        <time>2015-06-07T11:24:12Z</time>
      </trkpt>
      <trkpt lat="45.08646" lon="2.64454">
        <ele>1541.61</ele>
        <time>2015-06-07T11:24:17Z</time>
      </trkpt>
      <trkpt lat="45.08631" lon="2.64456">
        <ele>1542.57</ele>
        <time>2015-06-07T11:24:30Z</time>
      </trkpt>
      <trkpt lat="45.08628" lon="2.64456">
        <ele>1543.05</ele>
        <time>2015-06-07T11:24:33Z</time>
      </trkpt>
      <trkpt lat="45.08611" lon="2.64449">
        <ele>1545.46</ele>
        <time>2015-06-07T11:24:47Z</time>
      </trkpt>
      <trkpt lat="45.08596" lon="2.64444">
        <ele>1545.94</ele>
        <time>2015-06-07T11:25:00Z</time>
      </trkpt>
      <trkpt lat="45.08581" lon="2.64437">
        <ele>1547.86</ele>
        <time>2015-06-07T11:25:15Z</time>
      </trkpt>
      <trkpt lat="45.08568" lon="2.64427">
        <ele>1548.82</ele>
        <time>2015-06-07T11:25:30Z</time>
      </trkpt>
      <trkpt lat="45.08559" lon="2.64418">
        <ele>1549.78</ele>
        <time>2015-06-07T11:25:42Z</time>
      </trkpt>
      <trkpt lat="45.08555" lon="2.64413">
        <ele>1550.74</ele>
        <time>2015-06-07T11:25:58Z</time>
      </trkpt>
      <trkpt lat="45.08555" lon="2.64408">
        <ele>1550.74</ele>
        <time>2015-06-07T11:26:03Z</time>
      </trkpt>
      <trkpt lat="45.08555" lon="2.64407">
        <ele>1550.74</ele>
        <time>2015-06-07T11:26:13Z</time>
      </trkpt>
      <trkpt lat="45.08553" lon="2.64403">
        <ele>1551.22</ele>
        <time>2015-06-07T11:26:20Z</time>
      </trkpt>
      <trkpt lat="45.08549" lon="2.64393">
        <ele>1552.19</ele>
        <time>2015-06-07T11:26:27Z</time>
      </trkpt>
      <trkpt lat="45.08547" lon="2.64391">
        <ele>1552.67</ele>
        <time>2015-06-07T11:26:29Z</time>
      </trkpt>
      <trkpt lat="45.0854" lon="2.64379">
        <ele>1552.19</ele>
        <time>2015-06-07T11:26:38Z</time>
      </trkpt>
      <trkpt lat="45.08536" lon="2.64371">
        <ele>1553.63</ele>
        <time>2015-06-07T11:26:44Z</time>
      </trkpt>
      <trkpt lat="45.08527" lon="2.64362">
        <ele>1555.07</ele>
        <time>2015-06-07T11:26:53Z</time>
      </trkpt>
      <trkpt lat="45.0852" lon="2.64351">
        <ele>1555.55</ele>
        <time>2015-06-07T11:27:03Z</time>
      </trkpt>
      <trkpt lat="45.08517" lon="2.64347">
        <ele>1556.03</ele>
        <time>2015-06-07T11:27:07Z</time>
      </trkpt>
      <trkpt lat="45.0851" lon="2.64339">
        <ele>1556.51</ele>
        <time>2015-06-07T11:27:16Z</time>
      </trkpt>
      <trkpt lat="45.08509" lon="2.64334">
        <ele>1556.51</ele>
        <time>2015-06-07T11:27:19Z</time>
      </trkpt>
      <trkpt lat="45.08501" lon="2.64322">
        <ele>1556.99</ele>
        <time>2015-06-07T11:27:31Z</time>
      </trkpt>
      <trkpt lat="45.08498" lon="2.64317">
        <ele>1557.47</ele>
        <time>2015-06-07T11:27:35Z</time>
      </trkpt>
      <trkpt lat="45.0849" lon="2.64304">
        <ele>1558.43</ele>
        <time>2015-06-07T11:27:45Z</time>
      </trkpt>
      <trkpt lat="45.08487" lon="2.64299">
        <ele>1557.95</ele>
        <time>2015-06-07T11:27:49Z</time>
      </trkpt>
      <trkpt lat="45.08482" lon="2.64293">
        <ele>1558.43</ele>
        <time>2015-06-07T11:27:54Z</time>
      </trkpt>
      <trkpt lat="45.08481" lon="2.64291">
        <ele>1558.43</ele>
        <time>2015-06-07T11:27:56Z</time>
      </trkpt>
      <trkpt lat="45.08479" lon="2.64286">
        <ele>1557.95</ele>
        <time>2015-06-07T11:28:00Z</time>
      </trkpt>
      <trkpt lat="45.08469" lon="2.64269">
        <ele>1557.47</ele>
        <time>2015-06-07T11:28:14Z</time>
      </trkpt>
      <trkpt lat="45.08465" lon="2.64262">
        <ele>1558.43</ele>
        <time>2015-06-07T11:28:20Z</time>
      </trkpt>
      <trkpt lat="45.08455" lon="2.6425">
        <ele>1561.32</ele>
        <time>2015-06-07T11:28:35Z</time>
      </trkpt>
      <trkpt lat="45.08454" lon="2.64246">
        <ele>1561.32</ele>
        <time>2015-06-07T11:28:38Z</time>
      </trkpt>
      <trkpt lat="45.08442" lon="2.64231">
        <ele>1562.76</ele>
        <time>2015-06-07T11:28:54Z</time>
      </trkpt>
      <trkpt lat="45.08437" lon="2.64221">
        <ele>1564.2</ele>
        <time>2015-06-07T11:29:03Z</time>
      </trkpt>
      <trkpt lat="45.08426" lon="2.64204">
        <ele>1566.61</ele>
        <time>2015-06-07T11:29:18Z</time>
      </trkpt>
      <trkpt lat="45.08417" lon="2.64188">
        <ele>1569.49</ele>
        <time>2015-06-07T11:29:32Z</time>
      </trkpt>
      <trkpt lat="45.08415" lon="2.64184">
        <ele>1569.97</ele>
        <time>2015-06-07T11:29:36Z</time>
      </trkpt>
      <trkpt lat="45.0841" lon="2.64168">
        <ele>1568.53</ele>
        <time>2015-06-07T11:29:50Z</time>
      </trkpt>
      <trkpt lat="45.08407" lon="2.64154">
        <ele>1569.01</ele>
        <time>2015-06-07T11:30:03Z</time>
      </trkpt>
      <trkpt lat="45.08405" lon="2.64141">
        <ele>1570.45</ele>
        <time>2015-06-07T11:30:13Z</time>
      </trkpt>
      <trkpt lat="45.08402" lon="2.64137">
        <ele>1570.93</ele>
        <time>2015-06-07T11:30:20Z</time>
      </trkpt>
      <trkpt lat="45.08399" lon="2.64127">
        <ele>1571.41</ele>
        <time>2015-06-07T11:30:32Z</time>
      </trkpt>
      <trkpt lat="45.08398" lon="2.64124">
        <ele>1571.89</ele>
        <time>2015-06-07T11:30:37Z</time>
      </trkpt>
      <trkpt lat="45.08398" lon="2.64118">
        <ele>1572.37</ele>
        <time>2015-06-07T11:30:42Z</time>
      </trkpt>
      <trkpt lat="45.08397" lon="2.64106">
        <ele>1572.37</ele>
        <time>2015-06-07T11:30:55Z</time>
      </trkpt>
      <trkpt lat="45.08393" lon="2.64096">
        <ele>1573.33</ele>
        <time>2015-06-07T11:31:07Z</time>
      </trkpt>
      <trkpt lat="45.08392" lon="2.64093">
        <ele>1573.33</ele>
        <time>2015-06-07T11:31:09Z</time>
      </trkpt>
      <trkpt lat="45.08388" lon="2.64083">
        <ele>1574.78</ele>
        <time>2015-06-07T11:31:21Z</time>
      </trkpt>
      <trkpt lat="45.08384" lon="2.64071">
        <ele>1575.74</ele>
        <time>2015-06-07T11:31:34Z</time>
      </trkpt>
      <trkpt lat="45.08383" lon="2.6407">
        <ele>1576.22</ele>
        <time>2015-06-07T11:31:36Z</time>
      </trkpt>
      <trkpt lat="45.08377" lon="2.64063">
        <ele>1579.1</ele>
        <time>2015-06-07T11:31:49Z</time>
      </trkpt>
      <trkpt lat="45.08377" lon="2.64056">
        <ele>1578.62</ele>
        <time>2015-06-07T11:32:00Z</time>
      </trkpt>
      <trkpt lat="45.08373" lon="2.64049">
        <ele>1578.62</ele>
        <time>2015-06-07T11:32:12Z</time>
      </trkpt>
      <trkpt lat="45.0837" lon="2.6404">
        <ele>1580.54</ele>
        <time>2015-06-07T11:32:24Z</time>
      </trkpt>
      <trkpt lat="45.08368" lon="2.64032">
        <ele>1581.03</ele>
        <time>2015-06-07T11:32:36Z</time>
      </trkpt>
      <trkpt lat="45.08363" lon="2.64019">
        <ele>1581.51</ele>
        <time>2015-06-07T11:32:49Z</time>
      </trkpt>
      <trkpt lat="45.08358" lon="2.64004">
        <ele>1583.43</ele>
        <time>2015-06-07T11:33:03Z</time>
      </trkpt>
      <trkpt lat="45.08356" lon="2.63999">
        <ele>1582.95</ele>
        <time>2015-06-07T11:33:07Z</time>
      </trkpt>
      <trkpt lat="45.08353" lon="2.63988">
        <ele>1581.03</ele>
        <time>2015-06-07T11:33:20Z</time>
      </trkpt>
      <trkpt lat="45.0835" lon="2.6398">
        <ele>1582.95</ele>
        <time>2015-06-07T11:33:32Z</time>
      </trkpt>
      <trkpt lat="45.08349" lon="2.63976">
        <ele>1583.91</ele>
        <time>2015-06-07T11:33:39Z</time>
      </trkpt>
      <trkpt lat="45.08348" lon="2.63968">
        <ele>1584.39</ele>
        <time>2015-06-07T11:33:45Z</time>
      </trkpt>
      <trkpt lat="45.08341" lon="2.63959">
        <ele>1584.87</ele>
        <time>2015-06-07T11:33:57Z</time>
      </trkpt>
      <trkpt lat="45.0834" lon="2.63956">
        <ele>1585.35</ele>
        <time>2015-06-07T11:34:00Z</time>
      </trkpt>
      <trkpt lat="45.08334" lon="2.63942">
        <ele>1586.31</ele>
        <time>2015-06-07T11:34:13Z</time>
      </trkpt>
      <trkpt lat="45.08331" lon="2.63934">
        <ele>1587.27</ele>
        <time>2015-06-07T11:34:24Z</time>
      </trkpt>
      <trkpt lat="45.0833" lon="2.63932">
        <ele>1587.27</ele>
        <time>2015-06-07T11:34:26Z</time>
      </trkpt>
      <trkpt lat="45.08329" lon="2.63929">
        <ele>1587.75</ele>
        <time>2015-06-07T11:34:30Z</time>
      </trkpt>
      <trkpt lat="45.08326" lon="2.63916">
        <ele>1589.2</ele>
        <time>2015-06-07T11:34:41Z</time>
      </trkpt>
      <trkpt lat="45.08321" lon="2.63909">
        <ele>1590.64</ele>
        <time>2015-06-07T11:34:53Z</time>
      </trkpt>
      <trkpt lat="45.08319" lon="2.63905">
        <ele>1591.12</ele>
        <time>2015-06-07T11:34:59Z</time>
      </trkpt>
      <trkpt lat="45.08317" lon="2.63898">
        <ele>1592.56</ele>
        <time>2015-06-07T11:35:07Z</time>
      </trkpt>
      <trkpt lat="45.08307" lon="2.63887">
        <ele>1594.48</ele>
        <time>2015-06-07T11:35:20Z</time>
      </trkpt>
      <trkpt lat="45.08299" lon="2.63876">
        <ele>1596.89</ele>
        <time>2015-06-07T11:35:33Z</time>
      </trkpt>
      <trkpt lat="45.08288" lon="2.63864">
        <ele>1599.29</ele>
        <time>2015-06-07T11:35:48Z</time>
      </trkpt>
      <trkpt lat="45.08281" lon="2.63851">
        <ele>1600.73</ele>
        <time>2015-06-07T11:36:00Z</time>
      </trkpt>
      <trkpt lat="45.08279" lon="2.63845">
        <ele>1601.21</ele>
        <time>2015-06-07T11:36:04Z</time>
      </trkpt>
      <trkpt lat="45.08276" lon="2.6384">
        <ele>1600.73</ele>
        <time>2015-06-07T11:36:09Z</time>
      </trkpt>
      <trkpt lat="45.08268" lon="2.63825">
        <ele>1600.73</ele>
        <time>2015-06-07T11:36:22Z</time>
      </trkpt>
      <trkpt lat="45.08262" lon="2.63811">
        <ele>1601.69</ele>
        <time>2015-06-07T11:36:34Z</time>
      </trkpt>
      <trkpt lat="45.08261" lon="2.6381">
        <ele>1601.69</ele>
        <time>2015-06-07T11:36:35Z</time>
      </trkpt>
      <trkpt lat="45.08253" lon="2.63797">
        <ele>1601.69</ele>
        <time>2015-06-07T11:36:47Z</time>
      </trkpt>
      <trkpt lat="45.08251" lon="2.63792">
        <ele>1602.17</ele>
        <time>2015-06-07T11:36:51Z</time>
      </trkpt>
      <trkpt lat="45.08247" lon="2.63779">
        <ele>1602.66</ele>
        <time>2015-06-07T11:37:03Z</time>
      </trkpt>
      <trkpt lat="45.0824" lon="2.6377">
        <ele>1601.21</ele>
        <time>2015-06-07T11:37:15Z</time>
      </trkpt>
      <trkpt lat="45.08237" lon="2.63766">
        <ele>1599.29</ele>
        <time>2015-06-07T11:37:21Z</time>
      </trkpt>
      <trkpt lat="45.08235" lon="2.63766">
        <ele>1598.81</ele>
        <time>2015-06-07T11:37:23Z</time>
      </trkpt>
      <trkpt lat="45.08226" lon="2.63763">
        <ele>1597.37</ele>
        <time>2015-06-07T11:37:37Z</time>
      </trkpt>
      <trkpt lat="45.08225" lon="2.6376">
        <ele>1596.41</ele>
        <time>2015-06-07T11:37:49Z</time>
      </trkpt>
      <trkpt lat="45.08223" lon="2.63753">
        <ele>1595.93</ele>
        <time>2015-06-07T11:38:02Z</time>
      </trkpt>
      <trkpt lat="45.08222" lon="2.63752">
        <ele>1594.48</ele>
        <time>2015-06-07T11:38:17Z</time>
      </trkpt>
      <trkpt lat="45.08222" lon="2.63751">
        <ele>1594</ele>
        <time>2015-06-07T11:38:33Z</time>
      </trkpt>
      <trkpt lat="45.08221" lon="2.63749">
        <ele>1593.52</ele>
        <time>2015-06-07T11:38:48Z</time>
      </trkpt>
      <trkpt lat="45.08221" lon="2.63748">
        <ele>1592.08</ele>
        <time>2015-06-07T11:39:17Z</time>
      </trkpt>
      <trkpt lat="45.08221" lon="2.63747">
        <ele>1591.12</ele>
        <time>2015-06-07T11:39:37Z</time>
      </trkpt>
      <trkpt lat="45.08222" lon="2.63744">
        <ele>1589.68</ele>
        <time>2015-06-07T11:39:53Z</time>
      </trkpt>
      <trkpt lat="45.08222" lon="2.63743">
        <ele>1588.72</ele>
        <time>2015-06-07T11:39:55Z</time>
      </trkpt>
      <trkpt lat="45.0822" lon="2.63739">
        <ele>1587.27</ele>
        <time>2015-06-07T11:40:03Z</time>
      </trkpt>
      <trkpt lat="45.08217" lon="2.63734">
        <ele>1587.27</ele>
        <time>2015-06-07T11:40:17Z</time>
      </trkpt>
      <trkpt lat="45.08214" lon="2.63726">
        <ele>1584.87</ele>
        <time>2015-06-07T11:40:27Z</time>
      </trkpt>
      <trkpt lat="45.0821" lon="2.63716">
        <ele>1581.99</ele>
        <time>2015-06-07T11:40:36Z</time>
      </trkpt>
      <trkpt lat="45.08206" lon="2.63709">
        <ele>1581.03</ele>
        <time>2015-06-07T11:40:43Z</time>
      </trkpt>
      <trkpt lat="45.08204" lon="2.63706">
        <ele>1580.06</ele>
        <time>2015-06-07T11:40:47Z</time>
      </trkpt>
      <trkpt lat="45.08199" lon="2.637">
        <ele>1579.58</ele>
        <time>2015-06-07T11:40:54Z</time>
      </trkpt>
      <trkpt lat="45.08198" lon="2.63692">
        <ele>1579.58</ele>
        <time>2015-06-07T11:41:01Z</time>
      </trkpt>
      <trkpt lat="45.08196" lon="2.63686">
        <ele>1578.62</ele>
        <time>2015-06-07T11:41:10Z</time>
      </trkpt>
      <trkpt lat="45.08196" lon="2.63685">
        <ele>1578.14</ele>
        <time>2015-06-07T11:41:12Z</time>
      </trkpt>
      <trkpt lat="45.08196" lon="2.6368">
        <ele>1577.66</ele>
        <time>2015-06-07T11:41:18Z</time>
      </trkpt>
      <trkpt lat="45.08194" lon="2.63673">
        <ele>1576.22</ele>
        <time>2015-06-07T11:41:27Z</time>
      </trkpt>
      <trkpt lat="45.08192" lon="2.63664">
        <ele>1574.78</ele>
        <time>2015-06-07T11:41:33Z</time>
      </trkpt>
      <trkpt lat="45.0819" lon="2.6366">
        <ele>1574.3</ele>
        <time>2015-06-07T11:41:36Z</time>
      </trkpt>
      <trkpt lat="45.08191" lon="2.63643">
        <ele>1571.89</ele>
        <time>2015-06-07T11:41:47Z</time>
      </trkpt>
      <trkpt lat="45.08191" lon="2.63641">
        <ele>1571.89</ele>
        <time>2015-06-07T11:41:48Z</time>
      </trkpt>
      <trkpt lat="45.0819" lon="2.63637">
        <ele>1571.89</ele>
        <time>2015-06-07T11:41:52Z</time>
      </trkpt>
      <trkpt lat="45.08187" lon="2.63629">
        <ele>1571.89</ele>
        <time>2015-06-07T11:42:01Z</time>
      </trkpt>
      <trkpt lat="45.08184" lon="2.63618">
        <ele>1571.89</ele>
        <time>2015-06-07T11:42:10Z</time>
      </trkpt>
      <trkpt lat="45.08185" lon="2.63609">
        <ele>1569.97</ele>
        <time>2015-06-07T11:42:20Z</time>
      </trkpt>
      <trkpt lat="45.08185" lon="2.63603">
        <ele>1569.01</ele>
        <time>2015-06-07T11:42:31Z</time>
      </trkpt>
      <trkpt lat="45.08187" lon="2.636">
        <ele>1567.57</ele>
        <time>2015-06-07T11:42:42Z</time>
      </trkpt>
      <trkpt lat="45.08187" lon="2.63599">
        <ele>1568.05</ele>
        <time>2015-06-07T11:42:54Z</time>
      </trkpt>
      <trkpt lat="45.0819" lon="2.63592">
        <ele>1567.09</ele>
        <time>2015-06-07T11:43:06Z</time>
      </trkpt>
      <trkpt lat="45.0819" lon="2.63588">
        <ele>1565.64</ele>
        <time>2015-06-07T11:43:19Z</time>
      </trkpt>
      <trkpt lat="45.0819" lon="2.63584">
        <ele>1564.68</ele>
        <time>2015-06-07T11:43:32Z</time>
      </trkpt>
      <trkpt lat="45.0819" lon="2.63582">
        <ele>1563.72</ele>
        <time>2015-06-07T11:43:41Z</time>
      </trkpt>
      <trkpt lat="45.0819" lon="2.63575">
        <ele>1563.24</ele>
        <time>2015-06-07T11:43:51Z</time>
      </trkpt>
      <trkpt lat="45.08189" lon="2.63569">
        <ele>1563.72</ele>
        <time>2015-06-07T11:44:01Z</time>
      </trkpt>
      <trkpt lat="45.08188" lon="2.63563">
        <ele>1563.72</ele>
        <time>2015-06-07T11:44:16Z</time>
      </trkpt>
      <trkpt lat="45.08187" lon="2.63561">
        <ele>1562.76</ele>
        <time>2015-06-07T11:44:25Z</time>
      </trkpt>
      <trkpt lat="45.08185" lon="2.63558">
        <ele>1562.28</ele>
        <time>2015-06-07T11:44:29Z</time>
      </trkpt>
      <trkpt lat="45.08183" lon="2.63551">
        <ele>1561.32</ele>
        <time>2015-06-07T11:44:41Z</time>
      </trkpt>
      <trkpt lat="45.08179" lon="2.63542">
        <ele>1559.4</ele>
        <time>2015-06-07T11:44:53Z</time>
      </trkpt>
      <trkpt lat="45.08177" lon="2.63532">
        <ele>1560.84</ele>
        <time>2015-06-07T11:45:06Z</time>
      </trkpt>
      <trkpt lat="45.08178" lon="2.63525">
        <ele>1560.84</ele>
        <time>2015-06-07T11:45:19Z</time>
      </trkpt>
      <trkpt lat="45.08177" lon="2.63524">
        <ele>1560.84</ele>
        <time>2015-06-07T11:45:25Z</time>
      </trkpt>
      <trkpt lat="45.08177" lon="2.6352">
        <ele>1560.36</ele>
        <time>2015-06-07T11:45:28Z</time>
      </trkpt>
      <trkpt lat="45.08175" lon="2.63511">
        <ele>1559.88</ele>
        <time>2015-06-07T11:45:39Z</time>
      </trkpt>
      <trkpt lat="45.08174" lon="2.63506">
        <ele>1559.88</ele>
        <time>2015-06-07T11:45:48Z</time>
      </trkpt>
      <trkpt lat="45.08174" lon="2.63505">
        <ele>1559.88</ele>
        <time>2015-06-07T11:45:51Z</time>
      </trkpt>
      <trkpt lat="45.08172" lon="2.63503">
        <ele>1558.92</ele>
        <time>2015-06-07T11:46:01Z</time>
      </trkpt>
      <trkpt lat="45.08171" lon="2.63502">
        <ele>1559.4</ele>
        <time>2015-06-07T11:46:19Z</time>
      </trkpt>
      <trkpt lat="45.08171" lon="2.63502">
        <ele>1559.4</ele>
        <time>2015-06-07T11:46:22Z</time>
      </trkpt>
      <trkpt lat="45.0817" lon="2.63506">
        <ele>1559.88</ele>
        <time>2015-06-07T11:46:33Z</time>
      </trkpt>
      <trkpt lat="45.08168" lon="2.63506">
        <ele>1562.28</ele>
        <time>2015-06-07T11:46:44Z</time>
      </trkpt>
      <trkpt lat="45.08165" lon="2.63504">
        <ele>1564.2</ele>
        <time>2015-06-07T11:46:47Z</time>
      </trkpt>
      <trkpt lat="45.08162" lon="2.63502">
        <ele>1566.12</ele>
        <time>2015-06-07T11:46:53Z</time>
      </trkpt>
      <trkpt lat="45.08159" lon="2.63493">
        <ele>1566.61</ele>
        <time>2015-06-07T11:47:01Z</time>
      </trkpt>
      <trkpt lat="45.08155" lon="2.63487">
        <ele>1566.61</ele>
        <time>2015-06-07T11:47:10Z</time>
      </trkpt>
      <trkpt lat="45.08152" lon="2.63487">
        <ele>1568.05</ele>
        <time>2015-06-07T11:47:16Z</time>
      </trkpt>
      <trkpt lat="45.08145" lon="2.63482">
        <ele>1568.53</ele>
        <time>2015-06-07T11:47:25Z</time>
      </trkpt>
      <trkpt lat="45.08143" lon="2.63481">
        <ele>1568.53</ele>
        <time>2015-06-07T11:47:27Z</time>
      </trkpt>
      <trkpt lat="45.08142" lon="2.63479">
        <ele>1569.01</ele>
        <time>2015-06-07T11:47:30Z</time>
      </trkpt>
      <trkpt lat="45.08139" lon="2.63473">
        <ele>1569.49</ele>
        <time>2015-06-07T11:47:38Z</time>
      </trkpt>
      <trkpt lat="45.08135" lon="2.63469">
        <ele>1571.89</ele>
        <time>2015-06-07T11:47:43Z</time>
      </trkpt>
      <trkpt lat="45.08132" lon="2.63466">
        <ele>1571.89</ele>
        <time>2015-06-07T11:47:46Z</time>
      </trkpt>
      <trkpt lat="45.0813" lon="2.63462">
        <ele>1572.37</ele>
        <time>2015-06-07T11:47:49Z</time>
      </trkpt>
      <trkpt lat="45.08129" lon="2.6346">
        <ele>1572.37</ele>
        <time>2015-06-07T11:47:51Z</time>
      </trkpt>
      <trkpt lat="45.08125" lon="2.63455">
        <ele>1572.37</ele>
        <time>2015-06-07T11:47:57Z</time>
      </trkpt>
      <trkpt lat="45.08122" lon="2.6345">
        <ele>1571.89</ele>
        <time>2015-06-07T11:48:01Z</time>
      </trkpt>
      <trkpt lat="45.08117" lon="2.63441">
        <ele>1570.45</ele>
        <time>2015-06-07T11:48:10Z</time>
      </trkpt>
      <trkpt lat="45.08115" lon="2.63438">
        <ele>1570.45</ele>
        <time>2015-06-07T11:48:12Z</time>
      </trkpt>
      <trkpt lat="45.08113" lon="2.63436">
        <ele>1570.45</ele>
        <time>2015-06-07T11:48:15Z</time>
      </trkpt>
      <trkpt lat="45.08111" lon="2.63432">
        <ele>1570.93</ele>
        <time>2015-06-07T11:48:19Z</time>
      </trkpt>
      <trkpt lat="45.08109" lon="2.6343">
        <ele>1571.41</ele>
        <time>2015-06-07T11:48:21Z</time>
      </trkpt>
      <trkpt lat="45.08105" lon="2.63426">
        <ele>1570.93</ele>
        <time>2015-06-07T11:48:26Z</time>
      </trkpt>
      <trkpt lat="45.08104" lon="2.63422">
        <ele>1570.93</ele>
        <time>2015-06-07T11:48:30Z</time>
      </trkpt>
      <trkpt lat="45.08099" lon="2.63414">
        <ele>1571.89</ele>
        <time>2015-06-07T11:48:37Z</time>
      </trkpt>
      <trkpt lat="45.08097" lon="2.63409">
        <ele>1571.41</ele>
        <time>2015-06-07T11:48:41Z</time>
      </trkpt>
      <trkpt lat="45.08096" lon="2.63406">
        <ele>1570.93</ele>
        <time>2015-06-07T11:48:43Z</time>
      </trkpt>
      <trkpt lat="45.0809" lon="2.63398">
        <ele>1571.41</ele>
        <time>2015-06-07T11:48:51Z</time>
      </trkpt>
      <trkpt lat="45.08086" lon="2.63391">
        <ele>1569.97</ele>
        <time>2015-06-07T11:48:59Z</time>
      </trkpt>
      <trkpt lat="45.08084" lon="2.63389">
        <ele>1569.49</ele>
        <time>2015-06-07T11:49:01Z</time>
      </trkpt>
      <trkpt lat="45.08083" lon="2.63387">
        <ele>1568.53</ele>
        <time>2015-06-07T11:49:03Z</time>
      </trkpt>
      <trkpt lat="45.0808" lon="2.63385">
        <ele>1568.05</ele>
        <time>2015-06-07T11:49:06Z</time>
      </trkpt>
      <trkpt lat="45.08074" lon="2.63383">
        <ele>1568.53</ele>
        <time>2015-06-07T11:49:11Z</time>
      </trkpt>
      <trkpt lat="45.08072" lon="2.63379">
        <ele>1568.53</ele>
        <time>2015-06-07T11:49:15Z</time>
      </trkpt>
      <trkpt lat="45.08065" lon="2.63372">
        <ele>1569.01</ele>
        <time>2015-06-07T11:49:23Z</time>
      </trkpt>
      <trkpt lat="45.08063" lon="2.63372">
        <ele>1569.01</ele>
        <time>2015-06-07T11:49:26Z</time>
      </trkpt>
      <trkpt lat="45.0806" lon="2.63369">
        <ele>1570.45</ele>
        <time>2015-06-07T11:49:30Z</time>
      </trkpt>
      <trkpt lat="45.08057" lon="2.63367">
        <ele>1571.89</ele>
        <time>2015-06-07T11:49:34Z</time>
      </trkpt>
      <trkpt lat="45.08057" lon="2.63367">
        <ele>1573.33</ele>
        <time>2015-06-07T11:49:45Z</time>
      </trkpt>
      <trkpt lat="45.08057" lon="2.63367">
        <ele>1573.82</ele>
        <time>2015-06-07T11:49:50Z</time>
      </trkpt>
      <trkpt lat="45.08053" lon="2.63363">
        <ele>1574.3</ele>
        <time>2015-06-07T11:49:55Z</time>
      </trkpt>
      <trkpt lat="45.08052" lon="2.6336">
        <ele>1574.78</ele>
        <time>2015-06-07T11:49:57Z</time>
      </trkpt>
      <trkpt lat="45.08049" lon="2.63356">
        <ele>1575.74</ele>
        <time>2015-06-07T11:50:00Z</time>
      </trkpt>
      <trkpt lat="45.08044" lon="2.63351">
        <ele>1575.74</ele>
        <time>2015-06-07T11:50:08Z</time>
      </trkpt>
      <trkpt lat="45.08041" lon="2.63348">
        <ele>1576.22</ele>
        <time>2015-06-07T11:50:13Z</time>
      </trkpt>
      <trkpt lat="45.08033" lon="2.63342">
        <ele>1577.18</ele>
        <time>2015-06-07T11:50:22Z</time>
      </trkpt>
      <trkpt lat="45.08029" lon="2.63339">
        <ele>1577.18</ele>
        <time>2015-06-07T11:50:32Z</time>
      </trkpt>
      <trkpt lat="45.08028" lon="2.63337">
        <ele>1577.18</ele>
        <time>2015-06-07T11:50:39Z</time>
      </trkpt>
      <trkpt lat="45.08023" lon="2.63333">
        <ele>1577.66</ele>
        <time>2015-06-07T11:50:45Z</time>
      </trkpt>
      <trkpt lat="45.08016" lon="2.63328">
        <ele>1580.06</ele>
        <time>2015-06-07T11:50:54Z</time>
      </trkpt>
      <trkpt lat="45.08015" lon="2.63327">
        <ele>1580.54</ele>
        <time>2015-06-07T11:50:56Z</time>
      </trkpt>
      <trkpt lat="45.0801" lon="2.63323">
        <ele>1582.47</ele>
        <time>2015-06-07T11:51:02Z</time>
      </trkpt>
      <trkpt lat="45.08007" lon="2.63318">
        <ele>1582.95</ele>
        <time>2015-06-07T11:51:06Z</time>
      </trkpt>
      <trkpt lat="45.08002" lon="2.63309">
        <ele>1583.43</ele>
        <time>2015-06-07T11:51:14Z</time>
      </trkpt>
      <trkpt lat="45.07999" lon="2.63307">
        <ele>1582.95</ele>
        <time>2015-06-07T11:51:18Z</time>
      </trkpt>
      <trkpt lat="45.07997" lon="2.63304">
        <ele>1582.95</ele>
        <time>2015-06-07T11:51:21Z</time>
      </trkpt>
      <trkpt lat="45.07994" lon="2.63298">
        <ele>1581.99</ele>
        <time>2015-06-07T11:51:26Z</time>
      </trkpt>
      <trkpt lat="45.07992" lon="2.63296">
        <ele>1580.54</ele>
        <time>2015-06-07T11:51:32Z</time>
      </trkpt>
      <trkpt lat="45.07984" lon="2.63292">
        <ele>1579.1</ele>
        <time>2015-06-07T11:51:41Z</time>
      </trkpt>
      <trkpt lat="45.07982" lon="2.63289">
        <ele>1579.1</ele>
        <time>2015-06-07T11:51:44Z</time>
      </trkpt>
      <trkpt lat="45.07979" lon="2.63287">
        <ele>1578.62</ele>
        <time>2015-06-07T11:51:47Z</time>
      </trkpt>
      <trkpt lat="45.07971" lon="2.63278">
        <ele>1580.06</ele>
        <time>2015-06-07T11:51:57Z</time>
      </trkpt>
      <trkpt lat="45.0797" lon="2.63278">
        <ele>1580.06</ele>
        <time>2015-06-07T11:51:58Z</time>
      </trkpt>
      <trkpt lat="45.07966" lon="2.63269">
        <ele>1578.14</ele>
        <time>2015-06-07T11:52:09Z</time>
      </trkpt>
      <trkpt lat="45.07965" lon="2.63265">
        <ele>1578.62</ele>
        <time>2015-06-07T11:52:13Z</time>
      </trkpt>
      <trkpt lat="45.07962" lon="2.63262">
        <ele>1579.1</ele>
        <time>2015-06-07T11:52:16Z</time>
      </trkpt>
      <trkpt lat="45.07956" lon="2.63255">
        <ele>1578.62</ele>
        <time>2015-06-07T11:52:25Z</time>
      </trkpt>
      <trkpt lat="45.07954" lon="2.63247">
        <ele>1577.18</ele>
        <time>2015-06-07T11:52:38Z</time>
      </trkpt>
      <trkpt lat="45.07953" lon="2.63246">
        <ele>1576.7</ele>
        <time>2015-06-07T11:52:48Z</time>
      </trkpt>
      <trkpt lat="45.07952" lon="2.63243">
        <ele>1576.7</ele>
        <time>2015-06-07T11:52:52Z</time>
      </trkpt>
      <trkpt lat="45.0795" lon="2.63241">
        <ele>1576.22</ele>
        <time>2015-06-07T11:53:04Z</time>
      </trkpt>
      <trkpt lat="45.07948" lon="2.63233">
        <ele>1572.85</ele>
        <time>2015-06-07T11:53:14Z</time>
      </trkpt>
      <trkpt lat="45.07948" lon="2.63233">
        <ele>1572.37</ele>
        <time>2015-06-07T11:53:16Z</time>
      </trkpt>
      <trkpt lat="45.07943" lon="2.63223">
        <ele>1569.49</ele>
        <time>2015-06-07T11:53:29Z</time>
      </trkpt>
      <trkpt lat="45.07941" lon="2.6322">
        <ele>1568.53</ele>
        <time>2015-06-07T11:53:32Z</time>
      </trkpt>
      <trkpt lat="45.07939" lon="2.63218">
        <ele>1568.05</ele>
        <time>2015-06-07T11:53:44Z</time>
      </trkpt>
      <trkpt lat="45.07939" lon="2.63218">
        <ele>1568.05</ele>
        <time>2015-06-07T11:54:00Z</time>
      </trkpt>
      <trkpt lat="45.07938" lon="2.63214">
        <ele>1566.61</ele>
        <time>2015-06-07T11:54:13Z</time>
      </trkpt>
      <trkpt lat="45.07936" lon="2.63206">
        <ele>1566.12</ele>
        <time>2015-06-07T11:54:21Z</time>
      </trkpt>
      <trkpt lat="45.07933" lon="2.63198">
        <ele>1568.05</ele>
        <time>2015-06-07T11:54:31Z</time>
      </trkpt>
      <trkpt lat="45.07933" lon="2.63192">
        <ele>1568.05</ele>
        <time>2015-06-07T11:54:42Z</time>
      </trkpt>
      <trkpt lat="45.0793" lon="2.63183">
        <ele>1566.12</ele>
        <time>2015-06-07T11:54:54Z</time>
      </trkpt>
      <trkpt lat="45.07934" lon="2.63179">
        <ele>1562.28</ele>
        <time>2015-06-07T11:55:07Z</time>
      </trkpt>
      <trkpt lat="45.07934" lon="2.63171">
        <ele>1560.36</ele>
        <time>2015-06-07T11:55:19Z</time>
      </trkpt>
      <trkpt lat="45.07933" lon="2.6317">
        <ele>1560.36</ele>
        <time>2015-06-07T11:55:23Z</time>
      </trkpt>
      <trkpt lat="45.07931" lon="2.63169">
        <ele>1559.4</ele>
        <time>2015-06-07T11:55:27Z</time>
      </trkpt>
      <trkpt lat="45.07929" lon="2.63168">
        <ele>1556.99</ele>
        <time>2015-06-07T11:55:39Z</time>
      </trkpt>
      <trkpt lat="45.07929" lon="2.63167">
        <ele>1556.99</ele>
        <time>2015-06-07T11:55:50Z</time>
      </trkpt>
      <trkpt lat="45.07928" lon="2.63166">
        <ele>1556.51</ele>
        <time>2015-06-07T11:55:53Z</time>
      </trkpt>
      <trkpt lat="45.07925" lon="2.63162">
        <ele>1556.51</ele>
        <time>2015-06-07T11:56:03Z</time>
      </trkpt>
      <trkpt lat="45.07922" lon="2.63157">
        <ele>1555.55</ele>
        <time>2015-06-07T11:56:08Z</time>
      </trkpt>
      <trkpt lat="45.07914" lon="2.63142">
        <ele>1555.55</ele>
        <time>2015-06-07T11:56:20Z</time>
      </trkpt>
      <trkpt lat="45.07911" lon="2.63134">
        <ele>1554.59</ele>
        <time>2015-06-07T11:56:30Z</time>
      </trkpt>
      <trkpt lat="45.07909" lon="2.63124">
        <ele>1554.11</ele>
        <time>2015-06-07T11:56:40Z</time>
      </trkpt>
      <trkpt lat="45.07909" lon="2.63124">
        <ele>1554.59</ele>
        <time>2015-06-07T11:56:44Z</time>
      </trkpt>
      <trkpt lat="45.07906" lon="2.6312">
        <ele>1555.07</ele>
        <time>2015-06-07T11:56:48Z</time>
      </trkpt>
      <trkpt lat="45.07902" lon="2.63117">
        <ele>1556.99</ele>
        <time>2015-06-07T11:56:53Z</time>
      </trkpt>
      <trkpt lat="45.07899" lon="2.6311">
        <ele>1557.47</ele>
        <time>2015-06-07T11:57:00Z</time>
      </trkpt>
      <trkpt lat="45.07896" lon="2.63105">
        <ele>1558.43</ele>
        <time>2015-06-07T11:57:06Z</time>
      </trkpt>
      <trkpt lat="45.07891" lon="2.63094">
        <ele>1558.92</ele>
        <time>2015-06-07T11:57:17Z</time>
      </trkpt>
      <trkpt lat="45.07889" lon="2.63093">
        <ele>1558.92</ele>
        <time>2015-06-07T11:57:19Z</time>
      </trkpt>
      <trkpt lat="45.07885" lon="2.63084">
        <ele>1557.95</ele>
        <time>2015-06-07T11:57:30Z</time>
      </trkpt>
      <trkpt lat="45.07884" lon="2.63075">
        <ele>1557.95</ele>
        <time>2015-06-07T11:57:40Z</time>
      </trkpt>
      <trkpt lat="45.07884" lon="2.63073">
        <ele>1557.95</ele>
        <time>2015-06-07T11:57:46Z</time>
      </trkpt>
      <trkpt lat="45.07881" lon="2.63061">
        <ele>1557.95</ele>
        <time>2015-06-07T11:57:59Z</time>
      </trkpt>
      <trkpt lat="45.0788" lon="2.63055">
        <ele>1558.43</ele>
        <time>2015-06-07T11:58:10Z</time>
      </trkpt>
      <trkpt lat="45.07881" lon="2.63051">
        <ele>1558.43</ele>
        <time>2015-06-07T11:58:14Z</time>
      </trkpt>
      <trkpt lat="45.07878" lon="2.63044">
        <ele>1557.95</ele>
        <time>2015-06-07T11:58:23Z</time>
      </trkpt>
      <trkpt lat="45.07878" lon="2.63041">
        <ele>1557.95</ele>
        <time>2015-06-07T11:58:28Z</time>
      </trkpt>
      <trkpt lat="45.07877" lon="2.63038">
        <ele>1557.95</ele>
        <time>2015-06-07T11:58:33Z</time>
      </trkpt>
      <trkpt lat="45.07877" lon="2.63036">
        <ele>1557.95</ele>
        <time>2015-06-07T11:58:36Z</time>
      </trkpt>
      <trkpt lat="45.07876" lon="2.63034">
        <ele>1559.88</ele>
        <time>2015-06-07T11:58:47Z</time>
      </trkpt>
      <trkpt lat="45.07876" lon="2.63033">
        <ele>1560.36</ele>
        <time>2015-06-07T11:58:48Z</time>
      </trkpt>
      <trkpt lat="45.07876" lon="2.6303">
        <ele>1561.32</ele>
        <time>2015-06-07T11:58:53Z</time>
      </trkpt>
      <trkpt lat="45.07876" lon="2.63021">
        <ele>1560.36</ele>
        <time>2015-06-07T11:58:59Z</time>
      </trkpt>
      <trkpt lat="45.07874" lon="2.63016">
        <ele>1559.88</ele>
        <time>2015-06-07T11:59:06Z</time>
      </trkpt>
      <trkpt lat="45.07872" lon="2.63015">
        <ele>1559.4</ele>
        <time>2015-06-07T11:59:16Z</time>
      </trkpt>
      <trkpt lat="45.07871" lon="2.63014">
        <ele>1559.4</ele>
        <time>2015-06-07T11:59:22Z</time>
      </trkpt>
      <trkpt lat="45.07868" lon="2.63012">
        <ele>1559.88</ele>
        <time>2015-06-07T11:59:32Z</time>
      </trkpt>
      <trkpt lat="45.07867" lon="2.6301">
        <ele>1560.36</ele>
        <time>2015-06-07T11:59:33Z</time>
      </trkpt>
      <trkpt lat="45.07862" lon="2.63004">
        <ele>1562.28</ele>
        <time>2015-06-07T11:59:40Z</time>
      </trkpt>
      <trkpt lat="45.07862" lon="2.63003">
        <ele>1563.24</ele>
        <time>2015-06-07T11:59:51Z</time>
      </trkpt>
      <trkpt lat="45.07862" lon="2.63003">
        <ele>1563.24</ele>
        <time>2015-06-07T11:59:52Z</time>
      </trkpt>
      <trkpt lat="45.07859" lon="2.63001">
        <ele>1564.2</ele>
        <time>2015-06-07T11:59:57Z</time>
      </trkpt>
      <trkpt lat="45.07856" lon="2.63001">
        <ele>1563.72</ele>
        <time>2015-06-07T12:00:01Z</time>
      </trkpt>
      <trkpt lat="45.07854" lon="2.62999">
        <ele>1563.24</ele>
        <time>2015-06-07T12:00:03Z</time>
      </trkpt>
      <trkpt lat="45.07847" lon="2.62983">
        <ele>1561.8</ele>
        <time>2015-06-07T12:00:16Z</time>
      </trkpt>
      <trkpt lat="45.07843" lon="2.62967">
        <ele>1560.36</ele>
        <time>2015-06-07T12:00:30Z</time>
      </trkpt>
      <trkpt lat="45.07839" lon="2.62956">
        <ele>1559.4</ele>
        <time>2015-06-07T12:00:39Z</time>
      </trkpt>
      <trkpt lat="45.07836" lon="2.62946">
        <ele>1557.95</ele>
        <time>2015-06-07T12:00:47Z</time>
      </trkpt>
      <trkpt lat="45.07834" lon="2.6294">
        <ele>1557.47</ele>
        <time>2015-06-07T12:00:52Z</time>
      </trkpt>
      <trkpt lat="45.07829" lon="2.62916">
        <ele>1557.95</ele>
        <time>2015-06-07T12:01:08Z</time>
      </trkpt>
      <trkpt lat="45.07828" lon="2.62914">
        <ele>1557.47</ele>
        <time>2015-06-07T12:01:10Z</time>
      </trkpt>
      <trkpt lat="45.07828" lon="2.62909">
        <ele>1556.99</ele>
        <time>2015-06-07T12:01:13Z</time>
      </trkpt>
      <trkpt lat="45.07828" lon="2.62897">
        <ele>1555.07</ele>
        <time>2015-06-07T12:01:24Z</time>
      </trkpt>
      <trkpt lat="45.07828" lon="2.62892">
        <ele>1554.59</ele>
        <time>2015-06-07T12:01:35Z</time>
      </trkpt>
      <trkpt lat="45.07831" lon="2.62879">
        <ele>1555.07</ele>
        <time>2015-06-07T12:01:46Z</time>
      </trkpt>
      <trkpt lat="45.07835" lon="2.62867">
        <ele>1553.63</ele>
        <time>2015-06-07T12:02:00Z</time>
      </trkpt>
      <trkpt lat="45.07834" lon="2.62857">
        <ele>1552.19</ele>
        <time>2015-06-07T12:02:16Z</time>
      </trkpt>
      <trkpt lat="45.0783" lon="2.62844">
        <ele>1551.71</ele>
        <time>2015-06-07T12:02:32Z</time>
      </trkpt>
      <trkpt lat="45.07828" lon="2.62839">
        <ele>1551.22</ele>
        <time>2015-06-07T12:02:38Z</time>
      </trkpt>
      <trkpt lat="45.07823" lon="2.62827">
        <ele>1547.86</ele>
        <time>2015-06-07T12:02:51Z</time>
      </trkpt>
      <trkpt lat="45.07818" lon="2.62812">
        <ele>1544.5</ele>
        <time>2015-06-07T12:03:06Z</time>
      </trkpt>
      <trkpt lat="45.07813" lon="2.62797">
        <ele>1542.57</ele>
        <time>2015-06-07T12:03:19Z</time>
      </trkpt>
      <trkpt lat="45.07808" lon="2.62771">
        <ele>1535.84</ele>
        <time>2015-06-07T12:03:37Z</time>
      </trkpt>
      <trkpt lat="45.07802" lon="2.62753">
        <ele>1532.96</ele>
        <time>2015-06-07T12:03:50Z</time>
      </trkpt>
      <trkpt lat="45.07798" lon="2.6273">
        <ele>1530.08</ele>
        <time>2015-06-07T12:04:06Z</time>
      </trkpt>
      <trkpt lat="45.07792" lon="2.62713">
        <ele>1526.23</ele>
        <time>2015-06-07T12:04:23Z</time>
      </trkpt>
      <trkpt lat="45.07791" lon="2.62712">
        <ele>1526.23</ele>
        <time>2015-06-07T12:04:25Z</time>
      </trkpt>
      <trkpt lat="45.07787" lon="2.62691">
        <ele>1523.35</ele>
        <time>2015-06-07T12:04:43Z</time>
      </trkpt>
      <trkpt lat="45.07781" lon="2.62675">
        <ele>1520.94</ele>
        <time>2015-06-07T12:05:00Z</time>
      </trkpt>
      <trkpt lat="45.07772" lon="2.62654">
        <ele>1517.1</ele>
        <time>2015-06-07T12:05:20Z</time>
      </trkpt>
      <trkpt lat="45.07765" lon="2.62634">
        <ele>1510.85</ele>
        <time>2015-06-07T12:05:39Z</time>
      </trkpt>
      <trkpt lat="45.07762" lon="2.62618">
        <ele>1508.45</ele>
        <time>2015-06-07T12:05:53Z</time>
      </trkpt>
      <trkpt lat="45.07761" lon="2.62594">
        <ele>1505.08</ele>
        <time>2015-06-07T12:06:10Z</time>
      </trkpt>
      <trkpt lat="45.07764" lon="2.62582">
        <ele>1504.6</ele>
        <time>2015-06-07T12:06:23Z</time>
      </trkpt>
      <trkpt lat="45.07761" lon="2.62577">
        <ele>1505.08</ele>
        <time>2015-06-07T12:06:28Z</time>
      </trkpt>
      <trkpt lat="45.07755" lon="2.62559">
        <ele>1502.68</ele>
        <time>2015-06-07T12:06:43Z</time>
      </trkpt>
      <trkpt lat="45.07751" lon="2.62543">
        <ele>1504.12</ele>
        <time>2015-06-07T12:06:57Z</time>
      </trkpt>
      <trkpt lat="45.07745" lon="2.6253">
        <ele>1506.04</ele>
        <time>2015-06-07T12:07:11Z</time>
      </trkpt>
      <trkpt lat="45.07743" lon="2.6252">
        <ele>1507</ele>
        <time>2015-06-07T12:07:25Z</time>
      </trkpt>
      <trkpt lat="45.07742" lon="2.6252">
        <ele>1507.97</ele>
        <time>2015-06-07T12:07:55Z</time>
      </trkpt>
      <trkpt lat="45.07743" lon="2.6252">
        <ele>1507</ele>
        <time>2015-06-07T12:08:15Z</time>
      </trkpt>
      <trkpt lat="45.07745" lon="2.62518">
        <ele>1506.04</ele>
        <time>2015-06-07T12:08:32Z</time>
      </trkpt>
      <trkpt lat="45.07745" lon="2.62517">
        <ele>1508.45</ele>
        <time>2015-06-07T12:08:47Z</time>
      </trkpt>
      <trkpt lat="45.07744" lon="2.62518">
        <ele>1509.89</ele>
        <time>2015-06-07T12:09:07Z</time>
      </trkpt>
      <trkpt lat="45.07744" lon="2.62519">
        <ele>1510.37</ele>
        <time>2015-06-07T12:09:26Z</time>
      </trkpt>
      <trkpt lat="45.07741" lon="2.62526">
        <ele>1512.77</ele>
        <time>2015-06-07T12:09:40Z</time>
      </trkpt>
      <trkpt lat="45.07738" lon="2.62525">
        <ele>1514.69</ele>
        <time>2015-06-07T12:09:52Z</time>
      </trkpt>
      <trkpt lat="45.07742" lon="2.62525">
        <ele>1515.18</ele>
        <time>2015-06-07T12:10:03Z</time>
      </trkpt>
      <trkpt lat="45.07747" lon="2.62518">
        <ele>1517.1</ele>
        <time>2015-06-07T12:10:13Z</time>
      </trkpt>
      <trkpt lat="45.07748" lon="2.62512">
        <ele>1517.58</ele>
        <time>2015-06-07T12:10:19Z</time>
      </trkpt>
      <trkpt lat="45.07751" lon="2.62499">
        <ele>1517.1</ele>
        <time>2015-06-07T12:10:28Z</time>
      </trkpt>
      <trkpt lat="45.07755" lon="2.6249">
        <ele>1516.62</ele>
        <time>2015-06-07T12:10:35Z</time>
      </trkpt>
      <trkpt lat="45.07755" lon="2.62488">
        <ele>1516.62</ele>
        <time>2015-06-07T12:10:36Z</time>
      </trkpt>
      <trkpt lat="45.07758" lon="2.62478">
        <ele>1515.66</ele>
        <time>2015-06-07T12:10:47Z</time>
      </trkpt>
      <trkpt lat="45.07758" lon="2.62474">
        <ele>1516.14</ele>
        <time>2015-06-07T12:10:51Z</time>
      </trkpt>
      <trkpt lat="45.07757" lon="2.62466">
        <ele>1515.66</ele>
        <time>2015-06-07T12:11:00Z</time>
      </trkpt>
      <trkpt lat="45.07756" lon="2.62453">
        <ele>1519.02</ele>
        <time>2015-06-07T12:11:09Z</time>
      </trkpt>
      <trkpt lat="45.07753" lon="2.62442">
        <ele>1519.98</ele>
        <time>2015-06-07T12:11:20Z</time>
      </trkpt>
      <trkpt lat="45.0775" lon="2.62431">
        <ele>1516.14</ele>
        <time>2015-06-07T12:11:31Z</time>
      </trkpt>
      <trkpt lat="45.0775" lon="2.62427">
        <ele>1516.62</ele>
        <time>2015-06-07T12:11:36Z</time>
      </trkpt>
      <trkpt lat="45.07745" lon="2.62417">
        <ele>1520.94</ele>
        <time>2015-06-07T12:11:47Z</time>
      </trkpt>
      <trkpt lat="45.07742" lon="2.62414">
        <ele>1522.87</ele>
        <time>2015-06-07T12:11:55Z</time>
      </trkpt>
      <trkpt lat="45.0774" lon="2.62413">
        <ele>1523.35</ele>
        <time>2015-06-07T12:11:58Z</time>
      </trkpt>
      <trkpt lat="45.07734" lon="2.62406">
        <ele>1524.31</ele>
        <time>2015-06-07T12:12:06Z</time>
      </trkpt>
      <trkpt lat="45.07734" lon="2.62402">
        <ele>1524.79</ele>
        <time>2015-06-07T12:12:09Z</time>
      </trkpt>
      <trkpt lat="45.0773" lon="2.62393">
        <ele>1525.75</ele>
        <time>2015-06-07T12:12:21Z</time>
      </trkpt>
      <trkpt lat="45.07727" lon="2.62385">
        <ele>1525.75</ele>
        <time>2015-06-07T12:12:34Z</time>
      </trkpt>
      <trkpt lat="45.07723" lon="2.62371">
        <ele>1526.71</ele>
        <time>2015-06-07T12:12:50Z</time>
      </trkpt>
      <trkpt lat="45.07718" lon="2.62358">
        <ele>1525.75</ele>
        <time>2015-06-07T12:13:06Z</time>
      </trkpt>
      <trkpt lat="45.07713" lon="2.62346">
        <ele>1525.75</ele>
        <time>2015-06-07T12:13:20Z</time>
      </trkpt>
      <trkpt lat="45.07712" lon="2.6233">
        <ele>1526.23</ele>
        <time>2015-06-07T12:13:35Z</time>
      </trkpt>
      <trkpt lat="45.07707" lon="2.62316">
        <ele>1525.27</ele>
        <time>2015-06-07T12:13:48Z</time>
      </trkpt>
      <trkpt lat="45.07703" lon="2.62309">
        <ele>1524.79</ele>
        <time>2015-06-07T12:13:41Z</time>
      </trkpt>
      <trkpt lat="45.07691" lon="2.62296">
        <ele>1527.19</ele>
        <time>2015-06-07T12:13:56Z</time>
      </trkpt>
      <trkpt lat="45.07682" lon="2.62284">
        <ele>1527.19</ele>
        <time>2015-06-07T12:14:09Z</time>
      </trkpt>
      <trkpt lat="45.07679" lon="2.62279">
        <ele>1528.15</ele>
        <time>2015-06-07T12:14:22Z</time>
      </trkpt>
      <trkpt lat="45.07677" lon="2.62277">
        <ele>1527.67</ele>
        <time>2015-06-07T12:14:34Z</time>
      </trkpt>
      <trkpt lat="45.07675" lon="2.62277">
        <ele>1526.23</ele>
        <time>2015-06-07T12:14:47Z</time>
      </trkpt>
      <trkpt lat="45.07674" lon="2.62276">
        <ele>1524.79</ele>
        <time>2015-06-07T12:15:03Z</time>
      </trkpt>
      <trkpt lat="45.07673" lon="2.62274">
        <ele>1522.87</ele>
        <time>2015-06-07T12:15:20Z</time>
      </trkpt>
      <trkpt lat="45.07673" lon="2.62275">
        <ele>1522.39</ele>
        <time>2015-06-07T12:15:29Z</time>
      </trkpt>
      <trkpt lat="45.07672" lon="2.62275">
        <ele>1521.9</ele>
        <time>2015-06-07T12:15:44Z</time>
      </trkpt>
      <trkpt lat="45.07671" lon="2.62274">
        <ele>1520.94</ele>
        <time>2015-06-07T12:15:57Z</time>
      </trkpt>
      <trkpt lat="45.0767" lon="2.62273">
        <ele>1520.46</ele>
        <time>2015-06-07T12:16:08Z</time>
      </trkpt>
      <trkpt lat="45.0767" lon="2.62274">
        <ele>1519.5</ele>
        <time>2015-06-07T12:16:21Z</time>
      </trkpt>
      <trkpt lat="45.07669" lon="2.62274">
        <ele>1519.02</ele>
        <time>2015-06-07T12:16:32Z</time>
      </trkpt>
      <trkpt lat="45.07669" lon="2.62272">
        <ele>1519.02</ele>
        <time>2015-06-07T12:16:41Z</time>
      </trkpt>
      <trkpt lat="45.07667" lon="2.62268">
        <ele>1519.98</ele>
        <time>2015-06-07T12:16:50Z</time>
      </trkpt>
      <trkpt lat="45.07664" lon="2.62261">
        <ele>1519.98</ele>
        <time>2015-06-07T12:17:00Z</time>
      </trkpt>
      <trkpt lat="45.07663" lon="2.62258">
        <ele>1518.06</ele>
        <time>2015-06-07T12:17:16Z</time>
      </trkpt>
      <trkpt lat="45.07662" lon="2.62257">
        <ele>1517.1</ele>
        <time>2015-06-07T12:17:28Z</time>
      </trkpt>
      <trkpt lat="45.07662" lon="2.62256">
        <ele>1517.1</ele>
        <time>2015-06-07T12:17:41Z</time>
      </trkpt>
      <trkpt lat="45.07662" lon="2.62253">
        <ele>1517.1</ele>
        <time>2015-06-07T12:17:52Z</time>
      </trkpt>
      <trkpt lat="45.07662" lon="2.62248">
        <ele>1516.14</ele>
        <time>2015-06-07T12:18:03Z</time>
      </trkpt>
      <trkpt lat="45.07663" lon="2.62245">
        <ele>1515.18</ele>
        <time>2015-06-07T12:18:14Z</time>
      </trkpt>
      <trkpt lat="45.07663" lon="2.62241">
        <ele>1513.73</ele>
        <time>2015-06-07T12:18:27Z</time>
      </trkpt>
      <trkpt lat="45.07664" lon="2.6224">
        <ele>1513.25</ele>
        <time>2015-06-07T12:18:40Z</time>
      </trkpt>
      <trkpt lat="45.07666" lon="2.62238">
        <ele>1511.81</ele>
        <time>2015-06-07T12:18:48Z</time>
      </trkpt>
      <trkpt lat="45.07668" lon="2.62227">
        <ele>1508.93</ele>
        <time>2015-06-07T12:18:57Z</time>
      </trkpt>
      <trkpt lat="45.07668" lon="2.62214">
        <ele>1505.08</ele>
        <time>2015-06-07T12:19:08Z</time>
      </trkpt>
      <trkpt lat="45.07668" lon="2.62204">
        <ele>1504.12</ele>
        <time>2015-06-07T12:19:15Z</time>
      </trkpt>
      <trkpt lat="45.07665" lon="2.622">
        <ele>1504.12</ele>
        <time>2015-06-07T12:19:18Z</time>
      </trkpt>
      <trkpt lat="45.07665" lon="2.62184">
        <ele>1503.64</ele>
        <time>2015-06-07T12:19:30Z</time>
      </trkpt>
      <trkpt lat="45.07665" lon="2.62174">
        <ele>1499.31</ele>
        <time>2015-06-07T12:19:42Z</time>
      </trkpt>
      <trkpt lat="45.07662" lon="2.62165">
        <ele>1497.87</ele>
        <time>2015-06-07T12:19:52Z</time>
      </trkpt>
      <trkpt lat="45.07661" lon="2.6216">
        <ele>1496.91</ele>
        <time>2015-06-07T12:20:01Z</time>
      </trkpt>
      <trkpt lat="45.07658" lon="2.62153">
        <ele>1496.43</ele>
        <time>2015-06-07T12:20:10Z</time>
      </trkpt>
      <trkpt lat="45.0766" lon="2.62143">
        <ele>1494.99</ele>
        <time>2015-06-07T12:20:22Z</time>
      </trkpt>
      <trkpt lat="45.07663" lon="2.62139">
        <ele>1493.06</ele>
        <time>2015-06-07T12:20:28Z</time>
      </trkpt>
      <trkpt lat="45.07665" lon="2.62128">
        <ele>1489.7</ele>
        <time>2015-06-07T12:20:39Z</time>
      </trkpt>
      <trkpt lat="45.07663" lon="2.62113">
        <ele>1487.78</ele>
        <time>2015-06-07T12:20:52Z</time>
      </trkpt>
      <trkpt lat="45.0766" lon="2.62097">
        <ele>1486.82</ele>
        <time>2015-06-07T12:21:04Z</time>
      </trkpt>
      <trkpt lat="45.07661" lon="2.62086">
        <ele>1484.41</ele>
        <time>2015-06-07T12:21:18Z</time>
      </trkpt>
      <trkpt lat="45.07662" lon="2.62082">
        <ele>1482.97</ele>
        <time>2015-06-07T12:21:32Z</time>
      </trkpt>
      <trkpt lat="45.07663" lon="2.62078">
        <ele>1482.49</ele>
        <time>2015-06-07T12:21:40Z</time>
      </trkpt>
      <trkpt lat="45.07665" lon="2.62076">
        <ele>1480.57</ele>
        <time>2015-06-07T12:21:49Z</time>
      </trkpt>
      <trkpt lat="45.07664" lon="2.62077">
        <ele>1481.05</ele>
        <time>2015-06-07T12:22:00Z</time>
      </trkpt>
      <trkpt lat="45.07666" lon="2.62069">
        <ele>1481.53</ele>
        <time>2015-06-07T12:22:10Z</time>
      </trkpt>
      <trkpt lat="45.07666" lon="2.62068">
        <ele>1481.53</ele>
        <time>2015-06-07T12:22:28Z</time>
      </trkpt>
      <trkpt lat="45.07666" lon="2.62068">
        <ele>1480.57</ele>
        <time>2015-06-07T12:22:48Z</time>
      </trkpt>
      <trkpt lat="45.07666" lon="2.62066">
        <ele>1480.09</ele>
        <time>2015-06-07T12:22:56Z</time>
      </trkpt>
      <trkpt lat="45.07666" lon="2.62061">
        <ele>1479.61</ele>
        <time>2015-06-07T12:22:59Z</time>
      </trkpt>
      <trkpt lat="45.07665" lon="2.62058">
        <ele>1479.13</ele>
        <time>2015-06-07T12:23:01Z</time>
      </trkpt>
      <trkpt lat="45.07667" lon="2.62041">
        <ele>1474.8</ele>
        <time>2015-06-07T12:23:13Z</time>
      </trkpt>
      <trkpt lat="45.07667" lon="2.62025">
        <ele>1472.4</ele>
        <time>2015-06-07T12:23:24Z</time>
      </trkpt>
      <trkpt lat="45.07667" lon="2.6202">
        <ele>1471.44</ele>
        <time>2015-06-07T12:23:27Z</time>
      </trkpt>
      <trkpt lat="45.07668" lon="2.62011">
        <ele>1469.99</ele>
        <time>2015-06-07T12:23:33Z</time>
      </trkpt>
      <trkpt lat="45.07671" lon="2.62001">
        <ele>1468.55</ele>
        <time>2015-06-07T12:23:44Z</time>
      </trkpt>
      <trkpt lat="45.07672" lon="2.61999">
        <ele>1468.07</ele>
        <time>2015-06-07T12:23:46Z</time>
      </trkpt>
      <trkpt lat="45.07674" lon="2.61991">
        <ele>1467.11</ele>
        <time>2015-06-07T12:23:53Z</time>
      </trkpt>
      <trkpt lat="45.07676" lon="2.61983">
        <ele>1465.19</ele>
        <time>2015-06-07T12:24:03Z</time>
      </trkpt>
      <trkpt lat="45.0768" lon="2.61968">
        <ele>1460.86</ele>
        <time>2015-06-07T12:24:19Z</time>
      </trkpt>
      <trkpt lat="45.07683" lon="2.61955">
        <ele>1457.5</ele>
        <time>2015-06-07T12:24:33Z</time>
      </trkpt>
      <trkpt lat="45.07683" lon="2.61954">
        <ele>1457.5</ele>
        <time>2015-06-07T12:24:34Z</time>
      </trkpt>
      <trkpt lat="45.07686" lon="2.61939">
        <ele>1455.09</ele>
        <time>2015-06-07T12:24:46Z</time>
      </trkpt>
      <trkpt lat="45.07688" lon="2.61936">
        <ele>1454.13</ele>
        <time>2015-06-07T12:24:49Z</time>
      </trkpt>
      <trkpt lat="45.07689" lon="2.61934">
        <ele>1454.13</ele>
        <time>2015-06-07T12:24:51Z</time>
      </trkpt>
      <trkpt lat="45.07694" lon="2.61922">
        <ele>1451.73</ele>
        <time>2015-06-07T12:25:01Z</time>
      </trkpt>
      <trkpt lat="45.07697" lon="2.61903">
        <ele>1449.81</ele>
        <time>2015-06-07T12:25:14Z</time>
      </trkpt>
      <trkpt lat="45.07698" lon="2.61901">
        <ele>1449.81</ele>
        <time>2015-06-07T12:25:16Z</time>
      </trkpt>
      <trkpt lat="45.07699" lon="2.61897">
        <ele>1449.32</ele>
        <time>2015-06-07T12:25:19Z</time>
      </trkpt>
      <trkpt lat="45.07702" lon="2.61889">
        <ele>1448.84</ele>
        <time>2015-06-07T12:25:25Z</time>
      </trkpt>
      <trkpt lat="45.07706" lon="2.61879">
        <ele>1452.21</ele>
        <time>2015-06-07T12:25:36Z</time>
      </trkpt>
      <trkpt lat="45.07705" lon="2.61879">
        <ele>1452.69</ele>
        <time>2015-06-07T12:26:01Z</time>
      </trkpt>
      <trkpt lat="45.07705" lon="2.61878">
        <ele>1453.17</ele>
        <time>2015-06-07T12:26:27Z</time>
      </trkpt>
      <trkpt lat="45.07706" lon="2.61877">
        <ele>1452.69</ele>
        <time>2015-06-07T12:26:47Z</time>
      </trkpt>
      <trkpt lat="45.07711" lon="2.61869">
        <ele>1451.25</ele>
        <time>2015-06-07T12:26:58Z</time>
      </trkpt>
      <trkpt lat="45.07712" lon="2.61867">
        <ele>1450.77</ele>
        <time>2015-06-07T12:27:00Z</time>
      </trkpt>
      <trkpt lat="45.07715" lon="2.61859">
        <ele>1450.29</ele>
        <time>2015-06-07T12:27:05Z</time>
      </trkpt>
      <trkpt lat="45.07722" lon="2.61841">
        <ele>1448.84</ele>
        <time>2015-06-07T12:27:18Z</time>
      </trkpt>
      <trkpt lat="45.0773" lon="2.61821">
        <ele>1448.36</ele>
        <time>2015-06-07T12:27:32Z</time>
      </trkpt>
      <trkpt lat="45.07738" lon="2.61796">
        <ele>1446.92</ele>
        <time>2015-06-07T12:27:50Z</time>
      </trkpt>
      <trkpt lat="45.07742" lon="2.61778">
        <ele>1445.48</ele>
        <time>2015-06-07T12:28:04Z</time>
      </trkpt>
      <trkpt lat="45.07742" lon="2.61771">
        <ele>1445</ele>
        <time>2015-06-07T12:28:09Z</time>
      </trkpt>
      <trkpt lat="45.07734" lon="2.61759">
        <ele>1441.63</ele>
        <time>2015-06-07T12:28:22Z</time>
      </trkpt>
      <trkpt lat="45.07734" lon="2.61757">
        <ele>1441.15</ele>
        <time>2015-06-07T12:28:24Z</time>
      </trkpt>
      <trkpt lat="45.07726" lon="2.61749">
        <ele>1438.27</ele>
        <time>2015-06-07T12:28:37Z</time>
      </trkpt>
      <trkpt lat="45.07717" lon="2.61741">
        <ele>1436.35</ele>
        <time>2015-06-07T12:28:51Z</time>
      </trkpt>
      <trkpt lat="45.07716" lon="2.61734">
        <ele>1433.94</ele>
        <time>2015-06-07T12:28:59Z</time>
      </trkpt>
      <trkpt lat="45.0771" lon="2.61725">
        <ele>1432.98</ele>
        <time>2015-06-07T12:29:10Z</time>
      </trkpt>
      <trkpt lat="45.07704" lon="2.61718">
        <ele>1431.06</ele>
        <time>2015-06-07T12:29:19Z</time>
      </trkpt>
      <trkpt lat="45.077" lon="2.61712">
        <ele>1430.1</ele>
        <time>2015-06-07T12:29:26Z</time>
      </trkpt>
      <trkpt lat="45.07693" lon="2.617">
        <ele>1427.7</ele>
        <time>2015-06-07T12:29:40Z</time>
      </trkpt>
      <trkpt lat="45.0769" lon="2.61696">
        <ele>1428.66</ele>
        <time>2015-06-07T12:29:45Z</time>
      </trkpt>
      <trkpt lat="45.07689" lon="2.61694">
        <ele>1429.14</ele>
        <time>2015-06-07T12:29:47Z</time>
      </trkpt>
      <trkpt lat="45.07685" lon="2.61691">
        <ele>1429.14</ele>
        <time>2015-06-07T12:29:51Z</time>
      </trkpt>
      <trkpt lat="45.07684" lon="2.61687">
        <ele>1428.66</ele>
        <time>2015-06-07T12:29:54Z</time>
      </trkpt>
      <trkpt lat="45.07679" lon="2.61676">
        <ele>1428.18</ele>
        <time>2015-06-07T12:30:04Z</time>
      </trkpt>
      <trkpt lat="45.07677" lon="2.61672">
        <ele>1426.25</ele>
        <time>2015-06-07T12:30:09Z</time>
      </trkpt>
      <trkpt lat="45.07677" lon="2.61664">
        <ele>1424.81</ele>
        <time>2015-06-07T12:30:15Z</time>
      </trkpt>
      <trkpt lat="45.07675" lon="2.61661">
        <ele>1424.33</ele>
        <time>2015-06-07T12:30:18Z</time>
      </trkpt>
      <trkpt lat="45.07675" lon="2.61657">
        <ele>1422.89</ele>
        <time>2015-06-07T12:30:21Z</time>
      </trkpt>
      <trkpt lat="45.07673" lon="2.61654">
        <ele>1421.45</ele>
        <time>2015-06-07T12:30:36Z</time>
      </trkpt>
      <trkpt lat="45.07674" lon="2.61645">
        <ele>1420.49</ele>
        <time>2015-06-07T12:30:48Z</time>
      </trkpt>
      <trkpt lat="45.07675" lon="2.61637">
        <ele>1419.04</ele>
        <time>2015-06-07T12:30:57Z</time>
      </trkpt>
      <trkpt lat="45.07675" lon="2.61636">
        <ele>1418.56</ele>
        <time>2015-06-07T12:30:58Z</time>
      </trkpt>
      <trkpt lat="45.07675" lon="2.61622">
        <ele>1419.04</ele>
        <time>2015-06-07T12:31:06Z</time>
      </trkpt>
      <trkpt lat="45.07675" lon="2.61607">
        <ele>1415.2</ele>
        <time>2015-06-07T12:31:18Z</time>
      </trkpt>
      <trkpt lat="45.07676" lon="2.61594">
        <ele>1412.31</ele>
        <time>2015-06-07T12:31:30Z</time>
      </trkpt>
      <trkpt lat="45.07677" lon="2.61592">
        <ele>1412.31</ele>
        <time>2015-06-07T12:31:32Z</time>
      </trkpt>
      <trkpt lat="45.07675" lon="2.61579">
        <ele>1410.39</ele>
        <time>2015-06-07T12:31:44Z</time>
      </trkpt>
      <trkpt lat="45.07675" lon="2.61578">
        <ele>1409.91</ele>
        <time>2015-06-07T12:31:45Z</time>
      </trkpt>
      <trkpt lat="45.0767" lon="2.61563">
        <ele>1408.95</ele>
        <time>2015-06-07T12:31:57Z</time>
      </trkpt>
      <trkpt lat="45.07668" lon="2.61551">
        <ele>1407.99</ele>
        <time>2015-06-07T12:32:09Z</time>
      </trkpt>
      <trkpt lat="45.07665" lon="2.6154">
        <ele>1406.55</ele>
        <time>2015-06-07T12:32:18Z</time>
      </trkpt>
      <trkpt lat="45.07658" lon="2.6153">
        <ele>1405.1</ele>
        <time>2015-06-07T12:32:31Z</time>
      </trkpt>
      <trkpt lat="45.07652" lon="2.61522">
        <ele>1403.66</ele>
        <time>2015-06-07T12:32:44Z</time>
      </trkpt>
      <trkpt lat="45.07648" lon="2.61518">
        <ele>1402.7</ele>
        <time>2015-06-07T12:32:51Z</time>
      </trkpt>
      <trkpt lat="45.07645" lon="2.61514">
        <ele>1401.74</ele>
        <time>2015-06-07T12:32:54Z</time>
      </trkpt>
      <trkpt lat="45.07641" lon="2.61503">
        <ele>1395.97</ele>
        <time>2015-06-07T12:33:06Z</time>
      </trkpt>
      <trkpt lat="45.0764" lon="2.61501">
        <ele>1395.97</ele>
        <time>2015-06-07T12:33:09Z</time>
      </trkpt>
      <trkpt lat="45.07634" lon="2.61483">
        <ele>1395.49</ele>
        <time>2015-06-07T12:33:23Z</time>
      </trkpt>
      <trkpt lat="45.07629" lon="2.61469">
        <ele>1392.13</ele>
        <time>2015-06-07T12:33:36Z</time>
      </trkpt>
      <trkpt lat="45.07627" lon="2.61458">
        <ele>1391.17</ele>
        <time>2015-06-07T12:33:46Z</time>
      </trkpt>
      <trkpt lat="45.07625" lon="2.61442">
        <ele>1390.68</ele>
        <time>2015-06-07T12:33:58Z</time>
      </trkpt>
      <trkpt lat="45.07623" lon="2.61427">
        <ele>1386.84</ele>
        <time>2015-06-07T12:34:12Z</time>
      </trkpt>
      <trkpt lat="45.07622" lon="2.61414">
        <ele>1382.03</ele>
        <time>2015-06-07T12:34:24Z</time>
      </trkpt>
      <trkpt lat="45.07621" lon="2.61411">
        <ele>1381.55</ele>
        <time>2015-06-07T12:34:27Z</time>
      </trkpt>
      <trkpt lat="45.07618" lon="2.61393">
        <ele>1378.67</ele>
        <time>2015-06-07T12:34:41Z</time>
      </trkpt>
      <trkpt lat="45.07616" lon="2.61373">
        <ele>1377.23</ele>
        <time>2015-06-07T12:34:56Z</time>
      </trkpt>
      <trkpt lat="45.07613" lon="2.61354">
        <ele>1373.86</ele>
        <time>2015-06-07T12:35:10Z</time>
      </trkpt>
      <trkpt lat="45.0761" lon="2.61337">
        <ele>1370.98</ele>
        <time>2015-06-07T12:35:24Z</time>
      </trkpt>
      <trkpt lat="45.07611" lon="2.61327">
        <ele>1369.05</ele>
        <time>2015-06-07T12:35:36Z</time>
      </trkpt>
      <trkpt lat="45.07614" lon="2.61316">
        <ele>1367.13</ele>
        <time>2015-06-07T12:35:46Z</time>
      </trkpt>
      <trkpt lat="45.07617" lon="2.61307">
        <ele>1365.69</ele>
        <time>2015-06-07T12:35:54Z</time>
      </trkpt>
      <trkpt lat="45.07614" lon="2.61294">
        <ele>1363.29</ele>
        <time>2015-06-07T12:36:07Z</time>
      </trkpt>
      <trkpt lat="45.0761" lon="2.61289">
        <ele>1361.84</ele>
        <time>2015-06-07T12:36:15Z</time>
      </trkpt>
      <trkpt lat="45.07604" lon="2.61288">
        <ele>1360.4</ele>
        <time>2015-06-07T12:36:24Z</time>
      </trkpt>
      <trkpt lat="45.076" lon="2.6129">
        <ele>1359.92</ele>
        <time>2015-06-07T12:36:35Z</time>
      </trkpt>
      <trkpt lat="45.076" lon="2.61292">
        <ele>1359.92</ele>
        <time>2015-06-07T12:36:43Z</time>
      </trkpt>
      <trkpt lat="45.07604" lon="2.61298">
        <ele>1359.92</ele>
        <time>2015-06-07T12:36:50Z</time>
      </trkpt>
      <trkpt lat="45.07605" lon="2.613">
        <ele>1359.44</ele>
        <time>2015-06-07T12:37:00Z</time>
      </trkpt>
      <trkpt lat="45.07607" lon="2.61301">
        <ele>1359.92</ele>
        <time>2015-06-07T12:37:13Z</time>
      </trkpt>
      <trkpt lat="45.07606" lon="2.61301">
        <ele>1359.44</ele>
        <time>2015-06-07T12:37:29Z</time>
      </trkpt>
      <trkpt lat="45.07605" lon="2.613">
        <ele>1360.4</ele>
        <time>2015-06-07T12:37:42Z</time>
      </trkpt>
      <trkpt lat="45.07606" lon="2.61296">
        <ele>1357.04</ele>
        <time>2015-06-07T12:37:53Z</time>
      </trkpt>
      <trkpt lat="45.07607" lon="2.61296">
        <ele>1357.04</ele>
        <time>2015-06-07T12:37:55Z</time>
      </trkpt>
      <trkpt lat="45.07605" lon="2.61297">
        <ele>1357.52</ele>
        <time>2015-06-07T12:37:59Z</time>
      </trkpt>
      <trkpt lat="45.076" lon="2.61299">
        <ele>1359.44</ele>
        <time>2015-06-07T12:38:09Z</time>
      </trkpt>
      <trkpt lat="45.07599" lon="2.61296">
        <ele>1361.36</ele>
        <time>2015-06-07T12:38:24Z</time>
      </trkpt>
      <trkpt lat="45.07599" lon="2.61296">
        <ele>1360.88</ele>
        <time>2015-06-07T12:38:37Z</time>
      </trkpt>
      <trkpt lat="45.07599" lon="2.61295">
        <ele>1360.4</ele>
        <time>2015-06-07T12:38:52Z</time>
      </trkpt>
      <trkpt lat="45.076" lon="2.61295">
        <ele>1360.4</ele>
        <time>2015-06-07T12:38:58Z</time>
      </trkpt>
      <trkpt lat="45.07601" lon="2.61295">
        <ele>1360.4</ele>
        <time>2015-06-07T12:39:11Z</time>
      </trkpt>
      <trkpt lat="45.07602" lon="2.61296">
        <ele>1360.88</ele>
        <time>2015-06-07T12:39:26Z</time>
      </trkpt>
      <trkpt lat="45.07602" lon="2.61299">
        <ele>1361.36</ele>
        <time>2015-06-07T12:39:40Z</time>
      </trkpt>
      <trkpt lat="45.076" lon="2.61305">
        <ele>1361.36</ele>
        <time>2015-06-07T12:39:48Z</time>
      </trkpt>
      <trkpt lat="45.076" lon="2.61305">
        <ele>1361.36</ele>
        <time>2015-06-07T12:39:50Z</time>
      </trkpt>
      <trkpt lat="45.076" lon="2.61306">
        <ele>1361.36</ele>
        <time>2015-06-07T12:40:04Z</time>
      </trkpt>
      <trkpt lat="45.07602" lon="2.61306">
        <ele>1360.88</ele>
        <time>2015-06-07T12:40:25Z</time>
      </trkpt>
      <trkpt lat="45.07603" lon="2.61304">
        <ele>1362.33</ele>
        <time>2015-06-07T12:40:30Z</time>
      </trkpt>
      <trkpt lat="45.07604" lon="2.61299">
        <ele>1363.29</ele>
        <time>2015-06-07T12:40:42Z</time>
      </trkpt>
      <trkpt lat="45.07604" lon="2.61301">
        <ele>1363.77</ele>
        <time>2015-06-07T12:41:00Z</time>
      </trkpt>
      <trkpt lat="45.07603" lon="2.61301">
        <ele>1364.25</ele>
        <time>2015-06-07T12:41:21Z</time>
      </trkpt>
      <trkpt lat="45.07603" lon="2.61301">
        <ele>1364.73</ele>
        <time>2015-06-07T12:41:42Z</time>
      </trkpt>
      <trkpt lat="45.07604" lon="2.613">
        <ele>1365.21</ele>
        <time>2015-06-07T12:42:05Z</time>
      </trkpt>
      <trkpt lat="45.07604" lon="2.613">
        <ele>1365.69</ele>
        <time>2015-06-07T12:42:35Z</time>
      </trkpt>
      <trkpt lat="45.07604" lon="2.61301">
        <ele>1366.17</ele>
        <time>2015-06-07T12:43:02Z</time>
      </trkpt>
      <trkpt lat="45.07605" lon="2.613">
        <ele>1366.65</ele>
        <time>2015-06-07T12:43:26Z</time>
      </trkpt>
      <trkpt lat="45.07605" lon="2.613">
        <ele>1366.65</ele>
        <time>2015-06-07T12:43:46Z</time>
      </trkpt>
      <trkpt lat="45.07605" lon="2.61301">
        <ele>1366.65</ele>
        <time>2015-06-07T12:44:10Z</time>
      </trkpt>
      <trkpt lat="45.07606" lon="2.613">
        <ele>1366.65</ele>
        <time>2015-06-07T12:44:34Z</time>
      </trkpt>
      <trkpt lat="45.07606" lon="2.61299">
        <ele>1366.17</ele>
        <time>2015-06-07T12:44:59Z</time>
      </trkpt>
      <trkpt lat="45.07606" lon="2.61299">
        <ele>1366.17</ele>
        <time>2015-06-07T12:45:20Z</time>
      </trkpt>
      <trkpt lat="45.07606" lon="2.61299">
        <ele>1366.17</ele>
        <time>2015-06-07T12:45:50Z</time>
      </trkpt>
      <trkpt lat="45.07606" lon="2.613">
        <ele>1366.17</ele>
        <time>2015-06-07T12:46:21Z</time>
      </trkpt>
      <trkpt lat="45.07607" lon="2.61299">
        <ele>1365.69</ele>
        <time>2015-06-07T12:46:45Z</time>
      </trkpt>
      <trkpt lat="45.07607" lon="2.613">
        <ele>1365.69</ele>
        <time>2015-06-07T12:47:08Z</time>
      </trkpt>
      <trkpt lat="45.07607" lon="2.613">
        <ele>1365.21</ele>
        <time>2015-06-07T12:47:29Z</time>
      </trkpt>
      <trkpt lat="45.07607" lon="2.613">
        <ele>1365.21</ele>
        <time>2015-06-07T12:47:51Z</time>
      </trkpt>
      <trkpt lat="45.07606" lon="2.613">
        <ele>1364.73</ele>
        <time>2015-06-07T12:48:18Z</time>
      </trkpt>
      <trkpt lat="45.07607" lon="2.61301">
        <ele>1364.25</ele>
        <time>2015-06-07T12:48:39Z</time>
      </trkpt>
      <trkpt lat="45.07606" lon="2.61301">
        <ele>1363.77</ele>
        <time>2015-06-07T12:49:00Z</time>
      </trkpt>
      <trkpt lat="45.07607" lon="2.61301">
        <ele>1363.29</ele>
        <time>2015-06-07T12:49:22Z</time>
      </trkpt>
      <trkpt lat="45.07607" lon="2.61302">
        <ele>1362.81</ele>
        <time>2015-06-07T12:49:44Z</time>
      </trkpt>
      <trkpt lat="45.07607" lon="2.61302">
        <ele>1362.33</ele>
        <time>2015-06-07T12:50:08Z</time>
      </trkpt>
      <trkpt lat="45.07607" lon="2.61302">
        <ele>1361.84</ele>
        <time>2015-06-07T12:50:31Z</time>
      </trkpt>
      <trkpt lat="45.07604" lon="2.61301">
        <ele>1363.29</ele>
        <time>2015-06-07T12:50:42Z</time>
      </trkpt>
      <trkpt lat="45.07604" lon="2.61301">
        <ele>1363.29</ele>
        <time>2015-06-07T12:50:46Z</time>
      </trkpt>
      <trkpt lat="45.07606" lon="2.61306">
        <ele>1364.25</ele>
        <time>2015-06-07T12:50:56Z</time>
      </trkpt>
      <trkpt lat="45.07604" lon="2.61305">
        <ele>1362.81</ele>
        <time>2015-06-07T12:51:00Z</time>
      </trkpt>
      <trkpt lat="45.07601" lon="2.61296">
        <ele>1362.33</ele>
        <time>2015-06-07T12:51:10Z</time>
      </trkpt>
      <trkpt lat="45.07599" lon="2.61292">
        <ele>1360.4</ele>
        <time>2015-06-07T12:51:20Z</time>
      </trkpt>
      <trkpt lat="45.07596" lon="2.61283">
        <ele>1357.04</ele>
        <time>2015-06-07T12:51:30Z</time>
      </trkpt>
      <trkpt lat="45.07595" lon="2.61282">
        <ele>1357.04</ele>
        <time>2015-06-07T12:51:31Z</time>
      </trkpt>
      <trkpt lat="45.07594" lon="2.61276">
        <ele>1355.6</ele>
        <time>2015-06-07T12:51:37Z</time>
      </trkpt>
      <trkpt lat="45.07587" lon="2.61262">
        <ele>1353.19</ele>
        <time>2015-06-07T12:51:54Z</time>
      </trkpt>
      <trkpt lat="45.07588" lon="2.61261">
        <ele>1354.63</ele>
        <time>2015-06-07T12:52:11Z</time>
      </trkpt>
      <trkpt lat="45.07585" lon="2.61255">
        <ele>1354.63</ele>
        <time>2015-06-07T12:52:26Z</time>
      </trkpt>
      <trkpt lat="45.07578" lon="2.61238">
        <ele>1352.23</ele>
        <time>2015-06-07T12:52:39Z</time>
      </trkpt>
      <trkpt lat="45.0757" lon="2.61224">
        <ele>1349.83</ele>
        <time>2015-06-07T12:52:54Z</time>
      </trkpt>
      <trkpt lat="45.07568" lon="2.61211">
        <ele>1346.94</ele>
        <time>2015-06-07T12:53:05Z</time>
      </trkpt>
      <trkpt lat="45.07569" lon="2.61204">
        <ele>1345.5</ele>
        <time>2015-06-07T12:53:19Z</time>
      </trkpt>
      <trkpt lat="45.0757" lon="2.612">
        <ele>1345.5</ele>
        <time>2015-06-07T12:53:22Z</time>
      </trkpt>
      <trkpt lat="45.07572" lon="2.61188">
        <ele>1343.58</ele>
        <time>2015-06-07T12:53:32Z</time>
      </trkpt>
      <trkpt lat="45.07572" lon="2.61183">
        <ele>1343.1</ele>
        <time>2015-06-07T12:53:38Z</time>
      </trkpt>
      <trkpt lat="45.07573" lon="2.61177">
        <ele>1341.66</ele>
        <time>2015-06-07T12:53:42Z</time>
      </trkpt>
      <trkpt lat="45.07574" lon="2.61173">
        <ele>1341.66</ele>
        <time>2015-06-07T12:53:45Z</time>
      </trkpt>
      <trkpt lat="45.07578" lon="2.61158">
        <ele>1341.18</ele>
        <time>2015-06-07T12:53:57Z</time>
      </trkpt>
      <trkpt lat="45.07577" lon="2.61157">
        <ele>1340.7</ele>
        <time>2015-06-07T12:54:19Z</time>
      </trkpt>
      <trkpt lat="45.07579" lon="2.6115">
        <ele>1340.7</ele>
        <time>2015-06-07T12:54:26Z</time>
      </trkpt>
      <trkpt lat="45.07581" lon="2.61135">
        <ele>1339.73</ele>
        <time>2015-06-07T12:54:36Z</time>
      </trkpt>
      <trkpt lat="45.07581" lon="2.61132">
        <ele>1339.73</ele>
        <time>2015-06-07T12:54:38Z</time>
      </trkpt>
      <trkpt lat="45.07581" lon="2.61124">
        <ele>1340.22</ele>
        <time>2015-06-07T12:54:43Z</time>
      </trkpt>
      <trkpt lat="45.07581" lon="2.61118">
        <ele>1339.73</ele>
        <time>2015-06-07T12:54:47Z</time>
      </trkpt>
      <trkpt lat="45.07583" lon="2.61112">
        <ele>1339.25</ele>
        <time>2015-06-07T12:54:51Z</time>
      </trkpt>
      <trkpt lat="45.07584" lon="2.61109">
        <ele>1339.25</ele>
        <time>2015-06-07T12:54:53Z</time>
      </trkpt>
      <trkpt lat="45.07588" lon="2.61096">
        <ele>1338.29</ele>
        <time>2015-06-07T12:55:04Z</time>
      </trkpt>
      <trkpt lat="45.07588" lon="2.61092">
        <ele>1338.29</ele>
        <time>2015-06-07T12:55:07Z</time>
      </trkpt>
      <trkpt lat="45.07584" lon="2.61076">
        <ele>1339.25</ele>
        <time>2015-06-07T12:55:18Z</time>
      </trkpt>
      <trkpt lat="45.07582" lon="2.61069">
        <ele>1338.29</ele>
        <time>2015-06-07T12:55:23Z</time>
      </trkpt>
      <trkpt lat="45.07583" lon="2.61056">
        <ele>1335.89</ele>
        <time>2015-06-07T12:55:33Z</time>
      </trkpt>
      <trkpt lat="45.07581" lon="2.6104">
        <ele>1336.85</ele>
        <time>2015-06-07T12:55:45Z</time>
      </trkpt>
      <trkpt lat="45.07578" lon="2.61024">
        <ele>1336.37</ele>
        <time>2015-06-07T12:55:56Z</time>
      </trkpt>
      <trkpt lat="45.07577" lon="2.6102">
        <ele>1336.37</ele>
        <time>2015-06-07T12:56:00Z</time>
      </trkpt>
      <trkpt lat="45.07576" lon="2.61009">
        <ele>1334.93</ele>
        <time>2015-06-07T12:56:08Z</time>
      </trkpt>
      <trkpt lat="45.07573" lon="2.60994">
        <ele>1332.52</ele>
        <time>2015-06-07T12:56:20Z</time>
      </trkpt>
      <trkpt lat="45.0757" lon="2.60984">
        <ele>1332.04</ele>
        <time>2015-06-07T12:56:33Z</time>
      </trkpt>
      <trkpt lat="45.07569" lon="2.60967">
        <ele>1333.01</ele>
        <time>2015-06-07T12:56:46Z</time>
      </trkpt>
      <trkpt lat="45.07568" lon="2.60948">
        <ele>1333.97</ele>
        <time>2015-06-07T12:56:59Z</time>
      </trkpt>
      <trkpt lat="45.07566" lon="2.60933">
        <ele>1337.81</ele>
        <time>2015-06-07T12:57:11Z</time>
      </trkpt>
      <trkpt lat="45.07565" lon="2.60919">
        <ele>1341.18</ele>
        <time>2015-06-07T12:57:24Z</time>
      </trkpt>
      <trkpt lat="45.07564" lon="2.60905">
        <ele>1344.54</ele>
        <time>2015-06-07T12:57:35Z</time>
      </trkpt>
      <trkpt lat="45.07562" lon="2.60889">
        <ele>1347.43</ele>
        <time>2015-06-07T12:57:44Z</time>
      </trkpt>
      <trkpt lat="45.07562" lon="2.60873">
        <ele>1348.39</ele>
        <time>2015-06-07T12:57:57Z</time>
      </trkpt>
      <trkpt lat="45.0756" lon="2.60855">
        <ele>1347.43</ele>
        <time>2015-06-07T12:58:10Z</time>
      </trkpt>
      <trkpt lat="45.07556" lon="2.60838">
        <ele>1345.98</ele>
        <time>2015-06-07T12:58:23Z</time>
      </trkpt>
      <trkpt lat="45.07552" lon="2.60818">
        <ele>1348.39</ele>
        <time>2015-06-07T12:58:35Z</time>
      </trkpt>
      <trkpt lat="45.07546" lon="2.60803">
        <ele>1350.79</ele>
        <time>2015-06-07T12:58:47Z</time>
      </trkpt>
      <trkpt lat="45.07537" lon="2.60792">
        <ele>1349.83</ele>
        <time>2015-06-07T12:59:00Z</time>
      </trkpt>
      <trkpt lat="45.07527" lon="2.60778">
        <ele>1348.87</ele>
        <time>2015-06-07T12:59:12Z</time>
      </trkpt>
      <trkpt lat="45.07517" lon="2.60759">
        <ele>1348.39</ele>
        <time>2015-06-07T12:59:25Z</time>
      </trkpt>
      <trkpt lat="45.0751" lon="2.60747">
        <ele>1348.39</ele>
        <time>2015-06-07T12:59:35Z</time>
      </trkpt>
      <trkpt lat="45.07509" lon="2.60743">
        <ele>1348.39</ele>
        <time>2015-06-07T12:59:38Z</time>
      </trkpt>
      <trkpt lat="45.075" lon="2.60724">
        <ele>1348.39</ele>
        <time>2015-06-07T12:59:52Z</time>
      </trkpt>
      <trkpt lat="45.07493" lon="2.60711">
        <ele>1349.35</ele>
        <time>2015-06-07T13:00:03Z</time>
      </trkpt>
      <trkpt lat="45.07485" lon="2.60697">
        <ele>1349.83</ele>
        <time>2015-06-07T13:00:15Z</time>
      </trkpt>
      <trkpt lat="45.07476" lon="2.60676">
        <ele>1348.87</ele>
        <time>2015-06-07T13:00:29Z</time>
      </trkpt>
      <trkpt lat="45.07474" lon="2.60661">
        <ele>1351.27</ele>
        <time>2015-06-07T13:00:39Z</time>
      </trkpt>
      <trkpt lat="45.07472" lon="2.60643">
        <ele>1350.79</ele>
        <time>2015-06-07T13:00:50Z</time>
      </trkpt>
      <trkpt lat="45.0747" lon="2.60622">
        <ele>1352.71</ele>
        <time>2015-06-07T13:01:05Z</time>
      </trkpt>
      <trkpt lat="45.07473" lon="2.60606">
        <ele>1355.6</ele>
        <time>2015-06-07T13:01:17Z</time>
      </trkpt>
      <trkpt lat="45.07475" lon="2.60592">
        <ele>1356.08</ele>
        <time>2015-06-07T13:01:28Z</time>
      </trkpt>
      <trkpt lat="45.07479" lon="2.60577">
        <ele>1358</ele>
        <time>2015-06-07T13:01:38Z</time>
      </trkpt>
      <trkpt lat="45.0748" lon="2.60562">
        <ele>1359.92</ele>
        <time>2015-06-07T13:01:50Z</time>
      </trkpt>
      <trkpt lat="45.07484" lon="2.60543">
        <ele>1360.4</ele>
        <time>2015-06-07T13:02:05Z</time>
      </trkpt>
      <trkpt lat="45.07485" lon="2.60523">
        <ele>1362.33</ele>
        <time>2015-06-07T13:02:18Z</time>
      </trkpt>
      <trkpt lat="45.07485" lon="2.60506">
        <ele>1359.92</ele>
        <time>2015-06-07T13:02:30Z</time>
      </trkpt>
      <trkpt lat="45.07487" lon="2.60486">
        <ele>1358.48</ele>
        <time>2015-06-07T13:02:43Z</time>
      </trkpt>
      <trkpt lat="45.07487" lon="2.60485">
        <ele>1358.48</ele>
        <time>2015-06-07T13:02:44Z</time>
      </trkpt>
      <trkpt lat="45.07487" lon="2.60468">
        <ele>1360.4</ele>
        <time>2015-06-07T13:02:56Z</time>
      </trkpt>
      <trkpt lat="45.07486" lon="2.60451">
        <ele>1358</ele>
        <time>2015-06-07T13:03:07Z</time>
      </trkpt>
      <trkpt lat="45.07486" lon="2.60434">
        <ele>1358</ele>
        <time>2015-06-07T13:03:19Z</time>
      </trkpt>
      <trkpt lat="45.07483" lon="2.60417">
        <ele>1358.48</ele>
        <time>2015-06-07T13:03:31Z</time>
      </trkpt>
      <trkpt lat="45.07483" lon="2.60412">
        <ele>1358.48</ele>
        <time>2015-06-07T13:03:34Z</time>
      </trkpt>
      <trkpt lat="45.07483" lon="2.60395">
        <ele>1358.96</ele>
        <time>2015-06-07T13:03:46Z</time>
      </trkpt>
      <trkpt lat="45.07483" lon="2.60378">
        <ele>1359.92</ele>
        <time>2015-06-07T13:03:58Z</time>
      </trkpt>
      <trkpt lat="45.07482" lon="2.60363">
        <ele>1361.36</ele>
        <time>2015-06-07T13:04:09Z</time>
      </trkpt>
      <trkpt lat="45.07481" lon="2.60347">
        <ele>1363.29</ele>
        <time>2015-06-07T13:04:20Z</time>
      </trkpt>
      <trkpt lat="45.0748" lon="2.60344">
        <ele>1363.77</ele>
        <time>2015-06-07T13:04:22Z</time>
      </trkpt>
      <trkpt lat="45.07476" lon="2.60328">
        <ele>1365.21</ele>
        <time>2015-06-07T13:04:33Z</time>
      </trkpt>
      <trkpt lat="45.07474" lon="2.60312">
        <ele>1365.69</ele>
        <time>2015-06-07T13:04:45Z</time>
      </trkpt>
      <trkpt lat="45.07472" lon="2.60297">
        <ele>1365.21</ele>
        <time>2015-06-07T13:04:56Z</time>
      </trkpt>
      <trkpt lat="45.07472" lon="2.6029">
        <ele>1365.21</ele>
        <time>2015-06-07T13:05:02Z</time>
      </trkpt>
      <trkpt lat="45.0747" lon="2.60273">
        <ele>1367.13</ele>
        <time>2015-06-07T13:05:15Z</time>
      </trkpt>
      <trkpt lat="45.07471" lon="2.60255">
        <ele>1369.54</ele>
        <time>2015-06-07T13:05:29Z</time>
      </trkpt>
      <trkpt lat="45.07474" lon="2.60238">
        <ele>1371.46</ele>
        <time>2015-06-07T13:05:43Z</time>
      </trkpt>
      <trkpt lat="45.07476" lon="2.60228">
        <ele>1370.98</ele>
        <time>2015-06-07T13:05:51Z</time>
      </trkpt>
      <trkpt lat="45.07481" lon="2.60213">
        <ele>1370.5</ele>
        <time>2015-06-07T13:06:04Z</time>
      </trkpt>
      <trkpt lat="45.07484" lon="2.60198">
        <ele>1371.46</ele>
        <time>2015-06-07T13:06:15Z</time>
      </trkpt>
      <trkpt lat="45.07483" lon="2.60193">
        <ele>1371.94</ele>
        <time>2015-06-07T13:06:18Z</time>
      </trkpt>
      <trkpt lat="45.07483" lon="2.60176">
        <ele>1373.38</ele>
        <time>2015-06-07T13:06:30Z</time>
      </trkpt>
      <trkpt lat="45.07485" lon="2.60162">
        <ele>1374.82</ele>
        <time>2015-06-07T13:06:41Z</time>
      </trkpt>
      <trkpt lat="45.07485" lon="2.60155">
        <ele>1375.78</ele>
        <time>2015-06-07T13:06:46Z</time>
      </trkpt>
      <trkpt lat="45.07486" lon="2.60145">
        <ele>1380.11</ele>
        <time>2015-06-07T13:06:57Z</time>
      </trkpt>
      <trkpt lat="45.07484" lon="2.60132">
        <ele>1382.03</ele>
        <time>2015-06-07T13:07:10Z</time>
      </trkpt>
      <trkpt lat="45.07486" lon="2.60126">
        <ele>1383.96</ele>
        <time>2015-06-07T13:07:15Z</time>
      </trkpt>
      <trkpt lat="45.07489" lon="2.60113">
        <ele>1384.44</ele>
        <time>2015-06-07T13:07:26Z</time>
      </trkpt>
      <trkpt lat="45.07488" lon="2.60103">
        <ele>1384.92</ele>
        <time>2015-06-07T13:07:37Z</time>
      </trkpt>
      <trkpt lat="45.07483" lon="2.60091">
        <ele>1386.36</ele>
        <time>2015-06-07T13:07:50Z</time>
      </trkpt>
      <trkpt lat="45.07484" lon="2.60079">
        <ele>1387.32</ele>
        <time>2015-06-07T13:08:03Z</time>
      </trkpt>
      <trkpt lat="45.07486" lon="2.60064">
        <ele>1388.76</ele>
        <time>2015-06-07T13:08:15Z</time>
      </trkpt>
      <trkpt lat="45.07487" lon="2.60061">
        <ele>1388.76</ele>
        <time>2015-06-07T13:08:17Z</time>
      </trkpt>
      <trkpt lat="45.07495" lon="2.60045">
        <ele>1389.72</ele>
        <time>2015-06-07T13:08:29Z</time>
      </trkpt>
      <trkpt lat="45.07495" lon="2.60042">
        <ele>1388.28</ele>
        <time>2015-06-07T13:08:40Z</time>
      </trkpt>
      <trkpt lat="45.07495" lon="2.60041">
        <ele>1388.28</ele>
        <time>2015-06-07T13:08:54Z</time>
      </trkpt>
      <trkpt lat="45.07498" lon="2.60031">
        <ele>1387.32</ele>
        <time>2015-06-07T13:09:02Z</time>
      </trkpt>
      <trkpt lat="45.07499" lon="2.60028">
        <ele>1387.32</ele>
        <time>2015-06-07T13:09:04Z</time>
      </trkpt>
      <trkpt lat="45.07496" lon="2.60008">
        <ele>1387.8</ele>
        <time>2015-06-07T13:09:17Z</time>
      </trkpt>
      <trkpt lat="45.07495" lon="2.59997">
        <ele>1388.28</ele>
        <time>2015-06-07T13:09:23Z</time>
      </trkpt>
      <trkpt lat="45.07494" lon="2.59991">
        <ele>1388.76</ele>
        <time>2015-06-07T13:09:27Z</time>
      </trkpt>
      <trkpt lat="45.07494" lon="2.59989">
        <ele>1388.76</ele>
        <time>2015-06-07T13:09:29Z</time>
      </trkpt>
      <trkpt lat="45.07492" lon="2.59975">
        <ele>1388.76</ele>
        <time>2015-06-07T13:09:39Z</time>
      </trkpt>
      <trkpt lat="45.07492" lon="2.59953">
        <ele>1389.72</ele>
        <time>2015-06-07T13:09:52Z</time>
      </trkpt>
      <trkpt lat="45.07493" lon="2.59938">
        <ele>1391.65</ele>
        <time>2015-06-07T13:10:02Z</time>
      </trkpt>
      <trkpt lat="45.07494" lon="2.59935">
        <ele>1392.61</ele>
        <time>2015-06-07T13:10:04Z</time>
      </trkpt>
      <trkpt lat="45.07496" lon="2.5993">
        <ele>1393.57</ele>
        <time>2015-06-07T13:10:08Z</time>
      </trkpt>
      <trkpt lat="45.07497" lon="2.59923">
        <ele>1393.57</ele>
        <time>2015-06-07T13:10:13Z</time>
      </trkpt>
      <trkpt lat="45.07495" lon="2.59899">
        <ele>1391.65</ele>
        <time>2015-06-07T13:10:27Z</time>
      </trkpt>
      <trkpt lat="45.07494" lon="2.59884">
        <ele>1391.17</ele>
        <time>2015-06-07T13:10:37Z</time>
      </trkpt>
      <trkpt lat="45.07494" lon="2.59877">
        <ele>1392.13</ele>
        <time>2015-06-07T13:10:42Z</time>
      </trkpt>
      <trkpt lat="45.07494" lon="2.59874">
        <ele>1392.13</ele>
        <time>2015-06-07T13:10:44Z</time>
      </trkpt>
      <trkpt lat="45.07495" lon="2.59865">
        <ele>1392.61</ele>
        <time>2015-06-07T13:10:50Z</time>
      </trkpt>
      <trkpt lat="45.0749" lon="2.59847">
        <ele>1392.61</ele>
        <time>2015-06-07T13:11:02Z</time>
      </trkpt>
      <trkpt lat="45.07486" lon="2.59833">
        <ele>1391.17</ele>
        <time>2015-06-07T13:11:12Z</time>
      </trkpt>
      <trkpt lat="45.07483" lon="2.59817">
        <ele>1388.76</ele>
        <time>2015-06-07T13:11:23Z</time>
      </trkpt>
      <trkpt lat="45.0748" lon="2.59798">
        <ele>1388.28</ele>
        <time>2015-06-07T13:11:34Z</time>
      </trkpt>
      <trkpt lat="45.07477" lon="2.5979">
        <ele>1387.8</ele>
        <time>2015-06-07T13:11:39Z</time>
      </trkpt>
      <trkpt lat="45.07476" lon="2.59785">
        <ele>1386.36</ele>
        <time>2015-06-07T13:11:43Z</time>
      </trkpt>
      <trkpt lat="45.07474" lon="2.59776">
        <ele>1386.84</ele>
        <time>2015-06-07T13:11:49Z</time>
      </trkpt>
      <trkpt lat="45.0747" lon="2.59759">
        <ele>1387.32</ele>
        <time>2015-06-07T13:12:01Z</time>
      </trkpt>
      <trkpt lat="45.07467" lon="2.59743">
        <ele>1387.32</ele>
        <time>2015-06-07T13:12:12Z</time>
      </trkpt>
      <trkpt lat="45.07465" lon="2.59738">
        <ele>1388.28</ele>
        <time>2015-06-07T13:12:16Z</time>
      </trkpt>
      <trkpt lat="45.07464" lon="2.59726">
        <ele>1387.8</ele>
        <time>2015-06-07T13:12:24Z</time>
      </trkpt>
      <trkpt lat="45.07459" lon="2.59704">
        <ele>1386.84</ele>
        <time>2015-06-07T13:12:38Z</time>
      </trkpt>
      <trkpt lat="45.07454" lon="2.59688">
        <ele>1388.76</ele>
        <time>2015-06-07T13:12:50Z</time>
      </trkpt>
      <trkpt lat="45.07453" lon="2.59687">
        <ele>1389.24</ele>
        <time>2015-06-07T13:12:51Z</time>
      </trkpt>
      <trkpt lat="45.07448" lon="2.59671">
        <ele>1388.28</ele>
        <time>2015-06-07T13:13:02Z</time>
      </trkpt>
      <trkpt lat="45.07443" lon="2.59653">
        <ele>1385.88</ele>
        <time>2015-06-07T13:13:13Z</time>
      </trkpt>
      <trkpt lat="45.07439" lon="2.59636">
        <ele>1385.88</ele>
        <time>2015-06-07T13:13:24Z</time>
      </trkpt>
      <trkpt lat="45.07436" lon="2.59617">
        <ele>1385.4</ele>
        <time>2015-06-07T13:13:36Z</time>
      </trkpt>
      <trkpt lat="45.07435" lon="2.59612">
        <ele>1385.4</ele>
        <time>2015-06-07T13:13:39Z</time>
      </trkpt>
      <trkpt lat="45.07433" lon="2.59604">
        <ele>1385.88</ele>
        <time>2015-06-07T13:13:44Z</time>
      </trkpt>
      <trkpt lat="45.07427" lon="2.59588">
        <ele>1386.84</ele>
        <time>2015-06-07T13:13:56Z</time>
      </trkpt>
      <trkpt lat="45.07424" lon="2.59584">
        <ele>1387.8</ele>
        <time>2015-06-07T13:14:00Z</time>
      </trkpt>
      <trkpt lat="45.07416" lon="2.59569">
        <ele>1384.92</ele>
        <time>2015-06-07T13:14:12Z</time>
      </trkpt>
      <trkpt lat="45.07409" lon="2.5956">
        <ele>1383.47</ele>
        <time>2015-06-07T13:14:22Z</time>
      </trkpt>
      <trkpt lat="45.07398" lon="2.59551">
        <ele>1383.47</ele>
        <time>2015-06-07T13:14:33Z</time>
      </trkpt>
      <trkpt lat="45.07389" lon="2.59538">
        <ele>1381.55</ele>
        <time>2015-06-07T13:14:44Z</time>
      </trkpt>
      <trkpt lat="45.07383" lon="2.5953">
        <ele>1381.55</ele>
        <time>2015-06-07T13:14:52Z</time>
      </trkpt>
      <trkpt lat="45.07376" lon="2.5952">
        <ele>1382.03</ele>
        <time>2015-06-07T13:15:04Z</time>
      </trkpt>
      <trkpt lat="45.07365" lon="2.59513">
        <ele>1380.11</ele>
        <time>2015-06-07T13:15:16Z</time>
      </trkpt>
      <trkpt lat="45.07363" lon="2.59512">
        <ele>1379.15</ele>
        <time>2015-06-07T13:15:18Z</time>
      </trkpt>
      <trkpt lat="45.07355" lon="2.59507">
        <ele>1375.3</ele>
        <time>2015-06-07T13:15:27Z</time>
      </trkpt>
      <trkpt lat="45.07353" lon="2.59503">
        <ele>1374.34</ele>
        <time>2015-06-07T13:15:30Z</time>
      </trkpt>
      <trkpt lat="45.07349" lon="2.595">
        <ele>1374.34</ele>
        <time>2015-06-07T13:15:35Z</time>
      </trkpt>
      <trkpt lat="45.07339" lon="2.59499">
        <ele>1374.82</ele>
        <time>2015-06-07T13:15:44Z</time>
      </trkpt>
      <trkpt lat="45.07328" lon="2.59497">
        <ele>1371.46</ele>
        <time>2015-06-07T13:15:54Z</time>
      </trkpt>
      <trkpt lat="45.07312" lon="2.59495">
        <ele>1368.09</ele>
        <time>2015-06-07T13:16:08Z</time>
      </trkpt>
      <trkpt lat="45.07297" lon="2.59493">
        <ele>1367.61</ele>
        <time>2015-06-07T13:16:20Z</time>
      </trkpt>
      <trkpt lat="45.07289" lon="2.59492">
        <ele>1366.17</ele>
        <time>2015-06-07T13:16:27Z</time>
      </trkpt>
      <trkpt lat="45.07273" lon="2.59489">
        <ele>1369.05</ele>
        <time>2015-06-07T13:16:43Z</time>
      </trkpt>
      <trkpt lat="45.07272" lon="2.59489">
        <ele>1369.54</ele>
        <time>2015-06-07T13:16:44Z</time>
      </trkpt>
      <trkpt lat="45.07265" lon="2.5949">
        <ele>1370.02</ele>
        <time>2015-06-07T13:16:49Z</time>
      </trkpt>
      <trkpt lat="45.07248" lon="2.5949">
        <ele>1366.65</ele>
        <time>2015-06-07T13:17:04Z</time>
      </trkpt>
      <trkpt lat="45.07234" lon="2.59488">
        <ele>1366.65</ele>
        <time>2015-06-07T13:17:17Z</time>
      </trkpt>
      <trkpt lat="45.07231" lon="2.59488">
        <ele>1367.13</ele>
        <time>2015-06-07T13:17:19Z</time>
      </trkpt>
      <trkpt lat="45.07219" lon="2.59486">
        <ele>1366.65</ele>
        <time>2015-06-07T13:17:29Z</time>
      </trkpt>
      <trkpt lat="45.07217" lon="2.59486">
        <ele>1366.17</ele>
        <time>2015-06-07T13:17:32Z</time>
      </trkpt>
      <trkpt lat="45.07213" lon="2.59485">
        <ele>1366.65</ele>
        <time>2015-06-07T13:17:35Z</time>
      </trkpt>
      <trkpt lat="45.07203" lon="2.59484">
        <ele>1368.09</ele>
        <time>2015-06-07T13:17:44Z</time>
      </trkpt>
      <trkpt lat="45.07201" lon="2.59484">
        <ele>1368.09</ele>
        <time>2015-06-07T13:17:46Z</time>
      </trkpt>
      <trkpt lat="45.07194" lon="2.59481">
        <ele>1369.54</ele>
        <time>2015-06-07T13:17:52Z</time>
      </trkpt>
      <trkpt lat="45.0718" lon="2.59474">
        <ele>1370.5</ele>
        <time>2015-06-07T13:18:05Z</time>
      </trkpt>
      <trkpt lat="45.07169" lon="2.59466">
        <ele>1369.05</ele>
        <time>2015-06-07T13:18:16Z</time>
      </trkpt>
      <trkpt lat="45.07168" lon="2.59465">
        <ele>1368.57</ele>
        <time>2015-06-07T13:18:17Z</time>
      </trkpt>
      <trkpt lat="45.07155" lon="2.59452">
        <ele>1368.09</ele>
        <time>2015-06-07T13:18:30Z</time>
      </trkpt>
      <trkpt lat="45.07145" lon="2.5944">
        <ele>1370.02</ele>
        <time>2015-06-07T13:18:43Z</time>
      </trkpt>
      <trkpt lat="45.07141" lon="2.59435">
        <ele>1370.02</ele>
        <time>2015-06-07T13:18:57Z</time>
      </trkpt>
      <trkpt lat="45.07141" lon="2.59435">
        <ele>1370.5</ele>
        <time>2015-06-07T13:19:17Z</time>
      </trkpt>
      <trkpt lat="45.0714" lon="2.59434">
        <ele>1371.46</ele>
        <time>2015-06-07T13:19:32Z</time>
      </trkpt>
      <trkpt lat="45.07134" lon="2.59428">
        <ele>1374.82</ele>
        <time>2015-06-07T13:19:44Z</time>
      </trkpt>
      <trkpt lat="45.07133" lon="2.59428">
        <ele>1374.82</ele>
        <time>2015-06-07T13:20:11Z</time>
      </trkpt>
      <trkpt lat="45.07133" lon="2.59428">
        <ele>1374.34</ele>
        <time>2015-06-07T13:20:37Z</time>
      </trkpt>
      <trkpt lat="45.07134" lon="2.59427">
        <ele>1374.82</ele>
        <time>2015-06-07T13:21:08Z</time>
      </trkpt>
      <trkpt lat="45.07134" lon="2.59426">
        <ele>1375.3</ele>
        <time>2015-06-07T13:21:29Z</time>
      </trkpt>
      <trkpt lat="45.07134" lon="2.59426">
        <ele>1374.82</ele>
        <time>2015-06-07T13:21:48Z</time>
      </trkpt>
      <trkpt lat="45.07134" lon="2.59425">
        <ele>1375.3</ele>
        <time>2015-06-07T13:22:11Z</time>
      </trkpt>
      <trkpt lat="45.07134" lon="2.59425">
        <ele>1375.3</ele>
        <time>2015-06-07T13:22:30Z</time>
      </trkpt>
      <trkpt lat="45.07134" lon="2.59424">
        <ele>1376.26</ele>
        <time>2015-06-07T13:22:46Z</time>
      </trkpt>
      <trkpt lat="45.07132" lon="2.59423">
        <ele>1376.75</ele>
        <time>2015-06-07T13:22:48Z</time>
      </trkpt>
      <trkpt lat="45.07124" lon="2.5942">
        <ele>1379.63</ele>
        <time>2015-06-07T13:23:00Z</time>
      </trkpt>
      <trkpt lat="45.07117" lon="2.59416">
        <ele>1381.07</ele>
        <time>2015-06-07T13:23:11Z</time>
      </trkpt>
      <trkpt lat="45.0711" lon="2.59411">
        <ele>1382.03</ele>
        <time>2015-06-07T13:23:23Z</time>
      </trkpt>
      <trkpt lat="45.07106" lon="2.59409">
        <ele>1382.51</ele>
        <time>2015-06-07T13:23:29Z</time>
      </trkpt>
      <trkpt lat="45.07104" lon="2.59409">
        <ele>1382.03</ele>
        <time>2015-06-07T13:23:31Z</time>
      </trkpt>
      <trkpt lat="45.07092" lon="2.59403">
        <ele>1380.59</ele>
        <time>2015-06-07T13:23:42Z</time>
      </trkpt>
      <trkpt lat="45.07088" lon="2.59399">
        <ele>1380.11</ele>
        <time>2015-06-07T13:23:46Z</time>
      </trkpt>
      <trkpt lat="45.07083" lon="2.59395">
        <ele>1379.63</ele>
        <time>2015-06-07T13:23:51Z</time>
      </trkpt>
      <trkpt lat="45.0707" lon="2.59392">
        <ele>1379.63</ele>
        <time>2015-06-07T13:24:06Z</time>
      </trkpt>
      <trkpt lat="45.07059" lon="2.59385">
        <ele>1382.03</ele>
        <time>2015-06-07T13:24:17Z</time>
      </trkpt>
      <trkpt lat="45.07057" lon="2.59384">
        <ele>1382.51</ele>
        <time>2015-06-07T13:24:19Z</time>
      </trkpt>
      <trkpt lat="45.07051" lon="2.5938">
        <ele>1382.99</ele>
        <time>2015-06-07T13:24:27Z</time>
      </trkpt>
      <trkpt lat="45.07035" lon="2.59373">
        <ele>1380.11</ele>
        <time>2015-06-07T13:24:42Z</time>
      </trkpt>
      <trkpt lat="45.07025" lon="2.59367">
        <ele>1378.67</ele>
        <time>2015-06-07T13:24:55Z</time>
      </trkpt>
      <trkpt lat="45.07022" lon="2.59368">
        <ele>1380.59</ele>
        <time>2015-06-07T13:25:06Z</time>
      </trkpt>
      <trkpt lat="45.07008" lon="2.59372">
        <ele>1380.11</ele>
        <time>2015-06-07T13:25:20Z</time>
      </trkpt>
      <trkpt lat="45.07007" lon="2.59373">
        <ele>1380.11</ele>
        <time>2015-06-07T13:25:21Z</time>
      </trkpt>
      <trkpt lat="45.07002" lon="2.59375">
        <ele>1380.11</ele>
        <time>2015-06-07T13:25:26Z</time>
      </trkpt>
      <trkpt lat="45.06998" lon="2.59377">
        <ele>1380.59</ele>
        <time>2015-06-07T13:25:31Z</time>
      </trkpt>
      <trkpt lat="45.06985" lon="2.59378">
        <ele>1379.15</ele>
        <time>2015-06-07T13:25:41Z</time>
      </trkpt>
      <trkpt lat="45.0698" lon="2.5938">
        <ele>1378.67</ele>
        <time>2015-06-07T13:25:46Z</time>
      </trkpt>
      <trkpt lat="45.06977" lon="2.59379">
        <ele>1378.67</ele>
        <time>2015-06-07T13:25:49Z</time>
      </trkpt>
      <trkpt lat="45.06961" lon="2.59384">
        <ele>1375.78</ele>
        <time>2015-06-07T13:26:03Z</time>
      </trkpt>
      <trkpt lat="45.06952" lon="2.59391">
        <ele>1373.86</ele>
        <time>2015-06-07T13:26:14Z</time>
      </trkpt>
      <trkpt lat="45.06939" lon="2.5939">
        <ele>1369.54</ele>
        <time>2015-06-07T13:26:28Z</time>
      </trkpt>
      <trkpt lat="45.06926" lon="2.59391">
        <ele>1366.17</ele>
        <time>2015-06-07T13:26:40Z</time>
      </trkpt>
      <trkpt lat="45.06915" lon="2.59391">
        <ele>1361.36</ele>
        <time>2015-06-07T13:26:53Z</time>
      </trkpt>
      <trkpt lat="45.06912" lon="2.59392">
        <ele>1360.88</ele>
        <time>2015-06-07T13:26:56Z</time>
      </trkpt>
      <trkpt lat="45.06902" lon="2.5939">
        <ele>1359.92</ele>
        <time>2015-06-07T13:27:05Z</time>
      </trkpt>
      <trkpt lat="45.06886" lon="2.59392">
        <ele>1356.56</ele>
        <time>2015-06-07T13:27:20Z</time>
      </trkpt>
      <trkpt lat="45.06875" lon="2.59395">
        <ele>1354.15</ele>
        <time>2015-06-07T13:27:31Z</time>
      </trkpt>
      <trkpt lat="45.0686" lon="2.59397">
        <ele>1354.15</ele>
        <time>2015-06-07T13:27:44Z</time>
      </trkpt>
      <trkpt lat="45.06853" lon="2.59396">
        <ele>1354.15</ele>
        <time>2015-06-07T13:27:50Z</time>
      </trkpt>
      <trkpt lat="45.0685" lon="2.59397">
        <ele>1354.15</ele>
        <time>2015-06-07T13:27:52Z</time>
      </trkpt>
      <trkpt lat="45.06843" lon="2.59398">
        <ele>1354.15</ele>
        <time>2015-06-07T13:27:59Z</time>
      </trkpt>
      <trkpt lat="45.06837" lon="2.59398">
        <ele>1353.67</ele>
        <time>2015-06-07T13:28:04Z</time>
      </trkpt>
      <trkpt lat="45.0682" lon="2.59399">
        <ele>1351.75</ele>
        <time>2015-06-07T13:28:19Z</time>
      </trkpt>
      <trkpt lat="45.06805" lon="2.59395">
        <ele>1349.35</ele>
        <time>2015-06-07T13:28:32Z</time>
      </trkpt>
      <trkpt lat="45.06792" lon="2.59393">
        <ele>1347.43</ele>
        <time>2015-06-07T13:28:44Z</time>
      </trkpt>
      <trkpt lat="45.06782" lon="2.59387">
        <ele>1346.46</ele>
        <time>2015-06-07T13:28:53Z</time>
      </trkpt>
      <trkpt lat="45.06774" lon="2.59384">
        <ele>1346.46</ele>
        <time>2015-06-07T13:29:00Z</time>
      </trkpt>
      <trkpt lat="45.0677" lon="2.59381">
        <ele>1345.98</ele>
        <time>2015-06-07T13:29:04Z</time>
      </trkpt>
      <trkpt lat="45.06768" lon="2.5938">
        <ele>1345.5</ele>
        <time>2015-06-07T13:29:06Z</time>
      </trkpt>
      <trkpt lat="45.06755" lon="2.59366">
        <ele>1342.62</ele>
        <time>2015-06-07T13:29:21Z</time>
      </trkpt>
      <trkpt lat="45.06754" lon="2.59364">
        <ele>1342.62</ele>
        <time>2015-06-07T13:29:23Z</time>
      </trkpt>
      <trkpt lat="45.06744" lon="2.59341">
        <ele>1340.7</ele>
        <time>2015-06-07T13:29:39Z</time>
      </trkpt>
      <trkpt lat="45.06732" lon="2.59324">
        <ele>1334.93</ele>
        <time>2015-06-07T13:29:55Z</time>
      </trkpt>
      <trkpt lat="45.06725" lon="2.59317">
        <ele>1333.49</ele>
        <time>2015-06-07T13:30:04Z</time>
      </trkpt>
      <trkpt lat="45.06716" lon="2.59314">
        <ele>1331.08</ele>
        <time>2015-06-07T13:30:15Z</time>
      </trkpt>
      <trkpt lat="45.06712" lon="2.59315">
        <ele>1330.12</ele>
        <time>2015-06-07T13:30:23Z</time>
      </trkpt>
      <trkpt lat="45.06713" lon="2.59322">
        <ele>1330.12</ele>
        <time>2015-06-07T13:30:27Z</time>
      </trkpt>
      <trkpt lat="45.06715" lon="2.59326">
        <ele>1330.12</ele>
        <time>2015-06-07T13:30:32Z</time>
      </trkpt>
      <trkpt lat="45.06719" lon="2.5934">
        <ele>1327.24</ele>
        <time>2015-06-07T13:30:45Z</time>
      </trkpt>
      <trkpt lat="45.06724" lon="2.59353">
        <ele>1325.8</ele>
        <time>2015-06-07T13:30:59Z</time>
      </trkpt>
      <trkpt lat="45.06728" lon="2.59371">
        <ele>1326.28</ele>
        <time>2015-06-07T13:31:12Z</time>
      </trkpt>
      <trkpt lat="45.0673" lon="2.59382">
        <ele>1323.39</ele>
        <time>2015-06-07T13:31:19Z</time>
      </trkpt>
      <trkpt lat="45.06733" lon="2.59404">
        <ele>1323.87</ele>
        <time>2015-06-07T13:31:32Z</time>
      </trkpt>
      <trkpt lat="45.0673" lon="2.5942">
        <ele>1325.31</ele>
        <time>2015-06-07T13:31:41Z</time>
      </trkpt>
      <trkpt lat="45.0673" lon="2.59423">
        <ele>1325.31</ele>
        <time>2015-06-07T13:31:43Z</time>
      </trkpt>
      <trkpt lat="45.06729" lon="2.59426">
        <ele>1325.31</ele>
        <time>2015-06-07T13:31:45Z</time>
      </trkpt>
      <trkpt lat="45.06728" lon="2.59429">
        <ele>1325.31</ele>
        <time>2015-06-07T13:31:47Z</time>
      </trkpt>
      <trkpt lat="45.06727" lon="2.59434">
        <ele>1325.31</ele>
        <time>2015-06-07T13:31:50Z</time>
      </trkpt>
      <trkpt lat="45.06729" lon="2.59445">
        <ele>1325.8</ele>
        <time>2015-06-07T13:31:56Z</time>
      </trkpt>
      <trkpt lat="45.06729" lon="2.59452">
        <ele>1326.28</ele>
        <time>2015-06-07T13:32:01Z</time>
      </trkpt>
      <trkpt lat="45.06729" lon="2.59462">
        <ele>1325.8</ele>
        <time>2015-06-07T13:32:07Z</time>
      </trkpt>
      <trkpt lat="45.06728" lon="2.59466">
        <ele>1326.28</ele>
        <time>2015-06-07T13:32:10Z</time>
      </trkpt>
      <trkpt lat="45.06728" lon="2.5948">
        <ele>1326.28</ele>
        <time>2015-06-07T13:32:21Z</time>
      </trkpt>
      <trkpt lat="45.06732" lon="2.59485">
        <ele>1326.28</ele>
        <time>2015-06-07T13:32:26Z</time>
      </trkpt>
      <trkpt lat="45.06733" lon="2.59488">
        <ele>1325.31</ele>
        <time>2015-06-07T13:32:28Z</time>
      </trkpt>
      <trkpt lat="45.06738" lon="2.59491">
        <ele>1322.91</ele>
        <time>2015-06-07T13:32:34Z</time>
      </trkpt>
      <trkpt lat="45.0675" lon="2.595">
        <ele>1319.55</ele>
        <time>2015-06-07T13:32:48Z</time>
      </trkpt>
      <trkpt lat="45.06753" lon="2.59502">
        <ele>1317.62</ele>
        <time>2015-06-07T13:32:52Z</time>
      </trkpt>
      <trkpt lat="45.06766" lon="2.59508">
        <ele>1313.78</ele>
        <time>2015-06-07T13:33:03Z</time>
      </trkpt>
      <trkpt lat="45.0678" lon="2.59516">
        <ele>1311.86</ele>
        <time>2015-06-07T13:33:16Z</time>
      </trkpt>
      <trkpt lat="45.06792" lon="2.59527">
        <ele>1312.82</ele>
        <time>2015-06-07T13:33:28Z</time>
      </trkpt>
      <trkpt lat="45.06795" lon="2.59531">
        <ele>1313.3</ele>
        <time>2015-06-07T13:33:31Z</time>
      </trkpt>
      <trkpt lat="45.06799" lon="2.59534">
        <ele>1312.82</ele>
        <time>2015-06-07T13:33:35Z</time>
      </trkpt>
      <trkpt lat="45.06813" lon="2.59542">
        <ele>1311.86</ele>
        <time>2015-06-07T13:33:48Z</time>
      </trkpt>
      <trkpt lat="45.06821" lon="2.59549">
        <ele>1311.38</ele>
        <time>2015-06-07T13:33:57Z</time>
      </trkpt>
      <trkpt lat="45.06829" lon="2.59556">
        <ele>1310.9</ele>
        <time>2015-06-07T13:34:10Z</time>
      </trkpt>
      <trkpt lat="45.06836" lon="2.59563">
        <ele>1311.38</ele>
        <time>2015-06-07T13:34:25Z</time>
      </trkpt>
      <trkpt lat="45.06843" lon="2.59572">
        <ele>1309.93</ele>
        <time>2015-06-07T13:34:36Z</time>
      </trkpt>
      <trkpt lat="45.06846" lon="2.59582">
        <ele>1311.38</ele>
        <time>2015-06-07T13:34:43Z</time>
      </trkpt>
      <trkpt lat="45.06849" lon="2.59591">
        <ele>1312.34</ele>
        <time>2015-06-07T13:34:48Z</time>
      </trkpt>
      <trkpt lat="45.06849" lon="2.59604">
        <ele>1314.26</ele>
        <time>2015-06-07T13:34:55Z</time>
      </trkpt>
      <trkpt lat="45.06849" lon="2.59623">
        <ele>1318.1</ele>
        <time>2015-06-07T13:35:06Z</time>
      </trkpt>
      <trkpt lat="45.06852" lon="2.59628">
        <ele>1317.62</ele>
        <time>2015-06-07T13:35:20Z</time>
      </trkpt>
      <trkpt lat="45.06854" lon="2.59628">
        <ele>1315.22</ele>
        <time>2015-06-07T13:35:39Z</time>
      </trkpt>
      <trkpt lat="45.06855" lon="2.59626">
        <ele>1312.82</ele>
        <time>2015-06-07T13:35:58Z</time>
      </trkpt>
      <trkpt lat="45.06854" lon="2.59625">
        <ele>1310.9</ele>
        <time>2015-06-07T13:36:20Z</time>
      </trkpt>
      <trkpt lat="45.06854" lon="2.59624">
        <ele>1309.45</ele>
        <time>2015-06-07T13:36:39Z</time>
      </trkpt>
      <trkpt lat="45.06857" lon="2.59629">
        <ele>1308.49</ele>
        <time>2015-06-07T13:36:54Z</time>
      </trkpt>
      <trkpt lat="45.06869" lon="2.59638">
        <ele>1305.61</ele>
        <time>2015-06-07T13:37:05Z</time>
      </trkpt>
      <trkpt lat="45.06882" lon="2.59639">
        <ele>1303.2</ele>
        <time>2015-06-07T13:37:15Z</time>
      </trkpt>
      <trkpt lat="45.06895" lon="2.59646">
        <ele>1300.8</ele>
        <time>2015-06-07T13:37:27Z</time>
      </trkpt>
      <trkpt lat="45.06905" lon="2.59657">
        <ele>1302.72</ele>
        <time>2015-06-07T13:37:39Z</time>
      </trkpt>
      <trkpt lat="45.06906" lon="2.59658">
        <ele>1303.2</ele>
        <time>2015-06-07T13:37:40Z</time>
      </trkpt>
      <trkpt lat="45.06906" lon="2.59666">
        <ele>1306.09</ele>
        <time>2015-06-07T13:37:45Z</time>
      </trkpt>
      <trkpt lat="45.06907" lon="2.59674">
        <ele>1309.93</ele>
        <time>2015-06-07T13:37:50Z</time>
      </trkpt>
      <trkpt lat="45.06907" lon="2.59677">
        <ele>1310.9</ele>
        <time>2015-06-07T13:37:52Z</time>
      </trkpt>
      <trkpt lat="45.06904" lon="2.5969">
        <ele>1313.3</ele>
        <time>2015-06-07T13:38:02Z</time>
      </trkpt>
      <trkpt lat="45.06893" lon="2.5969">
        <ele>1313.78</ele>
        <time>2015-06-07T13:38:17Z</time>
      </trkpt>
      <trkpt lat="45.06876" lon="2.59694">
        <ele>1314.26</ele>
        <time>2015-06-07T13:38:30Z</time>
      </trkpt>
      <trkpt lat="45.06867" lon="2.59696">
        <ele>1314.74</ele>
        <time>2015-06-07T13:38:41Z</time>
      </trkpt>
      <trkpt lat="45.06858" lon="2.5969">
        <ele>1308.49</ele>
        <time>2015-06-07T13:38:55Z</time>
      </trkpt>
      <trkpt lat="45.06847" lon="2.5969">
        <ele>1305.13</ele>
        <time>2015-06-07T13:39:06Z</time>
      </trkpt>
      <trkpt lat="45.06833" lon="2.59691">
        <ele>1300.8</ele>
        <time>2015-06-07T13:39:23Z</time>
      </trkpt>
      <trkpt lat="45.06823" lon="2.59691">
        <ele>1295.03</ele>
        <time>2015-06-07T13:39:37Z</time>
      </trkpt>
      <trkpt lat="45.06816" lon="2.59677">
        <ele>1289.75</ele>
        <time>2015-06-07T13:39:52Z</time>
      </trkpt>
      <trkpt lat="45.0681" lon="2.59668">
        <ele>1283.98</ele>
        <time>2015-06-07T13:40:07Z</time>
      </trkpt>
      <trkpt lat="45.06807" lon="2.59661">
        <ele>1279.17</ele>
        <time>2015-06-07T13:40:24Z</time>
      </trkpt>
      <trkpt lat="45.06797" lon="2.59652">
        <ele>1275.33</ele>
        <time>2015-06-07T13:40:37Z</time>
      </trkpt>
      <trkpt lat="45.06783" lon="2.59647">
        <ele>1277.73</ele>
        <time>2015-06-07T13:40:53Z</time>
      </trkpt>
      <trkpt lat="45.06772" lon="2.59645">
        <ele>1278.69</ele>
        <time>2015-06-07T13:41:03Z</time>
      </trkpt>
      <trkpt lat="45.06767" lon="2.59643">
        <ele>1278.69</ele>
        <time>2015-06-07T13:41:08Z</time>
      </trkpt>
      <trkpt lat="45.06754" lon="2.5965">
        <ele>1277.25</ele>
        <time>2015-06-07T13:41:21Z</time>
      </trkpt>
      <trkpt lat="45.0675" lon="2.59651">
        <ele>1277.73</ele>
        <time>2015-06-07T13:41:24Z</time>
      </trkpt>
      <trkpt lat="45.06737" lon="2.59662">
        <ele>1279.65</ele>
        <time>2015-06-07T13:41:34Z</time>
      </trkpt>
      <trkpt lat="45.06732" lon="2.59664">
        <ele>1278.69</ele>
        <time>2015-06-07T13:41:39Z</time>
      </trkpt>
      <trkpt lat="45.06723" lon="2.5967">
        <ele>1277.73</ele>
        <time>2015-06-07T13:41:49Z</time>
      </trkpt>
      <trkpt lat="45.06715" lon="2.59674">
        <ele>1278.21</ele>
        <time>2015-06-07T13:41:56Z</time>
      </trkpt>
      <trkpt lat="45.06712" lon="2.59674">
        <ele>1277.25</ele>
        <time>2015-06-07T13:42:00Z</time>
      </trkpt>
      <trkpt lat="45.06702" lon="2.59681">
        <ele>1272.44</ele>
        <time>2015-06-07T13:42:12Z</time>
      </trkpt>
      <trkpt lat="45.06694" lon="2.59685">
        <ele>1269.08</ele>
        <time>2015-06-07T13:42:23Z</time>
      </trkpt>
      <trkpt lat="45.06682" lon="2.59686">
        <ele>1269.08</ele>
        <time>2015-06-07T13:42:34Z</time>
      </trkpt>
      <trkpt lat="45.06679" lon="2.59686">
        <ele>1269.08</ele>
        <time>2015-06-07T13:42:42Z</time>
      </trkpt>
      <trkpt lat="45.06665" lon="2.59686">
        <ele>1264.27</ele>
        <time>2015-06-07T13:42:57Z</time>
      </trkpt>
      <trkpt lat="45.06658" lon="2.59682">
        <ele>1261.87</ele>
        <time>2015-06-07T13:43:09Z</time>
      </trkpt>
      <trkpt lat="45.0665" lon="2.59683">
        <ele>1257.06</ele>
        <time>2015-06-07T13:43:20Z</time>
      </trkpt>
      <trkpt lat="45.06646" lon="2.59685">
        <ele>1256.1</ele>
        <time>2015-06-07T13:43:24Z</time>
      </trkpt>
      <trkpt lat="45.06644" lon="2.59688">
        <ele>1255.62</ele>
        <time>2015-06-07T13:43:27Z</time>
      </trkpt>
      <trkpt lat="45.0663" lon="2.59695">
        <ele>1255.14</ele>
        <time>2015-06-07T13:43:40Z</time>
      </trkpt>
      <trkpt lat="45.06621" lon="2.59699">
        <ele>1247.93</ele>
        <time>2015-06-07T13:43:54Z</time>
      </trkpt>
      <trkpt lat="45.0661" lon="2.59702">
        <ele>1246.49</ele>
        <time>2015-06-07T13:44:05Z</time>
      </trkpt>
      <trkpt lat="45.06598" lon="2.59698">
        <ele>1243.12</ele>
        <time>2015-06-07T13:44:18Z</time>
      </trkpt>
      <trkpt lat="45.06595" lon="2.597">
        <ele>1238.8</ele>
        <time>2015-06-07T13:44:29Z</time>
      </trkpt>
      <trkpt lat="45.06587" lon="2.59705">
        <ele>1235.43</ele>
        <time>2015-06-07T13:44:41Z</time>
      </trkpt>
      <trkpt lat="45.06588" lon="2.59715">
        <ele>1235.43</ele>
        <time>2015-06-07T13:44:53Z</time>
      </trkpt>
      <trkpt lat="45.06592" lon="2.59723">
        <ele>1234.95</ele>
        <time>2015-06-07T13:44:58Z</time>
      </trkpt>
      <trkpt lat="45.06594" lon="2.59731">
        <ele>1234.95</ele>
        <time>2015-06-07T13:45:11Z</time>
      </trkpt>
      <trkpt lat="45.06596" lon="2.59732">
        <ele>1235.43</ele>
        <time>2015-06-07T13:45:24Z</time>
      </trkpt>
      <trkpt lat="45.06597" lon="2.59736">
        <ele>1233.99</ele>
        <time>2015-06-07T13:45:41Z</time>
      </trkpt>
      <trkpt lat="45.06596" lon="2.5974">
        <ele>1233.99</ele>
        <time>2015-06-07T13:45:54Z</time>
      </trkpt>
      <trkpt lat="45.06591" lon="2.59737">
        <ele>1233.03</ele>
        <time>2015-06-07T13:46:04Z</time>
      </trkpt>
      <trkpt lat="45.06587" lon="2.59736">
        <ele>1231.11</ele>
        <time>2015-06-07T13:46:13Z</time>
      </trkpt>
      <trkpt lat="45.06587" lon="2.59743">
        <ele>1229.18</ele>
        <time>2015-06-07T13:46:23Z</time>
      </trkpt>
      <trkpt lat="45.06587" lon="2.59752">
        <ele>1227.26</ele>
        <time>2015-06-07T13:46:35Z</time>
      </trkpt>
      <trkpt lat="45.0658" lon="2.59757">
        <ele>1222.45</ele>
        <time>2015-06-07T13:46:46Z</time>
      </trkpt>
      <trkpt lat="45.0658" lon="2.59757">
        <ele>1221.49</ele>
        <time>2015-06-07T13:46:48Z</time>
      </trkpt>
      <trkpt lat="45.06569" lon="2.59755">
        <ele>1218.61</ele>
        <time>2015-06-07T13:46:59Z</time>
      </trkpt>
      <trkpt lat="45.06559" lon="2.59747">
        <ele>1216.21</ele>
        <time>2015-06-07T13:47:14Z</time>
      </trkpt>
      <trkpt lat="45.0655" lon="2.59738">
        <ele>1211.4</ele>
        <time>2015-06-07T13:47:26Z</time>
      </trkpt>
      <trkpt lat="45.06547" lon="2.59733">
        <ele>1207.55</ele>
        <time>2015-06-07T13:47:39Z</time>
      </trkpt>
      <trkpt lat="45.06537" lon="2.59738">
        <ele>1206.11</ele>
        <time>2015-06-07T13:47:53Z</time>
      </trkpt>
      <trkpt lat="45.06529" lon="2.59746">
        <ele>1203.71</ele>
        <time>2015-06-07T13:48:07Z</time>
      </trkpt>
      <trkpt lat="45.06522" lon="2.59753">
        <ele>1199.86</ele>
        <time>2015-06-07T13:48:18Z</time>
      </trkpt>
      <trkpt lat="45.06519" lon="2.59762">
        <ele>1197.46</ele>
        <time>2015-06-07T13:48:30Z</time>
      </trkpt>
      <trkpt lat="45.06518" lon="2.59774">
        <ele>1196.02</ele>
        <time>2015-06-07T13:48:43Z</time>
      </trkpt>
      <trkpt lat="45.06515" lon="2.59782">
        <ele>1194.09</ele>
        <time>2015-06-07T13:48:56Z</time>
      </trkpt>
      <trkpt lat="45.06514" lon="2.5979">
        <ele>1191.21</ele>
        <time>2015-06-07T13:49:11Z</time>
      </trkpt>
      <trkpt lat="45.06517" lon="2.59798">
        <ele>1190.73</ele>
        <time>2015-06-07T13:49:22Z</time>
      </trkpt>
      <trkpt lat="45.06523" lon="2.59803">
        <ele>1190.73</ele>
        <time>2015-06-07T13:49:38Z</time>
      </trkpt>
      <trkpt lat="45.06528" lon="2.59807">
        <ele>1190.73</ele>
        <time>2015-06-07T13:49:49Z</time>
      </trkpt>
      <trkpt lat="45.06532" lon="2.59811">
        <ele>1190.25</ele>
        <time>2015-06-07T13:50:04Z</time>
      </trkpt>
      <trkpt lat="45.0654" lon="2.59822">
        <ele>1192.17</ele>
        <time>2015-06-07T13:50:16Z</time>
      </trkpt>
      <trkpt lat="45.06543" lon="2.59826">
        <ele>1193.13</ele>
        <time>2015-06-07T13:50:30Z</time>
      </trkpt>
      <trkpt lat="45.06544" lon="2.59825">
        <ele>1194.09</ele>
        <time>2015-06-07T13:50:48Z</time>
      </trkpt>
      <trkpt lat="45.06545" lon="2.59826">
        <ele>1194.09</ele>
        <time>2015-06-07T13:50:57Z</time>
      </trkpt>
      <trkpt lat="45.06551" lon="2.59833">
        <ele>1190.73</ele>
        <time>2015-06-07T13:51:09Z</time>
      </trkpt>
      <trkpt lat="45.06549" lon="2.59843">
        <ele>1186.4</ele>
        <time>2015-06-07T13:51:23Z</time>
      </trkpt>
      <trkpt lat="45.06553" lon="2.59846">
        <ele>1181.12</ele>
        <time>2015-06-07T13:51:33Z</time>
      </trkpt>
      <trkpt lat="45.06555" lon="2.59848">
        <ele>1178.23</ele>
        <time>2015-06-07T13:51:44Z</time>
      </trkpt>
      <trkpt lat="45.06564" lon="2.59856">
        <ele>1176.31</ele>
        <time>2015-06-07T13:51:56Z</time>
      </trkpt>
      <trkpt lat="45.06567" lon="2.59867">
        <ele>1176.31</ele>
        <time>2015-06-07T13:52:06Z</time>
      </trkpt>
      <trkpt lat="45.06571" lon="2.59882">
        <ele>1178.23</ele>
        <time>2015-06-07T13:52:20Z</time>
      </trkpt>
      <trkpt lat="45.06568" lon="2.59887">
        <ele>1178.23</ele>
        <time>2015-06-07T13:52:31Z</time>
      </trkpt>
      <trkpt lat="45.06562" lon="2.59886">
        <ele>1177.27</ele>
        <time>2015-06-07T13:52:42Z</time>
      </trkpt>
      <trkpt lat="45.06552" lon="2.59895">
        <ele>1174.87</ele>
        <time>2015-06-07T13:52:55Z</time>
      </trkpt>
      <trkpt lat="45.06547" lon="2.59893">
        <ele>1172.95</ele>
        <time>2015-06-07T13:53:06Z</time>
      </trkpt>
      <trkpt lat="45.06545" lon="2.59891">
        <ele>1171.5</ele>
        <time>2015-06-07T13:53:23Z</time>
      </trkpt>
      <trkpt lat="45.06543" lon="2.5989">
        <ele>1170.06</ele>
        <time>2015-06-07T13:53:38Z</time>
      </trkpt>
      <trkpt lat="45.06538" lon="2.59898">
        <ele>1166.22</ele>
        <time>2015-06-07T13:53:55Z</time>
      </trkpt>
      <trkpt lat="45.06538" lon="2.59903">
        <ele>1163.81</ele>
        <time>2015-06-07T13:54:08Z</time>
      </trkpt>
      <trkpt lat="45.0654" lon="2.59906">
        <ele>1162.37</ele>
        <time>2015-06-07T13:54:15Z</time>
      </trkpt>
      <trkpt lat="45.06542" lon="2.59914">
        <ele>1156.12</ele>
        <time>2015-06-07T13:54:27Z</time>
      </trkpt>
      <trkpt lat="45.06543" lon="2.59916">
        <ele>1154.2</ele>
        <time>2015-06-07T13:54:45Z</time>
      </trkpt>
      <trkpt lat="45.06543" lon="2.59918">
        <ele>1153.72</ele>
        <time>2015-06-07T13:55:14Z</time>
      </trkpt>
      <trkpt lat="45.06543" lon="2.59921">
        <ele>1152.76</ele>
        <time>2015-06-07T13:55:34Z</time>
      </trkpt>
      <trkpt lat="45.06543" lon="2.59923">
        <ele>1152.76</ele>
        <time>2015-06-07T13:55:36Z</time>
      </trkpt>
      <trkpt lat="45.06537" lon="2.59926">
        <ele>1149.39</ele>
        <time>2015-06-07T13:55:49Z</time>
      </trkpt>
      <trkpt lat="45.06536" lon="2.59928">
        <ele>1148.91</ele>
        <time>2015-06-07T13:56:12Z</time>
      </trkpt>
      <trkpt lat="45.06538" lon="2.59927">
        <ele>1147.95</ele>
        <time>2015-06-07T13:56:38Z</time>
      </trkpt>
      <trkpt lat="45.06538" lon="2.59926">
        <ele>1147.95</ele>
        <time>2015-06-07T13:56:54Z</time>
      </trkpt>
      <trkpt lat="45.06538" lon="2.59925">
        <ele>1147.95</ele>
        <time>2015-06-07T13:57:17Z</time>
      </trkpt>
      <trkpt lat="45.06539" lon="2.59925">
        <ele>1147.47</ele>
        <time>2015-06-07T13:57:39Z</time>
      </trkpt>
      <trkpt lat="45.06537" lon="2.59927">
        <ele>1147.47</ele>
        <time>2015-06-07T13:57:43Z</time>
      </trkpt>
      <trkpt lat="45.06531" lon="2.59932">
        <ele>1147.95</ele>
        <time>2015-06-07T13:57:50Z</time>
      </trkpt>
      <trkpt lat="45.06525" lon="2.59933">
        <ele>1146.51</ele>
        <time>2015-06-07T13:58:03Z</time>
      </trkpt>
      <trkpt lat="45.06526" lon="2.59937">
        <ele>1146.99</ele>
        <time>2015-06-07T13:58:06Z</time>
      </trkpt>
      <trkpt lat="45.06526" lon="2.59944">
        <ele>1146.51</ele>
        <time>2015-06-07T13:58:13Z</time>
      </trkpt>
      <trkpt lat="45.06525" lon="2.59948">
        <ele>1146.03</ele>
        <time>2015-06-07T13:58:16Z</time>
      </trkpt>
      <trkpt lat="45.06521" lon="2.59952">
        <ele>1145.55</ele>
        <time>2015-06-07T13:58:23Z</time>
      </trkpt>
      <trkpt lat="45.06522" lon="2.59966">
        <ele>1144.11</ele>
        <time>2015-06-07T13:58:37Z</time>
      </trkpt>
      <trkpt lat="45.06528" lon="2.59975">
        <ele>1140.74</ele>
        <time>2015-06-07T13:58:49Z</time>
      </trkpt>
      <trkpt lat="45.06529" lon="2.59977">
        <ele>1140.74</ele>
        <time>2015-06-07T13:58:51Z</time>
      </trkpt>
      <trkpt lat="45.06529" lon="2.59982">
        <ele>1140.74</ele>
        <time>2015-06-07T13:58:55Z</time>
      </trkpt>
      <trkpt lat="45.06531" lon="2.59985">
        <ele>1141.22</ele>
        <time>2015-06-07T13:58:57Z</time>
      </trkpt>
      <trkpt lat="45.06533" lon="2.59989">
        <ele>1141.22</ele>
        <time>2015-06-07T13:59:00Z</time>
      </trkpt>
      <trkpt lat="45.06539" lon="2.60009">
        <ele>1137.38</ele>
        <time>2015-06-07T13:59:14Z</time>
      </trkpt>
      <trkpt lat="45.0654" lon="2.60021">
        <ele>1137.86</ele>
        <time>2015-06-07T13:59:23Z</time>
      </trkpt>
      <trkpt lat="45.0654" lon="2.60039">
        <ele>1137.86</ele>
        <time>2015-06-07T13:59:37Z</time>
      </trkpt>
      <trkpt lat="45.06536" lon="2.60056">
        <ele>1136.9</ele>
        <time>2015-06-07T13:59:51Z</time>
      </trkpt>
      <trkpt lat="45.06527" lon="2.6006">
        <ele>1134.97</ele>
        <time>2015-06-07T14:00:05Z</time>
      </trkpt>
      <trkpt lat="45.06526" lon="2.60061">
        <ele>1134.49</ele>
        <time>2015-06-07T14:00:06Z</time>
      </trkpt>
      <trkpt lat="45.06523" lon="2.60066">
        <ele>1132.09</ele>
        <time>2015-06-07T14:00:12Z</time>
      </trkpt>
      <trkpt lat="45.06522" lon="2.60067">
        <ele>1130.65</ele>
        <time>2015-06-07T14:00:30Z</time>
      </trkpt>
      <trkpt lat="45.06522" lon="2.60065">
        <ele>1129.21</ele>
        <time>2015-06-07T14:00:59Z</time>
      </trkpt>
      <trkpt lat="45.06522" lon="2.60066">
        <ele>1128.24</ele>
        <time>2015-06-07T14:01:23Z</time>
      </trkpt>
      <trkpt lat="45.06521" lon="2.60066">
        <ele>1127.28</ele>
        <time>2015-06-07T14:01:29Z</time>
      </trkpt>
      <trkpt lat="45.0652" lon="2.60067">
        <ele>1126.8</ele>
        <time>2015-06-07T14:01:31Z</time>
      </trkpt>
      <trkpt lat="45.06514" lon="2.60076">
        <ele>1126.32</ele>
        <time>2015-06-07T14:01:40Z</time>
      </trkpt>
      <trkpt lat="45.06514" lon="2.60079">
        <ele>1125.84</ele>
        <time>2015-06-07T14:01:43Z</time>
      </trkpt>
      <trkpt lat="45.06512" lon="2.60083">
        <ele>1125.36</ele>
        <time>2015-06-07T14:01:47Z</time>
      </trkpt>
      <trkpt lat="45.0651" lon="2.60086">
        <ele>1123.92</ele>
        <time>2015-06-07T14:01:50Z</time>
      </trkpt>
      <trkpt lat="45.06501" lon="2.60101">
        <ele>1122.48</ele>
        <time>2015-06-07T14:02:04Z</time>
      </trkpt>
      <trkpt lat="45.065" lon="2.60103">
        <ele>1123.92</ele>
        <time>2015-06-07T14:02:16Z</time>
      </trkpt>
      <trkpt lat="45.06497" lon="2.6011">
        <ele>1121.52</ele>
        <time>2015-06-07T14:02:24Z</time>
      </trkpt>
      <trkpt lat="45.0649" lon="2.60123">
        <ele>1117.19</ele>
        <time>2015-06-07T14:02:37Z</time>
      </trkpt>
      <trkpt lat="45.06481" lon="2.60139">
        <ele>1113.82</ele>
        <time>2015-06-07T14:02:52Z</time>
      </trkpt>
      <trkpt lat="45.06476" lon="2.6015">
        <ele>1111.42</ele>
        <time>2015-06-07T14:03:00Z</time>
      </trkpt>
      <trkpt lat="45.06468" lon="2.60165">
        <ele>1109.98</ele>
        <time>2015-06-07T14:03:13Z</time>
      </trkpt>
      <trkpt lat="45.06468" lon="2.60174">
        <ele>1109.02</ele>
        <time>2015-06-07T14:03:18Z</time>
      </trkpt>
      <trkpt lat="45.06464" lon="2.60188">
        <ele>1107.58</ele>
        <time>2015-06-07T14:03:29Z</time>
      </trkpt>
      <trkpt lat="45.06452" lon="2.60202">
        <ele>1106.61</ele>
        <time>2015-06-07T14:03:43Z</time>
      </trkpt>
      <trkpt lat="45.0644" lon="2.6021">
        <ele>1108.54</ele>
        <time>2015-06-07T14:03:57Z</time>
      </trkpt>
      <trkpt lat="45.0643" lon="2.60222">
        <ele>1106.61</ele>
        <time>2015-06-07T14:04:09Z</time>
      </trkpt>
      <trkpt lat="45.06422" lon="2.60236">
        <ele>1105.65</ele>
        <time>2015-06-07T14:04:21Z</time>
      </trkpt>
      <trkpt lat="45.06418" lon="2.60252">
        <ele>1101.81</ele>
        <time>2015-06-07T14:04:32Z</time>
      </trkpt>
      <trkpt lat="45.06412" lon="2.60269">
        <ele>1100.37</ele>
        <time>2015-06-07T14:04:44Z</time>
      </trkpt>
      <trkpt lat="45.06409" lon="2.60293">
        <ele>1100.85</ele>
        <time>2015-06-07T14:04:58Z</time>
      </trkpt>
      <trkpt lat="45.06408" lon="2.60313">
        <ele>1097.48</ele>
        <time>2015-06-07T14:05:11Z</time>
      </trkpt>
      <trkpt lat="45.06407" lon="2.6033">
        <ele>1095.56</ele>
        <time>2015-06-07T14:05:22Z</time>
      </trkpt>
      <trkpt lat="45.06404" lon="2.60345">
        <ele>1095.56</ele>
        <time>2015-06-07T14:05:32Z</time>
      </trkpt>
      <trkpt lat="45.06393" lon="2.60363">
        <ele>1096.52</ele>
        <time>2015-06-07T14:05:46Z</time>
      </trkpt>
      <trkpt lat="45.06389" lon="2.60371">
        <ele>1096.04</ele>
        <time>2015-06-07T14:05:54Z</time>
      </trkpt>
      <trkpt lat="45.06383" lon="2.60385">
        <ele>1094.6</ele>
        <time>2015-06-07T14:06:04Z</time>
      </trkpt>
      <trkpt lat="45.06382" lon="2.60388">
        <ele>1094.6</ele>
        <time>2015-06-07T14:06:06Z</time>
      </trkpt>
      <trkpt lat="45.0638" lon="2.60392">
        <ele>1094.12</ele>
        <time>2015-06-07T14:06:09Z</time>
      </trkpt>
      <trkpt lat="45.06379" lon="2.60394">
        <ele>1094.12</ele>
        <time>2015-06-07T14:06:11Z</time>
      </trkpt>
      <trkpt lat="45.06374" lon="2.604">
        <ele>1093.64</ele>
        <time>2015-06-07T14:06:17Z</time>
      </trkpt>
      <trkpt lat="45.06373" lon="2.60404">
        <ele>1094.12</ele>
        <time>2015-06-07T14:06:28Z</time>
      </trkpt>
      <trkpt lat="45.06373" lon="2.60405">
        <ele>1095.08</ele>
        <time>2015-06-07T14:06:50Z</time>
      </trkpt>
      <trkpt lat="45.06372" lon="2.60405">
        <ele>1095.56</ele>
        <time>2015-06-07T14:07:18Z</time>
      </trkpt>
      <trkpt lat="45.06372" lon="2.60405">
        <ele>1095.56</ele>
        <time>2015-06-07T14:07:46Z</time>
      </trkpt>
      <trkpt lat="45.06373" lon="2.60404">
        <ele>1095.56</ele>
        <time>2015-06-07T14:08:12Z</time>
      </trkpt>
      <trkpt lat="45.06373" lon="2.60402">
        <ele>1096.04</ele>
        <time>2015-06-07T14:08:32Z</time>
      </trkpt>
      <trkpt lat="45.06371" lon="2.604">
        <ele>1096.04</ele>
        <time>2015-06-07T14:08:35Z</time>
      </trkpt>
      <trkpt lat="45.06369" lon="2.60399">
        <ele>1096.52</ele>
        <time>2015-06-07T14:08:38Z</time>
      </trkpt>
      <trkpt lat="45.06355" lon="2.60398">
        <ele>1096.04</ele>
        <time>2015-06-07T14:08:52Z</time>
      </trkpt>
      <trkpt lat="45.06345" lon="2.60402">
        <ele>1095.56</ele>
        <time>2015-06-07T14:09:02Z</time>
      </trkpt>
      <trkpt lat="45.06338" lon="2.60409">
        <ele>1094.12</ele>
        <time>2015-06-07T14:09:12Z</time>
      </trkpt>
      <trkpt lat="45.06333" lon="2.60413">
        <ele>1091.71</ele>
        <time>2015-06-07T14:09:23Z</time>
      </trkpt>
      <trkpt lat="45.06322" lon="2.60426">
        <ele>1089.79</ele>
        <time>2015-06-07T14:09:34Z</time>
      </trkpt>
      <trkpt lat="45.06317" lon="2.60433">
        <ele>1086.91</ele>
        <time>2015-06-07T14:09:46Z</time>
      </trkpt>
      <trkpt lat="45.06313" lon="2.60438">
        <ele>1084.02</ele>
        <time>2015-06-07T14:09:56Z</time>
      </trkpt>
      <trkpt lat="45.06311" lon="2.60439">
        <ele>1083.54</ele>
        <time>2015-06-07T14:10:09Z</time>
      </trkpt>
      <trkpt lat="45.06311" lon="2.6044">
        <ele>1083.06</ele>
        <time>2015-06-07T14:10:12Z</time>
      </trkpt>
      <trkpt lat="45.06309" lon="2.60445">
        <ele>1082.58</ele>
        <time>2015-06-07T14:10:17Z</time>
      </trkpt>
      <trkpt lat="45.06302" lon="2.60453">
        <ele>1080.18</ele>
        <time>2015-06-07T14:10:26Z</time>
      </trkpt>
      <trkpt lat="45.06296" lon="2.60459">
        <ele>1077.29</ele>
        <time>2015-06-07T14:10:34Z</time>
      </trkpt>
      <trkpt lat="45.06289" lon="2.60462">
        <ele>1073.93</ele>
        <time>2015-06-07T14:10:49Z</time>
      </trkpt>
      <trkpt lat="45.06283" lon="2.60468">
        <ele>1072.01</ele>
        <time>2015-06-07T14:11:00Z</time>
      </trkpt>
      <trkpt lat="45.06269" lon="2.60477">
        <ele>1069.12</ele>
        <time>2015-06-07T14:11:12Z</time>
      </trkpt>
      <trkpt lat="45.06263" lon="2.60488">
        <ele>1068.64</ele>
        <time>2015-06-07T14:11:24Z</time>
      </trkpt>
      <trkpt lat="45.06258" lon="2.60498">
        <ele>1067.2</ele>
        <time>2015-06-07T14:11:34Z</time>
      </trkpt>
      <trkpt lat="45.06256" lon="2.60502">
        <ele>1066.72</ele>
        <time>2015-06-07T14:11:37Z</time>
      </trkpt>
      <trkpt lat="45.06248" lon="2.60518">
        <ele>1063.36</ele>
        <time>2015-06-07T14:11:49Z</time>
      </trkpt>
      <trkpt lat="45.06246" lon="2.60529">
        <ele>1064.32</ele>
        <time>2015-06-07T14:11:58Z</time>
      </trkpt>
      <trkpt lat="45.06242" lon="2.60539">
        <ele>1063.36</ele>
        <time>2015-06-07T14:12:07Z</time>
      </trkpt>
      <trkpt lat="45.06234" lon="2.60549">
        <ele>1060.95</ele>
        <time>2015-06-07T14:12:16Z</time>
      </trkpt>
      <trkpt lat="45.06232" lon="2.60554">
        <ele>1059.51</ele>
        <time>2015-06-07T14:12:21Z</time>
      </trkpt>
      <trkpt lat="45.06225" lon="2.60567">
        <ele>1057.11</ele>
        <time>2015-06-07T14:12:35Z</time>
      </trkpt>
      <trkpt lat="45.06219" lon="2.60577">
        <ele>1055.18</ele>
        <time>2015-06-07T14:12:46Z</time>
      </trkpt>
      <trkpt lat="45.06213" lon="2.60591">
        <ele>1054.22</ele>
        <time>2015-06-07T14:12:59Z</time>
      </trkpt>
      <trkpt lat="45.06205" lon="2.606">
        <ele>1053.26</ele>
        <time>2015-06-07T14:13:10Z</time>
      </trkpt>
      <trkpt lat="45.06197" lon="2.60607">
        <ele>1050.38</ele>
        <time>2015-06-07T14:13:20Z</time>
      </trkpt>
      <trkpt lat="45.06191" lon="2.60614">
        <ele>1049.42</ele>
        <time>2015-06-07T14:13:33Z</time>
      </trkpt>
      <trkpt lat="45.06187" lon="2.6062">
        <ele>1047.97</ele>
        <time>2015-06-07T14:13:46Z</time>
      </trkpt>
      <trkpt lat="45.06179" lon="2.60627">
        <ele>1047.01</ele>
        <time>2015-06-07T14:13:57Z</time>
      </trkpt>
      <trkpt lat="45.06169" lon="2.60638">
        <ele>1045.09</ele>
        <time>2015-06-07T14:14:10Z</time>
      </trkpt>
      <trkpt lat="45.06157" lon="2.60645">
        <ele>1042.21</ele>
        <time>2015-06-07T14:14:22Z</time>
      </trkpt>
      <trkpt lat="45.06147" lon="2.60656">
        <ele>1040.28</ele>
        <time>2015-06-07T14:14:36Z</time>
      </trkpt>
      <trkpt lat="45.06146" lon="2.6066">
        <ele>1039.8</ele>
        <time>2015-06-07T14:14:43Z</time>
      </trkpt>
      <trkpt lat="45.06157" lon="2.6066">
        <ele>1038.84</ele>
        <time>2015-06-07T14:14:55Z</time>
      </trkpt>
      <trkpt lat="45.06172" lon="2.6066">
        <ele>1038.36</ele>
        <time>2015-06-07T14:15:08Z</time>
      </trkpt>
      <trkpt lat="45.06189" lon="2.60662">
        <ele>1035.96</ele>
        <time>2015-06-07T14:15:23Z</time>
      </trkpt>
      <trkpt lat="45.06203" lon="2.60666">
        <ele>1035.48</ele>
        <time>2015-06-07T14:15:35Z</time>
      </trkpt>
      <trkpt lat="45.06214" lon="2.60669">
        <ele>1035</ele>
        <time>2015-06-07T14:15:46Z</time>
      </trkpt>
      <trkpt lat="45.06225" lon="2.60667">
        <ele>1034.04</ele>
        <time>2015-06-07T14:15:58Z</time>
      </trkpt>
      <trkpt lat="45.06238" lon="2.60663">
        <ele>1033.55</ele>
        <time>2015-06-07T14:16:10Z</time>
      </trkpt>
      <trkpt lat="45.06247" lon="2.60657">
        <ele>1033.55</ele>
        <time>2015-06-07T14:16:22Z</time>
      </trkpt>
      <trkpt lat="45.06259" lon="2.60651">
        <ele>1032.59</ele>
        <time>2015-06-07T14:16:33Z</time>
      </trkpt>
      <trkpt lat="45.06272" lon="2.60643">
        <ele>1028.75</ele>
        <time>2015-06-07T14:16:46Z</time>
      </trkpt>
      <trkpt lat="45.06272" lon="2.60643">
        <ele>1028.27</ele>
        <time>2015-06-07T14:16:47Z</time>
      </trkpt>
      <trkpt lat="45.06285" lon="2.60637">
        <ele>1026.34</ele>
        <time>2015-06-07T14:17:00Z</time>
      </trkpt>
      <trkpt lat="45.06296" lon="2.60631">
        <ele>1024.9</ele>
        <time>2015-06-07T14:17:13Z</time>
      </trkpt>
      <trkpt lat="45.06309" lon="2.60628">
        <ele>1022.5</ele>
        <time>2015-06-07T14:17:25Z</time>
      </trkpt>
      <trkpt lat="45.06317" lon="2.60625">
        <ele>1021.06</ele>
        <time>2015-06-07T14:17:37Z</time>
      </trkpt>
      <trkpt lat="45.06321" lon="2.60625">
        <ele>1020.58</ele>
        <time>2015-06-07T14:17:40Z</time>
      </trkpt>
      <trkpt lat="45.06341" lon="2.6063">
        <ele>1024.42</ele>
        <time>2015-06-07T14:17:53Z</time>
      </trkpt>
      <trkpt lat="45.06357" lon="2.60639">
        <ele>1025.86</ele>
        <time>2015-06-07T14:18:07Z</time>
      </trkpt>
      <trkpt lat="45.06363" lon="2.60639">
        <ele>1027.31</ele>
        <time>2015-06-07T14:18:16Z</time>
      </trkpt>
      <trkpt lat="45.06366" lon="2.60642">
        <ele>1027.79</ele>
        <time>2015-06-07T14:18:21Z</time>
      </trkpt>
      <trkpt lat="45.06373" lon="2.60653">
        <ele>1025.38</ele>
        <time>2015-06-07T14:18:31Z</time>
      </trkpt>
      <trkpt lat="45.0638" lon="2.60665">
        <ele>1021.54</ele>
        <time>2015-06-07T14:18:45Z</time>
      </trkpt>
      <trkpt lat="45.06381" lon="2.60666">
        <ele>1021.54</ele>
        <time>2015-06-07T14:19:02Z</time>
      </trkpt>
      <trkpt lat="45.06383" lon="2.60667">
        <ele>1021.06</ele>
        <time>2015-06-07T14:19:04Z</time>
      </trkpt>
      <trkpt lat="45.06397" lon="2.6067">
        <ele>1020.1</ele>
        <time>2015-06-07T14:19:18Z</time>
      </trkpt>
      <trkpt lat="45.06407" lon="2.6067">
        <ele>1020.58</ele>
        <time>2015-06-07T14:19:32Z</time>
      </trkpt>
      <trkpt lat="45.06417" lon="2.60677">
        <ele>1021.54</ele>
        <time>2015-06-07T14:19:46Z</time>
      </trkpt>
      <trkpt lat="45.06418" lon="2.60691">
        <ele>1020.58</ele>
        <time>2015-06-07T14:19:59Z</time>
      </trkpt>
      <trkpt lat="45.06426" lon="2.60703">
        <ele>1016.25</ele>
        <time>2015-06-07T14:20:14Z</time>
      </trkpt>
      <trkpt lat="45.06433" lon="2.60707">
        <ele>1014.81</ele>
        <time>2015-06-07T14:20:18Z</time>
      </trkpt>
      <trkpt lat="45.06447" lon="2.60716">
        <ele>1015.29</ele>
        <time>2015-06-07T14:20:32Z</time>
      </trkpt>
      <trkpt lat="45.0646" lon="2.6072">
        <ele>1014.81</ele>
        <time>2015-06-07T14:20:47Z</time>
      </trkpt>
      <trkpt lat="45.06483" lon="2.60724">
        <ele>1016.25</ele>
        <time>2015-06-07T14:21:04Z</time>
      </trkpt>
      <trkpt lat="45.06499" lon="2.60726">
        <ele>1017.69</ele>
        <time>2015-06-07T14:21:18Z</time>
      </trkpt>
      <trkpt lat="45.06507" lon="2.6072">
        <ele>1016.73</ele>
        <time>2015-06-07T14:21:34Z</time>
      </trkpt>
      <trkpt lat="45.06519" lon="2.60713">
        <ele>1013.37</ele>
        <time>2015-06-07T14:21:51Z</time>
      </trkpt>
      <trkpt lat="45.06524" lon="2.60709">
        <ele>1013.85</ele>
        <time>2015-06-07T14:22:09Z</time>
      </trkpt>
      <trkpt lat="45.06533" lon="2.60705">
        <ele>1014.81</ele>
        <time>2015-06-07T14:22:25Z</time>
      </trkpt>
      <trkpt lat="45.0655" lon="2.60704">
        <ele>1017.21</ele>
        <time>2015-06-07T14:22:41Z</time>
      </trkpt>
      <trkpt lat="45.06554" lon="2.60695">
        <ele>1018.65</ele>
        <time>2015-06-07T14:22:54Z</time>
      </trkpt>
      <trkpt lat="45.06565" lon="2.60695">
        <ele>1020.1</ele>
        <time>2015-06-07T14:23:09Z</time>
      </trkpt>
      <trkpt lat="45.06572" lon="2.60706">
        <ele>1022.02</ele>
        <time>2015-06-07T14:23:24Z</time>
      </trkpt>
      <trkpt lat="45.06575" lon="2.60708">
        <ele>1022.02</ele>
        <time>2015-06-07T14:23:26Z</time>
      </trkpt>
      <trkpt lat="45.06589" lon="2.60722">
        <ele>1026.34</ele>
        <time>2015-06-07T14:23:43Z</time>
      </trkpt>
      <trkpt lat="45.06596" lon="2.60734">
        <ele>1028.27</ele>
        <time>2015-06-07T14:24:01Z</time>
      </trkpt>
      <trkpt lat="45.06618" lon="2.6075">
        <ele>1034.04</ele>
        <time>2015-06-07T14:24:16Z</time>
      </trkpt>
      <trkpt lat="45.06617" lon="2.60749">
        <ele>1038.36</ele>
        <time>2015-06-07T14:24:30Z</time>
      </trkpt>
      <trkpt lat="45.06621" lon="2.60754">
        <ele>1038.84</ele>
        <time>2015-06-07T14:24:43Z</time>
      </trkpt>
      <trkpt lat="45.06623" lon="2.60754">
        <ele>1038.36</ele>
        <time>2015-06-07T14:25:03Z</time>
      </trkpt>
      <trkpt lat="45.06626" lon="2.6075">
        <ele>1038.36</ele>
        <time>2015-06-07T14:25:25Z</time>
      </trkpt>
      <trkpt lat="45.0663" lon="2.60748">
        <ele>1038.84</ele>
        <time>2015-06-07T14:25:56Z</time>
      </trkpt>
      <trkpt lat="45.06631" lon="2.60749">
        <ele>1039.8</ele>
        <time>2015-06-07T14:26:11Z</time>
      </trkpt>
      <trkpt lat="45.06636" lon="2.6075">
        <ele>1040.28</ele>
        <time>2015-06-07T14:26:38Z</time>
      </trkpt>
      <trkpt lat="45.06646" lon="2.60749">
        <ele>1040.76</ele>
        <time>2015-06-07T14:26:57Z</time>
      </trkpt>
      <trkpt lat="45.06652" lon="2.60747">
        <ele>1045.09</ele>
        <time>2015-06-07T14:27:14Z</time>
      </trkpt>
      <trkpt lat="45.06664" lon="2.60748">
        <ele>1048.45</ele>
        <time>2015-06-07T14:27:32Z</time>
      </trkpt>
      <trkpt lat="45.06667" lon="2.60749">
        <ele>1050.38</ele>
        <time>2015-06-07T14:27:50Z</time>
      </trkpt>
      <trkpt lat="45.06673" lon="2.60743">
        <ele>1050.38</ele>
        <time>2015-06-07T14:28:08Z</time>
      </trkpt>
      <trkpt lat="45.06679" lon="2.60737">
        <ele>1050.38</ele>
        <time>2015-06-07T14:28:24Z</time>
      </trkpt>
      <trkpt lat="45.06692" lon="2.60726">
        <ele>1052.3</ele>
        <time>2015-06-07T14:28:43Z</time>
      </trkpt>
      <trkpt lat="45.06701" lon="2.60722">
        <ele>1054.22</ele>
        <time>2015-06-07T14:28:58Z</time>
      </trkpt>
      <trkpt lat="45.06709" lon="2.6072">
        <ele>1056.63</ele>
        <time>2015-06-07T14:29:17Z</time>
      </trkpt>
      <trkpt lat="45.0672" lon="2.60728">
        <ele>1061.91</ele>
        <time>2015-06-07T14:29:36Z</time>
      </trkpt>
      <trkpt lat="45.06726" lon="2.60731">
        <ele>1065.76</ele>
        <time>2015-06-07T14:29:51Z</time>
      </trkpt>
      <trkpt lat="45.06733" lon="2.60736">
        <ele>1068.64</ele>
        <time>2015-06-07T14:30:10Z</time>
      </trkpt>
      <trkpt lat="45.0674" lon="2.60736">
        <ele>1068.64</ele>
        <time>2015-06-07T14:30:28Z</time>
      </trkpt>
      <trkpt lat="45.06752" lon="2.60736">
        <ele>1072.97</ele>
        <time>2015-06-07T14:30:43Z</time>
      </trkpt>
      <trkpt lat="45.06757" lon="2.6073">
        <ele>1072.49</ele>
        <time>2015-06-07T14:30:58Z</time>
      </trkpt>
      <trkpt lat="45.06765" lon="2.6072">
        <ele>1071.53</ele>
        <time>2015-06-07T14:31:15Z</time>
      </trkpt>
      <trkpt lat="45.06774" lon="2.60714">
        <ele>1071.53</ele>
        <time>2015-06-07T14:31:28Z</time>
      </trkpt>
      <trkpt lat="45.06786" lon="2.60702">
        <ele>1070.57</ele>
        <time>2015-06-07T14:31:42Z</time>
      </trkpt>
      <trkpt lat="45.06787" lon="2.60701">
        <ele>1070.57</ele>
        <time>2015-06-07T14:31:43Z</time>
      </trkpt>
      <trkpt lat="45.06803" lon="2.60689">
        <ele>1065.76</ele>
        <time>2015-06-07T14:31:59Z</time>
      </trkpt>
      <trkpt lat="45.06809" lon="2.60687">
        <ele>1064.32</ele>
        <time>2015-06-07T14:32:13Z</time>
      </trkpt>
      <trkpt lat="45.06807" lon="2.60683">
        <ele>1065.76</ele>
        <time>2015-06-07T14:32:41Z</time>
      </trkpt>
      <trkpt lat="45.06799" lon="2.60678">
        <ele>1067.68</ele>
        <time>2015-06-07T14:33:07Z</time>
      </trkpt>
      <trkpt lat="45.06794" lon="2.6068">
        <ele>1069.6</ele>
        <time>2015-06-07T14:33:31Z</time>
      </trkpt>
      <trkpt lat="45.06797" lon="2.60685">
        <ele>1071.05</ele>
        <time>2015-06-07T14:33:42Z</time>
      </trkpt>
      <trkpt lat="45.06805" lon="2.60679">
        <ele>1072.01</ele>
        <time>2015-06-07T14:33:56Z</time>
      </trkpt>
      <trkpt lat="45.06805" lon="2.6068">
        <ele>1071.53</ele>
        <time>2015-06-07T14:34:10Z</time>
      </trkpt>
      <trkpt lat="45.06803" lon="2.60682">
        <ele>1071.05</ele>
        <time>2015-06-07T14:34:17Z</time>
      </trkpt>
      <trkpt lat="45.06798" lon="2.60685">
        <ele>1071.05</ele>
        <time>2015-06-07T14:34:25Z</time>
      </trkpt>
      <trkpt lat="45.06804" lon="2.60703">
        <ele>1072.01</ele>
        <time>2015-06-07T14:34:41Z</time>
      </trkpt>
      <trkpt lat="45.06832" lon="2.60721">
        <ele>1073.45</ele>
        <time>2015-06-07T14:34:50Z</time>
      </trkpt>
      <trkpt lat="45.06847" lon="2.60739">
        <ele>1075.85</ele>
        <time>2015-06-07T14:35:04Z</time>
      </trkpt>
      <trkpt lat="45.06851" lon="2.60749">
        <ele>1075.37</ele>
        <time>2015-06-07T14:35:16Z</time>
      </trkpt>
      <trkpt lat="45.06857" lon="2.60759">
        <ele>1073.93</ele>
        <time>2015-06-07T14:35:31Z</time>
      </trkpt>
      <trkpt lat="45.06869" lon="2.60773">
        <ele>1073.93</ele>
        <time>2015-06-07T14:35:46Z</time>
      </trkpt>
      <trkpt lat="45.06889" lon="2.60782">
        <ele>1074.41</ele>
        <time>2015-06-07T14:36:00Z</time>
      </trkpt>
      <trkpt lat="45.06904" lon="2.60786">
        <ele>1073.45</ele>
        <time>2015-06-07T14:36:17Z</time>
      </trkpt>
      <trkpt lat="45.06917" lon="2.60784">
        <ele>1074.41</ele>
        <time>2015-06-07T14:36:32Z</time>
      </trkpt>
      <trkpt lat="45.06921" lon="2.60777">
        <ele>1075.37</ele>
        <time>2015-06-07T14:36:51Z</time>
      </trkpt>
      <trkpt lat="45.06928" lon="2.60783">
        <ele>1076.81</ele>
        <time>2015-06-07T14:37:01Z</time>
      </trkpt>
      <trkpt lat="45.0693" lon="2.60796">
        <ele>1076.81</ele>
        <time>2015-06-07T14:37:16Z</time>
      </trkpt>
      <trkpt lat="45.0693" lon="2.60803">
        <ele>1076.81</ele>
        <time>2015-06-07T14:37:24Z</time>
      </trkpt>
      <trkpt lat="45.06923" lon="2.60813">
        <ele>1076.81</ele>
        <time>2015-06-07T14:37:35Z</time>
      </trkpt>
      <trkpt lat="45.06928" lon="2.6083">
        <ele>1077.29</ele>
        <time>2015-06-07T14:37:42Z</time>
      </trkpt>
      <trkpt lat="45.06938" lon="2.60846">
        <ele>1076.33</ele>
        <time>2015-06-07T14:37:47Z</time>
      </trkpt>
      <trkpt lat="45.06937" lon="2.60864">
        <ele>1079.7</ele>
        <time>2015-06-07T14:37:59Z</time>
      </trkpt>
      <trkpt lat="45.06938" lon="2.60875">
        <ele>1077.78</ele>
        <time>2015-06-07T14:38:09Z</time>
      </trkpt>
      <trkpt lat="45.06948" lon="2.6089">
        <ele>1075.37</ele>
        <time>2015-06-07T14:38:21Z</time>
      </trkpt>
      <trkpt lat="45.0695" lon="2.60891">
        <ele>1075.37</ele>
        <time>2015-06-07T14:38:23Z</time>
      </trkpt>
      <trkpt lat="45.0696" lon="2.60898">
        <ele>1075.37</ele>
        <time>2015-06-07T14:38:34Z</time>
      </trkpt>
      <trkpt lat="45.06962" lon="2.60903">
        <ele>1075.85</ele>
        <time>2015-06-07T14:38:41Z</time>
      </trkpt>
      <trkpt lat="45.06961" lon="2.60912">
        <ele>1076.33</ele>
        <time>2015-06-07T14:38:50Z</time>
      </trkpt>
      <trkpt lat="45.06957" lon="2.60916">
        <ele>1076.33</ele>
        <time>2015-06-07T14:38:54Z</time>
      </trkpt>
      <trkpt lat="45.06946" lon="2.60933">
        <ele>1076.81</ele>
        <time>2015-06-07T14:39:06Z</time>
      </trkpt>
      <trkpt lat="45.06932" lon="2.60953">
        <ele>1076.81</ele>
        <time>2015-06-07T14:39:21Z</time>
      </trkpt>
      <trkpt lat="45.06936" lon="2.6097">
        <ele>1073.45</ele>
        <time>2015-06-07T14:39:34Z</time>
      </trkpt>
      <trkpt lat="45.06942" lon="2.60985">
        <ele>1073.45</ele>
        <time>2015-06-07T14:39:46Z</time>
      </trkpt>
      <trkpt lat="45.06956" lon="2.61001">
        <ele>1074.89</ele>
        <time>2015-06-07T14:40:01Z</time>
      </trkpt>
      <trkpt lat="45.06961" lon="2.61015">
        <ele>1075.37</ele>
        <time>2015-06-07T14:40:15Z</time>
      </trkpt>
      <trkpt lat="45.06967" lon="2.61032">
        <ele>1076.81</ele>
        <time>2015-06-07T14:40:32Z</time>
      </trkpt>
      <trkpt lat="45.06979" lon="2.61053">
        <ele>1077.78</ele>
        <time>2015-06-07T14:40:45Z</time>
      </trkpt>
      <trkpt lat="45.06978" lon="2.61057">
        <ele>1078.26</ele>
        <time>2015-06-07T14:40:51Z</time>
      </trkpt>
      <trkpt lat="45.0698" lon="2.6107">
        <ele>1077.29</ele>
        <time>2015-06-07T14:41:03Z</time>
      </trkpt>
      <trkpt lat="45.06979" lon="2.61078">
        <ele>1077.78</ele>
        <time>2015-06-07T14:41:16Z</time>
      </trkpt>
      <trkpt lat="45.06968" lon="2.61079">
        <ele>1076.33</ele>
        <time>2015-06-07T14:41:28Z</time>
      </trkpt>
      <trkpt lat="45.06945" lon="2.61076">
        <ele>1077.29</ele>
        <time>2015-06-07T14:41:47Z</time>
      </trkpt>
      <trkpt lat="45.06931" lon="2.61074">
        <ele>1077.78</ele>
        <time>2015-06-07T14:42:00Z</time>
      </trkpt>
      <trkpt lat="45.06913" lon="2.61072">
        <ele>1076.81</ele>
        <time>2015-06-07T14:42:13Z</time>
      </trkpt>
      <trkpt lat="45.069" lon="2.61076">
        <ele>1072.49</ele>
        <time>2015-06-07T14:42:26Z</time>
      </trkpt>
      <trkpt lat="45.06892" lon="2.61083">
        <ele>1069.6</ele>
        <time>2015-06-07T14:42:39Z</time>
      </trkpt>
      <trkpt lat="45.06885" lon="2.61091">
        <ele>1065.28</ele>
        <time>2015-06-07T14:42:56Z</time>
      </trkpt>
      <trkpt lat="45.06884" lon="2.61091">
        <ele>1065.76</ele>
        <time>2015-06-07T14:42:58Z</time>
      </trkpt>
      <trkpt lat="45.06883" lon="2.61094">
        <ele>1058.07</ele>
        <time>2015-06-07T14:43:14Z</time>
      </trkpt>
      <trkpt lat="45.06874" lon="2.61099">
        <ele>1057.11</ele>
        <time>2015-06-07T14:43:24Z</time>
      </trkpt>
      <trkpt lat="45.06862" lon="2.61111">
        <ele>1059.99</ele>
        <time>2015-06-07T14:43:35Z</time>
      </trkpt>
      <trkpt lat="45.06859" lon="2.61117">
        <ele>1057.59</ele>
        <time>2015-06-07T14:43:47Z</time>
      </trkpt>
      <trkpt lat="45.0686" lon="2.61118">
        <ele>1057.11</ele>
        <time>2015-06-07T14:44:14Z</time>
      </trkpt>
      <trkpt lat="45.06861" lon="2.61118">
        <ele>1056.63</ele>
        <time>2015-06-07T14:44:27Z</time>
      </trkpt>
      <trkpt lat="45.06862" lon="2.61122">
        <ele>1056.15</ele>
        <time>2015-06-07T14:44:30Z</time>
      </trkpt>
      <trkpt lat="45.06862" lon="2.61144">
        <ele>1052.78</ele>
        <time>2015-06-07T14:44:47Z</time>
      </trkpt>
      <trkpt lat="45.06861" lon="2.61162">
        <ele>1048.94</ele>
        <time>2015-06-07T14:45:00Z</time>
      </trkpt>
      <trkpt lat="45.06861" lon="2.61169">
        <ele>1048.94</ele>
        <time>2015-06-07T14:45:08Z</time>
      </trkpt>
      <trkpt lat="45.06862" lon="2.61187">
        <ele>1048.94</ele>
        <time>2015-06-07T14:45:23Z</time>
      </trkpt>
      <trkpt lat="45.06862" lon="2.61195">
        <ele>1047.97</ele>
        <time>2015-06-07T14:45:34Z</time>
      </trkpt>
      <trkpt lat="45.06863" lon="2.61206">
        <ele>1047.01</ele>
        <time>2015-06-07T14:45:42Z</time>
      </trkpt>
      <trkpt lat="45.06866" lon="2.61219">
        <ele>1046.05</ele>
        <time>2015-06-07T14:45:56Z</time>
      </trkpt>
      <trkpt lat="45.06865" lon="2.61232">
        <ele>1045.09</ele>
        <time>2015-06-07T14:46:07Z</time>
      </trkpt>
      <trkpt lat="45.06864" lon="2.61252">
        <ele>1043.65</ele>
        <time>2015-06-07T14:46:21Z</time>
      </trkpt>
      <trkpt lat="45.06861" lon="2.61259">
        <ele>1040.76</ele>
        <time>2015-06-07T14:46:26Z</time>
      </trkpt>
      <trkpt lat="45.06845" lon="2.61273">
        <ele>1040.28</ele>
        <time>2015-06-07T14:46:39Z</time>
      </trkpt>
      <trkpt lat="45.06842" lon="2.61274">
        <ele>1040.28</ele>
        <time>2015-06-07T14:46:41Z</time>
      </trkpt>
      <trkpt lat="45.06832" lon="2.61282">
        <ele>1040.28</ele>
        <time>2015-06-07T14:46:49Z</time>
      </trkpt>
      <trkpt lat="45.06831" lon="2.61292">
        <ele>1040.28</ele>
        <time>2015-06-07T14:47:00Z</time>
      </trkpt>
      <trkpt lat="45.06825" lon="2.61304">
        <ele>1038.36</ele>
        <time>2015-06-07T14:47:16Z</time>
      </trkpt>
      <trkpt lat="45.06823" lon="2.61308">
        <ele>1037.88</ele>
        <time>2015-06-07T14:47:33Z</time>
      </trkpt>
      <trkpt lat="45.06816" lon="2.61307">
        <ele>1036.44</ele>
        <time>2015-06-07T14:47:46Z</time>
      </trkpt>
      <trkpt lat="45.06816" lon="2.61306">
        <ele>1035.96</ele>
        <time>2015-06-07T14:47:48Z</time>
      </trkpt>
      <trkpt lat="45.06809" lon="2.61297">
        <ele>1035.48</ele>
        <time>2015-06-07T14:48:04Z</time>
      </trkpt>
      <trkpt lat="45.06807" lon="2.61283">
        <ele>1035.96</ele>
        <time>2015-06-07T14:48:19Z</time>
      </trkpt>
      <trkpt lat="45.06804" lon="2.61281">
        <ele>1035.96</ele>
        <time>2015-06-07T14:48:23Z</time>
      </trkpt>
      <trkpt lat="45.06792" lon="2.61273">
        <ele>1038.36</ele>
        <time>2015-06-07T14:48:38Z</time>
      </trkpt>
      <trkpt lat="45.06792" lon="2.61274">
        <ele>1038.36</ele>
        <time>2015-06-07T14:48:46Z</time>
      </trkpt>
      <trkpt lat="45.06784" lon="2.61269">
        <ele>1036.44</ele>
        <time>2015-06-07T14:49:00Z</time>
      </trkpt>
      <trkpt lat="45.0677" lon="2.61256">
        <ele>1036.44</ele>
        <time>2015-06-07T14:49:12Z</time>
      </trkpt>
      <trkpt lat="45.06757" lon="2.61243">
        <ele>1035.48</ele>
        <time>2015-06-07T14:49:27Z</time>
      </trkpt>
      <trkpt lat="45.06742" lon="2.61229">
        <ele>1035.48</ele>
        <time>2015-06-07T14:49:41Z</time>
      </trkpt>
      <trkpt lat="45.06728" lon="2.61214">
        <ele>1035.48</ele>
        <time>2015-06-07T14:49:57Z</time>
      </trkpt>
      <trkpt lat="45.06715" lon="2.61198">
        <ele>1033.55</ele>
        <time>2015-06-07T14:50:11Z</time>
      </trkpt>
      <trkpt lat="45.06713" lon="2.61185">
        <ele>1033.55</ele>
        <time>2015-06-07T14:50:23Z</time>
      </trkpt>
      <trkpt lat="45.06709" lon="2.6117">
        <ele>1032.11</ele>
        <time>2015-06-07T14:50:39Z</time>
      </trkpt>
      <trkpt lat="45.06686" lon="2.61152">
        <ele>1030.67</ele>
        <time>2015-06-07T14:50:55Z</time>
      </trkpt>
      <trkpt lat="45.06665" lon="2.61142">
        <ele>1031.15</ele>
        <time>2015-06-07T14:51:10Z</time>
      </trkpt>
      <trkpt lat="45.06647" lon="2.61145">
        <ele>1031.63</ele>
        <time>2015-06-07T14:51:24Z</time>
      </trkpt>
      <trkpt lat="45.0663" lon="2.61155">
        <ele>1031.63</ele>
        <time>2015-06-07T14:51:37Z</time>
      </trkpt>
      <trkpt lat="45.06626" lon="2.6116">
        <ele>1030.67</ele>
        <time>2015-06-07T14:51:44Z</time>
      </trkpt>
      <trkpt lat="45.06609" lon="2.6116">
        <ele>1028.27</ele>
        <time>2015-06-07T14:51:58Z</time>
      </trkpt>
      <trkpt lat="45.066" lon="2.61158">
        <ele>1026.83</ele>
        <time>2015-06-07T14:52:07Z</time>
      </trkpt>
      <trkpt lat="45.06591" lon="2.61157">
        <ele>1027.31</ele>
        <time>2015-06-07T14:52:18Z</time>
      </trkpt>
      <trkpt lat="45.06576" lon="2.61159">
        <ele>1022.98</ele>
        <time>2015-06-07T14:52:32Z</time>
      </trkpt>
      <trkpt lat="45.0657" lon="2.61163">
        <ele>1020.58</ele>
        <time>2015-06-07T14:52:38Z</time>
      </trkpt>
      <trkpt lat="45.06564" lon="2.61177">
        <ele>1016.73</ele>
        <time>2015-06-07T14:52:52Z</time>
      </trkpt>
      <trkpt lat="45.06559" lon="2.61187">
        <ele>1014.33</ele>
        <time>2015-06-07T14:53:03Z</time>
      </trkpt>
      <trkpt lat="45.06554" lon="2.61196">
        <ele>1012.41</ele>
        <time>2015-06-07T14:53:12Z</time>
      </trkpt>
      <trkpt lat="45.06556" lon="2.61204">
        <ele>1008.08</ele>
        <time>2015-06-07T14:53:22Z</time>
      </trkpt>
      <trkpt lat="45.06555" lon="2.61207">
        <ele>1006.64</ele>
        <time>2015-06-07T14:53:28Z</time>
      </trkpt>
      <trkpt lat="45.0654" lon="2.61219">
        <ele>1007.6</ele>
        <time>2015-06-07T14:53:41Z</time>
      </trkpt>
      <trkpt lat="45.06531" lon="2.61226">
        <ele>1006.16</ele>
        <time>2015-06-07T14:53:51Z</time>
      </trkpt>
      <trkpt lat="45.06532" lon="2.61233">
        <ele>1006.64</ele>
        <time>2015-06-07T14:53:56Z</time>
      </trkpt>
      <trkpt lat="45.06532" lon="2.61237">
        <ele>1007.12</ele>
        <time>2015-06-07T14:53:58Z</time>
      </trkpt>
      <trkpt lat="45.06537" lon="2.61242">
        <ele>1007.12</ele>
        <time>2015-06-07T14:54:02Z</time>
      </trkpt>
      <trkpt lat="45.06533" lon="2.61256">
        <ele>1010</ele>
        <time>2015-06-07T14:54:14Z</time>
      </trkpt>
      <trkpt lat="45.06528" lon="2.61262">
        <ele>1007.6</ele>
        <time>2015-06-07T14:54:21Z</time>
      </trkpt>
      <trkpt lat="45.06522" lon="2.61274">
        <ele>1007.12</ele>
        <time>2015-06-07T14:54:35Z</time>
      </trkpt>
      <trkpt lat="45.06512" lon="2.61277">
        <ele>1006.64</ele>
        <time>2015-06-07T14:54:48Z</time>
      </trkpt>
      <trkpt lat="45.06507" lon="2.61278">
        <ele>1005.2</ele>
        <time>2015-06-07T14:55:06Z</time>
      </trkpt>
      <trkpt lat="45.06504" lon="2.61277">
        <ele>1003.75</ele>
        <time>2015-06-07T14:55:19Z</time>
      </trkpt>
      <trkpt lat="45.06502" lon="2.61277">
        <ele>1002.79</ele>
        <time>2015-06-07T14:55:31Z</time>
      </trkpt>
      <trkpt lat="45.06505" lon="2.61278">
        <ele>1002.31</ele>
        <time>2015-06-07T14:55:44Z</time>
      </trkpt>
      <trkpt lat="45.06499" lon="2.61274">
        <ele>1001.35</ele>
        <time>2015-06-07T14:55:59Z</time>
      </trkpt>
      <trkpt lat="45.06494" lon="2.61267">
        <ele>1000.39</ele>
        <time>2015-06-07T14:56:11Z</time>
      </trkpt>
      <trkpt lat="45.0649" lon="2.61263">
        <ele>1000.39</ele>
        <time>2015-06-07T14:56:15Z</time>
      </trkpt>
      <trkpt lat="45.06479" lon="2.61248">
        <ele>997.99</ele>
        <time>2015-06-07T14:56:28Z</time>
      </trkpt>
      <trkpt lat="45.06474" lon="2.61244">
        <ele>997.02</ele>
        <time>2015-06-07T14:56:36Z</time>
      </trkpt>
      <trkpt lat="45.06461" lon="2.61243">
        <ele>995.1</ele>
        <time>2015-06-07T14:56:53Z</time>
      </trkpt>
      <trkpt lat="45.06458" lon="2.6124">
        <ele>994.62</ele>
        <time>2015-06-07T14:57:05Z</time>
      </trkpt>
      <trkpt lat="45.06455" lon="2.6124">
        <ele>994.62</ele>
        <time>2015-06-07T14:57:08Z</time>
      </trkpt>
      <trkpt lat="45.06441" lon="2.61242">
        <ele>992.7</ele>
        <time>2015-06-07T14:57:22Z</time>
      </trkpt>
      <trkpt lat="45.06429" lon="2.61247">
        <ele>991.26</ele>
        <time>2015-06-07T14:57:36Z</time>
      </trkpt>
      <trkpt lat="45.06427" lon="2.61247">
        <ele>991.26</ele>
        <time>2015-06-07T14:57:38Z</time>
      </trkpt>
      <trkpt lat="45.0641" lon="2.61252">
        <ele>989.81</ele>
        <time>2015-06-07T14:57:52Z</time>
      </trkpt>
      <trkpt lat="45.06397" lon="2.61257">
        <ele>989.33</ele>
        <time>2015-06-07T14:58:01Z</time>
      </trkpt>
      <trkpt lat="45.06375" lon="2.6126">
        <ele>989.33</ele>
        <time>2015-06-07T14:58:16Z</time>
      </trkpt>
      <trkpt lat="45.06367" lon="2.6126">
        <ele>988.85</ele>
        <time>2015-06-07T14:58:26Z</time>
      </trkpt>
      <trkpt lat="45.06359" lon="2.61264">
        <ele>988.85</ele>
        <time>2015-06-07T14:58:31Z</time>
      </trkpt>
      <trkpt lat="45.06354" lon="2.61265">
        <ele>988.37</ele>
        <time>2015-06-07T14:58:35Z</time>
      </trkpt>
      <trkpt lat="45.06336" lon="2.61273">
        <ele>990.3</ele>
        <time>2015-06-07T14:58:50Z</time>
      </trkpt>
      <trkpt lat="45.06329" lon="2.61274">
        <ele>989.81</ele>
        <time>2015-06-07T14:58:55Z</time>
      </trkpt>
      <trkpt lat="45.06316" lon="2.61285">
        <ele>984.53</ele>
        <time>2015-06-07T14:59:08Z</time>
      </trkpt>
      <trkpt lat="45.06313" lon="2.61288">
        <ele>985.01</ele>
        <time>2015-06-07T14:59:12Z</time>
      </trkpt>
      <trkpt lat="45.06304" lon="2.61302">
        <ele>985.97</ele>
        <time>2015-06-07T14:59:25Z</time>
      </trkpt>
      <trkpt lat="45.06301" lon="2.61307">
        <ele>986.45</ele>
        <time>2015-06-07T14:59:32Z</time>
      </trkpt>
      <trkpt lat="45.0629" lon="2.61329">
        <ele>988.37</ele>
        <time>2015-06-07T14:59:48Z</time>
      </trkpt>
      <trkpt lat="45.06282" lon="2.61345">
        <ele>989.81</ele>
        <time>2015-06-07T15:00:00Z</time>
      </trkpt>
      <trkpt lat="45.06278" lon="2.61354">
        <ele>987.89</ele>
        <time>2015-06-07T15:00:10Z</time>
      </trkpt>
      <trkpt lat="45.06275" lon="2.61355">
        <ele>985.97</ele>
        <time>2015-06-07T15:00:12Z</time>
      </trkpt>
      <trkpt lat="45.06271" lon="2.61353">
        <ele>984.53</ele>
        <time>2015-06-07T15:00:24Z</time>
      </trkpt>
      <trkpt lat="45.06272" lon="2.61363">
        <ele>983.57</ele>
        <time>2015-06-07T15:00:35Z</time>
      </trkpt>
      <trkpt lat="45.06273" lon="2.61374">
        <ele>983.09</ele>
        <time>2015-06-07T15:00:44Z</time>
      </trkpt>
      <trkpt lat="45.06273" lon="2.61391">
        <ele>985.49</ele>
        <time>2015-06-07T15:00:57Z</time>
      </trkpt>
      <trkpt lat="45.06277" lon="2.61412">
        <ele>985.97</ele>
        <time>2015-06-07T15:01:10Z</time>
      </trkpt>
      <trkpt lat="45.06279" lon="2.61428">
        <ele>985.97</ele>
        <time>2015-06-07T15:01:21Z</time>
      </trkpt>
      <trkpt lat="45.06274" lon="2.61448">
        <ele>985.01</ele>
        <time>2015-06-07T15:01:36Z</time>
      </trkpt>
      <trkpt lat="45.06274" lon="2.61465">
        <ele>983.57</ele>
        <time>2015-06-07T15:01:49Z</time>
      </trkpt>
      <trkpt lat="45.06268" lon="2.61476">
        <ele>984.05</ele>
        <time>2015-06-07T15:02:02Z</time>
      </trkpt>
      <trkpt lat="45.06267" lon="2.61479">
        <ele>984.05</ele>
        <time>2015-06-07T15:02:16Z</time>
      </trkpt>
      <trkpt lat="45.06269" lon="2.61502">
        <ele>985.49</ele>
        <time>2015-06-07T15:02:33Z</time>
      </trkpt>
      <trkpt lat="45.0627" lon="2.61508">
        <ele>985.97</ele>
        <time>2015-06-07T15:02:36Z</time>
      </trkpt>
      <trkpt lat="45.06272" lon="2.61532">
        <ele>989.33</ele>
        <time>2015-06-07T15:02:49Z</time>
      </trkpt>
      <trkpt lat="45.06271" lon="2.6155">
        <ele>990.3</ele>
        <time>2015-06-07T15:03:00Z</time>
      </trkpt>
      <trkpt lat="45.06271" lon="2.61561">
        <ele>991.26</ele>
        <time>2015-06-07T15:03:07Z</time>
      </trkpt>
      <trkpt lat="45.06273" lon="2.61574">
        <ele>991.74</ele>
        <time>2015-06-07T15:03:16Z</time>
      </trkpt>
      <trkpt lat="45.06275" lon="2.61584">
        <ele>991.74</ele>
        <time>2015-06-07T15:03:22Z</time>
      </trkpt>
      <trkpt lat="45.06276" lon="2.6159">
        <ele>991.74</ele>
        <time>2015-06-07T15:03:27Z</time>
      </trkpt>
      <trkpt lat="45.06275" lon="2.61592">
        <ele>991.74</ele>
        <time>2015-06-07T15:03:29Z</time>
      </trkpt>
      <trkpt lat="45.06278" lon="2.61602">
        <ele>992.7</ele>
        <time>2015-06-07T15:03:43Z</time>
      </trkpt>
      <trkpt lat="45.06279" lon="2.61602">
        <ele>993.18</ele>
        <time>2015-06-07T15:04:00Z</time>
      </trkpt>
      <trkpt lat="45.0628" lon="2.61603">
        <ele>993.66</ele>
        <time>2015-06-07T15:04:19Z</time>
      </trkpt>
      <trkpt lat="45.06289" lon="2.61612">
        <ele>993.18</ele>
        <time>2015-06-07T15:04:30Z</time>
      </trkpt>
      <trkpt lat="45.06295" lon="2.61616">
        <ele>992.7</ele>
        <time>2015-06-07T15:04:36Z</time>
      </trkpt>
      <trkpt lat="45.063" lon="2.61624">
        <ele>990.78</ele>
        <time>2015-06-07T15:04:50Z</time>
      </trkpt>
      <trkpt lat="45.06303" lon="2.61628">
        <ele>990.78</ele>
        <time>2015-06-07T15:04:57Z</time>
      </trkpt>
      <trkpt lat="45.06306" lon="2.61631">
        <ele>990.78</ele>
        <time>2015-06-07T15:05:01Z</time>
      </trkpt>
      <trkpt lat="45.06314" lon="2.61641">
        <ele>990.3</ele>
        <time>2015-06-07T15:05:12Z</time>
      </trkpt>
      <trkpt lat="45.06321" lon="2.61648">
        <ele>990.3</ele>
        <time>2015-06-07T15:05:22Z</time>
      </trkpt>
      <trkpt lat="45.06335" lon="2.61655">
        <ele>988.85</ele>
        <time>2015-06-07T15:05:36Z</time>
      </trkpt>
      <trkpt lat="45.06344" lon="2.61661">
        <ele>988.85</ele>
        <time>2015-06-07T15:05:44Z</time>
      </trkpt>
      <trkpt lat="45.06357" lon="2.61669">
        <ele>987.41</ele>
        <time>2015-06-07T15:05:57Z</time>
      </trkpt>
      <trkpt lat="45.06363" lon="2.61673">
        <ele>987.41</ele>
        <time>2015-06-07T15:06:12Z</time>
      </trkpt>
      <trkpt lat="45.06364" lon="2.61674">
        <ele>987.41</ele>
        <time>2015-06-07T15:06:15Z</time>
      </trkpt>
      <trkpt lat="45.06369" lon="2.61693">
        <ele>987.89</ele>
        <time>2015-06-07T15:06:28Z</time>
      </trkpt>
      <trkpt lat="45.06368" lon="2.61699">
        <ele>986.93</ele>
        <time>2015-06-07T15:06:32Z</time>
      </trkpt>
      <trkpt lat="45.0637" lon="2.61721">
        <ele>985.49</ele>
        <time>2015-06-07T15:06:44Z</time>
      </trkpt>
      <trkpt lat="45.06371" lon="2.61726">
        <ele>985.01</ele>
        <time>2015-06-07T15:06:47Z</time>
      </trkpt>
      <trkpt lat="45.06375" lon="2.61746">
        <ele>985.97</ele>
        <time>2015-06-07T15:06:58Z</time>
      </trkpt>
      <trkpt lat="45.06378" lon="2.61752">
        <ele>985.97</ele>
        <time>2015-06-07T15:07:03Z</time>
      </trkpt>
      <trkpt lat="45.06378" lon="2.61756">
        <ele>986.45</ele>
        <time>2015-06-07T15:07:05Z</time>
      </trkpt>
      <trkpt lat="45.0638" lon="2.61764">
        <ele>986.93</ele>
        <time>2015-06-07T15:07:11Z</time>
      </trkpt>
      <trkpt lat="45.06384" lon="2.61771">
        <ele>986.45</ele>
        <time>2015-06-07T15:07:16Z</time>
      </trkpt>
      <trkpt lat="45.06389" lon="2.61791">
        <ele>988.37</ele>
        <time>2015-06-07T15:07:31Z</time>
      </trkpt>
      <trkpt lat="45.06391" lon="2.61799">
        <ele>987.89</ele>
        <time>2015-06-07T15:07:42Z</time>
      </trkpt>
      <trkpt lat="45.06399" lon="2.61818">
        <ele>986.93</ele>
        <time>2015-06-07T15:07:56Z</time>
      </trkpt>
      <trkpt lat="45.06402" lon="2.6183">
        <ele>986.45</ele>
        <time>2015-06-07T15:08:04Z</time>
      </trkpt>
      <trkpt lat="45.06408" lon="2.61848">
        <ele>985.01</ele>
        <time>2015-06-07T15:08:17Z</time>
      </trkpt>
      <trkpt lat="45.06405" lon="2.61865">
        <ele>983.09</ele>
        <time>2015-06-07T15:08:30Z</time>
      </trkpt>
      <trkpt lat="45.06403" lon="2.61869">
        <ele>982.12</ele>
        <time>2015-06-07T15:08:34Z</time>
      </trkpt>
      <trkpt lat="45.06406" lon="2.61873">
        <ele>981.16</ele>
        <time>2015-06-07T15:08:37Z</time>
      </trkpt>
      <trkpt lat="45.06406" lon="2.61876">
        <ele>981.16</ele>
        <time>2015-06-07T15:08:39Z</time>
      </trkpt>
      <trkpt lat="45.06401" lon="2.61889">
        <ele>982.6</ele>
        <time>2015-06-07T15:08:46Z</time>
      </trkpt>
      <trkpt lat="45.06401" lon="2.61893">
        <ele>982.6</ele>
        <time>2015-06-07T15:08:48Z</time>
      </trkpt>
      <trkpt lat="45.06398" lon="2.61909">
        <ele>982.6</ele>
        <time>2015-06-07T15:08:58Z</time>
      </trkpt>
      <trkpt lat="45.06398" lon="2.61912">
        <ele>982.12</ele>
        <time>2015-06-07T15:09:01Z</time>
      </trkpt>
      <trkpt lat="45.06394" lon="2.61918">
        <ele>981.64</ele>
        <time>2015-06-07T15:09:06Z</time>
      </trkpt>
      <trkpt lat="45.06394" lon="2.61921">
        <ele>981.16</ele>
        <time>2015-06-07T15:09:08Z</time>
      </trkpt>
      <trkpt lat="45.06396" lon="2.61922">
        <ele>981.16</ele>
        <time>2015-06-07T15:09:10Z</time>
      </trkpt>
      <trkpt lat="45.06386" lon="2.61935">
        <ele>980.2</ele>
        <time>2015-06-07T15:09:21Z</time>
      </trkpt>
      <trkpt lat="45.06383" lon="2.61941">
        <ele>980.2</ele>
        <time>2015-06-07T15:09:25Z</time>
      </trkpt>
      <trkpt lat="45.06382" lon="2.61945">
        <ele>980.68</ele>
        <time>2015-06-07T15:09:28Z</time>
      </trkpt>
      <trkpt lat="45.0638" lon="2.6195">
        <ele>980.68</ele>
        <time>2015-06-07T15:09:32Z</time>
      </trkpt>
      <trkpt lat="45.0638" lon="2.61966">
        <ele>980.68</ele>
        <time>2015-06-07T15:09:45Z</time>
      </trkpt>
      <trkpt lat="45.06387" lon="2.61981">
        <ele>979.72</ele>
        <time>2015-06-07T15:10:01Z</time>
      </trkpt>
      <trkpt lat="45.06393" lon="2.6199">
        <ele>979.24</ele>
        <time>2015-06-07T15:10:17Z</time>
      </trkpt>
      <trkpt lat="45.06397" lon="2.61994">
        <ele>979.24</ele>
        <time>2015-06-07T15:10:21Z</time>
      </trkpt>
      <trkpt lat="45.06407" lon="2.62014">
        <ele>980.2</ele>
        <time>2015-06-07T15:10:33Z</time>
      </trkpt>
      <trkpt lat="45.06411" lon="2.62034">
        <ele>982.6</ele>
        <time>2015-06-07T15:10:48Z</time>
      </trkpt>
      <trkpt lat="45.06407" lon="2.62054">
        <ele>983.57</ele>
        <time>2015-06-07T15:11:01Z</time>
      </trkpt>
      <trkpt lat="45.06396" lon="2.62078">
        <ele>981.16</ele>
        <time>2015-06-07T15:11:13Z</time>
      </trkpt>
      <trkpt lat="45.06392" lon="2.62087">
        <ele>980.68</ele>
        <time>2015-06-07T15:11:19Z</time>
      </trkpt>
      <trkpt lat="45.06391" lon="2.62095">
        <ele>979.72</ele>
        <time>2015-06-07T15:11:24Z</time>
      </trkpt>
      <trkpt lat="45.06389" lon="2.62113">
        <ele>978.76</ele>
        <time>2015-06-07T15:11:35Z</time>
      </trkpt>
      <trkpt lat="45.06391" lon="2.62117">
        <ele>978.76</ele>
        <time>2015-06-07T15:11:37Z</time>
      </trkpt>
      <trkpt lat="45.06393" lon="2.62124">
        <ele>977.8</ele>
        <time>2015-06-07T15:11:42Z</time>
      </trkpt>
      <trkpt lat="45.06396" lon="2.62138">
        <ele>975.88</ele>
        <time>2015-06-07T15:11:51Z</time>
      </trkpt>
      <trkpt lat="45.06398" lon="2.62154">
        <ele>972.03</ele>
        <time>2015-06-07T15:12:01Z</time>
      </trkpt>
      <trkpt lat="45.06397" lon="2.62156">
        <ele>971.55</ele>
        <time>2015-06-07T15:12:03Z</time>
      </trkpt>
      <trkpt lat="45.06403" lon="2.6218">
        <ele>967.22</ele>
        <time>2015-06-07T15:12:21Z</time>
      </trkpt>
      <trkpt lat="45.06409" lon="2.62194">
        <ele>966.26</ele>
        <time>2015-06-07T15:12:37Z</time>
      </trkpt>
      <trkpt lat="45.06414" lon="2.62203">
        <ele>966.74</ele>
        <time>2015-06-07T15:12:45Z</time>
      </trkpt>
      <trkpt lat="45.06426" lon="2.62215">
        <ele>970.11</ele>
        <time>2015-06-07T15:12:57Z</time>
      </trkpt>
      <trkpt lat="45.06436" lon="2.62228">
        <ele>971.55</ele>
        <time>2015-06-07T15:13:11Z</time>
      </trkpt>
      <trkpt lat="45.0645" lon="2.62247">
        <ele>973.95</ele>
        <time>2015-06-07T15:13:23Z</time>
      </trkpt>
      <trkpt lat="45.06453" lon="2.62255">
        <ele>974.91</ele>
        <time>2015-06-07T15:13:30Z</time>
      </trkpt>
      <trkpt lat="45.06455" lon="2.62262">
        <ele>975.39</ele>
        <time>2015-06-07T15:13:35Z</time>
      </trkpt>
      <trkpt lat="45.06456" lon="2.62266">
        <ele>975.88</ele>
        <time>2015-06-07T15:13:37Z</time>
      </trkpt>
      <trkpt lat="45.06462" lon="2.62279">
        <ele>978.28</ele>
        <time>2015-06-07T15:13:44Z</time>
      </trkpt>
      <trkpt lat="45.06464" lon="2.62284">
        <ele>979.72</ele>
        <time>2015-06-07T15:13:48Z</time>
      </trkpt>
      <trkpt lat="45.06465" lon="2.62295">
        <ele>984.05</ele>
        <time>2015-06-07T15:13:59Z</time>
      </trkpt>
      <trkpt lat="45.06461" lon="2.62306">
        <ele>984.53</ele>
        <time>2015-06-07T15:14:07Z</time>
      </trkpt>
      <trkpt lat="45.06461" lon="2.62317">
        <ele>985.01</ele>
        <time>2015-06-07T15:14:18Z</time>
      </trkpt>
      <trkpt lat="45.06461" lon="2.6232">
        <ele>985.01</ele>
        <time>2015-06-07T15:14:21Z</time>
      </trkpt>
      <trkpt lat="45.06464" lon="2.62329">
        <ele>985.01</ele>
        <time>2015-06-07T15:14:28Z</time>
      </trkpt>
      <trkpt lat="45.06469" lon="2.6234">
        <ele>985.01</ele>
        <time>2015-06-07T15:14:40Z</time>
      </trkpt>
      <trkpt lat="45.06473" lon="2.62342">
        <ele>983.09</ele>
        <time>2015-06-07T15:14:57Z</time>
      </trkpt>
      <trkpt lat="45.06482" lon="2.62357">
        <ele>981.16</ele>
        <time>2015-06-07T15:15:12Z</time>
      </trkpt>
      <trkpt lat="45.06492" lon="2.62363">
        <ele>981.64</ele>
        <time>2015-06-07T15:15:26Z</time>
      </trkpt>
      <trkpt lat="45.06492" lon="2.62363">
        <ele>981.64</ele>
        <time>2015-06-07T15:15:28Z</time>
      </trkpt>
      <trkpt lat="45.06502" lon="2.62366">
        <ele>982.6</ele>
        <time>2015-06-07T15:15:38Z</time>
      </trkpt>
      <trkpt lat="45.06512" lon="2.62368">
        <ele>983.09</ele>
        <time>2015-06-07T15:15:48Z</time>
      </trkpt>
      <trkpt lat="45.06524" lon="2.62373">
        <ele>983.57</ele>
        <time>2015-06-07T15:15:59Z</time>
      </trkpt>
      <trkpt lat="45.06537" lon="2.62382">
        <ele>983.09</ele>
        <time>2015-06-07T15:16:11Z</time>
      </trkpt>
      <trkpt lat="45.0655" lon="2.6239">
        <ele>982.6</ele>
        <time>2015-06-07T15:16:23Z</time>
      </trkpt>
      <trkpt lat="45.06562" lon="2.624">
        <ele>983.57</ele>
        <time>2015-06-07T15:16:36Z</time>
      </trkpt>
      <trkpt lat="45.06575" lon="2.6241">
        <ele>983.57</ele>
        <time>2015-06-07T15:16:50Z</time>
      </trkpt>
      <trkpt lat="45.06583" lon="2.62416">
        <ele>985.97</ele>
        <time>2015-06-07T15:17:00Z</time>
      </trkpt>
      <trkpt lat="45.06588" lon="2.62416">
        <ele>987.41</ele>
        <time>2015-06-07T15:17:10Z</time>
      </trkpt>
      <trkpt lat="45.06593" lon="2.62417">
        <ele>987.89</ele>
        <time>2015-06-07T15:17:22Z</time>
      </trkpt>
      <trkpt lat="45.06595" lon="2.62417">
        <ele>986.93</ele>
        <time>2015-06-07T15:17:40Z</time>
      </trkpt>
      <trkpt lat="45.06595" lon="2.62415">
        <ele>985.49</ele>
        <time>2015-06-07T15:18:01Z</time>
      </trkpt>
      <trkpt lat="45.06596" lon="2.62416">
        <ele>985.49</ele>
        <time>2015-06-07T15:18:22Z</time>
      </trkpt>
      <trkpt lat="45.06595" lon="2.62417">
        <ele>986.45</ele>
        <time>2015-06-07T15:18:40Z</time>
      </trkpt>
      <trkpt lat="45.06599" lon="2.62421">
        <ele>985.49</ele>
        <time>2015-06-07T15:18:55Z</time>
      </trkpt>
      <trkpt lat="45.06605" lon="2.6243">
        <ele>985.01</ele>
        <time>2015-06-07T15:19:05Z</time>
      </trkpt>
      <trkpt lat="45.06605" lon="2.62431">
        <ele>985.01</ele>
        <time>2015-06-07T15:19:06Z</time>
      </trkpt>
      <trkpt lat="45.06607" lon="2.62438">
        <ele>984.05</ele>
        <time>2015-06-07T15:19:11Z</time>
      </trkpt>
      <trkpt lat="45.06607" lon="2.62443">
        <ele>983.57</ele>
        <time>2015-06-07T15:19:15Z</time>
      </trkpt>
      <trkpt lat="45.06607" lon="2.62445">
        <ele>983.57</ele>
        <time>2015-06-07T15:19:17Z</time>
      </trkpt>
      <trkpt lat="45.06606" lon="2.62449">
        <ele>983.57</ele>
        <time>2015-06-07T15:19:20Z</time>
      </trkpt>
      <trkpt lat="45.0661" lon="2.62457">
        <ele>982.6</ele>
        <time>2015-06-07T15:19:24Z</time>
      </trkpt>
      <trkpt lat="45.0661" lon="2.62462">
        <ele>982.6</ele>
        <time>2015-06-07T15:19:28Z</time>
      </trkpt>
      <trkpt lat="45.06608" lon="2.62464">
        <ele>982.12</ele>
        <time>2015-06-07T15:19:30Z</time>
      </trkpt>
      <trkpt lat="45.06604" lon="2.6247">
        <ele>982.12</ele>
        <time>2015-06-07T15:19:35Z</time>
      </trkpt>
      <trkpt lat="45.066" lon="2.62483">
        <ele>981.16</ele>
        <time>2015-06-07T15:19:45Z</time>
      </trkpt>
      <trkpt lat="45.06594" lon="2.62499">
        <ele>980.2</ele>
        <time>2015-06-07T15:19:58Z</time>
      </trkpt>
      <trkpt lat="45.06593" lon="2.62501">
        <ele>979.72</ele>
        <time>2015-06-07T15:20:00Z</time>
      </trkpt>
      <trkpt lat="45.06588" lon="2.62515">
        <ele>979.72</ele>
        <time>2015-06-07T15:20:11Z</time>
      </trkpt>
      <trkpt lat="45.06584" lon="2.62519">
        <ele>979.72</ele>
        <time>2015-06-07T15:20:16Z</time>
      </trkpt>
      <trkpt lat="45.06579" lon="2.62529">
        <ele>978.76</ele>
        <time>2015-06-07T15:20:24Z</time>
      </trkpt>
      <trkpt lat="45.06577" lon="2.62531">
        <ele>979.24</ele>
        <time>2015-06-07T15:20:27Z</time>
      </trkpt>
      <trkpt lat="45.06575" lon="2.62535">
        <ele>978.76</ele>
        <time>2015-06-07T15:20:31Z</time>
      </trkpt>
      <trkpt lat="45.06567" lon="2.62548">
        <ele>980.68</ele>
        <time>2015-06-07T15:20:43Z</time>
      </trkpt>
      <trkpt lat="45.06565" lon="2.62552">
        <ele>980.2</ele>
        <time>2015-06-07T15:20:47Z</time>
      </trkpt>
      <trkpt lat="45.06553" lon="2.62563">
        <ele>977.32</ele>
        <time>2015-06-07T15:21:00Z</time>
      </trkpt>
      <trkpt lat="45.06545" lon="2.62569">
        <ele>975.39</ele>
        <time>2015-06-07T15:21:08Z</time>
      </trkpt>
      <trkpt lat="45.06539" lon="2.62574">
        <ele>972.99</ele>
        <time>2015-06-07T15:21:15Z</time>
      </trkpt>
      <trkpt lat="45.06531" lon="2.62578">
        <ele>968.18</ele>
        <time>2015-06-07T15:21:27Z</time>
      </trkpt>
      <trkpt lat="45.06524" lon="2.62581">
        <ele>963.86</ele>
        <time>2015-06-07T15:21:39Z</time>
      </trkpt>
      <trkpt lat="45.06519" lon="2.62582">
        <ele>960.01</ele>
        <time>2015-06-07T15:21:49Z</time>
      </trkpt>
      <trkpt lat="45.06516" lon="2.62585">
        <ele>960.01</ele>
        <time>2015-06-07T15:21:58Z</time>
      </trkpt>
      <trkpt lat="45.06514" lon="2.62586">
        <ele>959.53</ele>
        <time>2015-06-07T15:22:01Z</time>
      </trkpt>
      <trkpt lat="45.06506" lon="2.62593">
        <ele>957.13</ele>
        <time>2015-06-07T15:22:11Z</time>
      </trkpt>
      <trkpt lat="45.06502" lon="2.62595">
        <ele>956.17</ele>
        <time>2015-06-07T15:22:15Z</time>
      </trkpt>
      <trkpt lat="45.06494" lon="2.62605">
        <ele>958.57</ele>
        <time>2015-06-07T15:22:25Z</time>
      </trkpt>
      <trkpt lat="45.06485" lon="2.62614">
        <ele>960.01</ele>
        <time>2015-06-07T15:22:33Z</time>
      </trkpt>
      <trkpt lat="45.06475" lon="2.62627">
        <ele>961.94</ele>
        <time>2015-06-07T15:22:43Z</time>
      </trkpt>
      <trkpt lat="45.06467" lon="2.62639">
        <ele>968.18</ele>
        <time>2015-06-07T15:22:52Z</time>
      </trkpt>
      <trkpt lat="45.06467" lon="2.62642">
        <ele>969.15</ele>
        <time>2015-06-07T15:22:54Z</time>
      </trkpt>
      <trkpt lat="45.06467" lon="2.62654">
        <ele>971.07</ele>
        <time>2015-06-07T15:23:04Z</time>
      </trkpt>
      <trkpt lat="45.06467" lon="2.62658">
        <ele>971.07</ele>
        <time>2015-06-07T15:23:07Z</time>
      </trkpt>
      <trkpt lat="45.06465" lon="2.6266">
        <ele>970.11</ele>
        <time>2015-06-07T15:23:09Z</time>
      </trkpt>
      <trkpt lat="45.06463" lon="2.62668">
        <ele>969.63</ele>
        <time>2015-06-07T15:23:15Z</time>
      </trkpt>
      <trkpt lat="45.06464" lon="2.62674">
        <ele>969.15</ele>
        <time>2015-06-07T15:23:19Z</time>
      </trkpt>
      <trkpt lat="45.06465" lon="2.62684">
        <ele>970.59</ele>
        <time>2015-06-07T15:23:25Z</time>
      </trkpt>
      <trkpt lat="45.06465" lon="2.6269">
        <ele>971.07</ele>
        <time>2015-06-07T15:23:29Z</time>
      </trkpt>
      <trkpt lat="45.06466" lon="2.62698">
        <ele>970.11</ele>
        <time>2015-06-07T15:23:35Z</time>
      </trkpt>
      <trkpt lat="45.06467" lon="2.62707">
        <ele>971.07</ele>
        <time>2015-06-07T15:23:41Z</time>
      </trkpt>
      <trkpt lat="45.06467" lon="2.6271">
        <ele>970.59</ele>
        <time>2015-06-07T15:23:43Z</time>
      </trkpt>
      <trkpt lat="45.06473" lon="2.62727">
        <ele>972.03</ele>
        <time>2015-06-07T15:23:57Z</time>
      </trkpt>
      <trkpt lat="45.06474" lon="2.62732">
        <ele>971.07</ele>
        <time>2015-06-07T15:24:09Z</time>
      </trkpt>
      <trkpt lat="45.06475" lon="2.62743">
        <ele>970.11</ele>
        <time>2015-06-07T15:24:20Z</time>
      </trkpt>
      <trkpt lat="45.06482" lon="2.62752">
        <ele>969.15</ele>
        <time>2015-06-07T15:24:31Z</time>
      </trkpt>
      <trkpt lat="45.06484" lon="2.62752">
        <ele>968.67</ele>
        <time>2015-06-07T15:24:45Z</time>
      </trkpt>
      <trkpt lat="45.06486" lon="2.62754">
        <ele>968.18</ele>
        <time>2015-06-07T15:25:00Z</time>
      </trkpt>
      <trkpt lat="45.06487" lon="2.62756">
        <ele>967.7</ele>
        <time>2015-06-07T15:25:03Z</time>
      </trkpt>
      <trkpt lat="45.06493" lon="2.62757">
        <ele>965.78</ele>
        <time>2015-06-07T15:25:16Z</time>
      </trkpt>
      <trkpt lat="45.065" lon="2.6276">
        <ele>963.38</ele>
        <time>2015-06-07T15:25:28Z</time>
      </trkpt>
      <trkpt lat="45.06507" lon="2.62773">
        <ele>961.94</ele>
        <time>2015-06-07T15:25:42Z</time>
      </trkpt>
      <trkpt lat="45.06508" lon="2.62773">
        <ele>960.01</ele>
        <time>2015-06-07T15:25:58Z</time>
      </trkpt>
      <trkpt lat="45.06509" lon="2.62775">
        <ele>960.49</ele>
        <time>2015-06-07T15:26:10Z</time>
      </trkpt>
      <trkpt lat="45.06509" lon="2.62784">
        <ele>959.53</ele>
        <time>2015-06-07T15:26:22Z</time>
      </trkpt>
      <trkpt lat="45.06511" lon="2.62792">
        <ele>959.05</ele>
        <time>2015-06-07T15:26:46Z</time>
      </trkpt>
      <trkpt lat="45.06514" lon="2.628">
        <ele>959.05</ele>
        <time>2015-06-07T15:26:58Z</time>
      </trkpt>
      <trkpt lat="45.06518" lon="2.62814">
        <ele>959.05</ele>
        <time>2015-06-07T15:27:11Z</time>
      </trkpt>
      <trkpt lat="45.06518" lon="2.62815">
        <ele>959.05</ele>
        <time>2015-06-07T15:27:12Z</time>
      </trkpt>
      <trkpt lat="45.06525" lon="2.62833">
        <ele>956.65</ele>
        <time>2015-06-07T15:27:26Z</time>
      </trkpt>
      <trkpt lat="45.06533" lon="2.62841">
        <ele>954.73</ele>
        <time>2015-06-07T15:27:36Z</time>
      </trkpt>
      <trkpt lat="45.06542" lon="2.62849">
        <ele>954.25</ele>
        <time>2015-06-07T15:27:48Z</time>
      </trkpt>
      <trkpt lat="45.06544" lon="2.62862">
        <ele>951.36</ele>
        <time>2015-06-07T15:28:00Z</time>
      </trkpt>
      <trkpt lat="45.06549" lon="2.62875">
        <ele>949.44</ele>
        <time>2015-06-07T15:28:11Z</time>
      </trkpt>
      <trkpt lat="45.0655" lon="2.62882">
        <ele>948</ele>
        <time>2015-06-07T15:28:21Z</time>
      </trkpt>
      <trkpt lat="45.06549" lon="2.62888">
        <ele>947.52</ele>
        <time>2015-06-07T15:28:40Z</time>
      </trkpt>
      <trkpt lat="45.06549" lon="2.62893">
        <ele>948</ele>
        <time>2015-06-07T15:28:48Z</time>
      </trkpt>
      <trkpt lat="45.06549" lon="2.62906">
        <ele>947.04</ele>
        <time>2015-06-07T15:28:59Z</time>
      </trkpt>
      <trkpt lat="45.06549" lon="2.6291">
        <ele>946.56</ele>
        <time>2015-06-07T15:29:02Z</time>
      </trkpt>
      <trkpt lat="45.06549" lon="2.62914">
        <ele>945.59</ele>
        <time>2015-06-07T15:29:06Z</time>
      </trkpt>
      <trkpt lat="45.06554" lon="2.62925">
        <ele>945.59</ele>
        <time>2015-06-07T15:29:18Z</time>
      </trkpt>
      <trkpt lat="45.06555" lon="2.62928">
        <ele>945.11</ele>
        <time>2015-06-07T15:29:30Z</time>
      </trkpt>
      <trkpt lat="45.06554" lon="2.6294">
        <ele>945.59</ele>
        <time>2015-06-07T15:29:46Z</time>
      </trkpt>
      <trkpt lat="45.06549" lon="2.62945">
        <ele>945.11</ele>
        <time>2015-06-07T15:29:57Z</time>
      </trkpt>
      <trkpt lat="45.06542" lon="2.62951">
        <ele>944.63</ele>
        <time>2015-06-07T15:30:09Z</time>
      </trkpt>
      <trkpt lat="45.06531" lon="2.62953">
        <ele>944.15</ele>
        <time>2015-06-07T15:30:23Z</time>
      </trkpt>
      <trkpt lat="45.06523" lon="2.62955">
        <ele>944.15</ele>
        <time>2015-06-07T15:30:38Z</time>
      </trkpt>
      <trkpt lat="45.06516" lon="2.62962">
        <ele>942.71</ele>
        <time>2015-06-07T15:30:47Z</time>
      </trkpt>
      <trkpt lat="45.06512" lon="2.62967">
        <ele>941.75</ele>
        <time>2015-06-07T15:30:52Z</time>
      </trkpt>
      <trkpt lat="45.06507" lon="2.62986">
        <ele>936.94</ele>
        <time>2015-06-07T15:31:04Z</time>
      </trkpt>
      <trkpt lat="45.06506" lon="2.62988">
        <ele>936.46</ele>
        <time>2015-06-07T15:31:06Z</time>
      </trkpt>
      <trkpt lat="45.06506" lon="2.6299">
        <ele>935.5</ele>
        <time>2015-06-07T15:31:08Z</time>
      </trkpt>
      <trkpt lat="45.06507" lon="2.63006">
        <ele>934.54</ele>
        <time>2015-06-07T15:31:19Z</time>
      </trkpt>
      <trkpt lat="45.06503" lon="2.63021">
        <ele>935.5</ele>
        <time>2015-06-07T15:31:31Z</time>
      </trkpt>
      <trkpt lat="45.06495" lon="2.63037">
        <ele>937.42</ele>
        <time>2015-06-07T15:31:46Z</time>
      </trkpt>
      <trkpt lat="45.06497" lon="2.63043">
        <ele>938.86</ele>
        <time>2015-06-07T15:32:00Z</time>
      </trkpt>
      <trkpt lat="45.06493" lon="2.63049">
        <ele>940.31</ele>
        <time>2015-06-07T15:32:19Z</time>
      </trkpt>
      <trkpt lat="45.06494" lon="2.6305">
        <ele>940.31</ele>
        <time>2015-06-07T15:32:20Z</time>
      </trkpt>
      <trkpt lat="45.06495" lon="2.63062">
        <ele>939.83</ele>
        <time>2015-06-07T15:32:32Z</time>
      </trkpt>
      <trkpt lat="45.0649" lon="2.63075">
        <ele>936.46</ele>
        <time>2015-06-07T15:32:46Z</time>
      </trkpt>
      <trkpt lat="45.0649" lon="2.63089">
        <ele>935.02</ele>
        <time>2015-06-07T15:33:01Z</time>
      </trkpt>
      <trkpt lat="45.06486" lon="2.63103">
        <ele>934.54</ele>
        <time>2015-06-07T15:33:18Z</time>
      </trkpt>
      <trkpt lat="45.06484" lon="2.63111">
        <ele>931.65</ele>
        <time>2015-06-07T15:33:38Z</time>
      </trkpt>
      <trkpt lat="45.06482" lon="2.63116">
        <ele>930.69</ele>
        <time>2015-06-07T15:33:42Z</time>
      </trkpt>
      <trkpt lat="45.06481" lon="2.63121">
        <ele>931.17</ele>
        <time>2015-06-07T15:33:46Z</time>
      </trkpt>
      <trkpt lat="45.0648" lon="2.63125">
        <ele>931.17</ele>
        <time>2015-06-07T15:33:49Z</time>
      </trkpt>
      <trkpt lat="45.06479" lon="2.63142">
        <ele>931.65</ele>
        <time>2015-06-07T15:34:01Z</time>
      </trkpt>
      <trkpt lat="45.06476" lon="2.63165">
        <ele>930.21</ele>
        <time>2015-06-07T15:34:16Z</time>
      </trkpt>
      <trkpt lat="45.06476" lon="2.63169">
        <ele>927.33</ele>
        <time>2015-06-07T15:34:28Z</time>
      </trkpt>
      <trkpt lat="45.06475" lon="2.63173">
        <ele>925.89</ele>
        <time>2015-06-07T15:34:47Z</time>
      </trkpt>
      <trkpt lat="45.06475" lon="2.63173">
        <ele>924.93</ele>
        <time>2015-06-07T15:35:03Z</time>
      </trkpt>
      <trkpt lat="45.06472" lon="2.63182">
        <ele>925.41</ele>
        <time>2015-06-07T15:35:19Z</time>
      </trkpt>
      <trkpt lat="45.06466" lon="2.63197">
        <ele>927.33</ele>
        <time>2015-06-07T15:35:30Z</time>
      </trkpt>
      <trkpt lat="45.06465" lon="2.63201">
        <ele>927.81</ele>
        <time>2015-06-07T15:35:33Z</time>
      </trkpt>
      <trkpt lat="45.06461" lon="2.6322">
        <ele>928.77</ele>
        <time>2015-06-07T15:35:46Z</time>
      </trkpt>
      <trkpt lat="45.06457" lon="2.63236">
        <ele>926.37</ele>
        <time>2015-06-07T15:36:00Z</time>
      </trkpt>
      <trkpt lat="45.06458" lon="2.63239">
        <ele>926.37</ele>
        <time>2015-06-07T15:36:02Z</time>
      </trkpt>
      <trkpt lat="45.06456" lon="2.63243">
        <ele>925.89</ele>
        <time>2015-06-07T15:36:06Z</time>
      </trkpt>
      <trkpt lat="45.06456" lon="2.6325">
        <ele>926.37</ele>
        <time>2015-06-07T15:36:10Z</time>
      </trkpt>
      <trkpt lat="45.06454" lon="2.63262">
        <ele>925.89</ele>
        <time>2015-06-07T15:36:18Z</time>
      </trkpt>
      <trkpt lat="45.06453" lon="2.63271">
        <ele>922.04</ele>
        <time>2015-06-07T15:36:26Z</time>
      </trkpt>
      <trkpt lat="45.06456" lon="2.6328">
        <ele>919.64</ele>
        <time>2015-06-07T15:36:33Z</time>
      </trkpt>
      <trkpt lat="45.06463" lon="2.63297">
        <ele>919.64</ele>
        <time>2015-06-07T15:36:45Z</time>
      </trkpt>
      <trkpt lat="45.06468" lon="2.63309">
        <ele>918.2</ele>
        <time>2015-06-07T15:36:57Z</time>
      </trkpt>
      <trkpt lat="45.06469" lon="2.63313">
        <ele>917.24</ele>
        <time>2015-06-07T15:37:00Z</time>
      </trkpt>
      <trkpt lat="45.06471" lon="2.63317">
        <ele>917.24</ele>
        <time>2015-06-07T15:37:03Z</time>
      </trkpt>
      <trkpt lat="45.06472" lon="2.63323">
        <ele>916.27</ele>
        <time>2015-06-07T15:37:07Z</time>
      </trkpt>
      <trkpt lat="45.0647" lon="2.63325">
        <ele>916.27</ele>
        <time>2015-06-07T15:37:09Z</time>
      </trkpt>
      <trkpt lat="45.06467" lon="2.63336">
        <ele>915.79</ele>
        <time>2015-06-07T15:37:18Z</time>
      </trkpt>
      <trkpt lat="45.06463" lon="2.63346">
        <ele>914.35</ele>
        <time>2015-06-07T15:37:28Z</time>
      </trkpt>
      <trkpt lat="45.06454" lon="2.63362">
        <ele>913.39</ele>
        <time>2015-06-07T15:37:40Z</time>
      </trkpt>
      <trkpt lat="45.06447" lon="2.6338">
        <ele>911.95</ele>
        <time>2015-06-07T15:37:52Z</time>
      </trkpt>
      <trkpt lat="45.06446" lon="2.63385">
        <ele>911.95</ele>
        <time>2015-06-07T15:37:55Z</time>
      </trkpt>
      <trkpt lat="45.0644" lon="2.634">
        <ele>910.03</ele>
        <time>2015-06-07T15:38:08Z</time>
      </trkpt>
      <trkpt lat="45.06435" lon="2.63423">
        <ele>908.58</ele>
        <time>2015-06-07T15:38:23Z</time>
      </trkpt>
      <trkpt lat="45.06434" lon="2.63434">
        <ele>908.1</ele>
        <time>2015-06-07T15:38:29Z</time>
      </trkpt>
      <trkpt lat="45.06433" lon="2.63437">
        <ele>907.62</ele>
        <time>2015-06-07T15:38:31Z</time>
      </trkpt>
      <trkpt lat="45.0643" lon="2.6346">
        <ele>908.58</ele>
        <time>2015-06-07T15:38:46Z</time>
      </trkpt>
      <trkpt lat="45.06429" lon="2.63473">
        <ele>908.1</ele>
        <time>2015-06-07T15:38:54Z</time>
      </trkpt>
      <trkpt lat="45.06428" lon="2.63477">
        <ele>907.62</ele>
        <time>2015-06-07T15:38:57Z</time>
      </trkpt>
      <trkpt lat="45.06429" lon="2.63484">
        <ele>907.14</ele>
        <time>2015-06-07T15:39:01Z</time>
      </trkpt>
      <trkpt lat="45.06429" lon="2.63486">
        <ele>906.66</ele>
        <time>2015-06-07T15:39:03Z</time>
      </trkpt>
      <trkpt lat="45.06429" lon="2.63491">
        <ele>904.74</ele>
        <time>2015-06-07T15:39:07Z</time>
      </trkpt>
      <trkpt lat="45.06431" lon="2.63499">
        <ele>902.33</ele>
        <time>2015-06-07T15:39:14Z</time>
      </trkpt>
      <trkpt lat="45.06431" lon="2.63507">
        <ele>901.85</ele>
        <time>2015-06-07T15:39:19Z</time>
      </trkpt>
      <trkpt lat="45.0643" lon="2.63515">
        <ele>899.93</ele>
        <time>2015-06-07T15:39:32Z</time>
      </trkpt>
      <trkpt lat="45.06428" lon="2.63522">
        <ele>899.93</ele>
        <time>2015-06-07T15:39:37Z</time>
      </trkpt>
      <trkpt lat="45.06426" lon="2.63535">
        <ele>900.89</ele>
        <time>2015-06-07T15:39:45Z</time>
      </trkpt>
      <trkpt lat="45.06426" lon="2.63538">
        <ele>900.89</ele>
        <time>2015-06-07T15:39:47Z</time>
      </trkpt>
      <trkpt lat="45.06427" lon="2.63552">
        <ele>902.33</ele>
        <time>2015-06-07T15:39:56Z</time>
      </trkpt>
      <trkpt lat="45.06427" lon="2.63561">
        <ele>902.33</ele>
        <time>2015-06-07T15:40:01Z</time>
      </trkpt>
      <trkpt lat="45.06426" lon="2.63565">
        <ele>902.82</ele>
        <time>2015-06-07T15:40:04Z</time>
      </trkpt>
      <trkpt lat="45.06423" lon="2.63579">
        <ele>902.33</ele>
        <time>2015-06-07T15:40:14Z</time>
      </trkpt>
      <trkpt lat="45.0642" lon="2.63602">
        <ele>904.26</ele>
        <time>2015-06-07T15:40:27Z</time>
      </trkpt>
      <trkpt lat="45.06417" lon="2.63622">
        <ele>902.82</ele>
        <time>2015-06-07T15:40:39Z</time>
      </trkpt>
      <trkpt lat="45.06416" lon="2.63624">
        <ele>901.85</ele>
        <time>2015-06-07T15:40:41Z</time>
      </trkpt>
      <trkpt lat="45.06413" lon="2.63633">
        <ele>901.85</ele>
        <time>2015-06-07T15:40:48Z</time>
      </trkpt>
      <trkpt lat="45.06413" lon="2.63636">
        <ele>902.33</ele>
        <time>2015-06-07T15:40:50Z</time>
      </trkpt>
      <trkpt lat="45.06412" lon="2.63643">
        <ele>902.33</ele>
        <time>2015-06-07T15:40:55Z</time>
      </trkpt>
      <trkpt lat="45.06413" lon="2.63654">
        <ele>902.82</ele>
        <time>2015-06-07T15:41:01Z</time>
      </trkpt>
      <trkpt lat="45.06412" lon="2.63661">
        <ele>902.33</ele>
        <time>2015-06-07T15:41:05Z</time>
      </trkpt>
      <trkpt lat="45.06412" lon="2.63684">
        <ele>904.26</ele>
        <time>2015-06-07T15:41:19Z</time>
      </trkpt>
      <trkpt lat="45.06414" lon="2.63703">
        <ele>903.3</ele>
        <time>2015-06-07T15:41:31Z</time>
      </trkpt>
      <trkpt lat="45.06417" lon="2.63716">
        <ele>898.97</ele>
        <time>2015-06-07T15:41:39Z</time>
      </trkpt>
      <trkpt lat="45.06421" lon="2.63724">
        <ele>897.53</ele>
        <time>2015-06-07T15:41:46Z</time>
      </trkpt>
      <trkpt lat="45.06431" lon="2.63738">
        <ele>894.64</ele>
        <time>2015-06-07T15:42:00Z</time>
      </trkpt>
      <trkpt lat="45.06444" lon="2.63755">
        <ele>893.2</ele>
        <time>2015-06-07T15:42:15Z</time>
      </trkpt>
      <trkpt lat="45.06454" lon="2.63769">
        <ele>894.16</ele>
        <time>2015-06-07T15:42:28Z</time>
      </trkpt>
      <trkpt lat="45.0646" lon="2.63783">
        <ele>894.16</ele>
        <time>2015-06-07T15:42:41Z</time>
      </trkpt>
      <trkpt lat="45.06465" lon="2.63808">
        <ele>891.76</ele>
        <time>2015-06-07T15:42:56Z</time>
      </trkpt>
      <trkpt lat="45.06468" lon="2.63829">
        <ele>888.88</ele>
        <time>2015-06-07T15:43:11Z</time>
      </trkpt>
      <trkpt lat="45.06471" lon="2.63854">
        <ele>888.4</ele>
        <time>2015-06-07T15:43:22Z</time>
      </trkpt>
      <trkpt lat="45.0647" lon="2.63863">
        <ele>891.28</ele>
        <time>2015-06-07T15:43:27Z</time>
      </trkpt>
      <trkpt lat="45.06469" lon="2.63871">
        <ele>892.72</ele>
        <time>2015-06-07T15:43:31Z</time>
      </trkpt>
      <trkpt lat="45.06468" lon="2.63876">
        <ele>893.2</ele>
        <time>2015-06-07T15:43:34Z</time>
      </trkpt>
      <trkpt lat="45.06467" lon="2.6388">
        <ele>893.68</ele>
        <time>2015-06-07T15:43:36Z</time>
      </trkpt>
      <trkpt lat="45.06465" lon="2.63892">
        <ele>893.2</ele>
        <time>2015-06-07T15:43:44Z</time>
      </trkpt>
      <trkpt lat="45.06465" lon="2.63901">
        <ele>895.12</ele>
        <time>2015-06-07T15:43:49Z</time>
      </trkpt>
      <trkpt lat="45.06463" lon="2.63912">
        <ele>895.61</ele>
        <time>2015-06-07T15:43:56Z</time>
      </trkpt>
      <trkpt lat="45.06461" lon="2.63934">
        <ele>896.57</ele>
        <time>2015-06-07T15:44:08Z</time>
      </trkpt>
      <trkpt lat="45.06456" lon="2.63949">
        <ele>897.05</ele>
        <time>2015-06-07T15:44:18Z</time>
      </trkpt>
      <trkpt lat="45.06456" lon="2.63953">
        <ele>897.05</ele>
        <time>2015-06-07T15:44:20Z</time>
      </trkpt>
      <trkpt lat="45.06454" lon="2.63967">
        <ele>897.05</ele>
        <time>2015-06-07T15:44:29Z</time>
      </trkpt>
      <trkpt lat="45.06449" lon="2.63986">
        <ele>898.01</ele>
        <time>2015-06-07T15:44:41Z</time>
      </trkpt>
      <trkpt lat="45.06448" lon="2.6399">
        <ele>898.01</ele>
        <time>2015-06-07T15:44:44Z</time>
      </trkpt>
      <trkpt lat="45.06447" lon="2.63994">
        <ele>898.01</ele>
        <time>2015-06-07T15:44:47Z</time>
      </trkpt>
      <trkpt lat="45.0644" lon="2.64011">
        <ele>898.49</ele>
        <time>2015-06-07T15:45:00Z</time>
      </trkpt>
      <trkpt lat="45.06439" lon="2.64015">
        <ele>899.45</ele>
        <time>2015-06-07T15:45:14Z</time>
      </trkpt>
      <trkpt lat="45.0644" lon="2.64015">
        <ele>898.97</ele>
        <time>2015-06-07T15:45:26Z</time>
      </trkpt>
      <trkpt lat="45.06447" lon="2.6401">
        <ele>898.01</ele>
        <time>2015-06-07T15:45:39Z</time>
      </trkpt>
      <trkpt lat="45.06448" lon="2.6401">
        <ele>898.49</ele>
        <time>2015-06-07T15:45:40Z</time>
      </trkpt>
      <trkpt lat="45.06459" lon="2.6401">
        <ele>901.85</ele>
        <time>2015-06-07T15:45:52Z</time>
      </trkpt>
      <trkpt lat="45.06464" lon="2.64026">
        <ele>903.78</ele>
        <time>2015-06-07T15:46:06Z</time>
      </trkpt>
      <trkpt lat="45.06465" lon="2.64031">
        <ele>906.18</ele>
        <time>2015-06-07T15:46:11Z</time>
      </trkpt>
      <trkpt lat="45.06466" lon="2.64037">
        <ele>908.1</ele>
        <time>2015-06-07T15:46:15Z</time>
      </trkpt>
      <trkpt lat="45.06467" lon="2.64042">
        <ele>908.58</ele>
        <time>2015-06-07T15:46:20Z</time>
      </trkpt>
      <trkpt lat="45.06467" lon="2.64046">
        <ele>909.06</ele>
        <time>2015-06-07T15:46:23Z</time>
      </trkpt>
      <trkpt lat="45.06469" lon="2.64053">
        <ele>910.51</ele>
        <time>2015-06-07T15:46:29Z</time>
      </trkpt>
      <trkpt lat="45.06471" lon="2.64055">
        <ele>910.51</ele>
        <time>2015-06-07T15:46:31Z</time>
      </trkpt>
      <trkpt lat="45.06473" lon="2.64062">
        <ele>911.47</ele>
        <time>2015-06-07T15:46:37Z</time>
      </trkpt>
      <trkpt lat="45.06473" lon="2.64077">
        <ele>913.39</ele>
        <time>2015-06-07T15:46:50Z</time>
      </trkpt>
      <trkpt lat="45.06474" lon="2.64081">
        <ele>913.39</ele>
        <time>2015-06-07T15:47:04Z</time>
      </trkpt>
      <trkpt lat="45.06473" lon="2.64081">
        <ele>912.91</ele>
        <time>2015-06-07T15:47:27Z</time>
      </trkpt>
      <trkpt lat="45.06474" lon="2.64081">
        <ele>914.35</ele>
        <time>2015-06-07T15:47:45Z</time>
      </trkpt>
      <trkpt lat="45.06474" lon="2.64082">
        <ele>914.83</ele>
        <time>2015-06-07T15:48:03Z</time>
      </trkpt>
      <trkpt lat="45.06472" lon="2.64081">
        <ele>914.35</ele>
        <time>2015-06-07T15:48:18Z</time>
      </trkpt>
      <trkpt lat="45.06473" lon="2.64081">
        <ele>913.87</ele>
        <time>2015-06-07T15:48:42Z</time>
      </trkpt>
      <trkpt lat="45.06473" lon="2.6408">
        <ele>912.91</ele>
        <time>2015-06-07T15:49:03Z</time>
      </trkpt>
      <trkpt lat="45.06472" lon="2.6408">
        <ele>913.39</ele>
        <time>2015-06-07T15:49:22Z</time>
      </trkpt>
      <trkpt lat="45.06473" lon="2.6408">
        <ele>913.39</ele>
        <time>2015-06-07T15:49:47Z</time>
      </trkpt>
      <trkpt lat="45.06472" lon="2.6408">
        <ele>913.87</ele>
        <time>2015-06-07T15:50:07Z</time>
      </trkpt>
      <trkpt lat="45.06473" lon="2.6408">
        <ele>913.87</ele>
        <time>2015-06-07T15:50:30Z</time>
      </trkpt>
      <trkpt lat="45.06473" lon="2.64081">
        <ele>913.87</ele>
        <time>2015-06-07T15:50:44Z</time>
      </trkpt>
      <trkpt lat="45.06474" lon="2.64089">
        <ele>913.87</ele>
        <time>2015-06-07T15:51:04Z</time>
      </trkpt>
      <trkpt lat="45.06479" lon="2.64109">
        <ele>914.35</ele>
        <time>2015-06-07T15:51:17Z</time>
      </trkpt>
      <trkpt lat="45.06479" lon="2.64111">
        <ele>914.83</ele>
        <time>2015-06-07T15:51:18Z</time>
      </trkpt>
      <trkpt lat="45.06486" lon="2.64127">
        <ele>917.24</ele>
        <time>2015-06-07T15:51:30Z</time>
      </trkpt>
      <trkpt lat="45.06492" lon="2.64138">
        <ele>918.68</ele>
        <time>2015-06-07T15:51:39Z</time>
      </trkpt>
      <trkpt lat="45.06505" lon="2.64145">
        <ele>919.16</ele>
        <time>2015-06-07T15:51:52Z</time>
      </trkpt>
      <trkpt lat="45.06517" lon="2.64142">
        <ele>922.04</ele>
        <time>2015-06-07T15:52:04Z</time>
      </trkpt>
      <trkpt lat="45.06527" lon="2.64138">
        <ele>922.52</ele>
        <time>2015-06-07T15:52:13Z</time>
      </trkpt>
      <trkpt lat="45.06544" lon="2.64133">
        <ele>922.52</ele>
        <time>2015-06-07T15:52:28Z</time>
      </trkpt>
      <trkpt lat="45.06557" lon="2.6413">
        <ele>923.48</ele>
        <time>2015-06-07T15:52:40Z</time>
      </trkpt>
      <trkpt lat="45.06567" lon="2.64134">
        <ele>924.45</ele>
        <time>2015-06-07T15:52:51Z</time>
      </trkpt>
      <trkpt lat="45.06579" lon="2.64143">
        <ele>924.93</ele>
        <time>2015-06-07T15:53:03Z</time>
      </trkpt>
      <trkpt lat="45.06584" lon="2.64153">
        <ele>925.41</ele>
        <time>2015-06-07T15:53:12Z</time>
      </trkpt>
      <trkpt lat="45.06588" lon="2.64169">
        <ele>927.81</ele>
        <time>2015-06-07T15:53:24Z</time>
      </trkpt>
      <trkpt lat="45.0659" lon="2.64189">
        <ele>928.77</ele>
        <time>2015-06-07T15:53:36Z</time>
      </trkpt>
      <trkpt lat="45.06591" lon="2.64194">
        <ele>929.25</ele>
        <time>2015-06-07T15:53:39Z</time>
      </trkpt>
      <trkpt lat="45.06589" lon="2.64216">
        <ele>930.21</ele>
        <time>2015-06-07T15:53:53Z</time>
      </trkpt>
      <trkpt lat="45.06586" lon="2.64231">
        <ele>931.17</ele>
        <time>2015-06-07T15:54:03Z</time>
      </trkpt>
      <trkpt lat="45.06588" lon="2.64245">
        <ele>933.58</ele>
        <time>2015-06-07T15:54:12Z</time>
      </trkpt>
      <trkpt lat="45.06589" lon="2.64264">
        <ele>935.5</ele>
        <time>2015-06-07T15:54:25Z</time>
      </trkpt>
      <trkpt lat="45.0659" lon="2.64267">
        <ele>935.98</ele>
        <time>2015-06-07T15:54:27Z</time>
      </trkpt>
      <trkpt lat="45.06591" lon="2.64272">
        <ele>936.46</ele>
        <time>2015-06-07T15:54:30Z</time>
      </trkpt>
      <trkpt lat="45.0659" lon="2.64275">
        <ele>936.94</ele>
        <time>2015-06-07T15:54:32Z</time>
      </trkpt>
      <trkpt lat="45.0659" lon="2.64279">
        <ele>936.94</ele>
        <time>2015-06-07T15:54:35Z</time>
      </trkpt>
      <trkpt lat="45.06596" lon="2.64301">
        <ele>935.98</ele>
        <time>2015-06-07T15:54:48Z</time>
      </trkpt>
      <trkpt lat="45.06603" lon="2.64321">
        <ele>933.1</ele>
        <time>2015-06-07T15:55:01Z</time>
      </trkpt>
      <trkpt lat="45.06611" lon="2.64341">
        <ele>933.1</ele>
        <time>2015-06-07T15:55:15Z</time>
      </trkpt>
      <trkpt lat="45.06618" lon="2.64355">
        <ele>930.69</ele>
        <time>2015-06-07T15:55:27Z</time>
      </trkpt>
      <trkpt lat="45.06628" lon="2.64367">
        <ele>931.65</ele>
        <time>2015-06-07T15:55:38Z</time>
      </trkpt>
      <trkpt lat="45.06637" lon="2.64375">
        <ele>933.58</ele>
        <time>2015-06-07T15:55:48Z</time>
      </trkpt>
      <trkpt lat="45.06649" lon="2.6438">
        <ele>936.46</ele>
        <time>2015-06-07T15:55:59Z</time>
      </trkpt>
      <trkpt lat="45.06656" lon="2.64394">
        <ele>934.54</ele>
        <time>2015-06-07T15:56:11Z</time>
      </trkpt>
      <trkpt lat="45.0666" lon="2.6441">
        <ele>933.1</ele>
        <time>2015-06-07T15:56:23Z</time>
      </trkpt>
      <trkpt lat="45.06664" lon="2.64431">
        <ele>931.65</ele>
        <time>2015-06-07T15:56:37Z</time>
      </trkpt>
      <trkpt lat="45.06672" lon="2.64448">
        <ele>930.21</ele>
        <time>2015-06-07T15:56:49Z</time>
      </trkpt>
      <trkpt lat="45.06683" lon="2.64469">
        <ele>930.21</ele>
        <time>2015-06-07T15:57:03Z</time>
      </trkpt>
      <trkpt lat="45.06687" lon="2.64484">
        <ele>935.02</ele>
        <time>2015-06-07T15:57:15Z</time>
      </trkpt>
      <trkpt lat="45.06688" lon="2.64487">
        <ele>936.46</ele>
        <time>2015-06-07T15:57:17Z</time>
      </trkpt>
      <trkpt lat="45.06688" lon="2.64501">
        <ele>942.23</ele>
        <time>2015-06-07T15:57:28Z</time>
      </trkpt>
      <trkpt lat="45.0669" lon="2.64516">
        <ele>943.19</ele>
        <time>2015-06-07T15:57:39Z</time>
      </trkpt>
      <trkpt lat="45.06695" lon="2.64528">
        <ele>947.52</ele>
        <time>2015-06-07T15:57:50Z</time>
      </trkpt>
      <trkpt lat="45.06695" lon="2.64532">
        <ele>948.48</ele>
        <time>2015-06-07T15:57:54Z</time>
      </trkpt>
      <trkpt lat="45.06696" lon="2.64543">
        <ele>949.44</ele>
        <time>2015-06-07T15:58:03Z</time>
      </trkpt>
      <trkpt lat="45.06694" lon="2.64552">
        <ele>948.48</ele>
        <time>2015-06-07T15:58:09Z</time>
      </trkpt>
      <trkpt lat="45.06695" lon="2.64557">
        <ele>948</ele>
        <time>2015-06-07T15:58:12Z</time>
      </trkpt>
      <trkpt lat="45.06703" lon="2.64583">
        <ele>945.11</ele>
        <time>2015-06-07T15:58:29Z</time>
      </trkpt>
      <trkpt lat="45.06705" lon="2.64594">
        <ele>942.71</ele>
        <time>2015-06-07T15:58:37Z</time>
      </trkpt>
      <trkpt lat="45.06709" lon="2.6461">
        <ele>940.79</ele>
        <time>2015-06-07T15:58:46Z</time>
      </trkpt>
      <trkpt lat="45.06715" lon="2.64627">
        <ele>937.9</ele>
        <time>2015-06-07T15:59:00Z</time>
      </trkpt>
      <trkpt lat="45.06717" lon="2.64636">
        <ele>936.94</ele>
        <time>2015-06-07T15:59:06Z</time>
      </trkpt>
      <trkpt lat="45.06721" lon="2.64655">
        <ele>937.42</ele>
        <time>2015-06-07T15:59:18Z</time>
      </trkpt>
      <trkpt lat="45.06726" lon="2.64669">
        <ele>938.86</ele>
        <time>2015-06-07T15:59:28Z</time>
      </trkpt>
      <trkpt lat="45.06728" lon="2.64676">
        <ele>937.9</ele>
        <time>2015-06-07T15:59:33Z</time>
      </trkpt>
      <trkpt lat="45.06734" lon="2.6469">
        <ele>937.9</ele>
        <time>2015-06-07T15:59:43Z</time>
      </trkpt>
      <trkpt lat="45.06735" lon="2.64696">
        <ele>938.38</ele>
        <time>2015-06-07T15:59:47Z</time>
      </trkpt>
      <trkpt lat="45.06742" lon="2.6471">
        <ele>938.86</ele>
        <time>2015-06-07T15:59:57Z</time>
      </trkpt>
      <trkpt lat="45.06745" lon="2.64731">
        <ele>937.9</ele>
        <time>2015-06-07T16:00:11Z</time>
      </trkpt>
      <trkpt lat="45.06747" lon="2.64747">
        <ele>938.38</ele>
        <time>2015-06-07T16:00:22Z</time>
      </trkpt>
      <trkpt lat="45.0675" lon="2.64753">
        <ele>937.42</ele>
        <time>2015-06-07T16:00:30Z</time>
      </trkpt>
      <trkpt lat="45.0675" lon="2.64756">
        <ele>937.42</ele>
        <time>2015-06-07T16:00:33Z</time>
      </trkpt>
      <trkpt lat="45.06751" lon="2.64769">
        <ele>935.02</ele>
        <time>2015-06-07T16:00:47Z</time>
      </trkpt>
      <trkpt lat="45.06755" lon="2.64788">
        <ele>932.14</ele>
        <time>2015-06-07T16:01:01Z</time>
      </trkpt>
      <trkpt lat="45.06756" lon="2.64804">
        <ele>928.77</ele>
        <time>2015-06-07T16:01:13Z</time>
      </trkpt>
      <trkpt lat="45.0676" lon="2.6482">
        <ele>926.37</ele>
        <time>2015-06-07T16:01:23Z</time>
      </trkpt>
      <trkpt lat="45.06763" lon="2.64837">
        <ele>924.93</ele>
        <time>2015-06-07T16:01:35Z</time>
      </trkpt>
      <trkpt lat="45.06763" lon="2.6485">
        <ele>925.41</ele>
        <time>2015-06-07T16:01:44Z</time>
      </trkpt>
      <trkpt lat="45.06762" lon="2.64856">
        <ele>925.41</ele>
        <time>2015-06-07T16:01:48Z</time>
      </trkpt>
      <trkpt lat="45.06763" lon="2.64878">
        <ele>925.89</ele>
        <time>2015-06-07T16:02:00Z</time>
      </trkpt>
      <trkpt lat="45.06761" lon="2.64894">
        <ele>925.41</ele>
        <time>2015-06-07T16:02:10Z</time>
      </trkpt>
      <trkpt lat="45.0676" lon="2.64895">
        <ele>925.41</ele>
        <time>2015-06-07T16:02:11Z</time>
      </trkpt>
      <trkpt lat="45.0676" lon="2.649">
        <ele>925.41</ele>
        <time>2015-06-07T16:02:14Z</time>
      </trkpt>
      <trkpt lat="45.0676" lon="2.64906">
        <ele>925.89</ele>
        <time>2015-06-07T16:02:18Z</time>
      </trkpt>
      <trkpt lat="45.0676" lon="2.6491">
        <ele>926.37</ele>
        <time>2015-06-07T16:02:21Z</time>
      </trkpt>
      <trkpt lat="45.06761" lon="2.64915">
        <ele>926.85</ele>
        <time>2015-06-07T16:02:24Z</time>
      </trkpt>
      <trkpt lat="45.06764" lon="2.64932">
        <ele>926.37</ele>
        <time>2015-06-07T16:02:36Z</time>
      </trkpt>
      <trkpt lat="45.06766" lon="2.64941">
        <ele>924.93</ele>
        <time>2015-06-07T16:02:43Z</time>
      </trkpt>
      <trkpt lat="45.06767" lon="2.64943">
        <ele>924.93</ele>
        <time>2015-06-07T16:02:45Z</time>
      </trkpt>
      <trkpt lat="45.06771" lon="2.64954">
        <ele>923.48</ele>
        <time>2015-06-07T16:02:54Z</time>
      </trkpt>
      <trkpt lat="45.06773" lon="2.6496">
        <ele>924.45</ele>
        <time>2015-06-07T16:02:59Z</time>
      </trkpt>
      <trkpt lat="45.06779" lon="2.64969">
        <ele>926.85</ele>
        <time>2015-06-07T16:03:09Z</time>
      </trkpt>
      <trkpt lat="45.0678" lon="2.64974">
        <ele>926.85</ele>
        <time>2015-06-07T16:03:12Z</time>
      </trkpt>
      <trkpt lat="45.06783" lon="2.64992">
        <ele>927.33</ele>
        <time>2015-06-07T16:03:24Z</time>
      </trkpt>
      <trkpt lat="45.06788" lon="2.65008">
        <ele>925.41</ele>
        <time>2015-06-07T16:03:36Z</time>
      </trkpt>
      <trkpt lat="45.06793" lon="2.65022">
        <ele>924.45</ele>
        <time>2015-06-07T16:03:47Z</time>
      </trkpt>
      <trkpt lat="45.06799" lon="2.65033">
        <ele>925.41</ele>
        <time>2015-06-07T16:03:56Z</time>
      </trkpt>
      <trkpt lat="45.06805" lon="2.65048">
        <ele>928.29</ele>
        <time>2015-06-07T16:04:07Z</time>
      </trkpt>
      <trkpt lat="45.06808" lon="2.65054">
        <ele>928.77</ele>
        <time>2015-06-07T16:04:11Z</time>
      </trkpt>
      <trkpt lat="45.06811" lon="2.65069">
        <ele>929.73</ele>
        <time>2015-06-07T16:04:26Z</time>
      </trkpt>
      <trkpt lat="45.06815" lon="2.65075">
        <ele>929.25</ele>
        <time>2015-06-07T16:04:33Z</time>
      </trkpt>
      <trkpt lat="45.06821" lon="2.65081">
        <ele>930.21</ele>
        <time>2015-06-07T16:04:38Z</time>
      </trkpt>
      <trkpt lat="45.0683" lon="2.65095">
        <ele>934.54</ele>
        <time>2015-06-07T16:04:49Z</time>
      </trkpt>
      <trkpt lat="45.06837" lon="2.6511">
        <ele>935.98</ele>
        <time>2015-06-07T16:05:01Z</time>
      </trkpt>
      <trkpt lat="45.06838" lon="2.65114">
        <ele>936.94</ele>
        <time>2015-06-07T16:05:04Z</time>
      </trkpt>
      <trkpt lat="45.06839" lon="2.65127">
        <ele>939.35</ele>
        <time>2015-06-07T16:05:13Z</time>
      </trkpt>
      <trkpt lat="45.0684" lon="2.6513">
        <ele>939.83</ele>
        <time>2015-06-07T16:05:15Z</time>
      </trkpt>
      <trkpt lat="45.0684" lon="2.6515">
        <ele>938.86</ele>
        <time>2015-06-07T16:05:27Z</time>
      </trkpt>
      <trkpt lat="45.06841" lon="2.65156">
        <ele>938.38</ele>
        <time>2015-06-07T16:05:31Z</time>
      </trkpt>
      <trkpt lat="45.06843" lon="2.6517">
        <ele>941.27</ele>
        <time>2015-06-07T16:05:40Z</time>
      </trkpt>
      <trkpt lat="45.06843" lon="2.6518">
        <ele>943.19</ele>
        <time>2015-06-07T16:05:46Z</time>
      </trkpt>
      <trkpt lat="45.06843" lon="2.6519">
        <ele>943.19</ele>
        <time>2015-06-07T16:05:52Z</time>
      </trkpt>
      <trkpt lat="45.06844" lon="2.65193">
        <ele>943.67</ele>
        <time>2015-06-07T16:05:54Z</time>
      </trkpt>
      <trkpt lat="45.06846" lon="2.65211">
        <ele>946.07</ele>
        <time>2015-06-07T16:06:06Z</time>
      </trkpt>
      <trkpt lat="45.06849" lon="2.65227">
        <ele>949.44</ele>
        <time>2015-06-07T16:06:18Z</time>
      </trkpt>
      <trkpt lat="45.06848" lon="2.65247">
        <ele>950.88</ele>
        <time>2015-06-07T16:06:31Z</time>
      </trkpt>
      <trkpt lat="45.06848" lon="2.65254">
        <ele>950.88</ele>
        <time>2015-06-07T16:06:35Z</time>
      </trkpt>
      <trkpt lat="45.06846" lon="2.65272">
        <ele>949.44</ele>
        <time>2015-06-07T16:06:49Z</time>
      </trkpt>
      <trkpt lat="45.06848" lon="2.65293">
        <ele>947.04</ele>
        <time>2015-06-07T16:07:03Z</time>
      </trkpt>
      <trkpt lat="45.06849" lon="2.65308">
        <ele>943.19</ele>
        <time>2015-06-07T16:07:14Z</time>
      </trkpt>
      <trkpt lat="45.06851" lon="2.65326">
        <ele>941.75</ele>
        <time>2015-06-07T16:07:28Z</time>
      </trkpt>
      <trkpt lat="45.06854" lon="2.65344">
        <ele>939.83</ele>
        <time>2015-06-07T16:07:41Z</time>
      </trkpt>
      <trkpt lat="45.06861" lon="2.65361">
        <ele>937.9</ele>
        <time>2015-06-07T16:07:51Z</time>
      </trkpt>
      <trkpt lat="45.06866" lon="2.65377">
        <ele>941.75</ele>
        <time>2015-06-07T16:08:01Z</time>
      </trkpt>
      <trkpt lat="45.06867" lon="2.65381">
        <ele>942.23</ele>
        <time>2015-06-07T16:08:04Z</time>
      </trkpt>
      <trkpt lat="45.06873" lon="2.65397">
        <ele>947.04</ele>
        <time>2015-06-07T16:08:16Z</time>
      </trkpt>
      <trkpt lat="45.06879" lon="2.6541">
        <ele>950.4</ele>
        <time>2015-06-07T16:08:27Z</time>
      </trkpt>
      <trkpt lat="45.0688" lon="2.65414">
        <ele>951.84</ele>
        <time>2015-06-07T16:08:31Z</time>
      </trkpt>
      <trkpt lat="45.06887" lon="2.65426">
        <ele>952.32</ele>
        <time>2015-06-07T16:08:42Z</time>
      </trkpt>
      <trkpt lat="45.06894" lon="2.65439">
        <ele>950.88</ele>
        <time>2015-06-07T16:08:52Z</time>
      </trkpt>
      <trkpt lat="45.06899" lon="2.65449">
        <ele>950.4</ele>
        <time>2015-06-07T16:09:02Z</time>
      </trkpt>
      <trkpt lat="45.06901" lon="2.65456">
        <ele>949.44</ele>
        <time>2015-06-07T16:09:07Z</time>
      </trkpt>
      <trkpt lat="45.06906" lon="2.65465">
        <ele>948.96</ele>
        <time>2015-06-07T16:09:15Z</time>
      </trkpt>
      <trkpt lat="45.06911" lon="2.65474">
        <ele>949.92</ele>
        <time>2015-06-07T16:09:22Z</time>
      </trkpt>
      <trkpt lat="45.06912" lon="2.65478">
        <ele>950.4</ele>
        <time>2015-06-07T16:09:24Z</time>
      </trkpt>
      <trkpt lat="45.06915" lon="2.65484">
        <ele>949.44</ele>
        <time>2015-06-07T16:09:31Z</time>
      </trkpt>
      <trkpt lat="45.0692" lon="2.65492">
        <ele>948.96</ele>
        <time>2015-06-07T16:09:38Z</time>
      </trkpt>
      <trkpt lat="45.06924" lon="2.65499">
        <ele>947.52</ele>
        <time>2015-06-07T16:09:46Z</time>
      </trkpt>
      <trkpt lat="45.06934" lon="2.65514">
        <ele>947.52</ele>
        <time>2015-06-07T16:10:01Z</time>
      </trkpt>
      <trkpt lat="45.06949" lon="2.65523">
        <ele>947.52</ele>
        <time>2015-06-07T16:10:22Z</time>
      </trkpt>
      <trkpt lat="45.06969" lon="2.65538">
        <ele>946.56</ele>
        <time>2015-06-07T16:10:37Z</time>
      </trkpt>
      <trkpt lat="45.06983" lon="2.65551">
        <ele>940.79</ele>
        <time>2015-06-07T16:10:50Z</time>
      </trkpt>
      <trkpt lat="45.06992" lon="2.65559">
        <ele>941.27</ele>
        <time>2015-06-07T16:11:01Z</time>
      </trkpt>
      <trkpt lat="45.06994" lon="2.65561">
        <ele>942.23</ele>
        <time>2015-06-07T16:11:16Z</time>
      </trkpt>
      <trkpt lat="45.06995" lon="2.65564">
        <ele>942.71</ele>
        <time>2015-06-07T16:11:31Z</time>
      </trkpt>
      <trkpt lat="45.07004" lon="2.65573">
        <ele>942.71</ele>
        <time>2015-06-07T16:11:44Z</time>
      </trkpt>
      <trkpt lat="45.0701" lon="2.6559">
        <ele>945.11</ele>
        <time>2015-06-07T16:11:58Z</time>
      </trkpt>
      <trkpt lat="45.07011" lon="2.65594">
        <ele>945.59</ele>
        <time>2015-06-07T16:12:02Z</time>
      </trkpt>
      <trkpt lat="45.07013" lon="2.65599">
        <ele>945.11</ele>
        <time>2015-06-07T16:12:07Z</time>
      </trkpt>
      <trkpt lat="45.07021" lon="2.65615">
        <ele>943.19</ele>
        <time>2015-06-07T16:12:22Z</time>
      </trkpt>
      <trkpt lat="45.07024" lon="2.6562">
        <ele>943.67</ele>
        <time>2015-06-07T16:12:26Z</time>
      </trkpt>
      <trkpt lat="45.07033" lon="2.65626">
        <ele>943.67</ele>
        <time>2015-06-07T16:12:36Z</time>
      </trkpt>
      <trkpt lat="45.0704" lon="2.65637">
        <ele>941.27</ele>
        <time>2015-06-07T16:12:48Z</time>
      </trkpt>
      <trkpt lat="45.07041" lon="2.65639">
        <ele>940.79</ele>
        <time>2015-06-07T16:12:50Z</time>
      </trkpt>
      <trkpt lat="45.07036" lon="2.65664">
        <ele>935.02</ele>
        <time>2015-06-07T16:13:06Z</time>
      </trkpt>
      <trkpt lat="45.07032" lon="2.6567">
        <ele>933.1</ele>
        <time>2015-06-07T16:13:13Z</time>
      </trkpt>
      <trkpt lat="45.0702" lon="2.65679">
        <ele>931.65</ele>
        <time>2015-06-07T16:13:24Z</time>
      </trkpt>
      <trkpt lat="45.07018" lon="2.65681">
        <ele>931.65</ele>
        <time>2015-06-07T16:13:26Z</time>
      </trkpt>
      <trkpt lat="45.07016" lon="2.65682">
        <ele>931.65</ele>
        <time>2015-06-07T16:13:28Z</time>
      </trkpt>
      <trkpt lat="45.07005" lon="2.65694">
        <ele>930.21</ele>
        <time>2015-06-07T16:13:42Z</time>
      </trkpt>
      <trkpt lat="45.06996" lon="2.65707">
        <ele>930.69</ele>
        <time>2015-06-07T16:13:55Z</time>
      </trkpt>
      <trkpt lat="45.06999" lon="2.65713">
        <ele>931.65</ele>
        <time>2015-06-07T16:13:59Z</time>
      </trkpt>
      <trkpt lat="45.07001" lon="2.65715">
        <ele>932.62</ele>
        <time>2015-06-07T16:14:01Z</time>
      </trkpt>
      <trkpt lat="45.07002" lon="2.6573">
        <ele>934.06</ele>
        <time>2015-06-07T16:14:12Z</time>
      </trkpt>
      <trkpt lat="45.07002" lon="2.6573">
        <ele>934.54</ele>
        <time>2015-06-07T16:14:13Z</time>
      </trkpt>
      <trkpt lat="45.07012" lon="2.65736">
        <ele>935.02</ele>
        <time>2015-06-07T16:14:23Z</time>
      </trkpt>
      <trkpt lat="45.07021" lon="2.65748">
        <ele>935.98</ele>
        <time>2015-06-07T16:14:36Z</time>
      </trkpt>
      <trkpt lat="45.07022" lon="2.65748">
        <ele>934.54</ele>
        <time>2015-06-07T16:14:46Z</time>
      </trkpt>
      <trkpt lat="45.07028" lon="2.65762">
        <ele>936.46</ele>
        <time>2015-06-07T16:14:58Z</time>
      </trkpt>
      <trkpt lat="45.07033" lon="2.65774">
        <ele>937.42</ele>
        <time>2015-06-07T16:15:08Z</time>
      </trkpt>
      <trkpt lat="45.07034" lon="2.65776">
        <ele>937.42</ele>
        <time>2015-06-07T16:15:10Z</time>
      </trkpt>
      <trkpt lat="45.07039" lon="2.65777">
        <ele>936.46</ele>
        <time>2015-06-07T16:15:22Z</time>
      </trkpt>
      <trkpt lat="45.0704" lon="2.65777">
        <ele>936.46</ele>
        <time>2015-06-07T16:15:40Z</time>
      </trkpt>
      <trkpt lat="45.07038" lon="2.65787">
        <ele>935.98</ele>
        <time>2015-06-07T16:15:49Z</time>
      </trkpt>
      <trkpt lat="45.07036" lon="2.65787">
        <ele>935.98</ele>
        <time>2015-06-07T16:15:52Z</time>
      </trkpt>
      <trkpt lat="45.07026" lon="2.65774">
        <ele>935.98</ele>
        <time>2015-06-07T16:16:05Z</time>
      </trkpt>
      <trkpt lat="45.07021" lon="2.65764">
        <ele>933.58</ele>
        <time>2015-06-07T16:16:20Z</time>
      </trkpt>
      <trkpt lat="45.07021" lon="2.65761">
        <ele>932.62</ele>
        <time>2015-06-07T16:16:34Z</time>
      </trkpt>
      <trkpt lat="45.07021" lon="2.6576">
        <ele>932.62</ele>
        <time>2015-06-07T16:16:35Z</time>
      </trkpt>
      <trkpt lat="45.0702" lon="2.6576">
        <ele>932.62</ele>
        <time>2015-06-07T16:16:37Z</time>
      </trkpt>
      <trkpt lat="45.07006" lon="2.65749">
        <ele>930.69</ele>
        <time>2015-06-07T16:16:50Z</time>
      </trkpt>
      <trkpt lat="45.06999" lon="2.65744">
        <ele>930.21</ele>
        <time>2015-06-07T16:16:57Z</time>
      </trkpt>
      <trkpt lat="45.06997" lon="2.6574">
        <ele>929.25</ele>
        <time>2015-06-07T16:17:12Z</time>
      </trkpt>
      <trkpt lat="45.06997" lon="2.6574">
        <ele>929.73</ele>
        <time>2015-06-07T16:17:14Z</time>
      </trkpt>
      <trkpt lat="45.06993" lon="2.6574">
        <ele>928.77</ele>
        <time>2015-06-07T16:17:18Z</time>
      </trkpt>
      <trkpt lat="45.06983" lon="2.65746">
        <ele>928.77</ele>
        <time>2015-06-07T16:17:30Z</time>
      </trkpt>
      <trkpt lat="45.06972" lon="2.65762">
        <ele>933.58</ele>
        <time>2015-06-07T16:17:46Z</time>
      </trkpt>
      <trkpt lat="45.06967" lon="2.65765">
        <ele>932.14</ele>
        <time>2015-06-07T16:17:50Z</time>
      </trkpt>
      <trkpt lat="45.06954" lon="2.6577">
        <ele>933.58</ele>
        <time>2015-06-07T16:18:03Z</time>
      </trkpt>
      <trkpt lat="45.06942" lon="2.6577">
        <ele>935.98</ele>
        <time>2015-06-07T16:18:16Z</time>
      </trkpt>
      <trkpt lat="45.06931" lon="2.65769">
        <ele>936.94</ele>
        <time>2015-06-07T16:18:24Z</time>
      </trkpt>
      <trkpt lat="45.06916" lon="2.65756">
        <ele>934.54</ele>
        <time>2015-06-07T16:18:39Z</time>
      </trkpt>
      <trkpt lat="45.06909" lon="2.65751">
        <ele>933.58</ele>
        <time>2015-06-07T16:18:50Z</time>
      </trkpt>
      <trkpt lat="45.06898" lon="2.6574">
        <ele>931.17</ele>
        <time>2015-06-07T16:19:02Z</time>
      </trkpt>
      <trkpt lat="45.06893" lon="2.65735">
        <ele>930.69</ele>
        <time>2015-06-07T16:19:07Z</time>
      </trkpt>
      <trkpt lat="45.06884" lon="2.65727">
        <ele>929.25</ele>
        <time>2015-06-07T16:19:16Z</time>
      </trkpt>
      <trkpt lat="45.06873" lon="2.65716">
        <ele>926.85</ele>
        <time>2015-06-07T16:19:29Z</time>
      </trkpt>
      <trkpt lat="45.06862" lon="2.65708">
        <ele>926.37</ele>
        <time>2015-06-07T16:19:40Z</time>
      </trkpt>
      <trkpt lat="45.06851" lon="2.65697">
        <ele>925.41</ele>
        <time>2015-06-07T16:19:54Z</time>
      </trkpt>
      <trkpt lat="45.06844" lon="2.65692">
        <ele>925.89</ele>
        <time>2015-06-07T16:20:06Z</time>
      </trkpt>
      <trkpt lat="45.0684" lon="2.65693">
        <ele>927.81</ele>
        <time>2015-06-07T16:20:11Z</time>
      </trkpt>
      <trkpt lat="45.06829" lon="2.65704">
        <ele>929.25</ele>
        <time>2015-06-07T16:20:22Z</time>
      </trkpt>
      <trkpt lat="45.06822" lon="2.65716">
        <ele>928.29</ele>
        <time>2015-06-07T16:20:36Z</time>
      </trkpt>
      <trkpt lat="45.0682" lon="2.65721">
        <ele>928.29</ele>
        <time>2015-06-07T16:20:42Z</time>
      </trkpt>
      <trkpt lat="45.06813" lon="2.65735">
        <ele>932.14</ele>
        <time>2015-06-07T16:20:56Z</time>
      </trkpt>
      <trkpt lat="45.068" lon="2.65736">
        <ele>933.1</ele>
        <time>2015-06-07T16:21:11Z</time>
      </trkpt>
      <trkpt lat="45.06799" lon="2.65737">
        <ele>935.02</ele>
        <time>2015-06-07T16:21:25Z</time>
      </trkpt>
      <trkpt lat="45.06796" lon="2.65735">
        <ele>934.54</ele>
        <time>2015-06-07T16:21:41Z</time>
      </trkpt>
      <trkpt lat="45.06795" lon="2.65727">
        <ele>933.1</ele>
        <time>2015-06-07T16:21:54Z</time>
      </trkpt>
      <trkpt lat="45.06788" lon="2.65715">
        <ele>933.58</ele>
        <time>2015-06-07T16:22:06Z</time>
      </trkpt>
      <trkpt lat="45.0678" lon="2.65706">
        <ele>934.06</ele>
        <time>2015-06-07T16:22:18Z</time>
      </trkpt>
      <trkpt lat="45.06773" lon="2.65708">
        <ele>935.02</ele>
        <time>2015-06-07T16:22:31Z</time>
      </trkpt>
      <trkpt lat="45.06774" lon="2.65711">
        <ele>935.02</ele>
        <time>2015-06-07T16:22:35Z</time>
      </trkpt>
      <trkpt lat="45.06778" lon="2.65719">
        <ele>934.54</ele>
        <time>2015-06-07T16:22:48Z</time>
      </trkpt>
      <trkpt lat="45.06781" lon="2.65719">
        <ele>936.94</ele>
        <time>2015-06-07T16:23:07Z</time>
      </trkpt>
      <trkpt lat="45.0678" lon="2.6572">
        <ele>936.94</ele>
        <time>2015-06-07T16:23:28Z</time>
      </trkpt>
      <trkpt lat="45.0678" lon="2.6572">
        <ele>936.94</ele>
        <time>2015-06-07T16:23:48Z</time>
      </trkpt>
      <trkpt lat="45.0678" lon="2.6572">
        <ele>937.42</ele>
        <time>2015-06-07T16:24:14Z</time>
      </trkpt>
      <trkpt lat="45.06779" lon="2.6572">
        <ele>936.94</ele>
        <time>2015-06-07T16:24:31Z</time>
      </trkpt>
      <trkpt lat="45.06776" lon="2.65724">
        <ele>935.98</ele>
        <time>2015-06-07T16:24:58Z</time>
      </trkpt>
      <trkpt lat="45.06778" lon="2.65721">
        <ele>935.5</ele>
        <time>2015-06-07T16:25:16Z</time>
      </trkpt>
      <trkpt lat="45.06781" lon="2.65719">
        <ele>935.02</ele>
        <time>2015-06-07T16:25:32Z</time>
      </trkpt>
      <trkpt lat="45.0678" lon="2.65719">
        <ele>935.02</ele>
        <time>2015-06-07T16:25:59Z</time>
      </trkpt>
      <trkpt lat="45.06781" lon="2.65718">
        <ele>935.02</ele>
        <time>2015-06-07T16:26:25Z</time>
      </trkpt>
      <trkpt lat="45.06781" lon="2.65718">
        <ele>935.02</ele>
        <time>2015-06-07T16:26:54Z</time>
      </trkpt>
      <trkpt lat="45.06781" lon="2.65721">
        <ele>934.54</ele>
        <time>2015-06-07T16:27:21Z</time>
      </trkpt>
      <trkpt lat="45.06781" lon="2.65723">
        <ele>934.06</ele>
        <time>2015-06-07T16:27:52Z</time>
      </trkpt>
      <trkpt lat="45.06783" lon="2.65721">
        <ele>933.58</ele>
        <time>2015-06-07T16:28:23Z</time>
      </trkpt>
      <trkpt lat="45.06783" lon="2.6572">
        <ele>934.54</ele>
        <time>2015-06-07T16:28:51Z</time>
      </trkpt>
      <trkpt lat="45.06783" lon="2.65721">
        <ele>934.06</ele>
        <time>2015-06-07T16:29:20Z</time>
      </trkpt>
      <trkpt lat="45.06783" lon="2.65722">
        <ele>934.54</ele>
        <time>2015-06-07T16:29:45Z</time>
      </trkpt>
      <trkpt lat="45.06781" lon="2.65721">
        <ele>935.5</ele>
        <time>2015-06-07T16:30:07Z</time>
      </trkpt>
      <trkpt lat="45.06779" lon="2.65721">
        <ele>936.46</ele>
        <time>2015-06-07T16:30:36Z</time>
      </trkpt>
      <trkpt lat="45.06779" lon="2.65721">
        <ele>936.94</ele>
        <time>2015-06-07T16:31:05Z</time>
      </trkpt>
      <trkpt lat="45.06777" lon="2.65721">
        <ele>937.42</ele>
        <time>2015-06-07T16:31:39Z</time>
      </trkpt>
      <trkpt lat="45.06778" lon="2.65721">
        <ele>938.38</ele>
        <time>2015-06-07T16:32:17Z</time>
      </trkpt>
      <trkpt lat="45.06778" lon="2.65722">
        <ele>938.38</ele>
        <time>2015-06-07T16:32:48Z</time>
      </trkpt>
      <trkpt lat="45.06778" lon="2.65722">
        <ele>938.38</ele>
        <time>2015-06-07T16:33:20Z</time>
      </trkpt>
      <trkpt lat="45.06779" lon="2.65721">
        <ele>938.86</ele>
        <time>2015-06-07T16:33:58Z</time>
      </trkpt>
      <trkpt lat="45.06779" lon="2.6572">
        <ele>939.83</ele>
        <time>2015-06-07T16:34:31Z</time>
      </trkpt>
      <trkpt lat="45.0678" lon="2.6572">
        <ele>940.31</ele>
        <time>2015-06-07T16:34:58Z</time>
      </trkpt>
      <trkpt lat="45.0678" lon="2.65719">
        <ele>940.79</ele>
        <time>2015-06-07T16:35:33Z</time>
      </trkpt>
      <trkpt lat="45.06779" lon="2.65719">
        <ele>941.27</ele>
        <time>2015-06-07T16:36:02Z</time>
      </trkpt>
      <trkpt lat="45.06779" lon="2.65719">
        <ele>941.75</ele>
        <time>2015-06-07T16:36:38Z</time>
      </trkpt>
      <trkpt lat="45.06779" lon="2.65719">
        <ele>942.23</ele>
        <time>2015-06-07T16:37:11Z</time>
      </trkpt>
      <trkpt lat="45.06779" lon="2.65718">
        <ele>942.23</ele>
        <time>2015-06-07T16:37:41Z</time>
      </trkpt>
      <trkpt lat="45.06779" lon="2.65719">
        <ele>942.23</ele>
        <time>2015-06-07T16:38:10Z</time>
      </trkpt>
      <trkpt lat="45.06779" lon="2.65719">
        <ele>942.23</ele>
        <time>2015-06-07T16:38:36Z</time>
      </trkpt>
      <trkpt lat="45.0678" lon="2.65718">
        <ele>941.75</ele>
        <time>2015-06-07T16:39:04Z</time>
      </trkpt>
      <trkpt lat="45.0678" lon="2.65719">
        <ele>942.23</ele>
        <time>2015-06-07T16:39:29Z</time>
      </trkpt>
      <trkpt lat="45.0678" lon="2.65719">
        <ele>942.23</ele>
        <time>2015-06-07T16:39:58Z</time>
      </trkpt>
      <trkpt lat="45.06781" lon="2.65719">
        <ele>942.23</ele>
        <time>2015-06-07T16:40:30Z</time>
      </trkpt>
      <trkpt lat="45.0677" lon="2.65722">
        <ele>940.31</ele>
        <time>2015-06-07T16:40:56Z</time>
      </trkpt>
      <trkpt lat="45.06765" lon="2.65723">
        <ele>939.35</ele>
        <time>2015-06-07T16:41:18Z</time>
      </trkpt>
      <trkpt lat="45.06772" lon="2.65718">
        <ele>939.83</ele>
        <time>2015-06-07T16:41:39Z</time>
      </trkpt>
      <trkpt lat="45.06782" lon="2.6571">
        <ele>940.79</ele>
        <time>2015-06-07T16:41:58Z</time>
      </trkpt>
      <trkpt lat="45.06783" lon="2.65712">
        <ele>942.71</ele>
        <time>2015-06-07T16:42:26Z</time>
      </trkpt>
      <trkpt lat="45.06782" lon="2.65717">
        <ele>942.23</ele>
        <time>2015-06-07T16:42:50Z</time>
      </trkpt>
      <trkpt lat="45.0678" lon="2.65719">
        <ele>943.19</ele>
        <time>2015-06-07T16:43:10Z</time>
      </trkpt>
      <trkpt lat="45.06786" lon="2.65727">
        <ele>938.86</ele>
        <time>2015-06-07T16:43:30Z</time>
      </trkpt>
      <trkpt lat="45.06786" lon="2.65727">
        <ele>936.94</ele>
        <time>2015-06-07T16:43:52Z</time>
      </trkpt>
      <trkpt lat="45.06783" lon="2.65719">
        <ele>938.86</ele>
        <time>2015-06-07T16:44:16Z</time>
      </trkpt>
      <trkpt lat="45.06775" lon="2.65717">
        <ele>941.27</ele>
        <time>2015-06-07T16:44:43Z</time>
      </trkpt>
      <trkpt lat="45.06778" lon="2.65717">
        <ele>942.23</ele>
        <time>2015-06-07T16:45:09Z</time>
      </trkpt>
      <trkpt lat="45.06783" lon="2.65717">
        <ele>945.59</ele>
        <time>2015-06-07T16:45:35Z</time>
      </trkpt>
      <trkpt lat="45.0678" lon="2.65722">
        <ele>940.79</ele>
        <time>2015-06-07T16:45:54Z</time>
      </trkpt>
      <trkpt lat="45.06778" lon="2.65724">
        <ele>936.94</ele>
        <time>2015-06-07T16:46:09Z</time>
      </trkpt>
      <trkpt lat="45.06775" lon="2.65727">
        <ele>937.42</ele>
        <time>2015-06-07T16:46:19Z</time>
      </trkpt>
      <trkpt lat="45.06775" lon="2.65728">
        <ele>936.46</ele>
        <time>2015-06-07T16:46:25Z</time>
      </trkpt>
      <trkpt lat="45.06773" lon="2.6573">
        <ele>933.1</ele>
        <time>2015-06-07T16:46:37Z</time>
      </trkpt>
      <trkpt lat="45.06772" lon="2.6573">
        <ele>931.65</ele>
        <time>2015-06-07T16:46:50Z</time>
      </trkpt>
      <trkpt lat="45.06771" lon="2.65733">
        <ele>931.17</ele>
        <time>2015-06-07T16:47:01Z</time>
      </trkpt>
      <trkpt lat="45.0677" lon="2.65736">
        <ele>931.65</ele>
        <time>2015-06-07T16:47:41Z</time>
      </trkpt>
      <trkpt lat="45.06753" lon="2.65709">
        <ele>930.21</ele>
        <time>2015-06-07T16:49:18Z</time>
      </trkpt>
      <trkpt lat="45.06779" lon="2.65737">
        <ele>932.14</ele>
        <time>2015-06-07T16:49:53Z</time>
      </trkpt>
      <trkpt lat="45.06777" lon="2.65739">
        <ele>932.62</ele>
        <time>2015-06-07T16:50:07Z</time>
      </trkpt>
      <trkpt lat="45.06775" lon="2.65739">
        <ele>930.69</ele>
        <time>2015-06-07T16:50:27Z</time>
      </trkpt>
      <trkpt lat="45.0678" lon="2.65753">
        <ele>946.56</ele>
        <time>2015-06-07T16:50:48Z</time>
      </trkpt>
      <trkpt lat="45.06789" lon="2.65754">
        <ele>960.98</ele>
        <time>2015-06-07T16:51:12Z</time>
      </trkpt>
      <trkpt lat="45.06788" lon="2.65755">
        <ele>960.49</ele>
        <time>2015-06-07T16:51:44Z</time>
      </trkpt>
      <trkpt lat="45.06789" lon="2.65753">
        <ele>960.49</ele>
        <time>2015-06-07T16:52:19Z</time>
      </trkpt>
      <trkpt lat="45.06787" lon="2.65755">
        <ele>960.49</ele>
        <time>2015-06-07T16:52:52Z</time>
      </trkpt>
      <trkpt lat="45.06787" lon="2.65754">
        <ele>960.49</ele>
        <time>2015-06-07T16:53:24Z</time>
      </trkpt>
      <trkpt lat="45.06787" lon="2.65753">
        <ele>960.01</ele>
        <time>2015-06-07T16:53:48Z</time>
      </trkpt>
      <trkpt lat="45.0679" lon="2.65749">
        <ele>958.09</ele>
        <time>2015-06-07T16:54:12Z</time>
      </trkpt>
      <trkpt lat="45.0679" lon="2.65748">
        <ele>957.13</ele>
        <time>2015-06-07T16:54:42Z</time>
      </trkpt>
      <trkpt lat="45.06788" lon="2.65749">
        <ele>955.69</ele>
        <time>2015-06-07T16:55:13Z</time>
      </trkpt>
      <trkpt lat="45.06788" lon="2.65748">
        <ele>955.69</ele>
        <time>2015-06-07T16:55:40Z</time>
      </trkpt>
      <trkpt lat="45.06788" lon="2.65748">
        <ele>955.69</ele>
        <time>2015-06-07T16:56:09Z</time>
      </trkpt>
      <trkpt lat="45.06787" lon="2.65749">
        <ele>955.69</ele>
        <time>2015-06-07T16:56:38Z</time>
      </trkpt>
      <trkpt lat="45.06784" lon="2.65752">
        <ele>955.21</ele>
        <time>2015-06-07T16:57:14Z</time>
      </trkpt>
      <trkpt lat="45.06786" lon="2.65752">
        <ele>955.69</ele>
        <time>2015-06-07T16:57:40Z</time>
      </trkpt>
      <trkpt lat="45.06785" lon="2.65755">
        <ele>956.65</ele>
        <time>2015-06-07T16:58:02Z</time>
      </trkpt>
      <trkpt lat="45.06787" lon="2.65752">
        <ele>957.13</ele>
        <time>2015-06-07T16:58:31Z</time>
      </trkpt>
      <trkpt lat="45.06786" lon="2.65753">
        <ele>957.13</ele>
        <time>2015-06-07T16:59:02Z</time>
      </trkpt>
      <trkpt lat="45.06786" lon="2.65752">
        <ele>957.61</ele>
        <time>2015-06-07T16:59:32Z</time>
      </trkpt>
      <trkpt lat="45.06786" lon="2.65752">
        <ele>957.61</ele>
        <time>2015-06-07T16:59:59Z</time>
      </trkpt>
      <trkpt lat="45.06795" lon="2.65751">
        <ele>957.13</ele>
        <time>2015-06-07T17:00:17Z</time>
      </trkpt>
      <trkpt lat="45.06794" lon="2.65745">
        <ele>955.69</ele>
        <time>2015-06-07T17:00:40Z</time>
      </trkpt>
      <trkpt lat="45.06791" lon="2.65745">
        <ele>953.28</ele>
        <time>2015-06-07T17:01:10Z</time>
      </trkpt>
    </trkseg>
  </trk>
</gpx>